<?xml version='1.0' encoding='UTF-8'?><gpx version="1.1" creator="JPX - https://github.com/jenetics/jpx" xmlns="http://www.topografix.com/GPX/1/1"><trk><trkseg><trkpt lat="43.79317190475069" lon="11.219227465887945"><ele>44.0</ele><time>2026-04-26T08:09:18.999Z</time></trkpt><trkpt lat="43.79322506483142" lon="11.219287132006986"><ele>44.0</ele><time>2026-04-26T08:10:01.999Z</time></trkpt><trkpt lat="43.79326057265504" lon="11.219432884867528"><ele>44.0</ele><time>2026-04-26T08:10:05.999Z</time></trkpt><trkpt lat="43.793226077055046" lon="11.219565250067491"><ele>44.0</ele><time>2026-04-26T08:10:08Z</time></trkpt><trkpt lat="43.79319886979829" lon="11.219644095161026"><ele>44.0</ele><time>2026-04-26T08:10:09Z</time></trkpt><trkpt lat="43.79318747367235" lon="11.219753156445003"><ele>44.0</ele><time>2026-04-26T08:10:11Z</time></trkpt><trkpt lat="43.79318161024813" lon="11.219850117835064"><ele>44.166666666666664</ele><time>2026-04-26T08:10:16Z</time></trkpt><trkpt lat="43.79316533313381" lon="11.219935456838822"><ele>44.33333333333333</ele><time>2026-04-26T08:10:33Z</time></trkpt><trkpt lat="43.793164178300486" lon="11.220061202315314"><ele>44.5</ele><time>2026-04-26T08:10:37Z</time></trkpt><trkpt lat="43.793090615617714" lon="11.22005660926512"><ele>44.666666666666664</ele><time>2026-04-26T08:10:50.999Z</time></trkpt><trkpt lat="43.79300937884897" lon="11.219963204982939"><ele>44.833333333333336</ele><time>2026-04-26T08:10:52.999Z</time></trkpt><trkpt lat="43.79294241145068" lon="11.219903702583764"><ele>45.0</ele><time>2026-04-26T08:10:54.999Z</time></trkpt><trkpt lat="43.79285480856463" lon="11.21982152471442"><ele>44.75</ele><time>2026-04-26T08:10:56.999Z</time></trkpt><trkpt lat="43.79276719819525" lon="11.219732446868028"><ele>44.5</ele><time>2026-04-26T08:10:58.999Z</time></trkpt><trkpt lat="43.792670980702844" lon="11.21965054523081"><ele>44.25</ele><time>2026-04-26T08:11:00.999Z</time></trkpt><trkpt lat="43.79256041047578" lon="11.219555585617448"><ele>44.0</ele><time>2026-04-26T08:11:02.999Z</time></trkpt><trkpt lat="43.79246555419319" lon="11.219471722146874"><ele>44.285714285714285</ele><time>2026-04-26T08:11:04.999Z</time></trkpt><trkpt lat="43.792401829058136" lon="11.219440159863371"><ele>44.57142857142857</ele><time>2026-04-26T08:11:05.999Z</time></trkpt><trkpt lat="43.79234885315866" lon="11.219368515862941"><ele>44.85714285714286</ele><time>2026-04-26T08:11:06.999Z</time></trkpt><trkpt lat="43.792291823895404" lon="11.219314771460471"><ele>45.14285714285714</ele><time>2026-04-26T08:11:07.999Z</time></trkpt><trkpt lat="43.792223025349244" lon="11.219251914745945"><ele>45.42857142857142</ele><time>2026-04-26T08:11:09.999Z</time></trkpt><trkpt lat="43.79216318096495" lon="11.219193271563483"><ele>45.714285714285715</ele><time>2026-04-26T08:11:11.999Z</time></trkpt><trkpt lat="43.79212695779231" lon="11.21911208776258"><ele>46.0</ele><time>2026-04-26T08:11:13.999Z</time></trkpt><trkpt lat="43.7921427570422" lon="11.21901721298574"><ele>45.599999999999994</ele><time>2026-04-26T08:11:15.999Z</time></trkpt><trkpt lat="43.79218102763964" lon="11.21891824914715"><ele>45.2</ele><time>2026-04-26T08:11:17.999Z</time></trkpt><trkpt lat="43.79222670666091" lon="11.218787661229435"><ele>44.8</ele><time>2026-04-26T08:11:19.999Z</time></trkpt><trkpt lat="43.79227817590505" lon="11.218644048757518"><ele>44.400000000000006</ele><time>2026-04-26T08:11:21.999Z</time></trkpt><trkpt lat="43.79231555760501" lon="11.218570872994505"><ele>44.0</ele><time>2026-04-26T08:11:22.999Z</time></trkpt><trkpt lat="43.79237199289726" lon="11.21843471381578"><ele>44.0</ele><time>2026-04-26T08:11:24.999Z</time></trkpt><trkpt lat="43.792291317169074" lon="11.218288069834932"><ele>44.0</ele><time>2026-04-26T08:11:29.999Z</time></trkpt><trkpt lat="43.79219975968595" lon="11.218214224161512"><ele>44.0</ele><time>2026-04-26T08:11:31.999Z</time></trkpt><trkpt lat="43.7921054081068" lon="11.218123072127025"><ele>44.0</ele><time>2026-04-26T08:11:33.999Z</time></trkpt><trkpt lat="43.79201389733427" lon="11.218045818195915"><ele>44.0</ele><time>2026-04-26T08:11:35.999Z</time></trkpt><trkpt lat="43.791915757999895" lon="11.217965653986083"><ele>44.0</ele><time>2026-04-26T08:11:37.999Z</time></trkpt><trkpt lat="43.79185374474937" lon="11.217913557600683"><ele>44.0</ele><time>2026-04-26T08:11:39.999Z</time></trkpt><trkpt lat="43.79178054527191" lon="11.217868091415275"><ele>44.0</ele><time>2026-04-26T08:12:13Z</time></trkpt><trkpt lat="43.79165585149557" lon="11.21800961488525"><ele>44.0</ele><time>2026-04-26T08:12:16Z</time></trkpt><trkpt lat="43.7916250837654" lon="11.218098537157148"><ele>43.83333333333333</ele><time>2026-04-26T08:12:17Z</time></trkpt><trkpt lat="43.79160183325346" lon="11.218188436383636"><ele>43.666666666666664</ele><time>2026-04-26T08:12:18Z</time></trkpt><trkpt lat="43.791559432690796" lon="11.218353474964283"><ele>43.5</ele><time>2026-04-26T08:12:20Z</time></trkpt><trkpt lat="43.791530661381536" lon="11.218454488073355"><ele>43.333333333333336</ele><time>2026-04-26T08:12:21Z</time></trkpt><trkpt lat="43.791499022496836" lon="11.218562664048614"><ele>43.16666666666667</ele><time>2026-04-26T08:12:22Z</time></trkpt><trkpt lat="43.79146724117709" lon="11.218670172459545"><ele>43.0</ele><time>2026-04-26T08:12:23Z</time></trkpt><trkpt lat="43.791435293943366" lon="11.218777414223188"><ele>43.0</ele><time>2026-04-26T08:12:24Z</time></trkpt><trkpt lat="43.7914020490617" lon="11.218883424334383"><ele>43.0</ele><time>2026-04-26T08:12:25Z</time></trkpt><trkpt lat="43.79136655438578" lon="11.218980665627454"><ele>43.0</ele><time>2026-04-26T08:12:26Z</time></trkpt><trkpt lat="43.791333159440526" lon="11.21907594980919"><ele>43.0</ele><time>2026-04-26T08:12:27Z</time></trkpt><trkpt lat="43.791302780192034" lon="11.219179479849235"><ele>43.0</ele><time>2026-04-26T08:12:28Z</time></trkpt><trkpt lat="43.79127303908317" lon="11.219286239448197"><ele>43.0</ele><time>2026-04-26T08:12:29Z</time></trkpt><trkpt lat="43.79124175724025" lon="11.219391498088465"><ele>43.333333333333336</ele><time>2026-04-26T08:12:30Z</time></trkpt><trkpt lat="43.79120888955844" lon="11.219488147226814"><ele>43.66666666666667</ele><time>2026-04-26T08:12:31Z</time></trkpt><trkpt lat="43.79117754409246" lon="11.219591008742595"><ele>44.0</ele><time>2026-04-26T08:12:32Z</time></trkpt><trkpt lat="43.79115057259078" lon="11.2196954131691"><ele>44.333333333333336</ele><time>2026-04-26T08:12:33Z</time></trkpt><trkpt lat="43.79111791143029" lon="11.219810195536885"><ele>44.666666666666664</ele><time>2026-04-26T08:12:34Z</time></trkpt><trkpt lat="43.791081669344024" lon="11.219928990586212"><ele>45.0</ele><time>2026-04-26T08:12:35Z</time></trkpt><trkpt lat="43.79104463938761" lon="11.220053283395472"><ele>45.2</ele><time>2026-04-26T08:12:36Z</time></trkpt><trkpt lat="43.791009919603155" lon="11.220168910222919"><ele>45.4</ele><time>2026-04-26T08:12:37Z</time></trkpt><trkpt lat="43.79097573234258" lon="11.220291210688883"><ele>45.599999999999994</ele><time>2026-04-26T08:12:38Z</time></trkpt><trkpt lat="43.79093920130116" lon="11.220409165594592"><ele>45.8</ele><time>2026-04-26T08:12:39Z</time></trkpt><trkpt lat="43.79090240966167" lon="11.220526696786427"><ele>46.0</ele><time>2026-04-26T08:12:40Z</time></trkpt><trkpt lat="43.790865677331055" lon="11.220645447331421"><ele>45.8</ele><time>2026-04-26T08:12:41Z</time></trkpt><trkpt lat="43.79082686791086" lon="11.22076018978905"><ele>45.599999999999994</ele><time>2026-04-26T08:12:42Z</time></trkpt><trkpt lat="43.79079226998061" lon="11.220877566832327"><ele>45.4</ele><time>2026-04-26T08:12:43Z</time></trkpt><trkpt lat="43.790760602391" lon="11.220993505360783"><ele>45.2</ele><time>2026-04-26T08:12:44Z</time></trkpt><trkpt lat="43.79072479944532" lon="11.221108891674529"><ele>45.0</ele><time>2026-04-26T08:12:45Z</time></trkpt><trkpt lat="43.79068709968721" lon="11.221225389924584"><ele>45.0</ele><time>2026-04-26T08:12:46Z</time></trkpt><trkpt lat="43.79065063046729" lon="11.221334544197122"><ele>45.0</ele><time>2026-04-26T08:12:47Z</time></trkpt><trkpt lat="43.79062198869625" lon="11.221414738015708"><ele>45.0</ele><time>2026-04-26T08:12:48Z</time></trkpt><trkpt lat="43.790578484215324" lon="11.221531141996344"><ele>45.0</ele><time>2026-04-26T08:12:52Z</time></trkpt><trkpt lat="43.790523161547" lon="11.221718892398412"><ele>45.0</ele><time>2026-04-26T08:12:53.999Z</time></trkpt><trkpt lat="43.79048572092125" lon="11.2218297566114"><ele>45.2</ele><time>2026-04-26T08:12:54.999Z</time></trkpt><trkpt lat="43.790450988552514" lon="11.221944383793216"><ele>45.4</ele><time>2026-04-26T08:12:55.999Z</time></trkpt><trkpt lat="43.790413930842796" lon="11.222063907238512"><ele>45.599999999999994</ele><time>2026-04-26T08:12:56.999Z</time></trkpt><trkpt lat="43.790378923461624" lon="11.222186644468465"><ele>45.8</ele><time>2026-04-26T08:12:57.999Z</time></trkpt><trkpt lat="43.790339458844954" lon="11.222307543043156"><ele>46.0</ele><time>2026-04-26T08:12:58.999Z</time></trkpt><trkpt lat="43.79030019537556" lon="11.222431261907335"><ele>45.66666666666667</ele><time>2026-04-26T08:12:59.999Z</time></trkpt><trkpt lat="43.790267406542895" lon="11.222546989944034"><ele>45.333333333333336</ele><time>2026-04-26T08:13:00.999Z</time></trkpt><trkpt lat="43.79023037819403" lon="11.222665874119198"><ele>45.0</ele><time>2026-04-26T08:13:01.999Z</time></trkpt><trkpt lat="43.7901773585261" lon="11.222771374984056"><ele>44.666666666666664</ele><time>2026-04-26T08:13:02.999Z</time></trkpt><trkpt lat="43.79013454200416" lon="11.222875983083965"><ele>44.33333333333333</ele><time>2026-04-26T08:13:03.999Z</time></trkpt><trkpt lat="43.790090482540926" lon="11.222978237415955"><ele>44.0</ele><time>2026-04-26T08:13:04.999Z</time></trkpt><trkpt lat="43.79004113521985" lon="11.223072554501107"><ele>44.0</ele><time>2026-04-26T08:13:05.999Z</time></trkpt><trkpt lat="43.7899845470024" lon="11.223159400533834"><ele>44.0</ele><time>2026-04-26T08:13:06.999Z</time></trkpt><trkpt lat="43.78992319852057" lon="11.22324020126861"><ele>44.0</ele><time>2026-04-26T08:13:07.999Z</time></trkpt><trkpt lat="43.78985551211339" lon="11.223316882661033"><ele>44.0</ele><time>2026-04-26T08:13:08.999Z</time></trkpt><trkpt lat="43.78978538171055" lon="11.22339612016655"><ele>44.0</ele><time>2026-04-26T08:13:09.999Z</time></trkpt><trkpt lat="43.78969946085357" lon="11.2234472867483"><ele>44.0</ele><time>2026-04-26T08:13:10.999Z</time></trkpt><trkpt lat="43.78962882466487" lon="11.223539194062038"><ele>44.0</ele><time>2026-04-26T08:13:11.999Z</time></trkpt><trkpt lat="43.7895477412164" lon="11.223616586297537"><ele>44.0</ele><time>2026-04-26T08:13:12.999Z</time></trkpt><trkpt lat="43.78946130980966" lon="11.223692474886441"><ele>44.0</ele><time>2026-04-26T08:13:13.999Z</time></trkpt><trkpt lat="43.78937510785882" lon="11.223767961542796"><ele>44.0</ele><time>2026-04-26T08:13:14.999Z</time></trkpt><trkpt lat="43.78926821260863" lon="11.223820169519778"><ele>44.0</ele><time>2026-04-26T08:13:15.999Z</time></trkpt><trkpt lat="43.78917320846566" lon="11.223904423844997"><ele>44.0</ele><time>2026-04-26T08:13:16.999Z</time></trkpt><trkpt lat="43.78907474348025" lon="11.22399271929853"><ele>44.0</ele><time>2026-04-26T08:13:17.999Z</time></trkpt><trkpt lat="43.788989457452054" lon="11.224111972439491"><ele>44.0</ele><time>2026-04-26T08:13:18.999Z</time></trkpt><trkpt lat="43.78888733258615" lon="11.224203438851472"><ele>44.0</ele><time>2026-04-26T08:13:19.999Z</time></trkpt><trkpt lat="43.7887899481932" lon="11.224290687456781"><ele>44.0</ele><time>2026-04-26T08:13:20.999Z</time></trkpt><trkpt lat="43.788691031783415" lon="11.224376803494755"><ele>44.0</ele><time>2026-04-26T08:13:21.999Z</time></trkpt><trkpt lat="43.78857899534683" lon="11.224443356483956"><ele>44.0</ele><time>2026-04-26T08:13:22.999Z</time></trkpt><trkpt lat="43.78848894267863" lon="11.224552166250682"><ele>44.0</ele><time>2026-04-26T08:13:23.999Z</time></trkpt><trkpt lat="43.78838760631626" lon="11.224629782691224"><ele>44.75</ele><time>2026-04-26T08:13:24.999Z</time></trkpt><trkpt lat="43.78828555997388" lon="11.224715462579386"><ele>45.5</ele><time>2026-04-26T08:13:25.999Z</time></trkpt><trkpt lat="43.78818755478121" lon="11.224796850852737"><ele>46.25</ele><time>2026-04-26T08:13:26.999Z</time></trkpt><trkpt lat="43.78809316412236" lon="11.224884377545653"><ele>47.0</ele><time>2026-04-26T08:13:27.999Z</time></trkpt><trkpt lat="43.78798979388098" lon="11.22496610220938"><ele>47.0</ele><time>2026-04-26T08:13:28.999Z</time></trkpt><trkpt lat="43.787887199872486" lon="11.225057924957362"><ele>47.0</ele><time>2026-04-26T08:13:29.999Z</time></trkpt><trkpt lat="43.78778413628851" lon="11.225148588433882"><ele>47.0</ele><time>2026-04-26T08:13:30.999Z</time></trkpt><trkpt lat="43.78768437941129" lon="11.225237102858433"><ele>47.0</ele><time>2026-04-26T08:13:31.999Z</time></trkpt><trkpt lat="43.78759238579447" lon="11.22532560134925"><ele>47.0</ele><time>2026-04-26T08:13:32.999Z</time></trkpt><trkpt lat="43.78751128240936" lon="11.2254240329112"><ele>47.0</ele><time>2026-04-26T08:13:33.999Z</time></trkpt><trkpt lat="43.78743992258058" lon="11.225531077368535"><ele>47.0</ele><time>2026-04-26T08:13:34.999Z</time></trkpt><trkpt lat="43.787376561394936" lon="11.22564721885828"><ele>47.0</ele><time>2026-04-26T08:13:35.999Z</time></trkpt><trkpt lat="43.787318565505174" lon="11.225763129397333"><ele>47.0</ele><time>2026-04-26T08:13:36.999Z</time></trkpt><trkpt lat="43.78725883528672" lon="11.22587645258972"><ele>47.0</ele><time>2026-04-26T08:13:37.999Z</time></trkpt><trkpt lat="43.78719688716292" lon="11.22598395621535"><ele>47.0</ele><time>2026-04-26T08:13:38.999Z</time></trkpt><trkpt lat="43.78713638053683" lon="11.226088280771513"><ele>47.0</ele><time>2026-04-26T08:13:39.999Z</time></trkpt><trkpt lat="43.787076135067885" lon="11.22619231340716"><ele>47.0</ele><time>2026-04-26T08:13:40.999Z</time></trkpt><trkpt lat="43.787016766297754" lon="11.226294821829772"><ele>47.0</ele><time>2026-04-26T08:13:41.999Z</time></trkpt><trkpt lat="43.786959107081685" lon="11.22639335539426"><ele>47.166666666666664</ele><time>2026-04-26T08:13:42.999Z</time></trkpt><trkpt lat="43.78690190542001" lon="11.226486713420593"><ele>47.33333333333333</ele><time>2026-04-26T08:13:43.999Z</time></trkpt><trkpt lat="43.78685460760736" lon="11.226570600009635"><ele>47.5</ele><time>2026-04-26T08:13:44.999Z</time></trkpt><trkpt lat="43.786814241339535" lon="11.226638509708733"><ele>47.666666666666664</ele><time>2026-04-26T08:13:45.999Z</time></trkpt><trkpt lat="43.78675615597597" lon="11.226760434528181"><ele>47.833333333333336</ele><time>2026-04-26T08:13:47.999Z</time></trkpt><trkpt lat="43.78669082536247" lon="11.226857651562831"><ele>48.0</ele><time>2026-04-26T08:13:50.999Z</time></trkpt><trkpt lat="43.78660421934167" lon="11.226839257610829"><ele>48.0</ele><time>2026-04-26T08:13:52.999Z</time></trkpt><trkpt lat="43.786530557589664" lon="11.22674301984502"><ele>48.0</ele><time>2026-04-26T08:13:54.999Z</time></trkpt><trkpt lat="43.78646072859319" lon="11.226649029682621"><ele>48.0</ele><time>2026-04-26T08:13:56.999Z</time></trkpt><trkpt lat="43.78638792867626" lon="11.2265510400669"><ele>48.0</ele><time>2026-04-26T08:13:58.999Z</time></trkpt><trkpt lat="43.78623099068904" lon="11.226563439764842"><ele>48.0</ele><time>2026-04-26T08:14:00.999Z</time></trkpt><trkpt lat="43.78616470468772" lon="11.22659102827086"><ele>48.0</ele><time>2026-04-26T08:14:01.999Z</time></trkpt><trkpt lat="43.786115121720314" lon="11.226646969274128"><ele>48.0</ele><time>2026-04-26T08:14:02.999Z</time></trkpt><trkpt lat="43.78613843359067" lon="11.226809938789417"><ele>48.0</ele><time>2026-04-26T08:14:03.999Z</time></trkpt><trkpt lat="43.78613880714645" lon="11.226897889265471"><ele>48.0</ele><time>2026-04-26T08:14:04.999Z</time></trkpt><trkpt lat="43.78613116978125" lon="11.226993410617192"><ele>48.0</ele><time>2026-04-26T08:14:05.999Z</time></trkpt><trkpt lat="43.78611514554315" lon="11.227099450194316"><ele>48.0</ele><time>2026-04-26T08:14:06.999Z</time></trkpt><trkpt lat="43.7860983402777" lon="11.22720712965861"><ele>48.0</ele><time>2026-04-26T08:14:07.999Z</time></trkpt><trkpt lat="43.78607947912724" lon="11.227318219685623"><ele>48.0</ele><time>2026-04-26T08:14:08.999Z</time></trkpt><trkpt lat="43.786060608175696" lon="11.227425177659095"><ele>48.0</ele><time>2026-04-26T08:14:09.999Z</time></trkpt><trkpt lat="43.786037501403044" lon="11.227527096672167"><ele>48.0</ele><time>2026-04-26T08:14:10.999Z</time></trkpt><trkpt lat="43.78600081781257" lon="11.227620556054813"><ele>48.0</ele><time>2026-04-26T08:14:11.999Z</time></trkpt><trkpt lat="43.785955011927676" lon="11.227710764314532"><ele>47.833333333333336</ele><time>2026-04-26T08:14:12.999Z</time></trkpt><trkpt lat="43.785905995504265" lon="11.227796875341825"><ele>47.666666666666664</ele><time>2026-04-26T08:14:13.999Z</time></trkpt><trkpt lat="43.78585805808064" lon="11.227883533713152"><ele>47.5</ele><time>2026-04-26T08:14:14.999Z</time></trkpt><trkpt lat="43.785809552934694" lon="11.227978094862692"><ele>47.33333333333333</ele><time>2026-04-26T08:14:15.999Z</time></trkpt><trkpt lat="43.785766555758066" lon="11.228065331899877"><ele>47.166666666666664</ele><time>2026-04-26T08:14:16.999Z</time></trkpt><trkpt lat="43.78572070058731" lon="11.228155568648399"><ele>47.0</ele><time>2026-04-26T08:14:17.999Z</time></trkpt><trkpt lat="43.78567913770462" lon="11.228246024406651"><ele>46.666666666666664</ele><time>2026-04-26T08:14:19Z</time></trkpt><trkpt lat="43.78564316005627" lon="11.228344107807374"><ele>46.33333333333333</ele><time>2026-04-26T08:14:20Z</time></trkpt><trkpt lat="43.78560894482691" lon="11.228434857867663"><ele>46.0</ele><time>2026-04-26T08:14:21Z</time></trkpt><trkpt lat="43.785602477539484" lon="11.22853512020256"><ele>45.666666666666664</ele><time>2026-04-26T08:14:22Z</time></trkpt><trkpt lat="43.78561067372414" lon="11.228635809440362"><ele>45.333333333333336</ele><time>2026-04-26T08:14:23Z</time></trkpt><trkpt lat="43.78566392025216" lon="11.228731154035726"><ele>45.0</ele><time>2026-04-26T08:14:24Z</time></trkpt><trkpt lat="43.78565040160622" lon="11.228836669576387"><ele>45.0</ele><time>2026-04-26T08:14:25Z</time></trkpt><trkpt lat="43.7856147736661" lon="11.228935981394095"><ele>45.0</ele><time>2026-04-26T08:14:26Z</time></trkpt><trkpt lat="43.7855695035115" lon="11.229030909971941"><ele>45.0</ele><time>2026-04-26T08:14:27Z</time></trkpt><trkpt lat="43.78552559148298" lon="11.229123017358749"><ele>45.0</ele><time>2026-04-26T08:14:28Z</time></trkpt><trkpt lat="43.785482296689246" lon="11.229216793685922"><ele>45.0</ele><time>2026-04-26T08:14:29Z</time></trkpt><trkpt lat="43.78544203477418" lon="11.229314140844334"><ele>45.0</ele><time>2026-04-26T08:14:30Z</time></trkpt><trkpt lat="43.78540430550531" lon="11.229413596089081"><ele>45.166666666666664</ele><time>2026-04-26T08:14:31Z</time></trkpt><trkpt lat="43.78536465588011" lon="11.229512266634618"><ele>45.333333333333336</ele><time>2026-04-26T08:14:32Z</time></trkpt><trkpt lat="43.78532273044047" lon="11.229603898387804"><ele>45.5</ele><time>2026-04-26T08:14:33Z</time></trkpt><trkpt lat="43.78528380403061" lon="11.229690752617005"><ele>45.66666666666667</ele><time>2026-04-26T08:14:34Z</time></trkpt><trkpt lat="43.785242881498284" lon="11.229784302733602"><ele>45.833333333333336</ele><time>2026-04-26T08:14:35Z</time></trkpt><trkpt lat="43.785205353822704" lon="11.229862861043735"><ele>46.0</ele><time>2026-04-26T08:14:36Z</time></trkpt><trkpt lat="43.78517055036608" lon="11.229949705834931"><ele>46.0</ele><time>2026-04-26T08:14:37Z</time></trkpt><trkpt lat="43.78513468649037" lon="11.23003424092351"><ele>46.0</ele><time>2026-04-26T08:14:38Z</time></trkpt><trkpt lat="43.78509724626872" lon="11.230114280635105"><ele>46.0</ele><time>2026-04-26T08:14:39Z</time></trkpt><trkpt lat="43.78505615063277" lon="11.230197885328064"><ele>46.0</ele><time>2026-04-26T08:14:40Z</time></trkpt><trkpt lat="43.7850214725909" lon="11.230280874026011"><ele>46.0</ele><time>2026-04-26T08:14:41Z</time></trkpt><trkpt lat="43.78497667917292" lon="11.230357788443257"><ele>46.0</ele><time>2026-04-26T08:14:42Z</time></trkpt><trkpt lat="43.7849560452488" lon="11.230449644640935"><ele>46.0</ele><time>2026-04-26T08:14:42.999Z</time></trkpt><trkpt lat="43.7848927648349" lon="11.230516120655182"><ele>46.0</ele><time>2026-04-26T08:14:43.999Z</time></trkpt><trkpt lat="43.78484727525274" lon="11.230592687080101"><ele>46.0</ele><time>2026-04-26T08:14:44.999Z</time></trkpt><trkpt lat="43.78476953809232" lon="11.230743070971211"><ele>46.0</ele><time>2026-04-26T08:14:46.999Z</time></trkpt><trkpt lat="43.784720551051386" lon="11.230818928261732"><ele>46.0</ele><time>2026-04-26T08:14:47.999Z</time></trkpt><trkpt lat="43.784676643305374" lon="11.23089893625935"><ele>46.0</ele><time>2026-04-26T08:14:48.999Z</time></trkpt><trkpt lat="43.78462233062141" lon="11.230972230785365"><ele>46.0</ele><time>2026-04-26T08:14:49.999Z</time></trkpt><trkpt lat="43.78457103157464" lon="11.231049392057802"><ele>46.0</ele><time>2026-04-26T08:14:50.999Z</time></trkpt><trkpt lat="43.78451475742277" lon="11.231128029517723"><ele>46.0</ele><time>2026-04-26T08:14:51.999Z</time></trkpt><trkpt lat="43.78445812689437" lon="11.23121419401435"><ele>46.0</ele><time>2026-04-26T08:14:52.999Z</time></trkpt><trkpt lat="43.784407267628076" lon="11.231298637929152"><ele>46.0</ele><time>2026-04-26T08:14:53.999Z</time></trkpt><trkpt lat="43.784352929337864" lon="11.231379087581612"><ele>46.0</ele><time>2026-04-26T08:14:54.999Z</time></trkpt><trkpt lat="43.78430410951446" lon="11.231464510726806"><ele>46.0</ele><time>2026-04-26T08:14:55.999Z</time></trkpt><trkpt lat="43.784253698499704" lon="11.231549517745867"><ele>46.0</ele><time>2026-04-26T08:14:56.999Z</time></trkpt><trkpt lat="43.78420418015139" lon="11.231633445035364"><ele>46.0</ele><time>2026-04-26T08:14:57.999Z</time></trkpt><trkpt lat="43.784153936111686" lon="11.231715023479186"><ele>46.0</ele><time>2026-04-26T08:14:58.999Z</time></trkpt><trkpt lat="43.7841066140721" lon="11.231789991521493"><ele>46.0</ele><time>2026-04-26T08:14:59.999Z</time></trkpt><trkpt lat="43.78405747542249" lon="11.231873832775396"><ele>46.0</ele><time>2026-04-26T08:15:00.999Z</time></trkpt><trkpt lat="43.784014847576024" lon="11.23194842490121"><ele>46.0</ele><time>2026-04-26T08:15:01.999Z</time></trkpt><trkpt lat="43.783960872983876" lon="11.232042168258554"><ele>46.0</ele><time>2026-04-26T08:15:02.999Z</time></trkpt><trkpt lat="43.78390748399618" lon="11.232141403211203"><ele>46.0</ele><time>2026-04-26T08:15:03.999Z</time></trkpt><trkpt lat="43.78384986493511" lon="11.232247122869557"><ele>46.0</ele><time>2026-04-26T08:15:04.999Z</time></trkpt><trkpt lat="43.78379504474195" lon="11.232343852029098"><ele>46.0</ele><time>2026-04-26T08:15:05.999Z</time></trkpt><trkpt lat="43.78374920929606" lon="11.232432100454915"><ele>46.0</ele><time>2026-04-26T08:15:06.999Z</time></trkpt><trkpt lat="43.78370381687024" lon="11.232515973969269"><ele>46.0</ele><time>2026-04-26T08:15:07.999Z</time></trkpt><trkpt lat="43.78365348999232" lon="11.23260934141684"><ele>45.8</ele><time>2026-04-26T08:15:08.999Z</time></trkpt><trkpt lat="43.78359624725576" lon="11.232708397186402"><ele>45.599999999999994</ele><time>2026-04-26T08:15:09.999Z</time></trkpt><trkpt lat="43.783538397891625" lon="11.232812363395738"><ele>45.4</ele><time>2026-04-26T08:15:10.999Z</time></trkpt><trkpt lat="43.78348131259672" lon="11.232916252981912"><ele>45.2</ele><time>2026-04-26T08:15:11.999Z</time></trkpt><trkpt lat="43.783427394217476" lon="11.23301479404293"><ele>45.0</ele><time>2026-04-26T08:15:12.999Z</time></trkpt><trkpt lat="43.78337552172762" lon="11.233109334264686"><ele>45.0</ele><time>2026-04-26T08:15:13.999Z</time></trkpt><trkpt lat="43.783310444709656" lon="11.233210664994731"><ele>45.0</ele><time>2026-04-26T08:15:14.999Z</time></trkpt><trkpt lat="43.783235744065635" lon="11.233347498009637"><ele>45.0</ele><time>2026-04-26T08:15:15.999Z</time></trkpt><trkpt lat="43.783158168985786" lon="11.233486141922008"><ele>45.0</ele><time>2026-04-26T08:15:16.999Z</time></trkpt><trkpt lat="43.78308313621218" lon="11.233629050159829"><ele>45.0</ele><time>2026-04-26T08:15:17.999Z</time></trkpt><trkpt lat="43.783003610557024" lon="11.233773885028604"><ele>45.0</ele><time>2026-04-26T08:15:18.999Z</time></trkpt><trkpt lat="43.78291920592258" lon="11.233925006142037"><ele>45.0</ele><time>2026-04-26T08:15:19.999Z</time></trkpt><trkpt lat="43.78283858532113" lon="11.234075254725841"><ele>45.0</ele><time>2026-04-26T08:15:20.999Z</time></trkpt><trkpt lat="43.78275904398011" lon="11.234221423407979"><ele>45.25</ele><time>2026-04-26T08:15:21.999Z</time></trkpt><trkpt lat="43.782675975947264" lon="11.234373169896696"><ele>45.5</ele><time>2026-04-26T08:15:22.999Z</time></trkpt><trkpt lat="43.78259828423613" lon="11.234508282265047"><ele>45.75</ele><time>2026-04-26T08:15:23.999Z</time></trkpt><trkpt lat="43.78252323353963" lon="11.234648192904759"><ele>46.0</ele><time>2026-04-26T08:15:24.999Z</time></trkpt><trkpt lat="43.78244637255087" lon="11.234785096118975"><ele>46.0</ele><time>2026-04-26T08:15:25.999Z</time></trkpt><trkpt lat="43.782366985618346" lon="11.234914406282563"><ele>46.0</ele><time>2026-04-26T08:15:26.999Z</time></trkpt><trkpt lat="43.78229286556206" lon="11.235039387109609"><ele>46.0</ele><time>2026-04-26T08:15:27.999Z</time></trkpt><trkpt lat="43.78222455773672" lon="11.235153561697556"><ele>46.0</ele><time>2026-04-26T08:15:28.999Z</time></trkpt><trkpt lat="43.782166745220316" lon="11.235255265230496"><ele>46.0</ele><time>2026-04-26T08:15:29.999Z</time></trkpt><trkpt lat="43.782107238805615" lon="11.235337259284414"><ele>46.0</ele><time>2026-04-26T08:15:30.999Z</time></trkpt><trkpt lat="43.782062082464705" lon="11.235420641885645"><ele>46.0</ele><time>2026-04-26T08:15:31.999Z</time></trkpt><trkpt lat="43.78202107990378" lon="11.235499959803043"><ele>46.0</ele><time>2026-04-26T08:15:32.999Z</time></trkpt><trkpt lat="43.78195882493252" lon="11.235612562265375"><ele>46.0</ele><time>2026-04-26T08:15:34.999Z</time></trkpt><trkpt lat="43.781903774405954" lon="11.23570166018231"><ele>46.0</ele><time>2026-04-26T08:15:50.999Z</time></trkpt><trkpt lat="43.78183526418648" lon="11.235819963087014"><ele>46.0</ele><time>2026-04-26T08:15:52.999Z</time></trkpt><trkpt lat="43.7817868030287" lon="11.235889224062648"><ele>46.0</ele><time>2026-04-26T08:15:53.999Z</time></trkpt><trkpt lat="43.78173860599406" lon="11.235952193453608"><ele>46.0</ele><time>2026-04-26T08:15:54.999Z</time></trkpt><trkpt lat="43.78167723013829" lon="11.236026171279036"><ele>46.0</ele><time>2026-04-26T08:15:55.999Z</time></trkpt><trkpt lat="43.7816069701185" lon="11.236110548868002"><ele>46.0</ele><time>2026-04-26T08:15:56.999Z</time></trkpt><trkpt lat="43.78153314582556" lon="11.236197696231367"><ele>46.0</ele><time>2026-04-26T08:15:57.999Z</time></trkpt><trkpt lat="43.78146106435042" lon="11.236283195013387"><ele>46.0</ele><time>2026-04-26T08:15:58.999Z</time></trkpt><trkpt lat="43.781381733496666" lon="11.236372437575058"><ele>46.25</ele><time>2026-04-26T08:15:59.999Z</time></trkpt><trkpt lat="43.78129904295908" lon="11.236472629123124"><ele>46.5</ele><time>2026-04-26T08:16:00.999Z</time></trkpt><trkpt lat="43.78121420038917" lon="11.236571019600033"><ele>46.75</ele><time>2026-04-26T08:16:01.999Z</time></trkpt><trkpt lat="43.78112475932961" lon="11.236666764124108"><ele>47.0</ele><time>2026-04-26T08:16:02.999Z</time></trkpt><trkpt lat="43.78102773131287" lon="11.236760132391094"><ele>46.75</ele><time>2026-04-26T08:16:03.999Z</time></trkpt><trkpt lat="43.780925502413645" lon="11.236853381694067"><ele>46.5</ele><time>2026-04-26T08:16:04.999Z</time></trkpt><trkpt lat="43.780822685708216" lon="11.236951290076762"><ele>46.25</ele><time>2026-04-26T08:16:05.999Z</time></trkpt><trkpt lat="43.780716624980215" lon="11.237050594667696"><ele>46.0</ele><time>2026-04-26T08:16:06.999Z</time></trkpt><trkpt lat="43.780608048654834" lon="11.237148626571685"><ele>46.0</ele><time>2026-04-26T08:16:07.999Z</time></trkpt><trkpt lat="43.78049625510165" lon="11.237248659319999"><ele>46.0</ele><time>2026-04-26T08:16:08.999Z</time></trkpt><trkpt lat="43.78039201674723" lon="11.237344450841297"><ele>46.0</ele><time>2026-04-26T08:16:09.999Z</time></trkpt><trkpt lat="43.78028938722812" lon="11.237445852557485"><ele>46.0</ele><time>2026-04-26T08:16:10.999Z</time></trkpt><trkpt lat="43.78018867338153" lon="11.237546662280973"><ele>45.75</ele><time>2026-04-26T08:16:11.998Z</time></trkpt><trkpt lat="43.780083584946695" lon="11.237650104372413"><ele>45.5</ele><time>2026-04-26T08:16:12.998Z</time></trkpt><trkpt lat="43.77997603510122" lon="11.23774542958369"><ele>45.25</ele><time>2026-04-26T08:16:13.998Z</time></trkpt><trkpt lat="43.77986995942858" lon="11.237845100743531"><ele>45.0</ele><time>2026-04-26T08:16:14.998Z</time></trkpt><trkpt lat="43.77976201471882" lon="11.237946479562602"><ele>45.0</ele><time>2026-04-26T08:16:15.998Z</time></trkpt><trkpt lat="43.77965985462419" lon="11.238056846043763"><ele>45.0</ele><time>2026-04-26T08:16:16.998Z</time></trkpt><trkpt lat="43.779559497518704" lon="11.238170163392757"><ele>45.0</ele><time>2026-04-26T08:16:17.998Z</time></trkpt><trkpt lat="43.77946872410262" lon="11.238290541619644"><ele>45.0</ele><time>2026-04-26T08:16:18.998Z</time></trkpt><trkpt lat="43.77937540461335" lon="11.238399026940744"><ele>45.0</ele><time>2026-04-26T08:16:19.998Z</time></trkpt><trkpt lat="43.77928535204036" lon="11.238499572370912"><ele>45.0</ele><time>2026-04-26T08:16:20.998Z</time></trkpt><trkpt lat="43.779184690636306" lon="11.238588244526863"><ele>45.0</ele><time>2026-04-26T08:16:21.998Z</time></trkpt><trkpt lat="43.77908717579808" lon="11.238682624126913"><ele>45.0</ele><time>2026-04-26T08:16:22.998Z</time></trkpt><trkpt lat="43.778990138785296" lon="11.238784099048738"><ele>45.0</ele><time>2026-04-26T08:16:23.998Z</time></trkpt><trkpt lat="43.778887880667014" lon="11.238883042217674"><ele>45.0</ele><time>2026-04-26T08:16:24.999Z</time></trkpt><trkpt lat="43.77878617937635" lon="11.238984073057498"><ele>45.0</ele><time>2026-04-26T08:16:25.999Z</time></trkpt><trkpt lat="43.77868515769812" lon="11.239084694935757"><ele>45.0</ele><time>2026-04-26T08:16:26.999Z</time></trkpt><trkpt lat="43.77858748882409" lon="11.239188846272013"><ele>45.6</ele><time>2026-04-26T08:16:27.999Z</time></trkpt><trkpt lat="43.77850100859093" lon="11.23928623780197"><ele>46.2</ele><time>2026-04-26T08:16:28.999Z</time></trkpt><trkpt lat="43.77842205176998" lon="11.239376353316468"><ele>46.8</ele><time>2026-04-26T08:16:29.999Z</time></trkpt><trkpt lat="43.77834547944972" lon="11.239453188895506"><ele>47.4</ele><time>2026-04-26T08:16:30.999Z</time></trkpt><trkpt lat="43.77828496607882" lon="11.239517067690153"><ele>48.0</ele><time>2026-04-26T08:16:31.999Z</time></trkpt><trkpt lat="43.7781967380925" lon="11.239595594224243"><ele>48.0</ele><time>2026-04-26T08:16:33.999Z</time></trkpt><trkpt lat="43.77811300244623" lon="11.239639324565065"><ele>48.0</ele><time>2026-04-26T08:16:35.999Z</time></trkpt><trkpt lat="43.77803223725969" lon="11.23969306750803"><ele>48.0</ele><time>2026-04-26T08:16:59.999Z</time></trkpt><trkpt lat="43.77797075959429" lon="11.239652143114757"><ele>48.0</ele><time>2026-04-26T08:17:00.999Z</time></trkpt><trkpt lat="43.7779092136709" lon="11.239585476703823"><ele>48.0</ele><time>2026-04-26T08:17:01.999Z</time></trkpt><trkpt lat="43.77786572326949" lon="11.239494461949164"><ele>48.0</ele><time>2026-04-26T08:17:02.999Z</time></trkpt><trkpt lat="43.77783972390142" lon="11.239407369455405"><ele>48.0</ele><time>2026-04-26T08:17:03.999Z</time></trkpt><trkpt lat="43.777802135090106" lon="11.239263865535266"><ele>48.0</ele><time>2026-04-26T08:17:05.999Z</time></trkpt><trkpt lat="43.77777649833646" lon="11.239143662400428"><ele>48.0</ele><time>2026-04-26T08:17:07.999Z</time></trkpt><trkpt lat="43.77775403623487" lon="11.239060792832987"><ele>48.0</ele><time>2026-04-26T08:17:09.999Z</time></trkpt><trkpt lat="43.77771441177566" lon="11.238990705568543"><ele>48.0</ele><time>2026-04-26T08:17:30.999Z</time></trkpt><trkpt lat="43.777700159323906" lon="11.238881560957433"><ele>48.0</ele><time>2026-04-26T08:17:33.999Z</time></trkpt><trkpt lat="43.777623484507274" lon="11.238604740440543"><ele>47.599999999999994</ele><time>2026-04-26T08:17:34.999Z</time></trkpt><trkpt lat="43.77758734192503" lon="11.238497402648015"><ele>47.199999999999996</ele><time>2026-04-26T08:17:35.999Z</time></trkpt><trkpt lat="43.777537273467864" lon="11.238385977722643"><ele>46.8</ele><time>2026-04-26T08:17:36.999Z</time></trkpt><trkpt lat="43.777483140290485" lon="11.23827213901665"><ele>46.4</ele><time>2026-04-26T08:17:37.999Z</time></trkpt><trkpt lat="43.77743304754172" lon="11.23816063502659"><ele>46.0</ele><time>2026-04-26T08:17:38.999Z</time></trkpt><trkpt lat="43.77738219644541" lon="11.23805014651936"><ele>46.0</ele><time>2026-04-26T08:17:39.999Z</time></trkpt><trkpt lat="43.77733719598562" lon="11.237941479475612"><ele>46.0</ele><time>2026-04-26T08:17:40.999Z</time></trkpt><trkpt lat="43.77729066026097" lon="11.237833142436385"><ele>46.0</ele><time>2026-04-26T08:17:41.999Z</time></trkpt><trkpt lat="43.77724173116003" lon="11.237728959333323"><ele>46.0</ele><time>2026-04-26T08:17:42.999Z</time></trkpt><trkpt lat="43.77718472535375" lon="11.237618272687044"><ele>46.0</ele><time>2026-04-26T08:17:43.999Z</time></trkpt><trkpt lat="43.77711984885098" lon="11.237488941735103"><ele>46.0</ele><time>2026-04-26T08:17:44.999Z</time></trkpt><trkpt lat="43.77705258207169" lon="11.237334616449457"><ele>46.0</ele><time>2026-04-26T08:17:45.999Z</time></trkpt><trkpt lat="43.77698035912376" lon="11.237188055960884"><ele>46.0</ele><time>2026-04-26T08:17:46.999Z</time></trkpt><trkpt lat="43.77689984728022" lon="11.237044688020573"><ele>46.0</ele><time>2026-04-26T08:17:47.999Z</time></trkpt><trkpt lat="43.77681664842371" lon="11.236905624040158"><ele>46.0</ele><time>2026-04-26T08:17:48.999Z</time></trkpt><trkpt lat="43.776706131650066" lon="11.236797730588147"><ele>46.0</ele><time>2026-04-26T08:17:49.999Z</time></trkpt><trkpt lat="43.77658912666088" lon="11.23671050528868"><ele>46.0</ele><time>2026-04-26T08:17:50.999Z</time></trkpt><trkpt lat="43.77645902360926" lon="11.236629494918201"><ele>46.0</ele><time>2026-04-26T08:17:51.999Z</time></trkpt><trkpt lat="43.776325564024205" lon="11.23653533851006"><ele>46.0</ele><time>2026-04-26T08:17:52.999Z</time></trkpt><trkpt lat="43.77619138566378" lon="11.236435522372261"><ele>46.0</ele><time>2026-04-26T08:17:53.999Z</time></trkpt><trkpt lat="43.776058220867974" lon="11.23632441773196"><ele>46.0</ele><time>2026-04-26T08:17:54.999Z</time></trkpt><trkpt lat="43.775939872182875" lon="11.23621002374235"><ele>46.0</ele><time>2026-04-26T08:17:55.999Z</time></trkpt><trkpt lat="43.77585366529086" lon="11.236065731415316"><ele>46.0</ele><time>2026-04-26T08:17:56.999Z</time></trkpt><trkpt lat="43.77579083465425" lon="11.235873008903015"><ele>46.0</ele><time>2026-04-26T08:17:57.999Z</time></trkpt><trkpt lat="43.77573834339865" lon="11.235709672584852"><ele>46.0</ele><time>2026-04-26T08:17:58.999Z</time></trkpt><trkpt lat="43.77568645771044" lon="11.235537907090952"><ele>45.75</ele><time>2026-04-26T08:17:59.999Z</time></trkpt><trkpt lat="43.7756450559175" lon="11.235371119856474"><ele>45.5</ele><time>2026-04-26T08:18:00.999Z</time></trkpt><trkpt lat="43.77560242169654" lon="11.235205414987792"><ele>45.25</ele><time>2026-04-26T08:18:01.999Z</time></trkpt><trkpt lat="43.775555372310244" lon="11.235046458537326"><ele>45.0</ele><time>2026-04-26T08:18:02.999Z</time></trkpt><trkpt lat="43.775500431697324" lon="11.234910781504325"><ele>44.8</ele><time>2026-04-26T08:18:03.999Z</time></trkpt><trkpt lat="43.77542092637423" lon="11.234802883382745"><ele>44.6</ele><time>2026-04-26T08:18:04.999Z</time></trkpt><trkpt lat="43.775321017652296" lon="11.234728926718947"><ele>44.400000000000006</ele><time>2026-04-26T08:18:05.999Z</time></trkpt><trkpt lat="43.77521095892337" lon="11.234684696277949"><ele>44.2</ele><time>2026-04-26T08:18:06.999Z</time></trkpt><trkpt lat="43.77510799912424" lon="11.234652109070522"><ele>44.0</ele><time>2026-04-26T08:18:07.999Z</time></trkpt><trkpt lat="43.77501072102182" lon="11.234606310800565"><ele>43.166666666666664</ele><time>2026-04-26T08:18:08.999Z</time></trkpt><trkpt lat="43.77491758477675" lon="11.234558846406479"><ele>42.33333333333333</ele><time>2026-04-26T08:18:09.999Z</time></trkpt><trkpt lat="43.774834063507264" lon="11.234515400375614"><ele>41.5</ele><time>2026-04-26T08:18:10.999Z</time></trkpt><trkpt lat="43.77476037404311" lon="11.234476061253904"><ele>40.666666666666664</ele><time>2026-04-26T08:18:11.999Z</time></trkpt><trkpt lat="43.774693297046845" lon="11.234440651634626"><ele>39.833333333333336</ele><time>2026-04-26T08:18:12.999Z</time></trkpt><trkpt lat="43.77463338561788" lon="11.234408458834363"><ele>39.0</ele><time>2026-04-26T08:18:13.999Z</time></trkpt><trkpt lat="43.77456790498014" lon="11.234375452810937"><ele>39.0</ele><time>2026-04-26T08:18:14.999Z</time></trkpt><trkpt lat="43.77450002623258" lon="11.234341244140333"><ele>39.0</ele><time>2026-04-26T08:18:15.999Z</time></trkpt><trkpt lat="43.774432841577024" lon="11.234299749407526"><ele>39.0</ele><time>2026-04-26T08:18:16.998Z</time></trkpt><trkpt lat="43.77437263766058" lon="11.234254782339995"><ele>39.0</ele><time>2026-04-26T08:18:17.998Z</time></trkpt><trkpt lat="43.77431985374013" lon="11.234198944595276"><ele>39.0</ele><time>2026-04-26T08:18:18.998Z</time></trkpt><trkpt lat="43.77424617460198" lon="11.234093599162966"><ele>39.0</ele><time>2026-04-26T08:18:20.998Z</time></trkpt><trkpt lat="43.774178734298964" lon="11.2339849321568"><ele>40.0</ele><time>2026-04-26T08:18:23.998Z</time></trkpt><trkpt lat="43.774102835815484" lon="11.233833769509584"><ele>41.0</ele><time>2026-04-26T08:18:25.998Z</time></trkpt><trkpt lat="43.774045751444085" lon="11.233741076110364"><ele>42.0</ele><time>2026-04-26T08:18:26.998Z</time></trkpt><trkpt lat="43.773987140675644" lon="11.233645009868447"><ele>43.0</ele><time>2026-04-26T08:18:27.998Z</time></trkpt><trkpt lat="43.77393918962318" lon="11.233532960723133"><ele>44.0</ele><time>2026-04-26T08:18:28.998Z</time></trkpt><trkpt lat="43.77391203646786" lon="11.233420995067178"><ele>44.0</ele><time>2026-04-26T08:18:29.998Z</time></trkpt><trkpt lat="43.773902233966844" lon="11.233298150003803"><ele>44.0</ele><time>2026-04-26T08:18:31Z</time></trkpt><trkpt lat="43.77391613327811" lon="11.23317672383144"><ele>44.0</ele><time>2026-04-26T08:18:32Z</time></trkpt><trkpt lat="43.77395106686753" lon="11.233052157761279"><ele>44.0</ele><time>2026-04-26T08:18:33Z</time></trkpt><trkpt lat="43.77398769455251" lon="11.232917526727718"><ele>44.0</ele><time>2026-04-26T08:18:34Z</time></trkpt><trkpt lat="43.77402789052923" lon="11.232779391206558"><ele>44.2</ele><time>2026-04-26T08:18:35Z</time></trkpt><trkpt lat="43.77406404863486" lon="11.232646431420003"><ele>44.400000000000006</ele><time>2026-04-26T08:18:36Z</time></trkpt><trkpt lat="43.77410262234604" lon="11.23250173647317"><ele>44.6</ele><time>2026-04-26T08:18:37Z</time></trkpt><trkpt lat="43.774138793602184" lon="11.232362576426548"><ele>44.8</ele><time>2026-04-26T08:18:38Z</time></trkpt><trkpt lat="43.774178057679514" lon="11.232225182329534"><ele>45.0</ele><time>2026-04-26T08:18:39Z</time></trkpt><trkpt lat="43.77421360747968" lon="11.232078510685167"><ele>45.0</ele><time>2026-04-26T08:18:40Z</time></trkpt><trkpt lat="43.77425584724514" lon="11.2319306445175"><ele>45.0</ele><time>2026-04-26T08:18:41Z</time></trkpt><trkpt lat="43.774293307214364" lon="11.231779734179744"><ele>45.0</ele><time>2026-04-26T08:18:42Z</time></trkpt><trkpt lat="43.774333560904275" lon="11.23162039457077"><ele>45.0</ele><time>2026-04-26T08:18:43Z</time></trkpt><trkpt lat="43.774377668983675" lon="11.231470149401499"><ele>45.0</ele><time>2026-04-26T08:18:44Z</time></trkpt><trkpt lat="43.77441562840384" lon="11.231311240554458"><ele>45.0</ele><time>2026-04-26T08:18:45Z</time></trkpt><trkpt lat="43.77445684368976" lon="11.231153195369373"><ele>45.0</ele><time>2026-04-26T08:18:46Z</time></trkpt><trkpt lat="43.7744983613155" lon="11.230996605936836"><ele>45.0</ele><time>2026-04-26T08:18:47Z</time></trkpt><trkpt lat="43.774538476439545" lon="11.230844025699653"><ele>45.0</ele><time>2026-04-26T08:18:48Z</time></trkpt><trkpt lat="43.77457299700755" lon="11.23070233978596"><ele>45.0</ele><time>2026-04-26T08:18:49Z</time></trkpt><trkpt lat="43.774598539371" lon="11.230580177615716"><ele>45.0</ele><time>2026-04-26T08:18:50Z</time></trkpt><trkpt lat="43.77463237967064" lon="11.230456551959765"><ele>45.0</ele><time>2026-04-26T08:18:51Z</time></trkpt><trkpt lat="43.77466421415166" lon="11.230334720787857"><ele>45.0</ele><time>2026-04-26T08:18:52Z</time></trkpt><trkpt lat="43.77469719344124" lon="11.230202310066666"><ele>45.2</ele><time>2026-04-26T08:18:53Z</time></trkpt><trkpt lat="43.77473307775486" lon="11.23006614548801"><ele>45.4</ele><time>2026-04-26T08:18:54Z</time></trkpt><trkpt lat="43.77476683598166" lon="11.229931362520087"><ele>45.599999999999994</ele><time>2026-04-26T08:18:55Z</time></trkpt><trkpt lat="43.774800485373326" lon="11.229798140532504"><ele>45.8</ele><time>2026-04-26T08:18:55.999Z</time></trkpt><trkpt lat="43.77482928187443" lon="11.22967752249817"><ele>46.0</ele><time>2026-04-26T08:18:56.999Z</time></trkpt><trkpt lat="43.774857944897725" lon="11.229576780023242"><ele>45.599999999999994</ele><time>2026-04-26T08:18:57.999Z</time></trkpt><trkpt lat="43.774882997156396" lon="11.229489075681567"><ele>45.2</ele><time>2026-04-26T08:18:58.999Z</time></trkpt><trkpt lat="43.77490764753623" lon="11.229404714910713"><ele>44.8</ele><time>2026-04-26T08:18:59.999Z</time></trkpt><trkpt lat="43.77491321578266" lon="11.229235871418906"><ele>44.400000000000006</ele><time>2026-04-26T08:19:01.999Z</time></trkpt><trkpt lat="43.77482507463229" lon="11.229110718696667"><ele>44.0</ele><time>2026-04-26T08:19:03.999Z</time></trkpt><trkpt lat="43.774753293919346" lon="11.229095000686936"><ele>44.0</ele><time>2026-04-26T08:19:04.999Z</time></trkpt><trkpt lat="43.774687988345114" lon="11.229096075828389"><ele>44.0</ele><time>2026-04-26T08:19:05.999Z</time></trkpt><trkpt lat="43.77460848382798" lon="11.229085864435149"><ele>44.0</ele><time>2026-04-26T08:19:06.999Z</time></trkpt><trkpt lat="43.77452066589291" lon="11.229087219763265"><ele>44.0</ele><time>2026-04-26T08:19:07.999Z</time></trkpt><trkpt lat="43.77442404984594" lon="11.229084660565903"><ele>44.0</ele><time>2026-04-26T08:19:08.999Z</time></trkpt><trkpt lat="43.77431365780154" lon="11.229063942820087"><ele>44.0</ele><time>2026-04-26T08:19:09.999Z</time></trkpt><trkpt lat="43.7741933478456" lon="11.229052287154005"><ele>44.25</ele><time>2026-04-26T08:19:10.999Z</time></trkpt><trkpt lat="43.774077829759676" lon="11.229044147123085"><ele>44.5</ele><time>2026-04-26T08:19:11.999Z</time></trkpt><trkpt lat="43.773965265094915" lon="11.229033589152165"><ele>44.75</ele><time>2026-04-26T08:19:12.999Z</time></trkpt><trkpt lat="43.77385428702227" lon="11.229019211152151"><ele>45.0</ele><time>2026-04-26T08:19:13.999Z</time></trkpt><trkpt lat="43.77373919829628" lon="11.229012183506443"><ele>45.0</ele><time>2026-04-26T08:19:14.999Z</time></trkpt><trkpt lat="43.77362442933852" lon="11.229010222456628"><ele>45.0</ele><time>2026-04-26T08:19:15.999Z</time></trkpt><trkpt lat="43.7735156569969" lon="11.229005638616213"><ele>45.0</ele><time>2026-04-26T08:19:16.999Z</time></trkpt><trkpt lat="43.7734174659178" lon="11.229052260686364"><ele>45.0</ele><time>2026-04-26T08:19:17.999Z</time></trkpt><trkpt lat="43.77333395718236" lon="11.229089494680146"><ele>45.0</ele><time>2026-04-26T08:19:18.999Z</time></trkpt><trkpt lat="43.7732518382924" lon="11.229134227517754"><ele>45.0</ele><time>2026-04-26T08:19:19.999Z</time></trkpt><trkpt lat="43.77319789774647" lon="11.229183412719454"><ele>45.0</ele><time>2026-04-26T08:19:20.999Z</time></trkpt><trkpt lat="43.77310008552316" lon="11.22929335035415"><ele>45.0</ele><time>2026-04-26T08:19:22.999Z</time></trkpt><trkpt lat="43.77305645686547" lon="11.229393170779861"><ele>45.0</ele><time>2026-04-26T08:19:23.999Z</time></trkpt><trkpt lat="43.772997457505625" lon="11.229507541349356"><ele>45.0</ele><time>2026-04-26T08:19:24.999Z</time></trkpt><trkpt lat="43.77291226006862" lon="11.229614834365877"><ele>45.0</ele><time>2026-04-26T08:19:25.999Z</time></trkpt><trkpt lat="43.77283243043007" lon="11.229732354207286"><ele>45.0</ele><time>2026-04-26T08:19:26.999Z</time></trkpt><trkpt lat="43.77275391756616" lon="11.229847887612788"><ele>45.0</ele><time>2026-04-26T08:19:27.999Z</time></trkpt><trkpt lat="43.77267989114418" lon="11.229962740842028"><ele>45.0</ele><time>2026-04-26T08:19:28.999Z</time></trkpt><trkpt lat="43.772609057228124" lon="11.23007381903365"><ele>45.0</ele><time>2026-04-26T08:19:29.999Z</time></trkpt><trkpt lat="43.77254231474817" lon="11.23017592244821"><ele>45.5</ele><time>2026-04-26T08:19:30.999Z</time></trkpt><trkpt lat="43.77248415428681" lon="11.230265371734335"><ele>46.0</ele><time>2026-04-26T08:19:31.999Z</time></trkpt><trkpt lat="43.772435523440876" lon="11.230347513708475"><ele>46.5</ele><time>2026-04-26T08:19:32.999Z</time></trkpt><trkpt lat="43.77239190619813" lon="11.230505295560635"><ele>47.0</ele><time>2026-04-26T08:19:34.999Z</time></trkpt><trkpt lat="43.7723586754319" lon="11.230614946666693"><ele>47.5</ele><time>2026-04-26T08:19:35.999Z</time></trkpt><trkpt lat="43.7723500925746" lon="11.230720795743208"><ele>48.0</ele><time>2026-04-26T08:19:36.999Z</time></trkpt><trkpt lat="43.772325556692316" lon="11.230836773706594"><ele>48.0</ele><time>2026-04-26T08:19:37.999Z</time></trkpt><trkpt lat="43.772299386006914" lon="11.2309673314739"><ele>48.0</ele><time>2026-04-26T08:19:38.999Z</time></trkpt><trkpt lat="43.77227502515075" lon="11.231098328640764"><ele>48.0</ele><time>2026-04-26T08:19:39.999Z</time></trkpt><trkpt lat="43.77224414866208" lon="11.231232420392029"><ele>48.0</ele><time>2026-04-26T08:19:40.999Z</time></trkpt><trkpt lat="43.772211911031945" lon="11.231367227814596"><ele>48.0</ele><time>2026-04-26T08:19:41.999Z</time></trkpt><trkpt lat="43.772185182318175" lon="11.231505705161446"><ele>47.5</ele><time>2026-04-26T08:19:42.999Z</time></trkpt><trkpt lat="43.772152433944285" lon="11.231633378994339"><ele>47.0</ele><time>2026-04-26T08:19:43.999Z</time></trkpt><trkpt lat="43.77212193168476" lon="11.231749820027186"><ele>46.5</ele><time>2026-04-26T08:19:44.999Z</time></trkpt><trkpt lat="43.772095629233284" lon="11.231846922380155"><ele>46.0</ele><time>2026-04-26T08:19:45.999Z</time></trkpt><trkpt lat="43.77207244862792" lon="11.231948589942931"><ele>45.5</ele><time>2026-04-26T08:19:46.999Z</time></trkpt><trkpt lat="43.772048064923986" lon="11.232051766242122"><ele>45.0</ele><time>2026-04-26T08:19:47.999Z</time></trkpt><trkpt lat="43.77202185904919" lon="11.232163360169997"><ele>45.0</ele><time>2026-04-26T08:19:48.999Z</time></trkpt><trkpt lat="43.77200040589553" lon="11.232260520302601"><ele>45.0</ele><time>2026-04-26T08:19:49.999Z</time></trkpt><trkpt lat="43.77195723410234" lon="11.232410406485176"><ele>45.0</ele><time>2026-04-26T08:19:51.999Z</time></trkpt><trkpt lat="43.77184646368656" lon="11.232512209898639"><ele>45.0</ele><time>2026-04-26T08:19:53.999Z</time></trkpt><trkpt lat="43.77176982082618" lon="11.232533088017252"><ele>45.0</ele><time>2026-04-26T08:19:54.999Z</time></trkpt><trkpt lat="43.771688176529835" lon="11.23256020161413"><ele>45.166666666666664</ele><time>2026-04-26T08:19:55.999Z</time></trkpt><trkpt lat="43.77161272591549" lon="11.232605507580372"><ele>45.333333333333336</ele><time>2026-04-26T08:19:56.999Z</time></trkpt><trkpt lat="43.77155483026798" lon="11.23265612520875"><ele>45.5</ele><time>2026-04-26T08:19:57.999Z</time></trkpt><trkpt lat="43.77148676506912" lon="11.232762873160585"><ele>45.66666666666667</ele><time>2026-04-26T08:19:59.999Z</time></trkpt><trkpt lat="43.77143447131649" lon="11.232855853339665"><ele>45.833333333333336</ele><time>2026-04-26T08:20:01.999Z</time></trkpt><trkpt lat="43.77138692553441" lon="11.232974167926345"><ele>46.0</ele><time>2026-04-26T08:20:03.999Z</time></trkpt><trkpt lat="43.77134283743422" lon="11.233082282817678"><ele>45.833333333333336</ele><time>2026-04-26T08:20:05.999Z</time></trkpt><trkpt lat="43.7712805606515" lon="11.233186136726246"><ele>45.66666666666667</ele><time>2026-04-26T08:20:07.999Z</time></trkpt><trkpt lat="43.7711983901766" lon="11.233198830350378"><ele>45.5</ele><time>2026-04-26T08:20:08.999Z</time></trkpt><trkpt lat="43.77112896650884" lon="11.233216795936556"><ele>45.333333333333336</ele><time>2026-04-26T08:20:09.999Z</time></trkpt><trkpt lat="43.77104953335081" lon="11.233236147528787"><ele>45.166666666666664</ele><time>2026-04-26T08:20:10.999Z</time></trkpt><trkpt lat="43.77097216842236" lon="11.233256997988027"><ele>45.0</ele><time>2026-04-26T08:20:11.999Z</time></trkpt><trkpt lat="43.77090539232662" lon="11.233273471692879"><ele>45.333333333333336</ele><time>2026-04-26T08:20:12.999Z</time></trkpt><trkpt lat="43.77083044041791" lon="11.233298060458083"><ele>45.666666666666664</ele><time>2026-04-26T08:20:13.999Z</time></trkpt><trkpt lat="43.770753382269795" lon="11.233328271129317"><ele>46.0</ele><time>2026-04-26T08:20:14.999Z</time></trkpt><trkpt lat="43.770674832330364" lon="11.233368073334303"><ele>46.33333333333333</ele><time>2026-04-26T08:20:15.999Z</time></trkpt><trkpt lat="43.77059519866483" lon="11.233410962210563"><ele>46.666666666666664</ele><time>2026-04-26T08:20:16.999Z</time></trkpt><trkpt lat="43.77052155783704" lon="11.233456867313306"><ele>47.0</ele><time>2026-04-26T08:20:17.999Z</time></trkpt><trkpt lat="43.77044687072209" lon="11.233510603229183"><ele>47.0</ele><time>2026-04-26T08:20:18.999Z</time></trkpt><trkpt lat="43.77037559951547" lon="11.233565666343697"><ele>47.0</ele><time>2026-04-26T08:20:19.999Z</time></trkpt><trkpt lat="43.77030219102636" lon="11.233633288293795"><ele>47.0</ele><time>2026-04-26T08:20:20.999Z</time></trkpt><trkpt lat="43.77023703579122" lon="11.233699447475066"><ele>47.0</ele><time>2026-04-26T08:20:21.999Z</time></trkpt><trkpt lat="43.770173848864864" lon="11.233765182160054"><ele>47.0</ele><time>2026-04-26T08:20:22.999Z</time></trkpt><trkpt lat="43.770114106442186" lon="11.233834805408495"><ele>47.0</ele><time>2026-04-26T08:20:23.999Z</time></trkpt><trkpt lat="43.770058244900234" lon="11.233906844928592"><ele>47.5</ele><time>2026-04-26T08:20:24.999Z</time></trkpt><trkpt lat="43.770001169509904" lon="11.233982779601979"><ele>48.0</ele><time>2026-04-26T08:20:25.999Z</time></trkpt><trkpt lat="43.76994355328117" lon="11.234065645797216"><ele>48.5</ele><time>2026-04-26T08:20:26.999Z</time></trkpt><trkpt lat="43.76988844324852" lon="11.234159163295153"><ele>49.0</ele><time>2026-04-26T08:20:27.999Z</time></trkpt><trkpt lat="43.769831315946334" lon="11.234261797711392"><ele>49.50000000000001</ele><time>2026-04-26T08:20:28.999Z</time></trkpt><trkpt lat="43.76978029805333" lon="11.234365188490365"><ele>50.0</ele><time>2026-04-26T08:20:29.999Z</time></trkpt><trkpt lat="43.76973072864742" lon="11.234459752460495"><ele>50.0</ele><time>2026-04-26T08:20:30.999Z</time></trkpt><trkpt lat="43.769687181320016" lon="11.234581106771737"><ele>50.0</ele><time>2026-04-26T08:20:31.999Z</time></trkpt><trkpt lat="43.769637706995475" lon="11.234703530054796"><ele>50.0</ele><time>2026-04-26T08:20:32.999Z</time></trkpt><trkpt lat="43.769590510748834" lon="11.234832427492986"><ele>50.0</ele><time>2026-04-26T08:20:33.999Z</time></trkpt><trkpt lat="43.769538827798506" lon="11.234960605479817"><ele>50.0</ele><time>2026-04-26T08:20:34.999Z</time></trkpt><trkpt lat="43.7694855524804" lon="11.235103252845294"><ele>50.0</ele><time>2026-04-26T08:20:35.999Z</time></trkpt><trkpt lat="43.76942666588697" lon="11.235253563760974"><ele>50.0</ele><time>2026-04-26T08:20:37Z</time></trkpt><trkpt lat="43.76936609445899" lon="11.235406952596703"><ele>50.0</ele><time>2026-04-26T08:20:38Z</time></trkpt><trkpt lat="43.76930120174327" lon="11.235556971950151"><ele>50.0</ele><time>2026-04-26T08:20:39Z</time></trkpt><trkpt lat="43.769241337061985" lon="11.235711729913364"><ele>49.25</ele><time>2026-04-26T08:20:40Z</time></trkpt><trkpt lat="43.769181319894415" lon="11.235875555413969"><ele>48.5</ele><time>2026-04-26T08:20:41Z</time></trkpt><trkpt lat="43.76911909460036" lon="11.236039677265627"><ele>47.75</ele><time>2026-04-26T08:20:42Z</time></trkpt><trkpt lat="43.76905550569191" lon="11.236211339822077"><ele>47.0</ele><time>2026-04-26T08:20:43Z</time></trkpt><trkpt lat="43.768991475807034" lon="11.236382240905634"><ele>47.25</ele><time>2026-04-26T08:20:44Z</time></trkpt><trkpt lat="43.768922871227666" lon="11.236558860131744"><ele>47.5</ele><time>2026-04-26T08:20:45Z</time></trkpt><trkpt lat="43.768853703156154" lon="11.236736849536978"><ele>47.75</ele><time>2026-04-26T08:20:46Z</time></trkpt><trkpt lat="43.768785029867274" lon="11.236907887521692"><ele>48.0</ele><time>2026-04-26T08:20:47Z</time></trkpt><trkpt lat="43.768715966746846" lon="11.237082128190321"><ele>48.0</ele><time>2026-04-26T08:20:48Z</time></trkpt><trkpt lat="43.76864755160637" lon="11.23725558857759"><ele>48.0</ele><time>2026-04-26T08:20:49Z</time></trkpt><trkpt lat="43.768581312030115" lon="11.237421252225474"><ele>48.0</ele><time>2026-04-26T08:20:50Z</time></trkpt><trkpt lat="43.768516904299936" lon="11.2375854567462"><ele>48.0</ele><time>2026-04-26T08:20:51Z</time></trkpt><trkpt lat="43.76845620782358" lon="11.237743665590832"><ele>48.2</ele><time>2026-04-26T08:20:52Z</time></trkpt><trkpt lat="43.76839864263034" lon="11.23789337649744"><ele>48.4</ele><time>2026-04-26T08:20:53Z</time></trkpt><trkpt lat="43.768346601716026" lon="11.238031059714878"><ele>48.6</ele><time>2026-04-26T08:20:54Z</time></trkpt><trkpt lat="43.76830183596272" lon="11.238146174975483"><ele>48.800000000000004</ele><time>2026-04-26T08:20:55Z</time></trkpt><trkpt lat="43.768258489021974" lon="11.238260461059346"><ele>49.0</ele><time>2026-04-26T08:20:56Z</time></trkpt><trkpt lat="43.76821816048651" lon="11.238361509270094"><ele>49.166666666666664</ele><time>2026-04-26T08:20:57Z</time></trkpt><trkpt lat="43.76818389180362" lon="11.23844603215787"><ele>49.33333333333333</ele><time>2026-04-26T08:20:58Z</time></trkpt><trkpt lat="43.768152911901176" lon="11.23852746052859"><ele>49.5</ele><time>2026-04-26T08:20:59Z</time></trkpt><trkpt lat="43.768113063285824" lon="11.238640907320857"><ele>49.66666666666667</ele><time>2026-04-26T08:21:01Z</time></trkpt><trkpt lat="43.768087644412674" lon="11.238747368653248"><ele>49.833333333333336</ele><time>2026-04-26T08:21:25.999Z</time></trkpt><trkpt lat="43.7680351566309" lon="11.23888790970069"><ele>50.0</ele><time>2026-04-26T08:21:27.999Z</time></trkpt><trkpt lat="43.767991495374" lon="11.238957831759082"><ele>49.66666666666667</ele><time>2026-04-26T08:21:28.999Z</time></trkpt><trkpt lat="43.76794274206834" lon="11.239043631109997"><ele>49.333333333333336</ele><time>2026-04-26T08:21:29.999Z</time></trkpt><trkpt lat="43.76788152069944" lon="11.23913142884228"><ele>49.0</ele><time>2026-04-26T08:21:30.999Z</time></trkpt><trkpt lat="43.76781691032556" lon="11.239210642944798"><ele>48.66666666666667</ele><time>2026-04-26T08:21:31.999Z</time></trkpt><trkpt lat="43.76776496346307" lon="11.2392817668026"><ele>48.333333333333336</ele><time>2026-04-26T08:21:32.999Z</time></trkpt><trkpt lat="43.767709013532965" lon="11.239355211544515"><ele>48.0</ele><time>2026-04-26T08:21:33.999Z</time></trkpt><trkpt lat="43.76764621089738" lon="11.239434335412342"><ele>48.0</ele><time>2026-04-26T08:21:34.999Z</time></trkpt><trkpt lat="43.767580864702765" lon="11.23951813043446"><ele>48.0</ele><time>2026-04-26T08:21:35.999Z</time></trkpt><trkpt lat="43.767509869680396" lon="11.239608981293024"><ele>48.0</ele><time>2026-04-26T08:21:36.999Z</time></trkpt><trkpt lat="43.76743745702799" lon="11.239702910151829"><ele>48.0</ele><time>2026-04-26T08:21:37.999Z</time></trkpt><trkpt lat="43.76736774383033" lon="11.239792423426971"><ele>48.0</ele><time>2026-04-26T08:21:38.999Z</time></trkpt><trkpt lat="43.76730002445023" lon="11.239882252348568"><ele>48.0</ele><time>2026-04-26T08:21:39.999Z</time></trkpt><trkpt lat="43.767231200531796" lon="11.239968742222734"><ele>48.0</ele><time>2026-04-26T08:21:40.999Z</time></trkpt><trkpt lat="43.76715934798148" lon="11.24006088006488"><ele>48.0</ele><time>2026-04-26T08:21:41.999Z</time></trkpt><trkpt lat="43.767087473037876" lon="11.240142528314683"><ele>48.0</ele><time>2026-04-26T08:21:42.999Z</time></trkpt><trkpt lat="43.76701800195104" lon="11.240222820445693"><ele>48.0</ele><time>2026-04-26T08:21:43.999Z</time></trkpt><trkpt lat="43.766944023309115" lon="11.240307041460914"><ele>48.0</ele><time>2026-04-26T08:21:44.999Z</time></trkpt><trkpt lat="43.7668717910878" lon="11.240384648349266"><ele>48.0</ele><time>2026-04-26T08:21:45.999Z</time></trkpt><trkpt lat="43.766790940778996" lon="11.24045690044553"><ele>48.0</ele><time>2026-04-26T08:21:46.999Z</time></trkpt><trkpt lat="43.76670101989478" lon="11.240530624960753"><ele>48.0</ele><time>2026-04-26T08:21:47.999Z</time></trkpt><trkpt lat="43.76660731128827" lon="11.24059134527334"><ele>48.0</ele><time>2026-04-26T08:21:48.999Z</time></trkpt><trkpt lat="43.76651263130218" lon="11.24064381564927"><ele>48.4</ele><time>2026-04-26T08:21:49.999Z</time></trkpt><trkpt lat="43.76641538456592" lon="11.240687820241265"><ele>48.8</ele><time>2026-04-26T08:21:50.999Z</time></trkpt><trkpt lat="43.76631691433953" lon="11.240716628732654"><ele>49.2</ele><time>2026-04-26T08:21:51.999Z</time></trkpt><trkpt lat="43.766215785037" lon="11.240741479658169"><ele>49.6</ele><time>2026-04-26T08:21:52.999Z</time></trkpt><trkpt lat="43.76610254174233" lon="11.240759534743352"><ele>50.0</ele><time>2026-04-26T08:21:53.999Z</time></trkpt><trkpt lat="43.765977149661026" lon="11.240778633043753"><ele>50.75</ele><time>2026-04-26T08:21:54.999Z</time></trkpt><trkpt lat="43.76584855272862" lon="11.240791784434146"><ele>51.5</ele><time>2026-04-26T08:21:55.999Z</time></trkpt><trkpt lat="43.76571646826882" lon="11.240807752329186"><ele>52.25</ele><time>2026-04-26T08:21:56.999Z</time></trkpt><trkpt lat="43.76558058056502" lon="11.240823579270316"><ele>53.0</ele><time>2026-04-26T08:21:57.999Z</time></trkpt><trkpt lat="43.76544951277921" lon="11.240839296050822"><ele>53.0</ele><time>2026-04-26T08:21:58.999Z</time></trkpt><trkpt lat="43.76531865093234" lon="11.240850418997947"><ele>53.0</ele><time>2026-04-26T08:21:59.999Z</time></trkpt><trkpt lat="43.76519488033006" lon="11.240870065612432"><ele>53.0</ele><time>2026-04-26T08:22:00.999Z</time></trkpt><trkpt lat="43.76507797714093" lon="11.240884841512665"><ele>53.0</ele><time>2026-04-26T08:22:01.999Z</time></trkpt><trkpt lat="43.76497018611395" lon="11.240894833205832"><ele>53.2</ele><time>2026-04-26T08:22:02.999Z</time></trkpt><trkpt lat="43.764862629110105" lon="11.240900279396191"><ele>53.4</ele><time>2026-04-26T08:22:03.999Z</time></trkpt><trkpt lat="43.76475472607003" lon="11.24090866171314"><ele>53.60000000000001</ele><time>2026-04-26T08:22:04.999Z</time></trkpt><trkpt lat="43.76464914455498" lon="11.240915963801674"><ele>53.800000000000004</ele><time>2026-04-26T08:22:05.999Z</time></trkpt><trkpt lat="43.76453871570097" lon="11.240927660535071"><ele>54.0</ele><time>2026-04-26T08:22:06.999Z</time></trkpt><trkpt lat="43.76442377823005" lon="11.240940446989326"><ele>53.25</ele><time>2026-04-26T08:22:07.999Z</time></trkpt><trkpt lat="43.76430800457819" lon="11.240951807089512"><ele>52.5</ele><time>2026-04-26T08:22:08.999Z</time></trkpt><trkpt lat="43.76419133273469" lon="11.240960935136274"><ele>51.75</ele><time>2026-04-26T08:22:09.999Z</time></trkpt><trkpt lat="43.76407620663793" lon="11.240974826258636"><ele>51.0</ele><time>2026-04-26T08:22:10.999Z</time></trkpt><trkpt lat="43.76395950623833" lon="11.240985371789648"><ele>51.0</ele><time>2026-04-26T08:22:11.999Z</time></trkpt><trkpt lat="43.763846188184395" lon="11.240994056720439"><ele>51.0</ele><time>2026-04-26T08:22:12.999Z</time></trkpt><trkpt lat="43.76373561829636" lon="11.241009721852228"><ele>51.0</ele><time>2026-04-26T08:22:13.999Z</time></trkpt><trkpt lat="43.76362478988406" lon="11.241020228042142"><ele>51.0</ele><time>2026-04-26T08:22:14.999Z</time></trkpt><trkpt lat="43.763515938384906" lon="11.241034514391405"><ele>51.0</ele><time>2026-04-26T08:22:15.999Z</time></trkpt><trkpt lat="43.76340528778524" lon="11.241048454756244"><ele>51.5</ele><time>2026-04-26T08:22:16.999Z</time></trkpt><trkpt lat="43.76329574987124" lon="11.24105734178213"><ele>52.0</ele><time>2026-04-26T08:22:17.999Z</time></trkpt><trkpt lat="43.76317812417874" lon="11.241072349670777"><ele>52.5</ele><time>2026-04-26T08:22:18.999Z</time></trkpt><trkpt lat="43.76305898969995" lon="11.24108478902745"><ele>53.0</ele><time>2026-04-26T08:22:19.999Z</time></trkpt><trkpt lat="43.76293556381479" lon="11.241101511742436"><ele>53.0</ele><time>2026-04-26T08:22:20.999Z</time></trkpt><trkpt lat="43.76280843990652" lon="11.241110310026862"><ele>53.0</ele><time>2026-04-26T08:22:21.999Z</time></trkpt><trkpt lat="43.76268251658185" lon="11.241122163173657"><ele>53.0</ele><time>2026-04-26T08:22:22.999Z</time></trkpt><trkpt lat="43.76255521080255" lon="11.241134798063264"><ele>53.0</ele><time>2026-04-26T08:22:23.999Z</time></trkpt><trkpt lat="43.76243022889361" lon="11.241151607733428"><ele>53.25</ele><time>2026-04-26T08:22:24.999Z</time></trkpt><trkpt lat="43.762302880809074" lon="11.241163691355535"><ele>53.5</ele><time>2026-04-26T08:22:25.999Z</time></trkpt><trkpt lat="43.762177752433686" lon="11.241182352032078"><ele>53.75</ele><time>2026-04-26T08:22:26.999Z</time></trkpt><trkpt lat="43.7620566297807" lon="11.241194667653636"><ele>54.0</ele><time>2026-04-26T08:22:27.999Z</time></trkpt><trkpt lat="43.761944847503145" lon="11.241205356590529"><ele>54.5</ele><time>2026-04-26T08:22:28.999Z</time></trkpt><trkpt lat="43.761856905210784" lon="11.241207310955215"><ele>55.0</ele><time>2026-04-26T08:22:29.999Z</time></trkpt><trkpt lat="43.761789329052135" lon="11.241217028273216"><ele>55.5</ele><time>2026-04-26T08:22:30.999Z</time></trkpt><trkpt lat="43.761698064075375" lon="11.241223605124299"><ele>56.0</ele><time>2026-04-26T08:22:32.999Z</time></trkpt><trkpt lat="43.76161747451206" lon="11.24122139263639"><ele>56.5</ele><time>2026-04-26T08:22:35.999Z</time></trkpt><trkpt lat="43.76151794735924" lon="11.241231708639184"><ele>57.0</ele><time>2026-04-26T08:22:38.999Z</time></trkpt><trkpt lat="43.761412102532745" lon="11.241243879479281"><ele>57.0</ele><time>2026-04-26T08:22:40.999Z</time></trkpt><trkpt lat="43.76128878522786" lon="11.241260083329436"><ele>57.0</ele><time>2026-04-26T08:22:43Z</time></trkpt><trkpt lat="43.76117410602154" lon="11.241281907190936"><ele>57.0</ele><time>2026-04-26T08:22:45Z</time></trkpt><trkpt lat="43.7610734663725" lon="11.241311974101626"><ele>57.0</ele><time>2026-04-26T08:22:47Z</time></trkpt><trkpt lat="43.760991789941755" lon="11.241332928344045"><ele>57.0</ele><time>2026-04-26T08:22:49Z</time></trkpt><trkpt lat="43.76092043990564" lon="11.24135036083946"><ele>57.0</ele><time>2026-04-26T08:22:51Z</time></trkpt><trkpt lat="43.76085786391783" lon="11.241364995610969"><ele>57.0</ele><time>2026-04-26T08:23:15Z</time></trkpt><trkpt lat="43.760766805736665" lon="11.24139425143205"><ele>57.0</ele><time>2026-04-26T08:23:18Z</time></trkpt><trkpt lat="43.76066429344492" lon="11.24141595198799"><ele>57.0</ele><time>2026-04-26T08:23:21Z</time></trkpt><trkpt lat="43.760586085753935" lon="11.241437649580567"><ele>57.0</ele><time>2026-04-26T08:23:23Z</time></trkpt><trkpt lat="43.76048177140596" lon="11.241477949309292"><ele>57.0</ele><time>2026-04-26T08:23:25Z</time></trkpt><trkpt lat="43.76035827065169" lon="11.241530899933828"><ele>57.0</ele><time>2026-04-26T08:23:27Z</time></trkpt><trkpt lat="43.76028859324894" lon="11.241541240483949"><ele>56.99999999999999</ele><time>2026-04-26T08:23:28Z</time></trkpt><trkpt lat="43.76021837659391" lon="11.241540577143313"><ele>57.0</ele><time>2026-04-26T08:23:28.999Z</time></trkpt><trkpt lat="43.76014117509838" lon="11.24153622544151"><ele>57.0</ele><time>2026-04-26T08:23:29.999Z</time></trkpt><trkpt lat="43.760061197866854" lon="11.24152877336581"><ele>56.99999999999999</ele><time>2026-04-26T08:23:30.999Z</time></trkpt><trkpt lat="43.75998631113301" lon="11.241517020468017"><ele>57.0</ele><time>2026-04-26T08:23:31.999Z</time></trkpt><trkpt lat="43.759919121431665" lon="11.241502247905306"><ele>57.0</ele><time>2026-04-26T08:23:32.999Z</time></trkpt><trkpt lat="43.7598480188456" lon="11.241491480366603"><ele>57.0</ele><time>2026-04-26T08:23:33.999Z</time></trkpt><trkpt lat="43.75977429495594" lon="11.241469114927533"><ele>57.0</ele><time>2026-04-26T08:23:34.999Z</time></trkpt><trkpt lat="43.75969526445852" lon="11.241443753178078"><ele>57.0</ele><time>2026-04-26T08:23:35.999Z</time></trkpt><trkpt lat="43.759612474361695" lon="11.241415132519865"><ele>57.0</ele><time>2026-04-26T08:23:36.999Z</time></trkpt><trkpt lat="43.75952703540995" lon="11.241387073024654"><ele>57.0</ele><time>2026-04-26T08:23:37.999Z</time></trkpt><trkpt lat="43.759437836923276" lon="11.241362457348515"><ele>57.0</ele><time>2026-04-26T08:23:38.999Z</time></trkpt><trkpt lat="43.75935043954298" lon="11.241337706820596"><ele>58.2</ele><time>2026-04-26T08:23:39.999Z</time></trkpt><trkpt lat="43.75926514701398" lon="11.24131314289327"><ele>59.400000000000006</ele><time>2026-04-26T08:23:40.999Z</time></trkpt><trkpt lat="43.759175862350595" lon="11.241283018347573"><ele>60.599999999999994</ele><time>2026-04-26T08:23:41.999Z</time></trkpt><trkpt lat="43.759085872511626" lon="11.24125425683823"><ele>61.8</ele><time>2026-04-26T08:23:42.999Z</time></trkpt><trkpt lat="43.758994831217656" lon="11.241220262612595"><ele>63.0</ele><time>2026-04-26T08:23:43.999Z</time></trkpt><trkpt lat="43.758899889619656" lon="11.241186875855362"><ele>63.0</ele><time>2026-04-26T08:23:44.999Z</time></trkpt><trkpt lat="43.75879863422883" lon="11.241147741297592"><ele>63.0</ele><time>2026-04-26T08:23:45.999Z</time></trkpt><trkpt lat="43.75868870883638" lon="11.241104977346295"><ele>63.0</ele><time>2026-04-26T08:23:46.999Z</time></trkpt><trkpt lat="43.75857149647972" lon="11.241064508688739"><ele>63.0</ele><time>2026-04-26T08:23:47.999Z</time></trkpt><trkpt lat="43.7584557104482" lon="11.241020821689311"><ele>63.75</ele><time>2026-04-26T08:23:48.999Z</time></trkpt><trkpt lat="43.7583401604296" lon="11.240973328671359"><ele>64.5</ele><time>2026-04-26T08:23:49.999Z</time></trkpt><trkpt lat="43.7582197890481" lon="11.240922986089723"><ele>65.25</ele><time>2026-04-26T08:23:50.999Z</time></trkpt><trkpt lat="43.75809896154837" lon="11.240872346907478"><ele>66.0</ele><time>2026-04-26T08:23:51.999Z</time></trkpt><trkpt lat="43.757977868573164" lon="11.240820057926998"><ele>66.0</ele><time>2026-04-26T08:23:52.999Z</time></trkpt><trkpt lat="43.757851761196655" lon="11.240766971036459"><ele>66.0</ele><time>2026-04-26T08:23:53.999Z</time></trkpt><trkpt lat="43.75772503157628" lon="11.240720886980702"><ele>66.0</ele><time>2026-04-26T08:23:54.999Z</time></trkpt><trkpt lat="43.75760058009032" lon="11.240673482637781"><ele>66.0</ele><time>2026-04-26T08:23:55.999Z</time></trkpt><trkpt lat="43.75747680313825" lon="11.240626655112623"><ele>67.0</ele><time>2026-04-26T08:23:56.999Z</time></trkpt><trkpt lat="43.75735642179253" lon="11.240578564603478"><ele>68.0</ele><time>2026-04-26T08:23:57.999Z</time></trkpt><trkpt lat="43.7572402158736" lon="11.240531707254641"><ele>69.0</ele><time>2026-04-26T08:23:58.999Z</time></trkpt><trkpt lat="43.757123992752305" lon="11.240483485510362"><ele>70.0</ele><time>2026-04-26T08:23:59.999Z</time></trkpt><trkpt lat="43.75701222295228" lon="11.240434824928915"><ele>70.0</ele><time>2026-04-26T08:24:00.999Z</time></trkpt><trkpt lat="43.7568986663703" lon="11.240387031525884"><ele>70.0</ele><time>2026-04-26T08:24:01.999Z</time></trkpt><trkpt lat="43.756778931674916" lon="11.240336967448643"><ele>70.0</ele><time>2026-04-26T08:24:02.999Z</time></trkpt><trkpt lat="43.75665879696444" lon="11.24029677546738"><ele>70.0</ele><time>2026-04-26T08:24:03.999Z</time></trkpt><trkpt lat="43.75653898073197" lon="11.240262002916847"><ele>70.0</ele><time>2026-04-26T08:24:04.999Z</time></trkpt><trkpt lat="43.75641526021229" lon="11.240230033231684"><ele>70.0</ele><time>2026-04-26T08:24:05.999Z</time></trkpt><trkpt lat="43.756289338622686" lon="11.240203901150077"><ele>70.0</ele><time>2026-04-26T08:24:06.999Z</time></trkpt><trkpt lat="43.756158172100214" lon="11.240168655998227"><ele>70.0</ele><time>2026-04-26T08:24:07.999Z</time></trkpt><trkpt lat="43.756029020576555" lon="11.240133703555067"><ele>71.25</ele><time>2026-04-26T08:24:08.999Z</time></trkpt><trkpt lat="43.7559004460449" lon="11.240095001799343"><ele>72.5</ele><time>2026-04-26T08:24:09.999Z</time></trkpt><trkpt lat="43.75576793993666" lon="11.240051150935022"><ele>73.75</ele><time>2026-04-26T08:24:10.999Z</time></trkpt><trkpt lat="43.75563806250725" lon="11.240011681403141"><ele>75.0</ele><time>2026-04-26T08:24:11.999Z</time></trkpt><trkpt lat="43.755505705595766" lon="11.239969136512522"><ele>75.0</ele><time>2026-04-26T08:24:12.999Z</time></trkpt><trkpt lat="43.75537483024109" lon="11.239922843656487"><ele>75.0</ele><time>2026-04-26T08:24:13.999Z</time></trkpt><trkpt lat="43.755244776283725" lon="11.239876507279497"><ele>75.0</ele><time>2026-04-26T08:24:14.999Z</time></trkpt><trkpt lat="43.755115305557254" lon="11.239827129953602"><ele>75.0</ele><time>2026-04-26T08:24:15.999Z</time></trkpt><trkpt lat="43.75498653249709" lon="11.239779492706157"><ele>77.25</ele><time>2026-04-26T08:24:16.999Z</time></trkpt><trkpt lat="43.754856114366135" lon="11.239730788590139"><ele>79.5</ele><time>2026-04-26T08:24:17.999Z</time></trkpt><trkpt lat="43.75473129373224" lon="11.239686666744184"><ele>81.75</ele><time>2026-04-26T08:24:18.999Z</time></trkpt><trkpt lat="43.75460762616673" lon="11.23963571148876"><ele>84.0</ele><time>2026-04-26T08:24:19.999Z</time></trkpt><trkpt lat="43.75448792529412" lon="11.239587538917679"><ele>85.75</ele><time>2026-04-26T08:24:20.999Z</time></trkpt><trkpt lat="43.75436832360466" lon="11.239541890892422"><ele>87.5</ele><time>2026-04-26T08:24:21.999Z</time></trkpt><trkpt lat="43.75425105042191" lon="11.23949836387783"><ele>89.25</ele><time>2026-04-26T08:24:22.999Z</time></trkpt><trkpt lat="43.7541324144782" lon="11.23945505179924"><ele>91.0</ele><time>2026-04-26T08:24:23.999Z</time></trkpt><trkpt lat="43.7540142443733" lon="11.239421487637095"><ele>91.0</ele><time>2026-04-26T08:24:24.999Z</time></trkpt><trkpt lat="43.753895253284" lon="11.239381816590258"><ele>91.0</ele><time>2026-04-26T08:24:25.999Z</time></trkpt><trkpt lat="43.75377278871328" lon="11.239338143148064"><ele>91.0</ele><time>2026-04-26T08:24:26.999Z</time></trkpt><trkpt lat="43.75365487858925" lon="11.23930267605088"><ele>91.0</ele><time>2026-04-26T08:24:27.999Z</time></trkpt><trkpt lat="43.7535375999906" lon="11.239263827798991"><ele>93.0</ele><time>2026-04-26T08:24:28.999Z</time></trkpt><trkpt lat="43.75342015088838" lon="11.239221328341229"><ele>95.0</ele><time>2026-04-26T08:24:29.999Z</time></trkpt><trkpt lat="43.75330019693562" lon="11.239177829159388"><ele>97.0</ele><time>2026-04-26T08:24:30.999Z</time></trkpt><trkpt lat="43.75318313879643" lon="11.239130199728766"><ele>99.0</ele><time>2026-04-26T08:24:31.999Z</time></trkpt><trkpt lat="43.753066441172024" lon="11.239080975565765"><ele>99.0</ele><time>2026-04-26T08:24:32.999Z</time></trkpt><trkpt lat="43.75295020398402" lon="11.2390221028134"><ele>99.0</ele><time>2026-04-26T08:24:33.999Z</time></trkpt><trkpt lat="43.75283577225235" lon="11.238954337537288"><ele>99.0</ele><time>2026-04-26T08:24:34.999Z</time></trkpt><trkpt lat="43.752725082401966" lon="11.238877988788085"><ele>99.0</ele><time>2026-04-26T08:24:35.999Z</time></trkpt><trkpt lat="43.75261361322752" lon="11.238804898632633"><ele>100.0</ele><time>2026-04-26T08:24:36.999Z</time></trkpt><trkpt lat="43.75251331270095" lon="11.23870840709981"><ele>101.0</ele><time>2026-04-26T08:24:37.999Z</time></trkpt><trkpt lat="43.752416688465686" lon="11.238604940965761"><ele>102.0</ele><time>2026-04-26T08:24:38.999Z</time></trkpt><trkpt lat="43.75232323890479" lon="11.23850652027657"><ele>103.0</ele><time>2026-04-26T08:24:39.999Z</time></trkpt><trkpt lat="43.75224174382626" lon="11.238419689241203"><ele>102.99999999999999</ele><time>2026-04-26T08:24:40.999Z</time></trkpt><trkpt lat="43.752163321814415" lon="11.238340723139476"><ele>103.0</ele><time>2026-04-26T08:24:41.999Z</time></trkpt><trkpt lat="43.75209765178834" lon="11.238270504180834"><ele>103.0</ele><time>2026-04-26T08:24:42.999Z</time></trkpt><trkpt lat="43.75204857908452" lon="11.23821425830712"><ele>103.0</ele><time>2026-04-26T08:24:43.999Z</time></trkpt><trkpt lat="43.75199640459428" lon="11.238156636493235"><ele>103.0</ele><time>2026-04-26T08:24:44.999Z</time></trkpt><trkpt lat="43.75194540191531" lon="11.23810282555792"><ele>102.99999999999999</ele><time>2026-04-26T08:24:45.999Z</time></trkpt><trkpt lat="43.75189126551571" lon="11.23804472346497"><ele>103.0</ele><time>2026-04-26T08:24:46.999Z</time></trkpt><trkpt lat="43.75183770639286" lon="11.237983457127047"><ele>102.33333333333334</ele><time>2026-04-26T08:24:48Z</time></trkpt><trkpt lat="43.75178254895985" lon="11.237920218950126"><ele>101.66666666666667</ele><time>2026-04-26T08:24:49Z</time></trkpt><trkpt lat="43.751724099510746" lon="11.237854389327774"><ele>101.0</ele><time>2026-04-26T08:24:50Z</time></trkpt><trkpt lat="43.75166444523251" lon="11.237786881699792"><ele>100.33333333333334</ele><time>2026-04-26T08:24:51Z</time></trkpt><trkpt lat="43.751600243720894" lon="11.237717284947706"><ele>99.66666666666667</ele><time>2026-04-26T08:24:52Z</time></trkpt><trkpt lat="43.75154578783349" lon="11.237626783248269"><ele>99.0</ele><time>2026-04-26T08:24:53Z</time></trkpt><trkpt lat="43.75146804878638" lon="11.237568473562742"><ele>99.0</ele><time>2026-04-26T08:24:54Z</time></trkpt><trkpt lat="43.75141885678249" lon="11.23748375756754"><ele>99.0</ele><time>2026-04-26T08:24:55Z</time></trkpt><trkpt lat="43.75135105012892" lon="11.237436129868035"><ele>99.0</ele><time>2026-04-26T08:24:56Z</time></trkpt><trkpt lat="43.75130646777226" lon="11.237357117436652"><ele>99.0</ele><time>2026-04-26T08:24:57Z</time></trkpt><trkpt lat="43.751244601641" lon="11.237315953672939"><ele>99.0</ele><time>2026-04-26T08:24:58Z</time></trkpt><trkpt lat="43.751207516557905" lon="11.237244266584625"><ele>99.0</ele><time>2026-04-26T08:24:59Z</time></trkpt><trkpt lat="43.75112746954103" lon="11.237153011358817"><ele>99.6</ele><time>2026-04-26T08:25:01Z</time></trkpt><trkpt lat="43.7510719894198" lon="11.237089762902281"><ele>100.2</ele><time>2026-04-26T08:25:38.999Z</time></trkpt><trkpt lat="43.750983658675096" lon="11.236989063243836"><ele>100.8</ele><time>2026-04-26T08:25:41.999Z</time></trkpt><trkpt lat="43.75090280686288" lon="11.2368976982839"><ele>101.39999999999999</ele><time>2026-04-26T08:25:43.999Z</time></trkpt><trkpt lat="43.75080920944304" lon="11.236791447275216"><ele>102.0</ele><time>2026-04-26T08:25:45.999Z</time></trkpt><trkpt lat="43.75075645605592" lon="11.236731562108643"><ele>100.71428571428572</ele><time>2026-04-26T08:25:46.999Z</time></trkpt><trkpt lat="43.750703975661985" lon="11.236671986880745"><ele>99.42857142857143</ele><time>2026-04-26T08:25:47.999Z</time></trkpt><trkpt lat="43.750652034715095" lon="11.236612088030725"><ele>98.14285714285714</ele><time>2026-04-26T08:25:48.999Z</time></trkpt><trkpt lat="43.75059732858874" lon="11.236547230589856"><ele>96.85714285714286</ele><time>2026-04-26T08:25:49.999Z</time></trkpt><trkpt lat="43.75053929144314" lon="11.236478424025114"><ele>95.57142857142857</ele><time>2026-04-26T08:25:50.999Z</time></trkpt><trkpt lat="43.750480807234254" lon="11.236409221013377"><ele>94.28571428571429</ele><time>2026-04-26T08:25:51.999Z</time></trkpt><trkpt lat="43.750423239205524" lon="11.236340451456604"><ele>93.0</ele><time>2026-04-26T08:25:52.999Z</time></trkpt><trkpt lat="43.75036333401681" lon="11.236267816697548"><ele>93.0</ele><time>2026-04-26T08:25:53.999Z</time></trkpt><trkpt lat="43.7503087000295" lon="11.236201454789692"><ele>93.0</ele><time>2026-04-26T08:25:54.999Z</time></trkpt><trkpt lat="43.7502595578481" lon="11.236143871684474"><ele>93.0</ele><time>2026-04-26T08:25:55.999Z</time></trkpt><trkpt lat="43.75016726804373" lon="11.236090801862689"><ele>93.0</ele><time>2026-04-26T08:25:57.999Z</time></trkpt><trkpt lat="43.75011017372695" lon="11.236025344041064"><ele>93.0</ele><time>2026-04-26T08:25:59.999Z</time></trkpt><trkpt lat="43.75004788802609" lon="11.235957886302398"><ele>93.0</ele><time>2026-04-26T08:26:01.999Z</time></trkpt><trkpt lat="43.749991416653025" lon="11.235861558484892"><ele>91.83333333333333</ele><time>2026-04-26T08:26:03.999Z</time></trkpt><trkpt lat="43.749916911662666" lon="11.235791037008283"><ele>90.66666666666667</ele><time>2026-04-26T08:26:05.999Z</time></trkpt><trkpt lat="43.749849079859175" lon="11.235727616694158"><ele>89.5</ele><time>2026-04-26T08:26:07.999Z</time></trkpt><trkpt lat="43.74974454146828" lon="11.235635394534645"><ele>88.33333333333334</ele><time>2026-04-26T08:26:09.999Z</time></trkpt><trkpt lat="43.749687013253876" lon="11.235584894739953"><ele>87.16666666666667</ele><time>2026-04-26T08:26:10.999Z</time></trkpt><trkpt lat="43.74963285431772" lon="11.2355311889684"><ele>86.0</ele><time>2026-04-26T08:26:13.999Z</time></trkpt><trkpt lat="43.74956222436283" lon="11.235446337801042"><ele>86.0</ele><time>2026-04-26T08:26:16.999Z</time></trkpt><trkpt lat="43.749490246469215" lon="11.235323988604785"><ele>86.0</ele><time>2026-04-26T08:26:18.999Z</time></trkpt><trkpt lat="43.74945355086792" lon="11.23525196068523"><ele>86.0</ele><time>2026-04-26T08:26:19.999Z</time></trkpt><trkpt lat="43.74941046822657" lon="11.235165947757384"><ele>86.0</ele><time>2026-04-26T08:26:20.999Z</time></trkpt><trkpt lat="43.74937116570213" lon="11.235078601725352"><ele>86.0</ele><time>2026-04-26T08:26:21.999Z</time></trkpt><trkpt lat="43.74932925640521" lon="11.234986466311353"><ele>86.0</ele><time>2026-04-26T08:26:22.999Z</time></trkpt><trkpt lat="43.74928656529103" lon="11.234891600669462"><ele>85.19999999999999</ele><time>2026-04-26T08:26:23.999Z</time></trkpt><trkpt lat="43.74923993680915" lon="11.234787985812972"><ele>84.39999999999999</ele><time>2026-04-26T08:26:24.999Z</time></trkpt><trkpt lat="43.749187750569476" lon="11.234676906897386"><ele>83.6</ele><time>2026-04-26T08:26:25.999Z</time></trkpt><trkpt lat="43.74913413723783" lon="11.23456491386832"><ele>82.8</ele><time>2026-04-26T08:26:26.999Z</time></trkpt><trkpt lat="43.74907934802767" lon="11.234450464670749"><ele>82.0</ele><time>2026-04-26T08:26:27.999Z</time></trkpt><trkpt lat="43.749024654862474" lon="11.2343362177456"><ele>82.0</ele><time>2026-04-26T08:26:28.999Z</time></trkpt><trkpt lat="43.748958395570014" lon="11.234196291180181"><ele>82.0</ele><time>2026-04-26T08:26:29.999Z</time></trkpt><trkpt lat="43.7488784430517" lon="11.234104045998025"><ele>82.0</ele><time>2026-04-26T08:26:30.999Z</time></trkpt><trkpt lat="43.74881026296867" lon="11.23396859299536"><ele>82.0</ele><time>2026-04-26T08:26:31.999Z</time></trkpt><trkpt lat="43.7487468608835" lon="11.233823064261438"><ele>82.0</ele><time>2026-04-26T08:26:32.999Z</time></trkpt><trkpt lat="43.74868147340686" lon="11.23368254305795"><ele>82.0</ele><time>2026-04-26T08:26:33.999Z</time></trkpt><trkpt lat="43.74861493782353" lon="11.233541731056178"><ele>82.0</ele><time>2026-04-26T08:26:34.999Z</time></trkpt><trkpt lat="43.74854770744415" lon="11.233398048048096"><ele>82.0</ele><time>2026-04-26T08:26:35.999Z</time></trkpt><trkpt lat="43.74850159590377" lon="11.23323124578092"><ele>81.75</ele><time>2026-04-26T08:26:36.999Z</time></trkpt><trkpt lat="43.74843318377042" lon="11.233089008027125"><ele>81.5</ele><time>2026-04-26T08:26:37.999Z</time></trkpt><trkpt lat="43.748363428676356" lon="11.23294181726162"><ele>81.25</ele><time>2026-04-26T08:26:38.999Z</time></trkpt><trkpt lat="43.74829321251659" lon="11.232793059086768"><ele>81.0</ele><time>2026-04-26T08:26:39.999Z</time></trkpt><trkpt lat="43.74822318487692" lon="11.232644700365165"><ele>81.0</ele><time>2026-04-26T08:26:40.999Z</time></trkpt><trkpt lat="43.74815349275306" lon="11.2324970547323"><ele>81.0</ele><time>2026-04-26T08:26:41.999Z</time></trkpt><trkpt lat="43.7480845541101" lon="11.232348515806668"><ele>81.0</ele><time>2026-04-26T08:26:42.999Z</time></trkpt><trkpt lat="43.748015729212575" lon="11.23220015503854"><ele>81.0</ele><time>2026-04-26T08:26:43.999Z</time></trkpt><trkpt lat="43.74794761354078" lon="11.23205120723463"><ele>81.25</ele><time>2026-04-26T08:26:44.999Z</time></trkpt><trkpt lat="43.7478772279295" lon="11.231897295807128"><ele>81.5</ele><time>2026-04-26T08:26:45.999Z</time></trkpt><trkpt lat="43.74780738733799" lon="11.231748906810097"><ele>81.75</ele><time>2026-04-26T08:26:46.999Z</time></trkpt><trkpt lat="43.74772596879134" lon="11.231616139544954"><ele>82.0</ele><time>2026-04-26T08:26:47.999Z</time></trkpt><trkpt lat="43.74766646958591" lon="11.231452333247992"><ele>80.75</ele><time>2026-04-26T08:26:48.999Z</time></trkpt><trkpt lat="43.747595689812236" lon="11.231302479441522"><ele>79.5</ele><time>2026-04-26T08:26:49.999Z</time></trkpt><trkpt lat="43.74752578013326" lon="11.23115272314098"><ele>78.25</ele><time>2026-04-26T08:26:50.999Z</time></trkpt><trkpt lat="43.74745688889123" lon="11.231003018314288"><ele>77.0</ele><time>2026-04-26T08:26:51.999Z</time></trkpt><trkpt lat="43.747387172473346" lon="11.230851524818224"><ele>77.0</ele><time>2026-04-26T08:26:52.999Z</time></trkpt><trkpt lat="43.74729608999341" lon="11.230719389514311"><ele>77.0</ele><time>2026-04-26T08:26:54Z</time></trkpt><trkpt lat="43.7472296501174" lon="11.230583548219206"><ele>77.0</ele><time>2026-04-26T08:26:55Z</time></trkpt><trkpt lat="43.74716283702003" lon="11.230454167468633"><ele>77.0</ele><time>2026-04-26T08:26:56Z</time></trkpt><trkpt lat="43.74707738676897" lon="11.230327480075315"><ele>77.75</ele><time>2026-04-26T08:26:57Z</time></trkpt><trkpt lat="43.74698779381278" lon="11.23020335135981"><ele>78.5</ele><time>2026-04-26T08:26:58Z</time></trkpt><trkpt lat="43.7468924731946" lon="11.230076718758266"><ele>79.25</ele><time>2026-04-26T08:26:59Z</time></trkpt><trkpt lat="43.746798427699694" lon="11.229953653218448"><ele>80.0</ele><time>2026-04-26T08:27:00Z</time></trkpt><trkpt lat="43.746711444987035" lon="11.229810953245966"><ele>78.75</ele><time>2026-04-26T08:27:01Z</time></trkpt><trkpt lat="43.74661218128964" lon="11.229685206940653"><ele>77.5</ele><time>2026-04-26T08:27:02Z</time></trkpt><trkpt lat="43.74651148115529" lon="11.229557641070272"><ele>76.25</ele><time>2026-04-26T08:27:03Z</time></trkpt><trkpt lat="43.74641369699936" lon="11.229433768996017"><ele>75.0</ele><time>2026-04-26T08:27:04Z</time></trkpt><trkpt lat="43.746317775614045" lon="11.229336008622948"><ele>75.0</ele><time>2026-04-26T08:27:05Z</time></trkpt><trkpt lat="43.746244562124126" lon="11.229239906852259"><ele>75.0</ele><time>2026-04-26T08:27:06Z</time></trkpt><trkpt lat="43.74617981893513" lon="11.229156491362122"><ele>75.0</ele><time>2026-04-26T08:27:07Z</time></trkpt><trkpt lat="43.746122645220716" lon="11.22908587308421"><ele>75.0</ele><time>2026-04-26T08:27:08Z</time></trkpt><trkpt lat="43.746067595858634" lon="11.229017607583158"><ele>75.0</ele><time>2026-04-26T08:27:09Z</time></trkpt><trkpt lat="43.746017408573145" lon="11.228953280815622"><ele>75.0</ele><time>2026-04-26T08:27:10Z</time></trkpt><trkpt lat="43.74596493501412" lon="11.228886029863457"><ele>75.0</ele><time>2026-04-26T08:27:11Z</time></trkpt><trkpt lat="43.745910568480866" lon="11.228815809371312"><ele>75.0</ele><time>2026-04-26T08:27:12Z</time></trkpt><trkpt lat="43.745853863726396" lon="11.22874368428667"><ele>75.0</ele><time>2026-04-26T08:27:13Z</time></trkpt><trkpt lat="43.74579636822804" lon="11.22866869690277"><ele>75.0</ele><time>2026-04-26T08:27:14Z</time></trkpt><trkpt lat="43.745737012917324" lon="11.228590913297404"><ele>75.0</ele><time>2026-04-26T08:27:15Z</time></trkpt><trkpt lat="43.74567567846479" lon="11.228508753499222"><ele>75.0</ele><time>2026-04-26T08:27:16Z</time></trkpt><trkpt lat="43.74561272721075" lon="11.228422349605419"><ele>75.0</ele><time>2026-04-26T08:27:17Z</time></trkpt><trkpt lat="43.74554748828567" lon="11.228335794364375"><ele>75.0</ele><time>2026-04-26T08:27:18Z</time></trkpt><trkpt lat="43.745478645571495" lon="11.228251319374209"><ele>75.0</ele><time>2026-04-26T08:27:19Z</time></trkpt><trkpt lat="43.74541082171882" lon="11.228172535028323"><ele>75.0</ele><time>2026-04-26T08:27:20Z</time></trkpt><trkpt lat="43.74534797198233" lon="11.228101119864148"><ele>75.0</ele><time>2026-04-26T08:27:21Z</time></trkpt><trkpt lat="43.74529448506824" lon="11.228034430674025"><ele>75.0</ele><time>2026-04-26T08:27:22Z</time></trkpt><trkpt lat="43.74523326279837" lon="11.22788264121148"><ele>75.0</ele><time>2026-04-26T08:27:24Z</time></trkpt><trkpt lat="43.745194787814086" lon="11.227753214610308"><ele>75.0</ele><time>2026-04-26T08:27:26Z</time></trkpt><trkpt lat="43.74517243937518" lon="11.22765282197865"><ele>75.0</ele><time>2026-04-26T08:27:28Z</time></trkpt><trkpt lat="43.745166667880156" lon="11.227559043762097"><ele>75.0</ele><time>2026-04-26T08:27:31Z</time></trkpt><trkpt lat="43.74510624891224" lon="11.227532167264238"><ele>75.0</ele><time>2026-04-26T08:33:31Z</time></trkpt><trkpt lat="43.74504766995701" lon="11.227462925016983"><ele>75.0</ele><time>2026-04-26T08:33:37Z</time></trkpt><trkpt lat="43.74491867927231" lon="11.22758708332448"><ele>75.0</ele><time>2026-04-26T08:33:40Z</time></trkpt><trkpt lat="43.744790115864376" lon="11.227559709524572"><ele>75.0</ele><time>2026-04-26T08:33:49Z</time></trkpt><trkpt lat="43.74473120252338" lon="11.227513168003583"><ele>75.0</ele><time>2026-04-26T08:33:50Z</time></trkpt><trkpt lat="43.74467019947045" lon="11.227458344834595"><ele>75.0</ele><time>2026-04-26T08:33:51Z</time></trkpt><trkpt lat="43.74460579919004" lon="11.227397988109674"><ele>75.0</ele><time>2026-04-26T08:33:52Z</time></trkpt><trkpt lat="43.74452723351306" lon="11.227328117335249"><ele>75.0</ele><time>2026-04-26T08:33:53Z</time></trkpt><trkpt lat="43.744441966291305" lon="11.22725094643153"><ele>74.5</ele><time>2026-04-26T08:33:54Z</time></trkpt><trkpt lat="43.74435521318712" lon="11.227169884092316"><ele>74.0</ele><time>2026-04-26T08:33:55Z</time></trkpt><trkpt lat="43.74426112086603" lon="11.227088443236527"><ele>73.5</ele><time>2026-04-26T08:33:56Z</time></trkpt><trkpt lat="43.74416064016655" lon="11.22700150911833"><ele>73.0</ele><time>2026-04-26T08:33:57Z</time></trkpt><trkpt lat="43.744057951212014" lon="11.226905521624262"><ele>73.0</ele><time>2026-04-26T08:33:58Z</time></trkpt><trkpt lat="43.74392864716326" lon="11.22678782995118"><ele>73.0</ele><time>2026-04-26T08:33:59.999Z</time></trkpt><trkpt lat="43.743836430170525" lon="11.226704133370058"><ele>73.0</ele><time>2026-04-26T08:34:00.999Z</time></trkpt><trkpt lat="43.743741140994366" lon="11.226621834789833"><ele>73.0</ele><time>2026-04-26T08:34:01.999Z</time></trkpt><trkpt lat="43.743649499907036" lon="11.226535720934326"><ele>73.0</ele><time>2026-04-26T08:34:02.999Z</time></trkpt><trkpt lat="43.743555531305965" lon="11.226453928180812"><ele>73.0</ele><time>2026-04-26T08:34:03.999Z</time></trkpt><trkpt lat="43.74346061731766" lon="11.226374192020955"><ele>73.0</ele><time>2026-04-26T08:34:04.999Z</time></trkpt><trkpt lat="43.74336261592177" lon="11.226288036955058"><ele>73.0</ele><time>2026-04-26T08:34:05.999Z</time></trkpt><trkpt lat="43.74326449255413" lon="11.226198230600428"><ele>73.0</ele><time>2026-04-26T08:34:06.999Z</time></trkpt><trkpt lat="43.7431662905824" lon="11.226108801491662"><ele>73.0</ele><time>2026-04-26T08:34:07.999Z</time></trkpt><trkpt lat="43.743068453365176" lon="11.226017556431145"><ele>73.0</ele><time>2026-04-26T08:34:08.999Z</time></trkpt><trkpt lat="43.74296784619904" lon="11.225931045622687"><ele>73.0</ele><time>2026-04-26T08:34:09.999Z</time></trkpt><trkpt lat="43.74286821590244" lon="11.22584028600884"><ele>73.0</ele><time>2026-04-26T08:34:10.999Z</time></trkpt><trkpt lat="43.74276904121308" lon="11.225748657025783"><ele>73.0</ele><time>2026-04-26T08:34:11.999Z</time></trkpt><trkpt lat="43.74267282095652" lon="11.225655212476687"><ele>73.0</ele><time>2026-04-26T08:34:12.999Z</time></trkpt><trkpt lat="43.74258265106111" lon="11.225551211190126"><ele>73.0</ele><time>2026-04-26T08:34:13.999Z</time></trkpt><trkpt lat="43.74250274737594" lon="11.225437932308003"><ele>72.6</ele><time>2026-04-26T08:34:14.999Z</time></trkpt><trkpt lat="43.74244320964981" lon="11.225322532788281"><ele>72.19999999999999</ele><time>2026-04-26T08:34:15.999Z</time></trkpt><trkpt lat="43.7424017668227" lon="11.225207209062482"><ele>71.8</ele><time>2026-04-26T08:34:16.999Z</time></trkpt><trkpt lat="43.74238976314281" lon="11.22507801955608"><ele>71.39999999999999</ele><time>2026-04-26T08:34:17.999Z</time></trkpt><trkpt lat="43.742388751008875" lon="11.224932467007005"><ele>71.0</ele><time>2026-04-26T08:34:18.999Z</time></trkpt><trkpt lat="43.7423713879592" lon="11.22478015358662"><ele>72.66666666666667</ele><time>2026-04-26T08:34:19.999Z</time></trkpt><trkpt lat="43.742343818220256" lon="11.224619006781628"><ele>74.33333333333333</ele><time>2026-04-26T08:34:20.999Z</time></trkpt><trkpt lat="43.74233281278395" lon="11.224275467940396"><ele>76.0</ele><time>2026-04-26T08:34:22.999Z</time></trkpt><trkpt lat="43.742339791902744" lon="11.224089802377245"><ele>78.75</ele><time>2026-04-26T08:34:23.999Z</time></trkpt><trkpt lat="43.742347703126114" lon="11.223907592282474"><ele>81.5</ele><time>2026-04-26T08:34:24.999Z</time></trkpt><trkpt lat="43.74235526954777" lon="11.22373871528458"><ele>84.25</ele><time>2026-04-26T08:34:25.999Z</time></trkpt><trkpt lat="43.74235796205949" lon="11.223558869532054"><ele>87.0</ele><time>2026-04-26T08:34:26.999Z</time></trkpt><trkpt lat="43.74236485562913" lon="11.223382776888714"><ele>87.0</ele><time>2026-04-26T08:34:27.999Z</time></trkpt><trkpt lat="43.74237383121721" lon="11.22318479906004"><ele>87.0</ele><time>2026-04-26T08:34:28.999Z</time></trkpt><trkpt lat="43.74238192227179" lon="11.222999174799797"><ele>87.0</ele><time>2026-04-26T08:34:29.999Z</time></trkpt><trkpt lat="43.742390410673096" lon="11.22280409728691"><ele>87.0</ele><time>2026-04-26T08:34:30.999Z</time></trkpt><trkpt lat="43.74239911896593" lon="11.22260372662241"><ele>87.25</ele><time>2026-04-26T08:34:32.074Z</time></trkpt><trkpt lat="43.742407024814" lon="11.222421419685814"><ele>87.5</ele><time>2026-04-26T08:34:33.055Z</time></trkpt><trkpt lat="43.74241514949358" lon="11.222234598520133"><ele>87.75</ele><time>2026-04-26T08:34:34.055Z</time></trkpt><trkpt lat="43.74242321807331" lon="11.222048589434195"><ele>88.0</ele><time>2026-04-26T08:34:35.055Z</time></trkpt><trkpt lat="43.742431165297276" lon="11.221865628813179"><ele>71.0</ele><time>2026-04-26T08:34:36.036Z</time></trkpt><trkpt lat="43.74252699778631" lon="11.220455407148163"><ele>71.0</ele><time>2026-04-26T08:34:42.999Z</time></trkpt><trkpt lat="43.74253397652492" lon="11.220299230415863"><ele>71.0</ele><time>2026-04-26T08:34:43.999Z</time></trkpt><trkpt lat="43.742514610031165" lon="11.220152626495949"><ele>71.0</ele><time>2026-04-26T08:34:44.999Z</time></trkpt><trkpt lat="43.742515725623136" lon="11.220005490855373"><ele>71.0</ele><time>2026-04-26T08:34:45.999Z</time></trkpt><trkpt lat="43.74253974563895" lon="11.219918837877335"><ele>71.0</ele><time>2026-04-26T08:34:46.999Z</time></trkpt><trkpt lat="43.74257341386355" lon="11.219827968890396"><ele>71.39999999999999</ele><time>2026-04-26T08:34:47.999Z</time></trkpt><trkpt lat="43.74266930072179" lon="11.219736660890117"><ele>71.8</ele><time>2026-04-26T08:34:49.999Z</time></trkpt><trkpt lat="43.742772859084006" lon="11.219633623979002"><ele>72.19999999999999</ele><time>2026-04-26T08:34:51.999Z</time></trkpt><trkpt lat="43.742805780836456" lon="11.21954480304398"><ele>72.6</ele><time>2026-04-26T08:34:52.999Z</time></trkpt><trkpt lat="43.74281921533972" lon="11.21945075843072"><ele>73.0</ele><time>2026-04-26T08:34:53.999Z</time></trkpt><trkpt lat="43.742813159284886" lon="11.219356075896389"><ele>73.0</ele><time>2026-04-26T08:34:54.999Z</time></trkpt><trkpt lat="43.74278242789725" lon="11.21926233360756"><ele>73.0</ele><time>2026-04-26T08:34:55.999Z</time></trkpt><trkpt lat="43.74273907904109" lon="11.219168202781757"><ele>73.0</ele><time>2026-04-26T08:34:56.999Z</time></trkpt><trkpt lat="43.742697412173406" lon="11.219057791064332"><ele>73.0</ele><time>2026-04-26T08:34:57.999Z</time></trkpt><trkpt lat="43.742673538688074" lon="11.218924942124076"><ele>73.0</ele><time>2026-04-26T08:34:58.999Z</time></trkpt><trkpt lat="43.74264788334284" lon="11.21879074847317"><ele>73.0</ele><time>2026-04-26T08:34:59.999Z</time></trkpt><trkpt lat="43.74264914790315" lon="11.218638677772363"><ele>73.75</ele><time>2026-04-26T08:35:00.999Z</time></trkpt><trkpt lat="43.742651760127146" lon="11.218479057400163"><ele>74.5</ele><time>2026-04-26T08:35:01.999Z</time></trkpt><trkpt lat="43.74265870042997" lon="11.21831477415164"><ele>75.25</ele><time>2026-04-26T08:35:02.999Z</time></trkpt><trkpt lat="43.74266627318172" lon="11.21814422123787"><ele>76.0</ele><time>2026-04-26T08:35:03.999Z</time></trkpt><trkpt lat="43.74267617433591" lon="11.217969827507519"><ele>76.0</ele><time>2026-04-26T08:35:04.999Z</time></trkpt><trkpt lat="43.742686638182484" lon="11.21778932275278"><ele>76.0</ele><time>2026-04-26T08:35:05.999Z</time></trkpt><trkpt lat="43.74269473721282" lon="11.217605745876194"><ele>76.0</ele><time>2026-04-26T08:35:06.999Z</time></trkpt><trkpt lat="43.74269893500552" lon="11.217412919063287"><ele>76.0</ele><time>2026-04-26T08:35:07.999Z</time></trkpt><trkpt lat="43.74269503920395" lon="11.217211766959203"><ele>76.0</ele><time>2026-04-26T08:35:08.999Z</time></trkpt><trkpt lat="43.74268526683831" lon="11.217001867194444"><ele>76.0</ele><time>2026-04-26T08:35:09.999Z</time></trkpt><trkpt lat="43.742669951621146" lon="11.21679131308593"><ele>76.0</ele><time>2026-04-26T08:35:10.999Z</time></trkpt><trkpt lat="43.742643395256664" lon="11.216575797609087"><ele>73.66666666666666</ele><time>2026-04-26T08:35:11.999Z</time></trkpt><trkpt lat="43.74260147339141" lon="11.216362249152725"><ele>71.33333333333333</ele><time>2026-04-26T08:35:12.999Z</time></trkpt><trkpt lat="43.74255326322047" lon="11.216150898808298"><ele>69.0</ele><time>2026-04-26T08:35:13.999Z</time></trkpt><trkpt lat="43.74248756374583" lon="11.21593711432401"><ele>69.0</ele><time>2026-04-26T08:35:14.999Z</time></trkpt><trkpt lat="43.74241156199508" lon="11.215729797222876"><ele>69.0</ele><time>2026-04-26T08:35:15.999Z</time></trkpt><trkpt lat="43.7423186537529" lon="11.215528050932706"><ele>69.0</ele><time>2026-04-26T08:35:17Z</time></trkpt><trkpt lat="43.7422112255149" lon="11.215345555991668"><ele>69.66666666666667</ele><time>2026-04-26T08:35:18Z</time></trkpt><trkpt lat="43.742089608625825" lon="11.215169766972256"><ele>70.33333333333334</ele><time>2026-04-26T08:35:19Z</time></trkpt><trkpt lat="43.74195505631479" lon="11.215010120763875"><ele>71.0</ele><time>2026-04-26T08:35:20Z</time></trkpt><trkpt lat="43.74180776342411" lon="11.214863954668067"><ele>66.0</ele><time>2026-04-26T08:35:21Z</time></trkpt><trkpt lat="43.741649669857686" lon="11.214735712768801"><ele>61.0</ele><time>2026-04-26T08:35:22Z</time></trkpt><trkpt lat="43.7414852893546" lon="11.214623738850742"><ele>56.0</ele><time>2026-04-26T08:35:23Z</time></trkpt><trkpt lat="43.741311478295415" lon="11.214529770273668"><ele>56.0</ele><time>2026-04-26T08:35:24Z</time></trkpt><trkpt lat="43.741134551315966" lon="11.21445194289945"><ele>56.0</ele><time>2026-04-26T08:35:25Z</time></trkpt><trkpt lat="43.74094624216742" lon="11.2143900612884"><ele>56.0</ele><time>2026-04-26T08:35:26Z</time></trkpt><trkpt lat="43.74075891562853" lon="11.21433893101354"><ele>57.333333333333336</ele><time>2026-04-26T08:35:27Z</time></trkpt><trkpt lat="43.74056520278968" lon="11.214296086258134"><ele>58.66666666666667</ele><time>2026-04-26T08:35:28Z</time></trkpt><trkpt lat="43.74037091156024" lon="11.214253718118686"><ele>60.0</ele><time>2026-04-26T08:35:29Z</time></trkpt><trkpt lat="43.74017482219515" lon="11.214209548710388"><ele>61.33333333333333</ele><time>2026-04-26T08:35:30Z</time></trkpt><trkpt lat="43.73997080490537" lon="11.214160229228549"><ele>62.666666666666664</ele><time>2026-04-26T08:35:31Z</time></trkpt><trkpt lat="43.739770371194375" lon="11.214117949387507"><ele>64.0</ele><time>2026-04-26T08:35:32Z</time></trkpt><trkpt lat="43.739566605356686" lon="11.21407064485821"><ele>61.0</ele><time>2026-04-26T08:35:33Z</time></trkpt><trkpt lat="43.73936372238421" lon="11.214026442913228"><ele>58.0</ele><time>2026-04-26T08:35:34Z</time></trkpt><trkpt lat="43.739154839351485" lon="11.213982160340153"><ele>55.0</ele><time>2026-04-26T08:35:35Z</time></trkpt><trkpt lat="43.73896077817458" lon="11.213934245331126"><ele>55.33333333333333</ele><time>2026-04-26T08:35:36Z</time></trkpt><trkpt lat="43.73875942705414" lon="11.213891217677354"><ele>55.66666666666667</ele><time>2026-04-26T08:35:37Z</time></trkpt><trkpt lat="43.73856311749485" lon="11.21384863689948"><ele>56.0</ele><time>2026-04-26T08:35:38Z</time></trkpt><trkpt lat="43.73836723878338" lon="11.213805376912816"><ele>56.0</ele><time>2026-04-26T08:35:39Z</time></trkpt><trkpt lat="43.738179113725266" lon="11.213763166409967"><ele>56.0</ele><time>2026-04-26T08:35:40Z</time></trkpt><trkpt lat="43.737987373278834" lon="11.213720352569633"><ele>56.0</ele><time>2026-04-26T08:35:41Z</time></trkpt><trkpt lat="43.7378000476362" lon="11.213677942669829"><ele>64.66666666666667</ele><time>2026-04-26T08:35:42Z</time></trkpt><trkpt lat="43.73761564509728" lon="11.213638522692227"><ele>73.33333333333333</ele><time>2026-04-26T08:35:43Z</time></trkpt><trkpt lat="43.73743463539793" lon="11.213600653748955"><ele>82.0</ele><time>2026-04-26T08:35:44Z</time></trkpt><trkpt lat="43.73725632730975" lon="11.213559026444978"><ele>82.0</ele><time>2026-04-26T08:35:45Z</time></trkpt><trkpt lat="43.737079971842064" lon="11.213526292723065"><ele>82.0</ele><time>2026-04-26T08:35:46Z</time></trkpt><trkpt lat="43.736901186641376" lon="11.213486772907999"><ele>82.0</ele><time>2026-04-26T08:35:47Z</time></trkpt><trkpt lat="43.73672532381017" lon="11.21342758645396"><ele>92.66666666666666</ele><time>2026-04-26T08:35:48Z</time></trkpt><trkpt lat="43.73654316196615" lon="11.213387092333244"><ele>103.33333333333333</ele><time>2026-04-26T08:35:49Z</time></trkpt><trkpt lat="43.736362059834335" lon="11.21334990056989"><ele>114.0</ele><time>2026-04-26T08:35:50Z</time></trkpt><trkpt lat="43.736180940333796" lon="11.213312705091287"><ele>119.0</ele><time>2026-04-26T08:35:51Z</time></trkpt><trkpt lat="43.73600224142287" lon="11.213280354412216"><ele>124.0</ele><time>2026-04-26T08:35:52Z</time></trkpt><trkpt lat="43.735824030516845" lon="11.213250572160804"><ele>129.0</ele><time>2026-04-26T08:35:52.999Z</time></trkpt><trkpt lat="43.73564066976435" lon="11.213222800108982"><ele>129.0</ele><time>2026-04-26T08:35:53.999Z</time></trkpt><trkpt lat="43.73545581479969" lon="11.213214840642808"><ele>129.0</ele><time>2026-04-26T08:35:54.999Z</time></trkpt><trkpt lat="43.73527348270582" lon="11.213177329732204"><ele>129.0</ele><time>2026-04-26T08:35:55.999Z</time></trkpt><trkpt lat="43.7350887390011" lon="11.21313843423947"><ele>125.33333333333334</ele><time>2026-04-26T08:35:56.999Z</time></trkpt><trkpt lat="43.73490711179218" lon="11.213104083542412"><ele>121.66666666666667</ele><time>2026-04-26T08:35:57.999Z</time></trkpt><trkpt lat="43.734731258051056" lon="11.213173061274157"><ele>118.0</ele><time>2026-04-26T08:35:58.999Z</time></trkpt><trkpt lat="43.73454408445663" lon="11.213171516402067"><ele>112.33333333333334</ele><time>2026-04-26T08:35:59.999Z</time></trkpt><trkpt lat="43.73435474395402" lon="11.21316270676629"><ele>106.66666666666666</ele><time>2026-04-26T08:36:00.999Z</time></trkpt><trkpt lat="43.73416700480617" lon="11.213179576355598"><ele>101.0</ele><time>2026-04-26T08:36:01.999Z</time></trkpt><trkpt lat="43.734001415338646" lon="11.213216772773983"><ele>101.0</ele><time>2026-04-26T08:36:02.999Z</time></trkpt><trkpt lat="43.733836545722" lon="11.213250583559523"><ele>101.0</ele><time>2026-04-26T08:36:03.999Z</time></trkpt><trkpt lat="43.73367168098405" lon="11.213261645749043"><ele>101.0</ele><time>2026-04-26T08:36:04.999Z</time></trkpt><trkpt lat="43.733501833901634" lon="11.213299942940278"><ele>108.0</ele><time>2026-04-26T08:36:05.999Z</time></trkpt><trkpt lat="43.73333978639618" lon="11.21334093804111"><ele>115.0</ele><time>2026-04-26T08:36:06.999Z</time></trkpt><trkpt lat="43.73318001810996" lon="11.213386135840464"><ele>122.0</ele><time>2026-04-26T08:36:07.999Z</time></trkpt><trkpt lat="43.73300622485729" lon="11.213442624030048"><ele>122.0</ele><time>2026-04-26T08:36:08.999Z</time></trkpt><trkpt lat="43.73283351693439" lon="11.213504499053466"><ele>122.0</ele><time>2026-04-26T08:36:09.999Z</time></trkpt><trkpt lat="43.73266337881713" lon="11.213570241495155"><ele>122.0</ele><time>2026-04-26T08:36:10.999Z</time></trkpt><trkpt lat="43.73247693598008" lon="11.213651963377604"><ele>120.66666666666666</ele><time>2026-04-26T08:36:11.999Z</time></trkpt><trkpt lat="43.73229591096348" lon="11.213737294859056"><ele>119.33333333333334</ele><time>2026-04-26T08:36:12.999Z</time></trkpt><trkpt lat="43.7321441402166" lon="11.213816245812172"><ele>118.0</ele><time>2026-04-26T08:36:13.999Z</time></trkpt><trkpt lat="43.73195754609047" lon="11.213917313132644"><ele>116.33333333333334</ele><time>2026-04-26T08:36:14.999Z</time></trkpt><trkpt lat="43.73176542923939" lon="11.214033274476641"><ele>114.66666666666666</ele><time>2026-04-26T08:36:15.999Z</time></trkpt><trkpt lat="43.73159786749007" lon="11.214141904338327"><ele>113.0</ele><time>2026-04-26T08:36:16.999Z</time></trkpt><trkpt lat="43.73141610734336" lon="11.214268221290462"><ele>113.0</ele><time>2026-04-26T08:36:17.999Z</time></trkpt><trkpt lat="43.73124248787809" lon="11.214396789130516"><ele>113.0</ele><time>2026-04-26T08:36:18.999Z</time></trkpt><trkpt lat="43.73106590661627" lon="11.214533844367136"><ele>113.0</ele><time>2026-04-26T08:36:19.999Z</time></trkpt><trkpt lat="43.73093159995593" lon="11.214647378414211"><ele>113.33333333333333</ele><time>2026-04-26T08:36:20.999Z</time></trkpt><trkpt lat="43.73076028648851" lon="11.214798483192789"><ele>113.66666666666666</ele><time>2026-04-26T08:36:21.999Z</time></trkpt><trkpt lat="43.73059843410317" lon="11.214948980919837"><ele>114.0</ele><time>2026-04-26T08:36:22.999Z</time></trkpt><trkpt lat="43.73043102254395" lon="11.215117709032477"><ele>114.0</ele><time>2026-04-26T08:36:23.999Z</time></trkpt><trkpt lat="43.73030203470596" lon="11.215252491129982"><ele>114.0</ele><time>2026-04-26T08:36:24.999Z</time></trkpt><trkpt lat="43.73014559672067" lon="11.215423903545085"><ele>114.0</ele><time>2026-04-26T08:36:26.017Z</time></trkpt><trkpt lat="43.7286502915803" lon="11.217218847611623"><ele>93.0</ele><time>2026-04-26T08:36:29.165Z</time></trkpt><trkpt lat="43.728141088309464" lon="11.21772257918914"><ele>83.0</ele><time>2026-04-26T08:36:30.16Z</time></trkpt><trkpt lat="43.72759219753946" lon="11.218146512565001"><ele>80.5</ele><time>2026-04-26T08:36:31.16Z</time></trkpt><trkpt lat="43.7274431" lon="11.2182388"><ele>78.0</ele><time>2026-04-26T08:36:32.165Z</time></trkpt><trkpt lat="43.72705895206783" lon="11.218423326351873"><ele>79.25</ele><time>2026-04-26T08:36:47.999Z</time></trkpt><trkpt lat="43.726880759609564" lon="11.218500122787951"><ele>80.5</ele><time>2026-04-26T08:36:48.999Z</time></trkpt><trkpt lat="43.726753712609714" lon="11.218488141404162"><ele>81.75</ele><time>2026-04-26T08:36:49.999Z</time></trkpt><trkpt lat="43.72662211381235" lon="11.218519972559346"><ele>83.0</ele><time>2026-04-26T08:36:50.999Z</time></trkpt><trkpt lat="43.72647755639458" lon="11.218553966458561"><ele>83.0</ele><time>2026-04-26T08:36:51.999Z</time></trkpt><trkpt lat="43.72633386450199" lon="11.218594410321634"><ele>83.0</ele><time>2026-04-26T08:36:52.999Z</time></trkpt><trkpt lat="43.72619050897931" lon="11.218627263580876"><ele>83.0</ele><time>2026-04-26T08:36:53.999Z</time></trkpt><trkpt lat="43.72604580129923" lon="11.218661437106865"><ele>83.0</ele><time>2026-04-26T08:36:54.999Z</time></trkpt><trkpt lat="43.72589808678731" lon="11.218661240689835"><ele>84.66666666666667</ele><time>2026-04-26T08:36:55.999Z</time></trkpt><trkpt lat="43.725747563926895" lon="11.21866291469301"><ele>86.33333333333333</ele><time>2026-04-26T08:36:56.999Z</time></trkpt><trkpt lat="43.72559376864442" lon="11.218659231417526"><ele>88.0</ele><time>2026-04-26T08:36:57.999Z</time></trkpt><trkpt lat="43.725441213020886" lon="11.218655748607786"><ele>88.0</ele><time>2026-04-26T08:36:58.999Z</time></trkpt><trkpt lat="43.72528768678373" lon="11.218651986226245"><ele>88.0</ele><time>2026-04-26T08:36:59.999Z</time></trkpt><trkpt lat="43.72519516513212" lon="11.21864923047292"><ele>88.0</ele><time>2026-04-26T08:37:01.999Z</time></trkpt><trkpt lat="43.72504662179229" lon="11.21864049701558"><ele>88.0</ele><time>2026-04-26T08:37:02.999Z</time></trkpt><trkpt lat="43.724890911409666" lon="11.21863143986681"><ele>90.33333333333333</ele><time>2026-04-26T08:37:03.999Z</time></trkpt><trkpt lat="43.72473614913544" lon="11.218622813148702"><ele>92.66666666666667</ele><time>2026-04-26T08:37:04.999Z</time></trkpt><trkpt lat="43.724582371120874" lon="11.218614397770455"><ele>95.0</ele><time>2026-04-26T08:37:05.999Z</time></trkpt><trkpt lat="43.724428339696324" lon="11.218605968485535"><ele>96.0</ele><time>2026-04-26T08:37:06.999Z</time></trkpt><trkpt lat="43.724293623972855" lon="11.218598596263885"><ele>97.0</ele><time>2026-04-26T08:37:07.999Z</time></trkpt><trkpt lat="43.7241498957541" lon="11.218590730858088"><ele>98.0</ele><time>2026-04-26T08:37:08.999Z</time></trkpt><trkpt lat="43.72400401762058" lon="11.21858274777246"><ele>99.0</ele><time>2026-04-26T08:37:09.998Z</time></trkpt><trkpt lat="43.723861165848156" lon="11.21857499136356"><ele>99.0</ele><time>2026-04-26T08:37:10.998Z</time></trkpt><trkpt lat="43.72371377944139" lon="11.218568442527534"><ele>99.0</ele><time>2026-04-26T08:37:11.998Z</time></trkpt><trkpt lat="43.72354013390023" lon="11.218560726917792"><ele>99.0</ele><time>2026-04-26T08:37:12.998Z</time></trkpt><trkpt lat="43.723351862172585" lon="11.218552355702379"><ele>95.33333333333333</ele><time>2026-04-26T08:37:13.998Z</time></trkpt><trkpt lat="43.72315225296058" lon="11.218554407107591"><ele>91.66666666666666</ele><time>2026-04-26T08:37:14.998Z</time></trkpt><trkpt lat="43.72296677151655" lon="11.21856367968807"><ele>88.0</ele><time>2026-04-26T08:37:15.998Z</time></trkpt><trkpt lat="43.72276711832846" lon="11.218585663319635"><ele>86.0</ele><time>2026-04-26T08:37:16.998Z</time></trkpt><trkpt lat="43.72253081970529" lon="11.218634891737937"><ele>84.0</ele><time>2026-04-26T08:37:17.998Z</time></trkpt><trkpt lat="43.72230803877375" lon="11.218701148390034"><ele>84.0</ele><time>2026-04-26T08:37:18.998Z</time></trkpt><trkpt lat="43.722048296546326" lon="11.218805289791078"><ele>84.0</ele><time>2026-04-26T08:37:19.998Z</time></trkpt><trkpt lat="43.721863137938655" lon="11.21889580545504"><ele>86.33333333333333</ele><time>2026-04-26T08:37:20.998Z</time></trkpt><trkpt lat="43.72168676157679" lon="11.218997856547702"><ele>88.66666666666666</ele><time>2026-04-26T08:37:21.998Z</time></trkpt><trkpt lat="43.72151455911659" lon="11.21911175769602"><ele>91.0</ele><time>2026-04-26T08:37:23Z</time></trkpt><trkpt lat="43.72136543550772" lon="11.21922045287601"><ele>91.0</ele><time>2026-04-26T08:37:24Z</time></trkpt><trkpt lat="43.721229273619336" lon="11.219328809503088"><ele>91.0</ele><time>2026-04-26T08:37:25Z</time></trkpt><trkpt lat="43.72074953590225" lon="11.21975087003034"><ele>86.25</ele><time>2026-04-26T08:37:26Z</time></trkpt><trkpt lat="43.72061152899455" lon="11.219871039032835"><ele>81.5</ele><time>2026-04-26T08:37:27Z</time></trkpt><trkpt lat="43.72053402521226" lon="11.219935228628062"><ele>76.75</ele><time>2026-04-26T08:37:28Z</time></trkpt><trkpt lat="43.720425988060825" lon="11.21999920089989"><ele>72.0</ele><time>2026-04-26T08:37:29Z</time></trkpt><trkpt lat="43.720312926100824" lon="11.220077361188395"><ele>72.5</ele><time>2026-04-26T08:37:30Z</time></trkpt><trkpt lat="43.72020043639212" lon="11.22014428997393"><ele>73.0</ele><time>2026-04-26T08:37:31Z</time></trkpt><trkpt lat="43.72006224039862" lon="11.220180115590296"><ele>73.5</ele><time>2026-04-26T08:37:32Z</time></trkpt><trkpt lat="43.719947685211814" lon="11.22019842818197"><ele>74.0</ele><time>2026-04-26T08:37:33Z</time></trkpt><trkpt lat="43.71982709254352" lon="11.220199766881615"><ele>74.0</ele><time>2026-04-26T08:37:34Z</time></trkpt><trkpt lat="43.71970365839367" lon="11.22018401732149"><ele>74.0</ele><time>2026-04-26T08:37:35Z</time></trkpt><trkpt lat="43.719577414591065" lon="11.220162267556764"><ele>74.0</ele><time>2026-04-26T08:37:36Z</time></trkpt><trkpt lat="43.71945104988357" lon="11.220121834433268"><ele>74.0</ele><time>2026-04-26T08:37:37Z</time></trkpt><trkpt lat="43.71932674730828" lon="11.220071277140672"><ele>75.25</ele><time>2026-04-26T08:37:38Z</time></trkpt><trkpt lat="43.719205402297916" lon="11.220011547986921"><ele>76.5</ele><time>2026-04-26T08:37:39Z</time></trkpt><trkpt lat="43.71909230895637" lon="11.219944455268156"><ele>77.75</ele><time>2026-04-26T08:37:40Z</time></trkpt><trkpt lat="43.71898118816571" lon="11.219868299275879"><ele>79.0</ele><time>2026-04-26T08:37:41Z</time></trkpt><trkpt lat="43.71887138471626" lon="11.219795221901474"><ele>81.5</ele><time>2026-04-26T08:37:42Z</time></trkpt><trkpt lat="43.71875962794556" lon="11.219745692747123"><ele>84.0</ele><time>2026-04-26T08:37:43Z</time></trkpt><trkpt lat="43.71864558427873" lon="11.21973139855346"><ele>86.5</ele><time>2026-04-26T08:37:44Z</time></trkpt><trkpt lat="43.71853362529813" lon="11.219752445947245"><ele>89.0</ele><time>2026-04-26T08:37:45Z</time></trkpt><trkpt lat="43.71842916246246" lon="11.219815909168444"><ele>87.5</ele><time>2026-04-26T08:37:46Z</time></trkpt><trkpt lat="43.71833731888583" lon="11.2199161575289"><ele>86.0</ele><time>2026-04-26T08:37:47Z</time></trkpt><trkpt lat="43.71826170698125" lon="11.220039614340692"><ele>84.5</ele><time>2026-04-26T08:37:48Z</time></trkpt><trkpt lat="43.718207756177755" lon="11.220186982658172"><ele>83.0</ele><time>2026-04-26T08:37:49Z</time></trkpt><trkpt lat="43.71818404946273" lon="11.220351635606328"><ele>83.0</ele><time>2026-04-26T08:37:50Z</time></trkpt><trkpt lat="43.718190880387645" lon="11.220521969454024"><ele>83.0</ele><time>2026-04-26T08:37:51Z</time></trkpt><trkpt lat="43.718242844006774" lon="11.220675881844175"><ele>83.0</ele><time>2026-04-26T08:37:52Z</time></trkpt><trkpt lat="43.718289289317966" lon="11.220811209439962"><ele>83.0</ele><time>2026-04-26T08:37:53Z</time></trkpt><trkpt lat="43.71837358342059" lon="11.220910618703202"><ele>80.25</ele><time>2026-04-26T08:37:54Z</time></trkpt><trkpt lat="43.71847923691548" lon="11.220997175811611"><ele>77.5</ele><time>2026-04-26T08:37:55Z</time></trkpt><trkpt lat="43.7186012841839" lon="11.221047192586125"><ele>74.75</ele><time>2026-04-26T08:37:56Z</time></trkpt><trkpt lat="43.71872333845357" lon="11.22104175513916"><ele>72.0</ele><time>2026-04-26T08:37:57Z</time></trkpt><trkpt lat="43.71883948246363" lon="11.220997075427892"><ele>72.0</ele><time>2026-04-26T08:37:58Z</time></trkpt><trkpt lat="43.71895282050896" lon="11.22093169932536"><ele>72.0</ele><time>2026-04-26T08:37:58.999Z</time></trkpt><trkpt lat="43.719074082290696" lon="11.220863679091263"><ele>72.0</ele><time>2026-04-26T08:37:59.999Z</time></trkpt><trkpt lat="43.71920710850152" lon="11.220823509931115"><ele>72.0</ele><time>2026-04-26T08:38:00.999Z</time></trkpt><trkpt lat="43.71934561807906" lon="11.220829541836908"><ele>70.0</ele><time>2026-04-26T08:38:01.999Z</time></trkpt><trkpt lat="43.71957861796469" lon="11.220970269879066"><ele>68.0</ele><time>2026-04-26T08:38:03.999Z</time></trkpt><trkpt lat="43.719669223188134" lon="11.221082169642305"><ele>66.0</ele><time>2026-04-26T08:38:04.999Z</time></trkpt><trkpt lat="43.71973712475533" lon="11.22121515427373"><ele>66.0</ele><time>2026-04-26T08:38:05.999Z</time></trkpt><trkpt lat="43.719786840604996" lon="11.22135997386114"><ele>66.0</ele><time>2026-04-26T08:38:06.999Z</time></trkpt><trkpt lat="43.719816022552884" lon="11.22150481517535"><ele>66.0</ele><time>2026-04-26T08:38:07.999Z</time></trkpt><trkpt lat="43.71982757766526" lon="11.221646464239067"><ele>66.0</ele><time>2026-04-26T08:38:08.999Z</time></trkpt><trkpt lat="43.71982246555386" lon="11.221775002166144"><ele>66.0</ele><time>2026-04-26T08:38:09.999Z</time></trkpt><trkpt lat="43.71985177879409" lon="11.221875577872053"><ele>65.6</ele><time>2026-04-26T08:38:10.999Z</time></trkpt><trkpt lat="43.71980376939153" lon="11.22200887138591"><ele>65.19999999999999</ele><time>2026-04-26T08:38:11.999Z</time></trkpt><trkpt lat="43.71980628961204" lon="11.222127643670522"><ele>64.80000000000001</ele><time>2026-04-26T08:38:12.999Z</time></trkpt><trkpt lat="43.71981266517118" lon="11.222247002439568"><ele>64.4</ele><time>2026-04-26T08:38:13.999Z</time></trkpt><trkpt lat="43.719814976528596" lon="11.22237758095527"><ele>64.0</ele><time>2026-04-26T08:38:14.999Z</time></trkpt><trkpt lat="43.719846074768625" lon="11.222516950762138"><ele>64.0</ele><time>2026-04-26T08:38:15.999Z</time></trkpt><trkpt lat="43.71984690706233" lon="11.2226616779781"><ele>64.0</ele><time>2026-04-26T08:38:16.999Z</time></trkpt><trkpt lat="43.71984797476774" lon="11.222800553230941"><ele>64.0</ele><time>2026-04-26T08:38:17.999Z</time></trkpt><trkpt lat="43.719720666487824" lon="11.222922054299616"><ele>64.0</ele><time>2026-04-26T08:38:18.999Z</time></trkpt><trkpt lat="43.71965826371586" lon="11.223021712054669"><ele>64.0</ele><time>2026-04-26T08:38:19.999Z</time></trkpt><trkpt lat="43.719578814442364" lon="11.223100403465807"><ele>64.0</ele><time>2026-04-26T08:38:20.999Z</time></trkpt><trkpt lat="43.719485199454894" lon="11.223155262895729"><ele>64.0</ele><time>2026-04-26T08:38:21.999Z</time></trkpt><trkpt lat="43.71936700614193" lon="11.223164876946976"><ele>64.0</ele><time>2026-04-26T08:38:22.999Z</time></trkpt><trkpt lat="43.71924252070505" lon="11.223172387239645"><ele>64.0</ele><time>2026-04-26T08:38:23.999Z</time></trkpt><trkpt lat="43.71911577860378" lon="11.223170528393236"><ele>64.0</ele><time>2026-04-26T08:38:24.999Z</time></trkpt><trkpt lat="43.71899878298676" lon="11.223124911054821"><ele>64.0</ele><time>2026-04-26T08:38:25.999Z</time></trkpt><trkpt lat="43.71871871520495" lon="11.223063151779579"><ele>64.0</ele><time>2026-04-26T08:38:27.999Z</time></trkpt><trkpt lat="43.71857347490185" lon="11.223031857306596"><ele>65.0</ele><time>2026-04-26T08:38:28.999Z</time></trkpt><trkpt lat="43.71842494818828" lon="11.222993180146673"><ele>66.0</ele><time>2026-04-26T08:38:29.999Z</time></trkpt><trkpt lat="43.71828115724468" lon="11.222942830771897"><ele>67.0</ele><time>2026-04-26T08:38:30.999Z</time></trkpt><trkpt lat="43.718146751530064" lon="11.22286648283872"><ele>68.0</ele><time>2026-04-26T08:38:31.999Z</time></trkpt><trkpt lat="43.71800457961737" lon="11.222809075197219"><ele>68.0</ele><time>2026-04-26T08:38:32.999Z</time></trkpt><trkpt lat="43.71785760560722" lon="11.222766263095874"><ele>68.0</ele><time>2026-04-26T08:38:33.999Z</time></trkpt><trkpt lat="43.71771356934785" lon="11.22269984985701"><ele>68.0</ele><time>2026-04-26T08:38:34.999Z</time></trkpt><trkpt lat="43.71756181072482" lon="11.222645317267935"><ele>68.0</ele><time>2026-04-26T08:38:35.999Z</time></trkpt><trkpt lat="43.71740867347534" lon="11.2225941787592"><ele>68.0</ele><time>2026-04-26T08:38:36.999Z</time></trkpt><trkpt lat="43.71725380551528" lon="11.222537236934128"><ele>68.0</ele><time>2026-04-26T08:38:37.999Z</time></trkpt><trkpt lat="43.71709673973752" lon="11.222479469112582"><ele>68.0</ele><time>2026-04-26T08:38:38.999Z</time></trkpt><trkpt lat="43.716938519747316" lon="11.222419567907197"><ele>68.0</ele><time>2026-04-26T08:38:39.999Z</time></trkpt><trkpt lat="43.71678034923704" lon="11.222359618413222"><ele>68.0</ele><time>2026-04-26T08:38:40.999Z</time></trkpt><trkpt lat="43.7166264408769" lon="11.222286746953003"><ele>68.0</ele><time>2026-04-26T08:38:41.999Z</time></trkpt><trkpt lat="43.71648208910288" lon="11.22219908924229"><ele>68.0</ele><time>2026-04-26T08:38:42.999Z</time></trkpt><trkpt lat="43.71634392786442" lon="11.222091950960463"><ele>68.0</ele><time>2026-04-26T08:38:43.999Z</time></trkpt><trkpt lat="43.71619944218244" lon="11.221995990939192"><ele>67.66666666666667</ele><time>2026-04-26T08:38:44.999Z</time></trkpt><trkpt lat="43.716050085213176" lon="11.22193037332616"><ele>67.33333333333333</ele><time>2026-04-26T08:38:45.999Z</time></trkpt><trkpt lat="43.71589124329133" lon="11.22188855717849"><ele>67.0</ele><time>2026-04-26T08:38:46.999Z</time></trkpt><trkpt lat="43.71571455285368" lon="11.221855955160445"><ele>67.0</ele><time>2026-04-26T08:38:47.999Z</time></trkpt><trkpt lat="43.71556536033048" lon="11.221845466866236"><ele>67.0</ele><time>2026-04-26T08:38:48.999Z</time></trkpt><trkpt lat="43.71540389592339" lon="11.221799836680804"><ele>67.0</ele><time>2026-04-26T08:38:49.999Z</time></trkpt><trkpt lat="43.715249031000226" lon="11.221728021843612"><ele>67.33333333333333</ele><time>2026-04-26T08:38:50.999Z</time></trkpt><trkpt lat="43.715103982909326" lon="11.221625340166007"><ele>67.66666666666667</ele><time>2026-04-26T08:38:51.999Z</time></trkpt><trkpt lat="43.71496979709191" lon="11.221506026839272"><ele>68.0</ele><time>2026-04-26T08:38:52.999Z</time></trkpt><trkpt lat="43.71483582317166" lon="11.221397549685678"><ele>68.0</ele><time>2026-04-26T08:38:53.999Z</time></trkpt><trkpt lat="43.71468938972257" lon="11.221320271281103"><ele>68.0</ele><time>2026-04-26T08:38:54.999Z</time></trkpt><trkpt lat="43.714531273868076" lon="11.221270974932922"><ele>68.0</ele><time>2026-04-26T08:38:55.999Z</time></trkpt><trkpt lat="43.7143681584446" lon="11.221234789082933"><ele>69.33333333333334</ele><time>2026-04-26T08:38:56.999Z</time></trkpt><trkpt lat="43.71420581416928" lon="11.221201660607345"><ele>70.66666666666667</ele><time>2026-04-26T08:38:57.999Z</time></trkpt><trkpt lat="43.71404503687346" lon="11.221151305345863"><ele>72.0</ele><time>2026-04-26T08:38:58.999Z</time></trkpt><trkpt lat="43.71388519829647" lon="11.221079168169124"><ele>72.0</ele><time>2026-04-26T08:38:59.999Z</time></trkpt><trkpt lat="43.71373746553642" lon="11.220974512288807"><ele>72.0</ele><time>2026-04-26T08:39:00.999Z</time></trkpt><trkpt lat="43.71360217070469" lon="11.22083703875829"><ele>72.0</ele><time>2026-04-26T08:39:01.999Z</time></trkpt><trkpt lat="43.71347168859274" lon="11.220699094196569"><ele>71.66666666666667</ele><time>2026-04-26T08:39:02.999Z</time></trkpt><trkpt lat="43.71334093651537" lon="11.220566358620633"><ele>71.33333333333334</ele><time>2026-04-26T08:39:03.999Z</time></trkpt><trkpt lat="43.71320681242188" lon="11.220441178557854"><ele>71.0</ele><time>2026-04-26T08:39:04.999Z</time></trkpt><trkpt lat="43.7130737088824" lon="11.22031547940669"><ele>71.0</ele><time>2026-04-26T08:39:05.999Z</time></trkpt><trkpt lat="43.7129424637298" lon="11.220193250651324"><ele>71.0</ele><time>2026-04-26T08:39:06.999Z</time></trkpt><trkpt lat="43.712817870166035" lon="11.22007381100312"><ele>71.0</ele><time>2026-04-26T08:39:07.999Z</time></trkpt><trkpt lat="43.71270406200941" lon="11.219960874137096"><ele>71.25</ele><time>2026-04-26T08:39:08.999Z</time></trkpt><trkpt lat="43.71258798877692" lon="11.219854572351498"><ele>71.5</ele><time>2026-04-26T08:39:09.999Z</time></trkpt><trkpt lat="43.71248338435826" lon="11.219747563484706"><ele>71.75</ele><time>2026-04-26T08:39:10.999Z</time></trkpt><trkpt lat="43.71239058203118" lon="11.219648558760765"><ele>72.0</ele><time>2026-04-26T08:39:11.999Z</time></trkpt><trkpt lat="43.71230745293332" lon="11.219551728026433"><ele>72.0</ele><time>2026-04-26T08:39:12.999Z</time></trkpt><trkpt lat="43.712231300633526" lon="11.21945826922225"><ele>72.0</ele><time>2026-04-26T08:39:13.999Z</time></trkpt><trkpt lat="43.71215101771026" lon="11.219362366785049"><ele>72.0</ele><time>2026-04-26T08:39:14.999Z</time></trkpt><trkpt lat="43.712074016669405" lon="11.219264951880222"><ele>72.0</ele><time>2026-04-26T08:39:15.999Z</time></trkpt><trkpt lat="43.712007181113826" lon="11.219148043061285"><ele>72.0</ele><time>2026-04-26T08:39:16.999Z</time></trkpt><trkpt lat="43.71192793792353" lon="11.219041349235372"><ele>72.0</ele><time>2026-04-26T08:39:17.999Z</time></trkpt><trkpt lat="43.7118459388412" lon="11.218927915428187"><ele>72.0</ele><time>2026-04-26T08:39:18.998Z</time></trkpt><trkpt lat="43.71176398813544" lon="11.218811850825855"><ele>72.0</ele><time>2026-04-26T08:39:19.998Z</time></trkpt><trkpt lat="43.71168111361756" lon="11.21869257040267"><ele>72.0</ele><time>2026-04-26T08:39:20.998Z</time></trkpt><trkpt lat="43.71159802017498" lon="11.218572974708254"><ele>72.0</ele><time>2026-04-26T08:39:21.998Z</time></trkpt><trkpt lat="43.71151534581612" lon="11.21845398221235"><ele>72.0</ele><time>2026-04-26T08:39:22.998Z</time></trkpt><trkpt lat="43.711433824886534" lon="11.218336649904172"><ele>72.0</ele><time>2026-04-26T08:39:23.998Z</time></trkpt><trkpt lat="43.71135336706433" lon="11.218220847647508"><ele>72.0</ele><time>2026-04-26T08:39:24.998Z</time></trkpt><trkpt lat="43.71127393327799" lon="11.21810652054459"><ele>72.0</ele><time>2026-04-26T08:39:25.998Z</time></trkpt><trkpt lat="43.71119493361844" lon="11.2179928170345"><ele>72.0</ele><time>2026-04-26T08:39:26.998Z</time></trkpt><trkpt lat="43.71110379796548" lon="11.217894587838947"><ele>72.0</ele><time>2026-04-26T08:39:28Z</time></trkpt><trkpt lat="43.711037895835666" lon="11.21776679393384"><ele>72.0</ele><time>2026-04-26T08:39:29Z</time></trkpt><trkpt lat="43.71096045231767" lon="11.217655330161612"><ele>72.0</ele><time>2026-04-26T08:39:30Z</time></trkpt><trkpt lat="43.71088295718268" lon="11.217543702812225"><ele>72.0</ele><time>2026-04-26T08:39:31Z</time></trkpt><trkpt lat="43.71080669819977" lon="11.21743349535636"><ele>72.0</ele><time>2026-04-26T08:39:32Z</time></trkpt><trkpt lat="43.7107191382835" lon="11.21733931596646"><ele>72.0</ele><time>2026-04-26T08:39:33Z</time></trkpt><trkpt lat="43.71064408878469" lon="11.217229145598141"><ele>72.0</ele><time>2026-04-26T08:39:34Z</time></trkpt><trkpt lat="43.71056885531524" lon="11.217121399684824"><ele>71.8</ele><time>2026-04-26T08:39:35Z</time></trkpt><trkpt lat="43.71049506306348" lon="11.217013951938773"><ele>71.6</ele><time>2026-04-26T08:39:36Z</time></trkpt><trkpt lat="43.71042273856438" lon="11.216907696754006"><ele>71.39999999999999</ele><time>2026-04-26T08:39:37Z</time></trkpt><trkpt lat="43.71034974797917" lon="11.216803712711888"><ele>71.2</ele><time>2026-04-26T08:39:38Z</time></trkpt><trkpt lat="43.71029622426213" lon="11.216693155707837"><ele>71.0</ele><time>2026-04-26T08:39:39Z</time></trkpt><trkpt lat="43.71023413676462" lon="11.216603187997888"><ele>71.33333333333334</ele><time>2026-04-26T08:39:40Z</time></trkpt><trkpt lat="43.710176697468306" lon="11.216519452033502"><ele>71.66666666666667</ele><time>2026-04-26T08:39:41Z</time></trkpt><trkpt lat="43.71010542436015" lon="11.216453045756586"><ele>72.0</ele><time>2026-04-26T08:39:42Z</time></trkpt><trkpt lat="43.710048282812075" lon="11.216365912191925"><ele>72.33333333333333</ele><time>2026-04-26T08:39:43Z</time></trkpt><trkpt lat="43.70999527102893" lon="11.216286172386242"><ele>72.66666666666666</ele><time>2026-04-26T08:39:44Z</time></trkpt><trkpt lat="43.709948221589926" lon="11.216213601173001"><ele>73.0</ele><time>2026-04-26T08:39:45Z</time></trkpt><trkpt lat="43.70987003972968" lon="11.216090962346472"><ele>73.0</ele><time>2026-04-26T08:39:47Z</time></trkpt><trkpt lat="43.709812400634554" lon="11.216012214316075"><ele>73.0</ele><time>2026-04-26T08:39:52Z</time></trkpt><trkpt lat="43.70974472741084" lon="11.21588565746636"><ele>73.0</ele><time>2026-04-26T08:39:54Z</time></trkpt><trkpt lat="43.709708028167285" lon="11.215788277130216"><ele>73.0</ele><time>2026-04-26T08:39:55Z</time></trkpt><trkpt lat="43.70966681649364" lon="11.215676087511069"><ele>73.0</ele><time>2026-04-26T08:39:56Z</time></trkpt><trkpt lat="43.70963107787165" lon="11.215561323683572"><ele>73.0</ele><time>2026-04-26T08:39:57Z</time></trkpt><trkpt lat="43.70961506933609" lon="11.215425249450997"><ele>73.0</ele><time>2026-04-26T08:39:58Z</time></trkpt><trkpt lat="43.70957856222035" lon="11.2152940089504"><ele>73.0</ele><time>2026-04-26T08:39:59Z</time></trkpt><trkpt lat="43.70954262287154" lon="11.215164333048506"><ele>73.0</ele><time>2026-04-26T08:40:00Z</time></trkpt><trkpt lat="43.70950378279922" lon="11.215021572954939"><ele>73.0</ele><time>2026-04-26T08:40:01Z</time></trkpt><trkpt lat="43.709465857725675" lon="11.214871118967316"><ele>73.0</ele><time>2026-04-26T08:40:02Z</time></trkpt><trkpt lat="43.70943753927769" lon="11.214714098916991"><ele>73.0</ele><time>2026-04-26T08:40:03Z</time></trkpt><trkpt lat="43.70941795102626" lon="11.214550824064148"><ele>73.0</ele><time>2026-04-26T08:40:04Z</time></trkpt><trkpt lat="43.70940042572373" lon="11.214389941007662"><ele>73.0</ele><time>2026-04-26T08:40:05Z</time></trkpt><trkpt lat="43.709388783353184" lon="11.214236787219571"><ele>73.0</ele><time>2026-04-26T08:40:06Z</time></trkpt><trkpt lat="43.70938262048591" lon="11.21408375023944"><ele>73.0</ele><time>2026-04-26T08:40:06.999Z</time></trkpt><trkpt lat="43.70938880394395" lon="11.213938219140259"><ele>73.0</ele><time>2026-04-26T08:40:07.999Z</time></trkpt><trkpt lat="43.709404474424524" lon="11.213786777764865"><ele>73.0</ele><time>2026-04-26T08:40:08.999Z</time></trkpt><trkpt lat="43.709442673818614" lon="11.213643762227859"><ele>73.0</ele><time>2026-04-26T08:40:09.999Z</time></trkpt><trkpt lat="43.70948535941496" lon="11.21350743864863"><ele>73.0</ele><time>2026-04-26T08:40:10.999Z</time></trkpt><trkpt lat="43.70953018788063" lon="11.21337548685596"><ele>73.0</ele><time>2026-04-26T08:40:11.999Z</time></trkpt><trkpt lat="43.709573097548045" lon="11.213254573229085"><ele>73.0</ele><time>2026-04-26T08:40:12.999Z</time></trkpt><trkpt lat="43.70965066467785" lon="11.21300301351649"><ele>73.0</ele><time>2026-04-26T08:40:14.999Z</time></trkpt><trkpt lat="43.709666117102195" lon="11.21290016048934"><ele>73.0</ele><time>2026-04-26T08:40:15.999Z</time></trkpt><trkpt lat="43.7096718775228" lon="11.212793279486384"><ele>73.0</ele><time>2026-04-26T08:40:16.999Z</time></trkpt><trkpt lat="43.7096723504768" lon="11.212702034794914"><ele>73.0</ele><time>2026-04-26T08:40:17.999Z</time></trkpt><trkpt lat="43.70966406157915" lon="11.21261356527481"><ele>73.0</ele><time>2026-04-26T08:40:18.999Z</time></trkpt><trkpt lat="43.709646225936645" lon="11.212474744444798"><ele>73.0</ele><time>2026-04-26T08:40:20.999Z</time></trkpt><trkpt lat="43.70962621360148" lon="11.212391620312559"><ele>73.0</ele><time>2026-04-26T08:40:23.999Z</time></trkpt><trkpt lat="43.70960521760031" lon="11.21230587917352"><ele>73.0</ele><time>2026-04-26T08:40:29.999Z</time></trkpt><trkpt lat="43.709582420276064" lon="11.212216375357757"><ele>73.0</ele><time>2026-04-26T08:40:30.999Z</time></trkpt><trkpt lat="43.709555597288485" lon="11.212114893919756"><ele>73.0</ele><time>2026-04-26T08:40:31.999Z</time></trkpt><trkpt lat="43.70951416668287" lon="11.212013670798084"><ele>73.0</ele><time>2026-04-26T08:40:32.999Z</time></trkpt><trkpt lat="43.709504524245474" lon="11.211881255200211"><ele>73.0</ele><time>2026-04-26T08:40:33.999Z</time></trkpt><trkpt lat="43.70946534124387" lon="11.211751376123214"><ele>73.0</ele><time>2026-04-26T08:40:34.999Z</time></trkpt><trkpt lat="43.7094465187497" lon="11.211604524926111"><ele>73.5</ele><time>2026-04-26T08:40:35.999Z</time></trkpt><trkpt lat="43.70943177746408" lon="11.211459574122442"><ele>74.0</ele><time>2026-04-26T08:40:36.999Z</time></trkpt><trkpt lat="43.70941604689441" lon="11.211305330622073"><ele>74.5</ele><time>2026-04-26T08:40:37.999Z</time></trkpt><trkpt lat="43.70939279607532" lon="11.21114140672057"><ele>75.0</ele><time>2026-04-26T08:40:38.999Z</time></trkpt><trkpt lat="43.70935620983379" lon="11.210972623290374"><ele>75.0</ele><time>2026-04-26T08:40:39.999Z</time></trkpt><trkpt lat="43.70930452441544" lon="11.210805009042573"><ele>75.0</ele><time>2026-04-26T08:40:40.999Z</time></trkpt><trkpt lat="43.709235237057094" lon="11.210642887269048"><ele>75.0</ele><time>2026-04-26T08:40:41.999Z</time></trkpt><trkpt lat="43.70914281083362" lon="11.210488503959203"><ele>75.0</ele><time>2026-04-26T08:40:42.999Z</time></trkpt><trkpt lat="43.709034781505444" lon="11.210353350671515"><ele>74.75</ele><time>2026-04-26T08:40:43.999Z</time></trkpt><trkpt lat="43.7089154675534" lon="11.21023074955414"><ele>74.5</ele><time>2026-04-26T08:40:44.999Z</time></trkpt><trkpt lat="43.70879715513157" lon="11.210110466087002"><ele>74.25</ele><time>2026-04-26T08:40:45.999Z</time></trkpt><trkpt lat="43.70867326870808" lon="11.209988453812171"><ele>74.0</ele><time>2026-04-26T08:40:46.999Z</time></trkpt><trkpt lat="43.70854666221341" lon="11.209859437049682"><ele>74.66666666666667</ele><time>2026-04-26T08:40:47.999Z</time></trkpt><trkpt lat="43.708416953688946" lon="11.209734100193494"><ele>75.33333333333333</ele><time>2026-04-26T08:40:48.999Z</time></trkpt><trkpt lat="43.70829648368494" lon="11.20959216656068"><ele>76.0</ele><time>2026-04-26T08:40:49.999Z</time></trkpt><trkpt lat="43.70815339708028" lon="11.209488265515173"><ele>76.0</ele><time>2026-04-26T08:40:50.999Z</time></trkpt><trkpt lat="43.70802756626169" lon="11.209362355563067"><ele>76.0</ele><time>2026-04-26T08:40:51.999Z</time></trkpt><trkpt lat="43.707941740326355" lon="11.209193007909512"><ele>76.0</ele><time>2026-04-26T08:40:52.999Z</time></trkpt><trkpt lat="43.70785562372895" lon="11.209026220411184"><ele>77.25</ele><time>2026-04-26T08:40:53.999Z</time></trkpt><trkpt lat="43.707769412445394" lon="11.208865200547187"><ele>78.5</ele><time>2026-04-26T08:40:54.999Z</time></trkpt><trkpt lat="43.707661792450565" lon="11.20873121964209"><ele>79.75</ele><time>2026-04-26T08:40:55.999Z</time></trkpt><trkpt lat="43.70756344210274" lon="11.208588618932827"><ele>81.0</ele><time>2026-04-26T08:40:56.999Z</time></trkpt><trkpt lat="43.707457996956336" lon="11.208450515479374"><ele>81.33333333333333</ele><time>2026-04-26T08:40:57.999Z</time></trkpt><trkpt lat="43.707345004117286" lon="11.208311947310037"><ele>81.66666666666666</ele><time>2026-04-26T08:40:58.999Z</time></trkpt><trkpt lat="43.707228255344674" lon="11.208181414759927"><ele>82.0</ele><time>2026-04-26T08:40:59.999Z</time></trkpt><trkpt lat="43.70710253290084" lon="11.208069208330729"><ele>83.0</ele><time>2026-04-26T08:41:00.999Z</time></trkpt><trkpt lat="43.706960964056265" lon="11.207976144648235"><ele>84.0</ele><time>2026-04-26T08:41:01.999Z</time></trkpt><trkpt lat="43.706819132449404" lon="11.207911372860082"><ele>85.0</ele><time>2026-04-26T08:41:02.999Z</time></trkpt><trkpt lat="43.70666558295208" lon="11.207864836908188"><ele>85.0</ele><time>2026-04-26T08:41:03.999Z</time></trkpt><trkpt lat="43.706507617606704" lon="11.20783111566785"><ele>85.0</ele><time>2026-04-26T08:41:04.999Z</time></trkpt><trkpt lat="43.706361998917174" lon="11.207755764102645"><ele>85.0</ele><time>2026-04-26T08:41:05.999Z</time></trkpt><trkpt lat="43.70621956005396" lon="11.207662743952849"><ele>87.0</ele><time>2026-04-26T08:41:06.999Z</time></trkpt><trkpt lat="43.70607298554037" lon="11.20756223611669"><ele>89.0</ele><time>2026-04-26T08:41:07.999Z</time></trkpt><trkpt lat="43.70592387089043" lon="11.20747643468225"><ele>91.0</ele><time>2026-04-26T08:41:08.999Z</time></trkpt><trkpt lat="43.70578040010891" lon="11.207376019609544"><ele>88.0</ele><time>2026-04-26T08:41:09.999Z</time></trkpt><trkpt lat="43.70563575094517" lon="11.207284195631903"><ele>85.0</ele><time>2026-04-26T08:41:10.999Z</time></trkpt><trkpt lat="43.705489068939755" lon="11.207196206534203"><ele>82.0</ele><time>2026-04-26T08:41:11.999Z</time></trkpt><trkpt lat="43.70533942515504" lon="11.207125014012155"><ele>81.5</ele><time>2026-04-26T08:41:12.999Z</time></trkpt><trkpt lat="43.70519127225818" lon="11.207086341158451"><ele>81.0</ele><time>2026-04-26T08:41:13.999Z</time></trkpt><trkpt lat="43.705045787134985" lon="11.207086356390047"><ele>80.5</ele><time>2026-04-26T08:41:14.999Z</time></trkpt><trkpt lat="43.70490576499003" lon="11.207123640173208"><ele>80.0</ele><time>2026-04-26T08:41:15.999Z</time></trkpt><trkpt lat="43.70477185799729" lon="11.207185428800047"><ele>80.0</ele><time>2026-04-26T08:41:16.999Z</time></trkpt><trkpt lat="43.704648782664776" lon="11.207284746131945"><ele>80.0</ele><time>2026-04-26T08:41:17.999Z</time></trkpt><trkpt lat="43.70452940620152" lon="11.207411084287115"><ele>80.0</ele><time>2026-04-26T08:41:18.999Z</time></trkpt><trkpt lat="43.70441369060961" lon="11.207546898626775"><ele>80.0</ele><time>2026-04-26T08:41:19.999Z</time></trkpt><trkpt lat="43.70429672059567" lon="11.207682221668307"><ele>82.0</ele><time>2026-04-26T08:41:20.999Z</time></trkpt><trkpt lat="43.70417267413114" lon="11.207810878299444"><ele>84.0</ele><time>2026-04-26T08:41:21.999Z</time></trkpt><trkpt lat="43.70405002417891" lon="11.20793790914721"><ele>86.0</ele><time>2026-04-26T08:41:22.999Z</time></trkpt><trkpt lat="43.70393243369511" lon="11.208075800720982"><ele>91.33333333333334</ele><time>2026-04-26T08:41:23.999Z</time></trkpt><trkpt lat="43.703833874587936" lon="11.20824583097306"><ele>96.66666666666667</ele><time>2026-04-26T08:41:24.999Z</time></trkpt><trkpt lat="43.70376745235914" lon="11.20844378313332"><ele>102.0</ele><time>2026-04-26T08:41:25.999Z</time></trkpt><trkpt lat="43.7037239079174" lon="11.208655644417902"><ele>102.0</ele><time>2026-04-26T08:41:26.998Z</time></trkpt><trkpt lat="43.70369384130405" lon="11.208869425862185"><ele>102.0</ele><time>2026-04-26T08:41:27.998Z</time></trkpt><trkpt lat="43.703672452504804" lon="11.209079991133425"><ele>102.0</ele><time>2026-04-26T08:41:28.998Z</time></trkpt><trkpt lat="43.70366038943981" lon="11.209290138007072"><ele>107.66666666666666</ele><time>2026-04-26T08:41:29.998Z</time></trkpt><trkpt lat="43.7036679952144" lon="11.209504830376348"><ele>113.33333333333333</ele><time>2026-04-26T08:41:30.998Z</time></trkpt><trkpt lat="43.70369348740272" lon="11.20971450043972"><ele>119.0</ele><time>2026-04-26T08:41:31.998Z</time></trkpt><trkpt lat="43.7037270593856" lon="11.209921545190927"><ele>119.66666666666666</ele><time>2026-04-26T08:41:33Z</time></trkpt><trkpt lat="43.703757411778945" lon="11.210132599889569"><ele>120.33333333333334</ele><time>2026-04-26T08:41:34Z</time></trkpt><trkpt lat="43.703782581828655" lon="11.210346802473655"><ele>121.0</ele><time>2026-04-26T08:41:35Z</time></trkpt><trkpt lat="43.70379767707323" lon="11.21055929965414"><ele>120.66666666666667</ele><time>2026-04-26T08:41:36Z</time></trkpt><trkpt lat="43.7037950810705" lon="11.2107786729388"><ele>120.33333333333334</ele><time>2026-04-26T08:41:37Z</time></trkpt><trkpt lat="43.70377543818762" lon="11.21099037914786"><ele>120.0</ele><time>2026-04-26T08:41:38Z</time></trkpt><trkpt lat="43.703727368596894" lon="11.211195023808742"><ele>120.0</ele><time>2026-04-26T08:41:39Z</time></trkpt><trkpt lat="43.703670031187954" lon="11.211395068337678"><ele>120.0</ele><time>2026-04-26T08:41:40Z</time></trkpt><trkpt lat="43.70361505569705" lon="11.211581314640299"><ele>120.0</ele><time>2026-04-26T08:41:41Z</time></trkpt><trkpt lat="43.70357233985055" lon="11.211775061402454"><ele>120.0</ele><time>2026-04-26T08:41:42Z</time></trkpt><trkpt lat="43.703534208415775" lon="11.211966485248931"><ele>113.75</ele><time>2026-04-26T08:41:43Z</time></trkpt><trkpt lat="43.703509995176375" lon="11.212136839005868"><ele>107.5</ele><time>2026-04-26T08:41:44Z</time></trkpt><trkpt lat="43.70350354868718" lon="11.21230535648737"><ele>101.25</ele><time>2026-04-26T08:41:45Z</time></trkpt><trkpt lat="43.70349316889752" lon="11.212453231058536"><ele>95.0</ele><time>2026-04-26T08:41:46Z</time></trkpt><trkpt lat="43.70348555442559" lon="11.212594833874013"><ele>95.0</ele><time>2026-04-26T08:41:47Z</time></trkpt><trkpt lat="43.70347914619724" lon="11.212739956521457"><ele>95.0</ele><time>2026-04-26T08:41:48Z</time></trkpt><trkpt lat="43.703469342656604" lon="11.212899094259168"><ele>95.0</ele><time>2026-04-26T08:41:49Z</time></trkpt><trkpt lat="43.70345252723149" lon="11.213067774148028"><ele>95.0</ele><time>2026-04-26T08:41:50Z</time></trkpt><trkpt lat="43.70343427532599" lon="11.213242036787605"><ele>95.5</ele><time>2026-04-26T08:41:51Z</time></trkpt><trkpt lat="43.70341515059124" lon="11.213407299044556"><ele>96.0</ele><time>2026-04-26T08:41:52Z</time></trkpt><trkpt lat="43.703393210053285" lon="11.213579561106426"><ele>96.5</ele><time>2026-04-26T08:41:53Z</time></trkpt><trkpt lat="43.70336933180547" lon="11.213747401080026"><ele>97.0</ele><time>2026-04-26T08:41:54Z</time></trkpt><trkpt lat="43.70334466078221" lon="11.213910800105689"><ele>98.25</ele><time>2026-04-26T08:41:55Z</time></trkpt><trkpt lat="43.70330636917772" lon="11.214060873189371"><ele>99.5</ele><time>2026-04-26T08:41:56Z</time></trkpt><trkpt lat="43.70325397224148" lon="11.214208817042781"><ele>100.75</ele><time>2026-04-26T08:41:57Z</time></trkpt><trkpt lat="43.70318199692057" lon="11.214352288847516"><ele>102.0</ele><time>2026-04-26T08:41:58Z</time></trkpt><trkpt lat="43.70309546744067" lon="11.214490245360231"><ele>102.0</ele><time>2026-04-26T08:41:59Z</time></trkpt><trkpt lat="43.7029978082211" lon="11.214623011482692"><ele>102.0</ele><time>2026-04-26T08:42:00Z</time></trkpt><trkpt lat="43.70288946795736" lon="11.214752151899072"><ele>102.0</ele><time>2026-04-26T08:42:01Z</time></trkpt><trkpt lat="43.70277637993917" lon="11.214873974780573"><ele>102.0</ele><time>2026-04-26T08:42:02Z</time></trkpt><trkpt lat="43.702657823599814" lon="11.214985084718242"><ele>98.5</ele><time>2026-04-26T08:42:03Z</time></trkpt><trkpt lat="43.702534646702276" lon="11.215087638169132"><ele>95.0</ele><time>2026-04-26T08:42:04Z</time></trkpt><trkpt lat="43.70239537147059" lon="11.215162963110695"><ele>91.5</ele><time>2026-04-26T08:42:05Z</time></trkpt><trkpt lat="43.702247871533004" lon="11.215189461791114"><ele>88.0</ele><time>2026-04-26T08:42:06Z</time></trkpt><trkpt lat="43.70209450733442" lon="11.215228693912657"><ele>88.0</ele><time>2026-04-26T08:42:07Z</time></trkpt><trkpt lat="43.70192979916314" lon="11.215251218806339"><ele>88.0</ele><time>2026-04-26T08:42:08Z</time></trkpt><trkpt lat="43.70177875701326" lon="11.215256040704249"><ele>88.0</ele><time>2026-04-26T08:42:09Z</time></trkpt><trkpt lat="43.701615650535835" lon="11.215240936695405"><ele>87.66666666666666</ele><time>2026-04-26T08:42:10Z</time></trkpt><trkpt lat="43.701448430625696" lon="11.215211874819989"><ele>87.33333333333333</ele><time>2026-04-26T08:42:11Z</time></trkpt><trkpt lat="43.70128710656543" lon="11.215151693705701"><ele>87.0</ele><time>2026-04-26T08:42:11.999Z</time></trkpt><trkpt lat="43.701128428881226" lon="11.21505603364659"><ele>86.66666666666667</ele><time>2026-04-26T08:42:12.999Z</time></trkpt><trkpt lat="43.70098497994482" lon="11.21493419868631"><ele>86.33333333333334</ele><time>2026-04-26T08:42:13.999Z</time></trkpt><trkpt lat="43.70083370807384" lon="11.214795177233666"><ele>86.0</ele><time>2026-04-26T08:42:14.999Z</time></trkpt><trkpt lat="43.700708512577485" lon="11.214614733794255"><ele>86.0</ele><time>2026-04-26T08:42:15.999Z</time></trkpt><trkpt lat="43.70059228606975" lon="11.214415507076543"><ele>86.0</ele><time>2026-04-26T08:42:16.999Z</time></trkpt><trkpt lat="43.700494136928846" lon="11.214204032681966"><ele>86.0</ele><time>2026-04-26T08:42:17.999Z</time></trkpt><trkpt lat="43.700417533683144" lon="11.213982967935694"><ele>86.0</ele><time>2026-04-26T08:42:18.999Z</time></trkpt><trkpt lat="43.70035227179797" lon="11.213752809679361"><ele>86.0</ele><time>2026-04-26T08:42:19.999Z</time></trkpt><trkpt lat="43.7003060155734" lon="11.213520196557393"><ele>86.0</ele><time>2026-04-26T08:42:20.999Z</time></trkpt><trkpt lat="43.700268676420286" lon="11.213292138018414"><ele>85.33333333333334</ele><time>2026-04-26T08:42:21.999Z</time></trkpt><trkpt lat="43.70021626394709" lon="11.213089940993676"><ele>84.66666666666667</ele><time>2026-04-26T08:42:22.999Z</time></trkpt><trkpt lat="43.700128663551716" lon="11.212859922942851"><ele>84.0</ele><time>2026-04-26T08:42:23.999Z</time></trkpt><trkpt lat="43.70002341279821" lon="11.212662840548502"><ele>84.0</ele><time>2026-04-26T08:42:24.999Z</time></trkpt><trkpt lat="43.69991179706286" lon="11.212472304970646"><ele>84.0</ele><time>2026-04-26T08:42:25.999Z</time></trkpt><trkpt lat="43.69978221805339" lon="11.212306072427419"><ele>84.0</ele><time>2026-04-26T08:42:26.999Z</time></trkpt><trkpt lat="43.69963804679063" lon="11.21216083611742"><ele>85.0</ele><time>2026-04-26T08:42:27.999Z</time></trkpt><trkpt lat="43.6994914345214" lon="11.212047362386956"><ele>86.0</ele><time>2026-04-26T08:42:28.999Z</time></trkpt><trkpt lat="43.699336126817485" lon="11.211952169471129"><ele>87.0</ele><time>2026-04-26T08:42:29.999Z</time></trkpt><trkpt lat="43.699175468251994" lon="11.211875159525112"><ele>87.0</ele><time>2026-04-26T08:42:30.999Z</time></trkpt><trkpt lat="43.69900953809436" lon="11.211819492828056"><ele>87.0</ele><time>2026-04-26T08:42:31.999Z</time></trkpt><trkpt lat="43.69884231227412" lon="11.211763503356563"><ele>87.0</ele><time>2026-04-26T08:42:32.999Z</time></trkpt><trkpt lat="43.698679566654825" lon="11.211677603704988"><ele>87.66666666666667</ele><time>2026-04-26T08:42:33.999Z</time></trkpt><trkpt lat="43.69850657149357" lon="11.211632206881696"><ele>88.33333333333334</ele><time>2026-04-26T08:42:34.999Z</time></trkpt><trkpt lat="43.69833700233081" lon="11.211566338028858"><ele>89.0</ele><time>2026-04-26T08:42:35.999Z</time></trkpt><trkpt lat="43.69816316621" lon="11.211503355663844"><ele>87.33333333333334</ele><time>2026-04-26T08:42:36.999Z</time></trkpt><trkpt lat="43.697990265322794" lon="11.211441601861571"><ele>85.66666666666667</ele><time>2026-04-26T08:42:37.999Z</time></trkpt><trkpt lat="43.69781344036807" lon="11.211375527109547"><ele>84.0</ele><time>2026-04-26T08:42:38.999Z</time></trkpt><trkpt lat="43.697638048317934" lon="11.211312268359134"><ele>84.0</ele><time>2026-04-26T08:42:39.999Z</time></trkpt><trkpt lat="43.69746164556851" lon="11.211260727886208"><ele>84.0</ele><time>2026-04-26T08:42:40.999Z</time></trkpt><trkpt lat="43.69728243260339" lon="11.211227563697541"><ele>84.0</ele><time>2026-04-26T08:42:41.999Z</time></trkpt><trkpt lat="43.697103751332655" lon="11.211204570638273"><ele>84.0</ele><time>2026-04-26T08:42:42.999Z</time></trkpt><trkpt lat="43.696922549922725" lon="11.211183278062146"><ele>84.0</ele><time>2026-04-26T08:42:43.999Z</time></trkpt><trkpt lat="43.69674046296841" lon="11.211173107357046"><ele>84.0</ele><time>2026-04-26T08:42:44.999Z</time></trkpt><trkpt lat="43.696562516421906" lon="11.211172940271299"><ele>86.0</ele><time>2026-04-26T08:42:45.999Z</time></trkpt><trkpt lat="43.696381415249306" lon="11.211184079329094"><ele>88.0</ele><time>2026-04-26T08:42:46.999Z</time></trkpt><trkpt lat="43.696199043950564" lon="11.211204383347997"><ele>90.0</ele><time>2026-04-26T08:42:47.999Z</time></trkpt><trkpt lat="43.696026788704195" lon="11.211219410742816"><ele>90.0</ele><time>2026-04-26T08:42:48.999Z</time></trkpt><trkpt lat="43.695841892671766" lon="11.21124498208149"><ele>90.0</ele><time>2026-04-26T08:42:49.999Z</time></trkpt><trkpt lat="43.69566463028697" lon="11.211276068513596"><ele>90.0</ele><time>2026-04-26T08:42:50.999Z</time></trkpt><trkpt lat="43.695489083285835" lon="11.21132223616657"><ele>90.0</ele><time>2026-04-26T08:42:51.999Z</time></trkpt><trkpt lat="43.69531793778616" lon="11.211381907670079"><ele>90.0</ele><time>2026-04-26T08:42:52.999Z</time></trkpt><trkpt lat="43.69514466893361" lon="11.211451469026706"><ele>90.0</ele><time>2026-04-26T08:42:53.999Z</time></trkpt><trkpt lat="43.69497736818985" lon="11.211533300430096"><ele>90.66666666666667</ele><time>2026-04-26T08:42:54.999Z</time></trkpt><trkpt lat="43.69481094410538" lon="11.211619782721137"><ele>91.33333333333334</ele><time>2026-04-26T08:42:55.999Z</time></trkpt><trkpt lat="43.69463697681815" lon="11.211712089380729"><ele>92.0</ele><time>2026-04-26T08:42:56.999Z</time></trkpt><trkpt lat="43.69446500925325" lon="11.211806135835705"><ele>90.66666666666667</ele><time>2026-04-26T08:42:57.999Z</time></trkpt><trkpt lat="43.69428975033255" lon="11.2119009404876"><ele>89.33333333333333</ele><time>2026-04-26T08:42:58.999Z</time></trkpt><trkpt lat="43.694114706587236" lon="11.211994648880257"><ele>88.0</ele><time>2026-04-26T08:42:59.999Z</time></trkpt><trkpt lat="43.69394082341255" lon="11.21208679903242"><ele>88.0</ele><time>2026-04-26T08:43:00.999Z</time></trkpt><trkpt lat="43.69377140557937" lon="11.212183174504007"><ele>88.0</ele><time>2026-04-26T08:43:01.999Z</time></trkpt><trkpt lat="43.69359929813759" lon="11.212284097351922"><ele>88.0</ele><time>2026-04-26T08:43:02.999Z</time></trkpt><trkpt lat="43.69342830396705" lon="11.212392544812111"><ele>91.0</ele><time>2026-04-26T08:43:03.999Z</time></trkpt><trkpt lat="43.69325742515426" lon="11.212492403377563"><ele>94.0</ele><time>2026-04-26T08:43:04.999Z</time></trkpt><trkpt lat="43.693082861139864" lon="11.212585777010013"><ele>97.0</ele><time>2026-04-26T08:43:05.999Z</time></trkpt><trkpt lat="43.69290422244394" lon="11.21267555512193"><ele>95.0</ele><time>2026-04-26T08:43:06.999Z</time></trkpt><trkpt lat="43.692725611099235" lon="11.212746914022581"><ele>93.0</ele><time>2026-04-26T08:43:07.999Z</time></trkpt><trkpt lat="43.69253759176166" lon="11.212764070095545"><ele>91.0</ele><time>2026-04-26T08:43:08.999Z</time></trkpt><trkpt lat="43.6923515315442" lon="11.212774811382458"><ele>91.0</ele><time>2026-04-26T08:43:09.999Z</time></trkpt><trkpt lat="43.69216938722754" lon="11.212758702550493"><ele>91.0</ele><time>2026-04-26T08:43:10.999Z</time></trkpt><trkpt lat="43.69198948302755" lon="11.212709365196588"><ele>91.0</ele><time>2026-04-26T08:43:11.999Z</time></trkpt><trkpt lat="43.691815530415624" lon="11.212641379958354"><ele>91.33333333333333</ele><time>2026-04-26T08:43:12.999Z</time></trkpt><trkpt lat="43.691633970741734" lon="11.212586938524124"><ele>91.66666666666667</ele><time>2026-04-26T08:43:13.999Z</time></trkpt><trkpt lat="43.69145562430791" lon="11.212505104815357"><ele>92.0</ele><time>2026-04-26T08:43:14.999Z</time></trkpt><trkpt lat="43.691279576242316" lon="11.212431368204633"><ele>92.0</ele><time>2026-04-26T08:43:15.999Z</time></trkpt><trkpt lat="43.69110151109409" lon="11.212331882204014"><ele>92.0</ele><time>2026-04-26T08:43:16.999Z</time></trkpt><trkpt lat="43.69092116302595" lon="11.21225330764794"><ele>92.0</ele><time>2026-04-26T08:43:17.999Z</time></trkpt><trkpt lat="43.690736869960816" lon="11.21217301430669"><ele>92.0</ele><time>2026-04-26T08:43:18.999Z</time></trkpt><trkpt lat="43.69055306521328" lon="11.212092905332598"><ele>92.0</ele><time>2026-04-26T08:43:19.999Z</time></trkpt><trkpt lat="43.690367686038456" lon="11.212011944245772"><ele>92.0</ele><time>2026-04-26T08:43:20.999Z</time></trkpt><trkpt lat="43.69018096210565" lon="11.211930808270896"><ele>92.0</ele><time>2026-04-26T08:43:21.999Z</time></trkpt><trkpt lat="43.69000030030104" lon="11.211853427225181"><ele>92.0</ele><time>2026-04-26T08:43:22.999Z</time></trkpt><trkpt lat="43.689831538553236" lon="11.21178115423311"><ele>92.0</ele><time>2026-04-26T08:43:23.999Z</time></trkpt><trkpt lat="43.68967119110085" lon="11.211715918485023"><ele>92.0</ele><time>2026-04-26T08:43:24.999Z</time></trkpt><trkpt lat="43.6895202366977" lon="11.211659841131063"><ele>92.0</ele><time>2026-04-26T08:43:25.999Z</time></trkpt><trkpt lat="43.68937699014456" lon="11.21161241574127"><ele>92.0</ele><time>2026-04-26T08:43:26.999Z</time></trkpt><trkpt lat="43.689225847931226" lon="11.211595837832995"><ele>92.33333333333334</ele><time>2026-04-26T08:43:27.999Z</time></trkpt><trkpt lat="43.689071858693" lon="11.21155237310722"><ele>92.66666666666667</ele><time>2026-04-26T08:43:28.999Z</time></trkpt><trkpt lat="43.68891275355526" lon="11.211504027903604"><ele>93.0</ele><time>2026-04-26T08:43:29.999Z</time></trkpt><trkpt lat="43.68874670003293" lon="11.211460975813825"><ele>93.66666666666667</ele><time>2026-04-26T08:43:30.999Z</time></trkpt><trkpt lat="43.68856955997489" lon="11.211470783028902"><ele>94.33333333333334</ele><time>2026-04-26T08:43:31.999Z</time></trkpt><trkpt lat="43.688392208318625" lon="11.211498283503014"><ele>95.0</ele><time>2026-04-26T08:43:32.999Z</time></trkpt><trkpt lat="43.68820920390104" lon="11.211502975566201"><ele>97.0</ele><time>2026-04-26T08:43:33.999Z</time></trkpt><trkpt lat="43.68802275691908" lon="11.211510891285466"><ele>99.0</ele><time>2026-04-26T08:43:34.998Z</time></trkpt><trkpt lat="43.68783558829355" lon="11.211522411604822"><ele>101.0</ele><time>2026-04-26T08:43:35.998Z</time></trkpt><trkpt lat="43.68764610141781" lon="11.211536841161896"><ele>101.33333333333333</ele><time>2026-04-26T08:43:36.998Z</time></trkpt><trkpt lat="43.68745889349679" lon="11.211550572022887"><ele>101.66666666666666</ele><time>2026-04-26T08:43:37.998Z</time></trkpt><trkpt lat="43.687264473441644" lon="11.211559102610261"><ele>102.0</ele><time>2026-04-26T08:43:39Z</time></trkpt><trkpt lat="43.68707260121517" lon="11.211567024090506"><ele>102.66666666666666</ele><time>2026-04-26T08:43:40Z</time></trkpt><trkpt lat="43.686882667638415" lon="11.211578213938491"><ele>103.33333333333333</ele><time>2026-04-26T08:43:41Z</time></trkpt><trkpt lat="43.68669241557932" lon="11.211593440336697"><ele>104.0</ele><time>2026-04-26T08:43:42Z</time></trkpt><trkpt lat="43.68649929927836" lon="11.21160637525902"><ele>104.0</ele><time>2026-04-26T08:43:43Z</time></trkpt><trkpt lat="43.6863135429406" lon="11.211623566852497"><ele>104.0</ele><time>2026-04-26T08:43:44Z</time></trkpt><trkpt lat="43.6861293310329" lon="11.211647537256345"><ele>104.0</ele><time>2026-04-26T08:43:45Z</time></trkpt><trkpt lat="43.685945353517994" lon="11.211678862321543"><ele>105.0</ele><time>2026-04-26T08:43:46Z</time></trkpt><trkpt lat="43.68576551564707" lon="11.211724539094973"><ele>106.0</ele><time>2026-04-26T08:43:47Z</time></trkpt><trkpt lat="43.68558605266504" lon="11.211771237019889"><ele>107.0</ele><time>2026-04-26T08:43:48Z</time></trkpt><trkpt lat="43.685406884365314" lon="11.211821871881172"><ele>108.66666666666666</ele><time>2026-04-26T08:43:49Z</time></trkpt><trkpt lat="43.68522759472655" lon="11.21186747061571"><ele>110.33333333333334</ele><time>2026-04-26T08:43:50Z</time></trkpt><trkpt lat="43.68504728840765" lon="11.211911297205793"><ele>112.0</ele><time>2026-04-26T08:43:51Z</time></trkpt><trkpt lat="43.68486689223025" lon="11.211944997457886"><ele>112.0</ele><time>2026-04-26T08:43:52Z</time></trkpt><trkpt lat="43.684685155122395" lon="11.212001175163158"><ele>112.0</ele><time>2026-04-26T08:43:53Z</time></trkpt><trkpt lat="43.68450436987669" lon="11.212050054024385"><ele>112.0</ele><time>2026-04-26T08:43:54Z</time></trkpt><trkpt lat="43.684324469045045" lon="11.212094462777562"><ele>112.0</ele><time>2026-04-26T08:43:55Z</time></trkpt><trkpt lat="43.68414644786728" lon="11.212143351095651"><ele>112.0</ele><time>2026-04-26T08:43:56Z</time></trkpt><trkpt lat="43.683967620335814" lon="11.212185299953319"><ele>112.0</ele><time>2026-04-26T08:43:57Z</time></trkpt><trkpt lat="43.68379326727136" lon="11.212232588577368"><ele>112.0</ele><time>2026-04-26T08:43:58Z</time></trkpt><trkpt lat="43.683620442903326" lon="11.212284861684351"><ele>112.0</ele><time>2026-04-26T08:43:59Z</time></trkpt><trkpt lat="43.68345083894674" lon="11.212355613397976"><ele>112.0</ele><time>2026-04-26T08:44:00Z</time></trkpt><trkpt lat="43.68329149028394" lon="11.212447986590306"><ele>107.0</ele><time>2026-04-26T08:44:01Z</time></trkpt><trkpt lat="43.68314809664994" lon="11.212559032596827"><ele>102.0</ele><time>2026-04-26T08:44:02Z</time></trkpt><trkpt lat="43.68301013454369" lon="11.212673342664464"><ele>97.0</ele><time>2026-04-26T08:44:03Z</time></trkpt><trkpt lat="43.68286400949013" lon="11.21277046970472"><ele>97.0</ele><time>2026-04-26T08:44:04Z</time></trkpt><trkpt lat="43.682710070878436" lon="11.212837034534257"><ele>97.0</ele><time>2026-04-26T08:44:05Z</time></trkpt><trkpt lat="43.68254457964567" lon="11.21288176316255"><ele>97.0</ele><time>2026-04-26T08:44:06Z</time></trkpt><trkpt lat="43.682375711911824" lon="11.212886840501463"><ele>97.0</ele><time>2026-04-26T08:44:07Z</time></trkpt><trkpt lat="43.682207471266864" lon="11.212825817409772"><ele>97.0</ele><time>2026-04-26T08:44:08Z</time></trkpt><trkpt lat="43.68203591568606" lon="11.2127975678617"><ele>97.0</ele><time>2026-04-26T08:44:09Z</time></trkpt><trkpt lat="43.68187050606021" lon="11.212731398515718"><ele>97.33333333333334</ele><time>2026-04-26T08:44:10Z</time></trkpt><trkpt lat="43.68169909565856" lon="11.212674674082214"><ele>97.66666666666666</ele><time>2026-04-26T08:44:11Z</time></trkpt><trkpt lat="43.681528397177104" lon="11.212633195480779"><ele>98.0</ele><time>2026-04-26T08:44:12Z</time></trkpt><trkpt lat="43.68135764019966" lon="11.212589106755948"><ele>98.0</ele><time>2026-04-26T08:44:13Z</time></trkpt><trkpt lat="43.681194370016236" lon="11.212497073641781"><ele>98.0</ele><time>2026-04-26T08:44:14Z</time></trkpt><trkpt lat="43.68104223127392" lon="11.212383892069177"><ele>98.0</ele><time>2026-04-26T08:44:15Z</time></trkpt><trkpt lat="43.68090450368145" lon="11.212240095964018"><ele>97.33333333333333</ele><time>2026-04-26T08:44:16Z</time></trkpt><trkpt lat="43.68076508610235" lon="11.212088984057134"><ele>96.66666666666666</ele><time>2026-04-26T08:44:17Z</time></trkpt><trkpt lat="43.68062901023335" lon="11.211941496934026"><ele>96.0</ele><time>2026-04-26T08:44:18Z</time></trkpt><trkpt lat="43.68047874260201" lon="11.211802605911899"><ele>96.0</ele><time>2026-04-26T08:44:19Z</time></trkpt><trkpt lat="43.68033122104403" lon="11.211637847043697"><ele>96.0</ele><time>2026-04-26T08:44:20Z</time></trkpt><trkpt lat="43.68018270715421" lon="11.21148118375657"><ele>96.0</ele><time>2026-04-26T08:44:21Z</time></trkpt><trkpt lat="43.68003253235374" lon="11.211322108768407"><ele>96.0</ele><time>2026-04-26T08:44:22Z</time></trkpt><trkpt lat="43.6798830980479" lon="11.211158962619075"><ele>96.0</ele><time>2026-04-26T08:44:23Z</time></trkpt><trkpt lat="43.6797313902266" lon="11.210996731218842"><ele>96.0</ele><time>2026-04-26T08:44:24Z</time></trkpt><trkpt lat="43.67957376972277" lon="11.210832615583854"><ele>96.33333333333334</ele><time>2026-04-26T08:44:24.999Z</time></trkpt><trkpt lat="43.67943213195422" lon="11.210654760095222"><ele>96.66666666666667</ele><time>2026-04-26T08:44:25.999Z</time></trkpt><trkpt lat="43.67927045194686" lon="11.210510487904346"><ele>97.0</ele><time>2026-04-26T08:44:26.999Z</time></trkpt><trkpt lat="43.679130243187245" lon="11.210330752582948"><ele>97.0</ele><time>2026-04-26T08:44:27.999Z</time></trkpt><trkpt lat="43.67899850514865" lon="11.210147624610292"><ele>97.0</ele><time>2026-04-26T08:44:28.999Z</time></trkpt><trkpt lat="43.67886517687016" lon="11.209971317184985"><ele>97.0</ele><time>2026-04-26T08:44:29.999Z</time></trkpt><trkpt lat="43.678721144140894" lon="11.209807427146126"><ele>97.0</ele><time>2026-04-26T08:44:30.999Z</time></trkpt><trkpt lat="43.67856645486569" lon="11.209669144836832"><ele>97.0</ele><time>2026-04-26T08:44:31.999Z</time></trkpt><trkpt lat="43.67840294831795" lon="11.209558527972298"><ele>97.0</ele><time>2026-04-26T08:44:32.999Z</time></trkpt><trkpt lat="43.67823274392651" lon="11.20947497413794"><ele>97.0</ele><time>2026-04-26T08:44:33.999Z</time></trkpt><trkpt lat="43.67805667006538" lon="11.209424084341535"><ele>97.0</ele><time>2026-04-26T08:44:34.999Z</time></trkpt><trkpt lat="43.67788019920861" lon="11.209403299173461"><ele>97.0</ele><time>2026-04-26T08:44:35.999Z</time></trkpt><trkpt lat="43.677704487545626" lon="11.209411162934092"><ele>98.0</ele><time>2026-04-26T08:44:36.999Z</time></trkpt><trkpt lat="43.67753391983837" lon="11.209446858788185"><ele>99.0</ele><time>2026-04-26T08:44:37.999Z</time></trkpt><trkpt lat="43.677366680141645" lon="11.209504365088463"><ele>100.0</ele><time>2026-04-26T08:44:38.999Z</time></trkpt><trkpt lat="43.67720331446675" lon="11.209578467316755"><ele>100.0</ele><time>2026-04-26T08:44:39.999Z</time></trkpt><trkpt lat="43.67704667416604" lon="11.209673943956533"><ele>100.0</ele><time>2026-04-26T08:44:40.999Z</time></trkpt><trkpt lat="43.67689428656143" lon="11.209788703653258"><ele>100.0</ele><time>2026-04-26T08:44:41.999Z</time></trkpt><trkpt lat="43.67675184826765" lon="11.209929729316212"><ele>101.33333333333334</ele><time>2026-04-26T08:44:42.999Z</time></trkpt><trkpt lat="43.676623216908844" lon="11.21009498738718"><ele>102.66666666666666</ele><time>2026-04-26T08:44:43.999Z</time></trkpt><trkpt lat="43.676520962340156" lon="11.210273581791705"><ele>104.0</ele><time>2026-04-26T08:44:44.999Z</time></trkpt><trkpt lat="43.67642479253158" lon="11.21047927715388"><ele>107.66666666666666</ele><time>2026-04-26T08:44:45.999Z</time></trkpt><trkpt lat="43.676347734370495" lon="11.210698029616854"><ele>111.33333333333334</ele><time>2026-04-26T08:44:46.999Z</time></trkpt><trkpt lat="43.676286280572874" lon="11.21092443993036"><ele>115.0</ele><time>2026-04-26T08:44:47.999Z</time></trkpt><trkpt lat="43.67623305070965" lon="11.21115089138188"><ele>115.0</ele><time>2026-04-26T08:44:48.999Z</time></trkpt><trkpt lat="43.67620514034113" lon="11.211392609552885"><ele>115.0</ele><time>2026-04-26T08:44:49.999Z</time></trkpt><trkpt lat="43.676189106321885" lon="11.211634420565096"><ele>115.0</ele><time>2026-04-26T08:44:50.999Z</time></trkpt><trkpt lat="43.676183904649314" lon="11.211877102695553"><ele>114.66666666666667</ele><time>2026-04-26T08:44:51.999Z</time></trkpt><trkpt lat="43.67618342749992" lon="11.212118678848258"><ele>114.33333333333334</ele><time>2026-04-26T08:44:52.999Z</time></trkpt><trkpt lat="43.67618433328467" lon="11.212344157065807"><ele>114.0</ele><time>2026-04-26T08:44:53.999Z</time></trkpt><trkpt lat="43.67618325116816" lon="11.212553082617267"><ele>113.5</ele><time>2026-04-26T08:44:54.999Z</time></trkpt><trkpt lat="43.676178821797954" lon="11.212745254323991"><ele>113.0</ele><time>2026-04-26T08:44:55.999Z</time></trkpt><trkpt lat="43.676175762299614" lon="11.212924629833909"><ele>112.5</ele><time>2026-04-26T08:44:56.999Z</time></trkpt><trkpt lat="43.67615433672432" lon="11.213099968492301"><ele>112.0</ele><time>2026-04-26T08:44:57.999Z</time></trkpt><trkpt lat="43.676111168069234" lon="11.213275803954454"><ele>110.0</ele><time>2026-04-26T08:44:58.999Z</time></trkpt><trkpt lat="43.676046839251995" lon="11.21345294005897"><ele>108.0</ele><time>2026-04-26T08:44:59.999Z</time></trkpt><trkpt lat="43.67596866348697" lon="11.213611049427293"><ele>106.0</ele><time>2026-04-26T08:45:00.999Z</time></trkpt><trkpt lat="43.675875132831614" lon="11.213750660573597"><ele>104.0</ele><time>2026-04-26T08:45:01.999Z</time></trkpt><trkpt lat="43.67577289253252" lon="11.213870650579251"><ele>104.0</ele><time>2026-04-26T08:45:02.999Z</time></trkpt><trkpt lat="43.6756597317561" lon="11.213977075634267"><ele>104.0</ele><time>2026-04-26T08:45:03.999Z</time></trkpt><trkpt lat="43.67553814935955" lon="11.214076815672087"><ele>104.0</ele><time>2026-04-26T08:45:04.999Z</time></trkpt><trkpt lat="43.67541171553571" lon="11.214177211947266"><ele>104.0</ele><time>2026-04-26T08:45:05.999Z</time></trkpt><trkpt lat="43.675287114473264" lon="11.214274459160695"><ele>105.66666666666666</ele><time>2026-04-26T08:45:06.999Z</time></trkpt><trkpt lat="43.675149011630324" lon="11.21436568112833"><ele>107.33333333333334</ele><time>2026-04-26T08:45:07.999Z</time></trkpt><trkpt lat="43.67499732253664" lon="11.214417602667789"><ele>109.0</ele><time>2026-04-26T08:45:08.999Z</time></trkpt><trkpt lat="43.6748402095296" lon="11.214409975294254"><ele>109.0</ele><time>2026-04-26T08:45:09.999Z</time></trkpt><trkpt lat="43.674689556185506" lon="11.214374682721115"><ele>109.0</ele><time>2026-04-26T08:45:10.999Z</time></trkpt><trkpt lat="43.674543660611334" lon="11.214290864959972"><ele>109.0</ele><time>2026-04-26T08:45:11.999Z</time></trkpt><trkpt lat="43.67440500781908" lon="11.21417665412101"><ele>108.66666666666667</ele><time>2026-04-26T08:45:12.999Z</time></trkpt><trkpt lat="43.67428988025117" lon="11.214012633996058"><ele>108.33333333333334</ele><time>2026-04-26T08:45:13.999Z</time></trkpt><trkpt lat="43.67419728773272" lon="11.213821918132629"><ele>108.0</ele><time>2026-04-26T08:45:14.999Z</time></trkpt><trkpt lat="43.67411136046389" lon="11.21361646907269"><ele>113.33333333333334</ele><time>2026-04-26T08:45:15.999Z</time></trkpt><trkpt lat="43.674031688250984" lon="11.213403654299608"><ele>118.66666666666667</ele><time>2026-04-26T08:45:16.999Z</time></trkpt><trkpt lat="43.67395763617875" lon="11.213183977664862"><ele>124.0</ele><time>2026-04-26T08:45:17.999Z</time></trkpt><trkpt lat="43.6738921391954" lon="11.212965595773463"><ele>126.33333333333334</ele><time>2026-04-26T08:45:18.999Z</time></trkpt><trkpt lat="43.67383186829841" lon="11.212746773530107"><ele>128.66666666666666</ele><time>2026-04-26T08:45:19.999Z</time></trkpt><trkpt lat="43.673795460902426" lon="11.212531360813255"><ele>131.0</ele><time>2026-04-26T08:45:20.999Z</time></trkpt><trkpt lat="43.67379290891955" lon="11.212319958786843"><ele>132.0</ele><time>2026-04-26T08:45:21.999Z</time></trkpt><trkpt lat="43.673787942774396" lon="11.212100285623304"><ele>133.0</ele><time>2026-04-26T08:45:22.999Z</time></trkpt><trkpt lat="43.67374321037697" lon="11.211888812493326"><ele>134.0</ele><time>2026-04-26T08:45:23.999Z</time></trkpt><trkpt lat="43.673687758650146" lon="11.211692177599756"><ele>132.66666666666666</ele><time>2026-04-26T08:45:24.999Z</time></trkpt><trkpt lat="43.67357835706325" lon="11.211528381825257"><ele>131.33333333333334</ele><time>2026-04-26T08:45:25.999Z</time></trkpt><trkpt lat="43.67345185865947" lon="11.21138667962814"><ele>130.0</ele><time>2026-04-26T08:45:26.999Z</time></trkpt><trkpt lat="43.67331812873938" lon="11.21127011806051"><ele>130.0</ele><time>2026-04-26T08:45:27.999Z</time></trkpt><trkpt lat="43.67319748287118" lon="11.21112063641423"><ele>130.0</ele><time>2026-04-26T08:45:28.999Z</time></trkpt><trkpt lat="43.673048470001255" lon="11.211025822419776"><ele>130.0</ele><time>2026-04-26T08:45:29.999Z</time></trkpt><trkpt lat="43.6728982001905" lon="11.21092785683253"><ele>130.33333333333334</ele><time>2026-04-26T08:45:30.999Z</time></trkpt><trkpt lat="43.67273911575873" lon="11.210861039739273"><ele>130.66666666666666</ele><time>2026-04-26T08:45:31.999Z</time></trkpt><trkpt lat="43.672575355710514" lon="11.210821163028303"><ele>131.0</ele><time>2026-04-26T08:45:32.999Z</time></trkpt><trkpt lat="43.67241467433426" lon="11.21080949581042"><ele>131.0</ele><time>2026-04-26T08:45:33.999Z</time></trkpt><trkpt lat="43.67225801304372" lon="11.210818847546774"><ele>131.0</ele><time>2026-04-26T08:45:34.999Z</time></trkpt><trkpt lat="43.67210726276951" lon="11.210842974474781"><ele>131.0</ele><time>2026-04-26T08:45:35.999Z</time></trkpt><trkpt lat="43.671955518850545" lon="11.210860921115978"><ele>133.0</ele><time>2026-04-26T08:45:36.999Z</time></trkpt><trkpt lat="43.67180606380751" lon="11.210873078600596"><ele>135.0</ele><time>2026-04-26T08:45:37.999Z</time></trkpt><trkpt lat="43.67165642574609" lon="11.210885757229521"><ele>137.0</ele><time>2026-04-26T08:45:38.999Z</time></trkpt><trkpt lat="43.67151800914638" lon="11.210899471191297"><ele>139.0</ele><time>2026-04-26T08:45:39.999Z</time></trkpt><trkpt lat="43.67139067801717" lon="11.210937359073421"><ele>139.0</ele><time>2026-04-26T08:45:40.999Z</time></trkpt><trkpt lat="43.67127407482171" lon="11.211047341474522"><ele>139.0</ele><time>2026-04-26T08:45:41.999Z</time></trkpt><trkpt lat="43.671172211788964" lon="11.211202277652333"><ele>139.0</ele><time>2026-04-26T08:45:42.999Z</time></trkpt><trkpt lat="43.67107814445669" lon="11.21134983438254"><ele>139.0</ele><time>2026-04-26T08:45:43.999Z</time></trkpt><trkpt lat="43.670976318024515" lon="11.211458136997715"><ele>138.25</ele><time>2026-04-26T08:45:45Z</time></trkpt><trkpt lat="43.670864551473706" lon="11.211513867248666"><ele>137.5</ele><time>2026-04-26T08:45:46Z</time></trkpt><trkpt lat="43.670737243915035" lon="11.211504974751685"><ele>136.75</ele><time>2026-04-26T08:45:47Z</time></trkpt><trkpt lat="43.67061162879913" lon="11.211443290216378"><ele>136.0</ele><time>2026-04-26T08:45:48Z</time></trkpt><trkpt lat="43.670478121678926" lon="11.211416118332322"><ele>138.0</ele><time>2026-04-26T08:45:49Z</time></trkpt><trkpt lat="43.67034716430242" lon="11.211359653388284"><ele>140.0</ele><time>2026-04-26T08:45:50Z</time></trkpt><trkpt lat="43.670212456704554" lon="11.2112997031004"><ele>142.0</ele><time>2026-04-26T08:45:51Z</time></trkpt><trkpt lat="43.670079201639105" lon="11.211221171776668"><ele>144.0</ele><time>2026-04-26T08:45:52Z</time></trkpt><trkpt lat="43.669951732621115" lon="11.21112302960734"><ele>144.0</ele><time>2026-04-26T08:45:53Z</time></trkpt><trkpt lat="43.669837076693796" lon="11.211018715331827"><ele>144.0</ele><time>2026-04-26T08:45:54Z</time></trkpt><trkpt lat="43.66972117026612" lon="11.210908793099344"><ele>144.0</ele><time>2026-04-26T08:45:55Z</time></trkpt><trkpt lat="43.66961486402952" lon="11.210799778568491"><ele>144.0</ele><time>2026-04-26T08:45:56Z</time></trkpt><trkpt lat="43.66950981100726" lon="11.210693072673134"><ele>146.75</ele><time>2026-04-26T08:45:57Z</time></trkpt><trkpt lat="43.66940266145327" lon="11.210590500647436"><ele>149.5</ele><time>2026-04-26T08:45:58Z</time></trkpt><trkpt lat="43.6692936177688" lon="11.210492379093662"><ele>152.25</ele><time>2026-04-26T08:45:59Z</time></trkpt><trkpt lat="43.66918038795311" lon="11.210398205337231"><ele>155.0</ele><time>2026-04-26T08:46:00Z</time></trkpt><trkpt lat="43.669063825334284" lon="11.210312924523812"><ele>155.0</ele><time>2026-04-26T08:46:01Z</time></trkpt><trkpt lat="43.6689414788533" lon="11.210240990528952"><ele>155.0</ele><time>2026-04-26T08:46:02Z</time></trkpt><trkpt lat="43.66881275362985" lon="11.210183937629226"><ele>155.0</ele><time>2026-04-26T08:46:03Z</time></trkpt><trkpt lat="43.66867841426749" lon="11.210138754085506"><ele>155.0</ele><time>2026-04-26T08:46:04Z</time></trkpt><trkpt lat="43.66854725471005" lon="11.210110815567736"><ele>155.25</ele><time>2026-04-26T08:46:05Z</time></trkpt><trkpt lat="43.668409789398396" lon="11.210098121120163"><ele>155.5</ele><time>2026-04-26T08:46:06Z</time></trkpt><trkpt lat="43.668276705822414" lon="11.210093161065538"><ele>155.75</ele><time>2026-04-26T08:46:07Z</time></trkpt><trkpt lat="43.6681443149985" lon="11.210089471981473"><ele>156.0</ele><time>2026-04-26T08:46:08Z</time></trkpt><trkpt lat="43.66801355520162" lon="11.210080990508994"><ele>156.0</ele><time>2026-04-26T08:46:09Z</time></trkpt><trkpt lat="43.66788437249714" lon="11.210075715756469"><ele>156.0</ele><time>2026-04-26T08:46:10Z</time></trkpt><trkpt lat="43.667759128715545" lon="11.210071119046098"><ele>156.0</ele><time>2026-04-26T08:46:11Z</time></trkpt><trkpt lat="43.66763999255584" lon="11.210065826651237"><ele>156.0</ele><time>2026-04-26T08:46:12Z</time></trkpt><trkpt lat="43.66752200483619" lon="11.210055975461307"><ele>156.5</ele><time>2026-04-26T08:46:13Z</time></trkpt><trkpt lat="43.66740477471033" lon="11.21002313296991"><ele>157.0</ele><time>2026-04-26T08:46:14Z</time></trkpt><trkpt lat="43.66729375910882" lon="11.20994126347828"><ele>157.5</ele><time>2026-04-26T08:46:15Z</time></trkpt><trkpt lat="43.66722931046565" lon="11.209772632973179"><ele>158.0</ele><time>2026-04-26T08:46:16Z</time></trkpt><trkpt lat="43.66721401507247" lon="11.2096120150198"><ele>160.75</ele><time>2026-04-26T08:46:17Z</time></trkpt><trkpt lat="43.667226751005394" lon="11.20947369845251"><ele>163.5</ele><time>2026-04-26T08:46:18Z</time></trkpt><trkpt lat="43.6672799731774" lon="11.209365154451259"><ele>166.25</ele><time>2026-04-26T08:46:19Z</time></trkpt><trkpt lat="43.66737913301138" lon="11.209209736757751"><ele>169.0</ele><time>2026-04-26T08:46:20Z</time></trkpt><trkpt lat="43.66749044445225" lon="11.20909762876111"><ele>169.0</ele><time>2026-04-26T08:46:21Z</time></trkpt><trkpt lat="43.66760522769269" lon="11.208992889432755"><ele>169.0</ele><time>2026-04-26T08:46:22Z</time></trkpt><trkpt lat="43.667720520328245" lon="11.208893350704582"><ele>169.0</ele><time>2026-04-26T08:46:23Z</time></trkpt><trkpt lat="43.667835140389336" lon="11.208797769378913"><ele>169.0</ele><time>2026-04-26T08:46:24Z</time></trkpt><trkpt lat="43.66794834201833" lon="11.2087079927533"><ele>168.75</ele><time>2026-04-26T08:46:25Z</time></trkpt><trkpt lat="43.66806739367588" lon="11.208624893992617"><ele>168.5</ele><time>2026-04-26T08:46:26Z</time></trkpt><trkpt lat="43.66818583333883" lon="11.208556304781315"><ele>168.25</ele><time>2026-04-26T08:46:27Z</time></trkpt><trkpt lat="43.668311727216285" lon="11.20849986928121"><ele>168.0</ele><time>2026-04-26T08:46:28Z</time></trkpt><trkpt lat="43.6684395748492" lon="11.208456846278654"><ele>168.0</ele><time>2026-04-26T08:46:29Z</time></trkpt><trkpt lat="43.66857104697235" lon="11.208415648600994"><ele>168.0</ele><time>2026-04-26T08:46:30Z</time></trkpt><trkpt lat="43.66870546040041" lon="11.208377176134208"><ele>168.0</ele><time>2026-04-26T08:46:31Z</time></trkpt><trkpt lat="43.668838048699016" lon="11.208342949708264"><ele>168.0</ele><time>2026-04-26T08:46:32Z</time></trkpt><trkpt lat="43.66896759964687" lon="11.208309198786283"><ele>168.25</ele><time>2026-04-26T08:46:33Z</time></trkpt><trkpt lat="43.66909342384235" lon="11.208277368452958"><ele>168.5</ele><time>2026-04-26T08:46:34Z</time></trkpt><trkpt lat="43.66921881893875" lon="11.208245855518298"><ele>168.75</ele><time>2026-04-26T08:46:35Z</time></trkpt><trkpt lat="43.66934617510332" lon="11.208191944304726"><ele>169.0</ele><time>2026-04-26T08:46:36Z</time></trkpt><trkpt lat="43.669478493029835" lon="11.208157225073297"><ele>170.0</ele><time>2026-04-26T08:46:37Z</time></trkpt><trkpt lat="43.66961478471198" lon="11.208143533037852"><ele>171.0</ele><time>2026-04-26T08:46:37.999Z</time></trkpt><trkpt lat="43.66975276469339" lon="11.208105193278046"><ele>172.0</ele><time>2026-04-26T08:46:38.999Z</time></trkpt><trkpt lat="43.669887110528364" lon="11.208043987960192"><ele>173.0</ele><time>2026-04-26T08:46:39.999Z</time></trkpt><trkpt lat="43.67002827743587" lon="11.208000443678902"><ele>173.0</ele><time>2026-04-26T08:46:40.999Z</time></trkpt><trkpt lat="43.67016538554602" lon="11.207942297012323"><ele>173.0</ele><time>2026-04-26T08:46:41.999Z</time></trkpt><trkpt lat="43.67029673516495" lon="11.20786147254782"><ele>173.0</ele><time>2026-04-26T08:46:42.999Z</time></trkpt><trkpt lat="43.67040646536144" lon="11.207731876935926"><ele>173.0</ele><time>2026-04-26T08:46:43.999Z</time></trkpt><trkpt lat="43.67048331533561" lon="11.207548326086714"><ele>176.0</ele><time>2026-04-26T08:46:44.999Z</time></trkpt><trkpt lat="43.67051899108536" lon="11.207329888406715"><ele>179.0</ele><time>2026-04-26T08:46:45.999Z</time></trkpt><trkpt lat="43.670506041277264" lon="11.207106418028516"><ele>182.0</ele><time>2026-04-26T08:46:46.999Z</time></trkpt><trkpt lat="43.6704448802652" lon="11.20692309239017"><ele>181.66666666666666</ele><time>2026-04-26T08:46:47.999Z</time></trkpt><trkpt lat="43.67034722304071" lon="11.206779670967478"><ele>181.33333333333334</ele><time>2026-04-26T08:46:48.999Z</time></trkpt><trkpt lat="43.67020438560786" lon="11.206682648949146"><ele>181.0</ele><time>2026-04-26T08:46:49.999Z</time></trkpt><trkpt lat="43.670044518916754" lon="11.206617590208927"><ele>181.0</ele><time>2026-04-26T08:46:50.999Z</time></trkpt><trkpt lat="43.669883126402844" lon="11.206554087226007"><ele>181.0</ele><time>2026-04-26T08:46:51.999Z</time></trkpt><trkpt lat="43.669726416275346" lon="11.206500639898378"><ele>181.0</ele><time>2026-04-26T08:46:52.999Z</time></trkpt><trkpt lat="43.66957512382697" lon="11.206455661258062"><ele>183.5</ele><time>2026-04-26T08:46:53.999Z</time></trkpt><trkpt lat="43.6694250677986" lon="11.206407573826043"><ele>186.0</ele><time>2026-04-26T08:46:54.999Z</time></trkpt><trkpt lat="43.66928696471756" lon="11.206362970448371"><ele>188.5</ele><time>2026-04-26T08:46:55.999Z</time></trkpt><trkpt lat="43.6691521627559" lon="11.20632324463943"><ele>191.0</ele><time>2026-04-26T08:46:56.999Z</time></trkpt><trkpt lat="43.66902312401258" lon="11.206286429760189"><ele>191.0</ele><time>2026-04-26T08:46:57.999Z</time></trkpt><trkpt lat="43.668894971944255" lon="11.206251685507164"><ele>191.0</ele><time>2026-04-26T08:46:58.999Z</time></trkpt><trkpt lat="43.668767840233784" lon="11.206216282730775"><ele>191.0</ele><time>2026-04-26T08:46:59.999Z</time></trkpt><trkpt lat="43.66863162173229" lon="11.206189061996175"><ele>191.0</ele><time>2026-04-26T08:47:00.999Z</time></trkpt><trkpt lat="43.66849689411338" lon="11.206177598512388"><ele>192.5</ele><time>2026-04-26T08:47:01.999Z</time></trkpt><trkpt lat="43.668358892444985" lon="11.20619167315249"><ele>194.0</ele><time>2026-04-26T08:47:02.999Z</time></trkpt><trkpt lat="43.66822779101992" lon="11.206220920672441"><ele>195.5</ele><time>2026-04-26T08:47:03.999Z</time></trkpt><trkpt lat="43.668097320982575" lon="11.206265935568307"><ele>197.0</ele><time>2026-04-26T08:47:04.999Z</time></trkpt><trkpt lat="43.66796821297086" lon="11.206315183157914"><ele>197.0</ele><time>2026-04-26T08:47:05.999Z</time></trkpt><trkpt lat="43.66783780707918" lon="11.206362888928451"><ele>197.0</ele><time>2026-04-26T08:47:06.999Z</time></trkpt><trkpt lat="43.66770758965262" lon="11.206405051414253"><ele>197.0</ele><time>2026-04-26T08:47:07.999Z</time></trkpt><trkpt lat="43.667574758366335" lon="11.206449213934283"><ele>197.0</ele><time>2026-04-26T08:47:08.999Z</time></trkpt><trkpt lat="43.66744820317198" lon="11.206490799166335"><ele>196.0</ele><time>2026-04-26T08:47:09.999Z</time></trkpt><trkpt lat="43.66732376675251" lon="11.20653256615533"><ele>195.0</ele><time>2026-04-26T08:47:10.999Z</time></trkpt><trkpt lat="43.66719455442765" lon="11.20659400133429"><ele>194.0</ele><time>2026-04-26T08:47:11.999Z</time></trkpt><trkpt lat="43.66707110360152" lon="11.206679821630056"><ele>193.0</ele><time>2026-04-26T08:47:12.999Z</time></trkpt><trkpt lat="43.66695294756148" lon="11.206784670405877"><ele>195.75</ele><time>2026-04-26T08:47:13.999Z</time></trkpt><trkpt lat="43.66684496538124" lon="11.206907461962722"><ele>198.5</ele><time>2026-04-26T08:47:14.999Z</time></trkpt><trkpt lat="43.66673371048709" lon="11.207037405319697"><ele>201.25</ele><time>2026-04-26T08:47:15.999Z</time></trkpt><trkpt lat="43.6666272953245" lon="11.2071663370503"><ele>204.0</ele><time>2026-04-26T08:47:16.999Z</time></trkpt><trkpt lat="43.666512311720076" lon="11.20729289377409"><ele>204.5</ele><time>2026-04-26T08:47:17.999Z</time></trkpt><trkpt lat="43.666398227502505" lon="11.207420314135327"><ele>205.0</ele><time>2026-04-26T08:47:18.999Z</time></trkpt><trkpt lat="43.66627450221061" lon="11.207534324173984"><ele>205.5</ele><time>2026-04-26T08:47:19.999Z</time></trkpt><trkpt lat="43.66614243878086" lon="11.207605723746633"><ele>206.0</ele><time>2026-04-26T08:47:20.999Z</time></trkpt><trkpt lat="43.666004677988774" lon="11.207602194052773"><ele>206.0</ele><time>2026-04-26T08:47:21.999Z</time></trkpt><trkpt lat="43.66586673329013" lon="11.20758071138532"><ele>206.0</ele><time>2026-04-26T08:47:22.999Z</time></trkpt><trkpt lat="43.66574817799083" lon="11.207489928330798"><ele>206.0</ele><time>2026-04-26T08:47:23.999Z</time></trkpt><trkpt lat="43.66566238795567" lon="11.207350227201527"><ele>206.0</ele><time>2026-04-26T08:47:24.999Z</time></trkpt><trkpt lat="43.665607687391095" lon="11.207176044983228"><ele>208.33333333333334</ele><time>2026-04-26T08:47:25.999Z</time></trkpt><trkpt lat="43.665617567219066" lon="11.206966477387216"><ele>210.66666666666669</ele><time>2026-04-26T08:47:26.999Z</time></trkpt><trkpt lat="43.665587437182594" lon="11.206765360229848"><ele>213.0</ele><time>2026-04-26T08:47:27.999Z</time></trkpt><trkpt lat="43.66557341828663" lon="11.206559540344623"><ele>216.0</ele><time>2026-04-26T08:47:28.999Z</time></trkpt><trkpt lat="43.66555440868521" lon="11.206343642843512"><ele>219.0</ele><time>2026-04-26T08:47:29.999Z</time></trkpt><trkpt lat="43.66554393390997" lon="11.206130621077465"><ele>222.0</ele><time>2026-04-26T08:47:30.999Z</time></trkpt><trkpt lat="43.66556542983476" lon="11.205915366877903"><ele>222.0</ele><time>2026-04-26T08:47:31.999Z</time></trkpt><trkpt lat="43.66558846073504" lon="11.205699374022746"><ele>222.0</ele><time>2026-04-26T08:47:32.999Z</time></trkpt><trkpt lat="43.665624272902384" lon="11.205473468557456"><ele>222.0</ele><time>2026-04-26T08:47:33.999Z</time></trkpt><trkpt lat="43.66565075293861" lon="11.205232613571715"><ele>223.66666666666669</ele><time>2026-04-26T08:47:34.999Z</time></trkpt><trkpt lat="43.665692354232185" lon="11.204988448604334"><ele>225.33333333333334</ele><time>2026-04-26T08:47:35.999Z</time></trkpt><trkpt lat="43.66568729190237" lon="11.204722179475844"><ele>227.0</ele><time>2026-04-26T08:47:36.999Z</time></trkpt><trkpt lat="43.6656346972369" lon="11.204456690513299"><ele>229.33333333333334</ele><time>2026-04-26T08:47:37.999Z</time></trkpt><trkpt lat="43.66554898521553" lon="11.204207514259739"><ele>231.66666666666669</ele><time>2026-04-26T08:47:38.999Z</time></trkpt><trkpt lat="43.66546295757975" lon="11.203975395376471"><ele>234.0</ele><time>2026-04-26T08:47:39.999Z</time></trkpt><trkpt lat="43.66541043518953" lon="11.203746749250241"><ele>235.75</ele><time>2026-04-26T08:47:40.999Z</time></trkpt><trkpt lat="43.66534250414963" lon="11.20355128865082"><ele>237.5</ele><time>2026-04-26T08:47:41.999Z</time></trkpt><trkpt lat="43.66532276804556" lon="11.203354081586122"><ele>239.25</ele><time>2026-04-26T08:47:42.999Z</time></trkpt><trkpt lat="43.66530446399969" lon="11.203180666168041"><ele>241.0</ele><time>2026-04-26T08:47:43.999Z</time></trkpt><trkpt lat="43.66530151051908" lon="11.20301559497962"><ele>241.0</ele><time>2026-04-26T08:47:44.999Z</time></trkpt><trkpt lat="43.66531496673454" lon="11.202845245398123"><ele>241.0</ele><time>2026-04-26T08:47:45.999Z</time></trkpt><trkpt lat="43.66535026118437" lon="11.202671385466136"><ele>241.0</ele><time>2026-04-26T08:47:46.999Z</time></trkpt><trkpt lat="43.66539986160078" lon="11.202494532932823"><ele>241.0</ele><time>2026-04-26T08:47:47.999Z</time></trkpt><trkpt lat="43.665457482738" lon="11.20231081725862"><ele>241.0</ele><time>2026-04-26T08:47:48.999Z</time></trkpt><trkpt lat="43.66551498552014" lon="11.202122436485022"><ele>241.0</ele><time>2026-04-26T08:47:49.999Z</time></trkpt><trkpt lat="43.66555289057931" lon="11.201910410307214"><ele>241.0</ele><time>2026-04-26T08:47:51Z</time></trkpt><trkpt lat="43.66559062770518" lon="11.201683844230768"><ele>241.0</ele><time>2026-04-26T08:47:52Z</time></trkpt><trkpt lat="43.66560071222281" lon="11.201457504654096"><ele>241.0</ele><time>2026-04-26T08:47:53Z</time></trkpt><trkpt lat="43.665612758259854" lon="11.201207217739025"><ele>241.0</ele><time>2026-04-26T08:47:54Z</time></trkpt><trkpt lat="43.665628612397306" lon="11.20097376375081"><ele>241.0</ele><time>2026-04-26T08:47:55Z</time></trkpt><trkpt lat="43.6656699848703" lon="11.200753961444018"><ele>241.0</ele><time>2026-04-26T08:47:56Z</time></trkpt><trkpt lat="43.665740280717834" lon="11.200549155334453"><ele>241.0</ele><time>2026-04-26T08:47:57Z</time></trkpt><trkpt lat="43.66582542424928" lon="11.200355925406482"><ele>239.33333333333331</ele><time>2026-04-26T08:47:58Z</time></trkpt><trkpt lat="43.66588593236612" lon="11.200164328111887"><ele>237.66666666666669</ele><time>2026-04-26T08:47:59Z</time></trkpt><trkpt lat="43.665938976343206" lon="11.199969364065918"><ele>236.0</ele><time>2026-04-26T08:48:00Z</time></trkpt><trkpt lat="43.66595958407851" lon="11.199761598006907"><ele>234.75</ele><time>2026-04-26T08:48:01Z</time></trkpt><trkpt lat="43.666012872898584" lon="11.199577058212535"><ele>233.5</ele><time>2026-04-26T08:48:02Z</time></trkpt><trkpt lat="43.66607744518565" lon="11.199401177177496"><ele>232.25</ele><time>2026-04-26T08:48:03Z</time></trkpt><trkpt lat="43.666170690163696" lon="11.19924814555065"><ele>231.0</ele><time>2026-04-26T08:48:04Z</time></trkpt><trkpt lat="43.66626775857471" lon="11.199083044802357"><ele>236.5</ele><time>2026-04-26T08:48:05Z</time></trkpt><trkpt lat="43.66635632006833" lon="11.198919540651733"><ele>242.0</ele><time>2026-04-26T08:48:06Z</time></trkpt><trkpt lat="43.666425657932436" lon="11.19874188338574"><ele>247.5</ele><time>2026-04-26T08:48:07Z</time></trkpt><trkpt lat="43.666444881248665" lon="11.198532737166415"><ele>253.0</ele><time>2026-04-26T08:48:08Z</time></trkpt><trkpt lat="43.66643104130312" lon="11.198315067867416"><ele>256.0</ele><time>2026-04-26T08:48:09Z</time></trkpt><trkpt lat="43.66637107059138" lon="11.19811618277076"><ele>259.0</ele><time>2026-04-26T08:48:10Z</time></trkpt><trkpt lat="43.666282581854745" lon="11.19794861075611"><ele>262.0</ele><time>2026-04-26T08:48:11Z</time></trkpt><trkpt lat="43.66614980158592" lon="11.19783787419168"><ele>258.75</ele><time>2026-04-26T08:48:12Z</time></trkpt><trkpt lat="43.6660101090391" lon="11.197771720584784"><ele>255.5</ele><time>2026-04-26T08:48:13Z</time></trkpt><trkpt lat="43.66589346261786" lon="11.19771420618815"><ele>252.25</ele><time>2026-04-26T08:48:14Z</time></trkpt><trkpt lat="43.6658042533653" lon="11.19765011514654"><ele>249.0</ele><time>2026-04-26T08:48:15Z</time></trkpt><trkpt lat="43.66573224315217" lon="11.197575368325582"><ele>249.0</ele><time>2026-04-26T08:48:16Z</time></trkpt><trkpt lat="43.66567083695133" lon="11.197482480862167"><ele>248.99999999999997</ele><time>2026-04-26T08:48:17Z</time></trkpt><trkpt lat="43.66561840088423" lon="11.197374377030421"><ele>248.99999999999997</ele><time>2026-04-26T08:48:18Z</time></trkpt><trkpt lat="43.66558559571683" lon="11.197244473116122"><ele>249.0</ele><time>2026-04-26T08:48:19Z</time></trkpt><trkpt lat="43.66556287985714" lon="11.197101527658672"><ele>249.0</ele><time>2026-04-26T08:48:20Z</time></trkpt><trkpt lat="43.665554747781314" lon="11.196949156846937"><ele>251.5</ele><time>2026-04-26T08:48:21Z</time></trkpt><trkpt lat="43.66554533969478" lon="11.196785942755186"><ele>254.0</ele><time>2026-04-26T08:48:22Z</time></trkpt><trkpt lat="43.6655252002452" lon="11.196618833150556"><ele>256.5</ele><time>2026-04-26T08:48:23Z</time></trkpt><trkpt lat="43.665462962325016" lon="11.196462224255491"><ele>259.0</ele><time>2026-04-26T08:48:24Z</time></trkpt><trkpt lat="43.66539134198183" lon="11.196306540806086"><ele>257.5</ele><time>2026-04-26T08:48:25Z</time></trkpt><trkpt lat="43.66530039672968" lon="11.196158918583645"><ele>256.0</ele><time>2026-04-26T08:48:26Z</time></trkpt><trkpt lat="43.665221640076815" lon="11.195997823432261"><ele>254.5</ele><time>2026-04-26T08:48:27Z</time></trkpt><trkpt lat="43.665132003522984" lon="11.195848657318452"><ele>253.0</ele><time>2026-04-26T08:48:28Z</time></trkpt><trkpt lat="43.66504130413229" lon="11.195692604326844"><ele>256.0</ele><time>2026-04-26T08:48:29Z</time></trkpt><trkpt lat="43.664957662008796" lon="11.195531377892069"><ele>259.0</ele><time>2026-04-26T08:48:30Z</time></trkpt><trkpt lat="43.66489677283931" lon="11.195357579323474"><ele>262.0</ele><time>2026-04-26T08:48:31Z</time></trkpt><trkpt lat="43.66485754515085" lon="11.195160306554298"><ele>265.0</ele><time>2026-04-26T08:48:32Z</time></trkpt><trkpt lat="43.66484507389719" lon="11.194952657461737"><ele>266.3333333333333</ele><time>2026-04-26T08:48:33Z</time></trkpt><trkpt lat="43.66485283649425" lon="11.194747064197722"><ele>267.6666666666667</ele><time>2026-04-26T08:48:34Z</time></trkpt><trkpt lat="43.66486962740945" lon="11.194539681368425"><ele>269.0</ele><time>2026-04-26T08:48:35Z</time></trkpt><trkpt lat="43.66489068099361" lon="11.194320623871924"><ele>269.0</ele><time>2026-04-26T08:48:36Z</time></trkpt><trkpt lat="43.66491168970312" lon="11.194102032982835"><ele>269.0</ele><time>2026-04-26T08:48:37Z</time></trkpt><trkpt lat="43.664924217639125" lon="11.19388691632359"><ele>269.0</ele><time>2026-04-26T08:48:38Z</time></trkpt><trkpt lat="43.66494578735954" lon="11.1936750317297"><ele>270.0</ele><time>2026-04-26T08:48:39Z</time></trkpt><trkpt lat="43.66492444415293" lon="11.193440927807416"><ele>271.0</ele><time>2026-04-26T08:48:39.999Z</time></trkpt><trkpt lat="43.66484450236696" lon="11.193226382991986"><ele>272.0</ele><time>2026-04-26T08:48:40.999Z</time></trkpt><trkpt lat="43.66473841396456" lon="11.193047475942093"><ele>272.33333333333337</ele><time>2026-04-26T08:48:41.999Z</time></trkpt><trkpt lat="43.664611911943126" lon="11.192858564060442"><ele>272.6666666666667</ele><time>2026-04-26T08:48:42.999Z</time></trkpt><trkpt lat="43.664477440115945" lon="11.192681863810307"><ele>273.0</ele><time>2026-04-26T08:48:43.999Z</time></trkpt><trkpt lat="43.6643496510096" lon="11.19250843508416"><ele>276.0</ele><time>2026-04-26T08:48:44.999Z</time></trkpt><trkpt lat="43.66423053338791" lon="11.192333306235858"><ele>279.0</ele><time>2026-04-26T08:48:45.999Z</time></trkpt><trkpt lat="43.66410897386524" lon="11.192172724138373"><ele>282.0</ele><time>2026-04-26T08:48:46.999Z</time></trkpt><trkpt lat="43.6640064500273" lon="11.192006554743807"><ele>282.0</ele><time>2026-04-26T08:48:47.999Z</time></trkpt><trkpt lat="43.66388956085607" lon="11.191867157212696"><ele>282.0</ele><time>2026-04-26T08:48:48.999Z</time></trkpt><trkpt lat="43.66375222020162" lon="11.191780741811154"><ele>282.0</ele><time>2026-04-26T08:48:49.999Z</time></trkpt><trkpt lat="43.66362320340964" lon="11.191723649694556"><ele>282.0</ele><time>2026-04-26T08:48:50.999Z</time></trkpt><trkpt lat="43.66350715966208" lon="11.191686862329263"><ele>281.75</ele><time>2026-04-26T08:48:51.999Z</time></trkpt><trkpt lat="43.66339687521695" lon="11.19165230497803"><ele>281.5</ele><time>2026-04-26T08:48:52.999Z</time></trkpt><trkpt lat="43.663285316941796" lon="11.191612361620969"><ele>281.25</ele><time>2026-04-26T08:48:53.999Z</time></trkpt><trkpt lat="43.663170009530546" lon="11.191565572271303"><ele>281.0</ele><time>2026-04-26T08:48:54.999Z</time></trkpt><trkpt lat="43.6630629609212" lon="11.19152174488599"><ele>281.0</ele><time>2026-04-26T08:48:55.999Z</time></trkpt><trkpt lat="43.662975709419385" lon="11.191481583603277"><ele>281.0</ele><time>2026-04-26T08:48:56.999Z</time></trkpt><trkpt lat="43.662899700047625" lon="11.191441425649533"><ele>281.0</ele><time>2026-04-26T08:48:57.999Z</time></trkpt><trkpt lat="43.66283380901235" lon="11.19141797748943"><ele>281.0</ele><time>2026-04-26T08:48:58.999Z</time></trkpt><trkpt lat="43.662755616038275" lon="11.191442794176233"><ele>281.0</ele><time>2026-04-26T08:49:00.999Z</time></trkpt><trkpt lat="43.66266378943887" lon="11.191499041931191"><ele>281.0</ele><time>2026-04-26T08:50:29Z</time></trkpt><trkpt lat="43.66259906773375" lon="11.191517721764324"><ele>281.6666666666667</ele><time>2026-04-26T08:50:30Z</time></trkpt><trkpt lat="43.66253010431003" lon="11.191504144311311"><ele>282.33333333333337</ele><time>2026-04-26T08:50:31Z</time></trkpt><trkpt lat="43.66246076962947" lon="11.191474380568712"><ele>283.0</ele><time>2026-04-26T08:50:32Z</time></trkpt><trkpt lat="43.66239119789542" lon="11.191392961253076"><ele>283.6666666666667</ele><time>2026-04-26T08:50:34Z</time></trkpt><trkpt lat="43.66238177396668" lon="11.191272756803865"><ele>284.3333333333333</ele><time>2026-04-26T08:50:41Z</time></trkpt><trkpt lat="43.66232918271084" lon="11.191117092598315"><ele>285.0</ele><time>2026-04-26T08:50:43Z</time></trkpt><trkpt lat="43.66229437242967" lon="11.191019398626937"><ele>285.0</ele><time>2026-04-26T08:50:43.999Z</time></trkpt><trkpt lat="43.66224285468532" lon="11.190943370090592"><ele>285.0</ele><time>2026-04-26T08:50:44.999Z</time></trkpt><trkpt lat="43.66215379259279" lon="11.190924800042666"><ele>285.0</ele><time>2026-04-26T08:50:45.999Z</time></trkpt><trkpt lat="43.662079392972906" lon="11.190895466136254"><ele>285.0</ele><time>2026-04-26T08:50:46.999Z</time></trkpt><trkpt lat="43.66199592850622" lon="11.190862333619897"><ele>285.0</ele><time>2026-04-26T08:50:47.999Z</time></trkpt><trkpt lat="43.66190745748216" lon="11.190821629481393"><ele>285.0</ele><time>2026-04-26T08:50:48.999Z</time></trkpt><trkpt lat="43.66181699310206" lon="11.190778736165813"><ele>285.0</ele><time>2026-04-26T08:50:49.999Z</time></trkpt><trkpt lat="43.661724777864386" lon="11.190740660495042"><ele>285.0</ele><time>2026-04-26T08:50:50.999Z</time></trkpt><trkpt lat="43.661624083988016" lon="11.190702166823247"><ele>285.0</ele><time>2026-04-26T08:50:51.999Z</time></trkpt><trkpt lat="43.661509686904125" lon="11.19066194695235"><ele>285.0</ele><time>2026-04-26T08:50:52.999Z</time></trkpt><trkpt lat="43.66138723752549" lon="11.190626051356263"><ele>285.0</ele><time>2026-04-26T08:50:53.999Z</time></trkpt><trkpt lat="43.66125772230887" lon="11.190590456977592"><ele>285.0</ele><time>2026-04-26T08:50:54.999Z</time></trkpt><trkpt lat="43.661119628078005" lon="11.1905553873623"><ele>285.0</ele><time>2026-04-26T08:50:55.999Z</time></trkpt><trkpt lat="43.66097027460431" lon="11.190521851972248"><ele>285.0</ele><time>2026-04-26T08:50:56.999Z</time></trkpt><trkpt lat="43.660821237230124" lon="11.190485699979734"><ele>285.0</ele><time>2026-04-26T08:50:57.999Z</time></trkpt><trkpt lat="43.66066827659594" lon="11.190438367429499"><ele>287.0</ele><time>2026-04-26T08:50:58.999Z</time></trkpt><trkpt lat="43.66050919737378" lon="11.190371053952804"><ele>289.0</ele><time>2026-04-26T08:50:59.999Z</time></trkpt><trkpt lat="43.66036063366817" lon="11.19024420110338"><ele>291.0</ele><time>2026-04-26T08:51:00.999Z</time></trkpt><trkpt lat="43.660198557021936" lon="11.190133752515505"><ele>292.6666666666667</ele><time>2026-04-26T08:51:01.999Z</time></trkpt><trkpt lat="43.66004348939092" lon="11.189999890801"><ele>294.33333333333337</ele><time>2026-04-26T08:51:02.999Z</time></trkpt><trkpt lat="43.659887310538714" lon="11.189858224197373"><ele>296.0</ele><time>2026-04-26T08:51:03.999Z</time></trkpt><trkpt lat="43.65973098745529" lon="11.189734015235004"><ele>296.0</ele><time>2026-04-26T08:51:04.999Z</time></trkpt><trkpt lat="43.6595899204846" lon="11.189620370952975"><ele>296.0</ele><time>2026-04-26T08:51:05.999Z</time></trkpt><trkpt lat="43.65946400466147" lon="11.189523756210512"><ele>296.0</ele><time>2026-04-26T08:51:06.999Z</time></trkpt><trkpt lat="43.65934959971818" lon="11.18944906547898"><ele>296.0</ele><time>2026-04-26T08:51:07.999Z</time></trkpt><trkpt lat="43.659235167950605" lon="11.189388627383064"><ele>297.75</ele><time>2026-04-26T08:51:08.999Z</time></trkpt><trkpt lat="43.659122289886795" lon="11.189330897326736"><ele>299.5</ele><time>2026-04-26T08:51:09.999Z</time></trkpt><trkpt lat="43.65901439452341" lon="11.189265084334727"><ele>301.25</ele><time>2026-04-26T08:51:10.999Z</time></trkpt><trkpt lat="43.65891625312609" lon="11.18918579366854"><ele>303.0</ele><time>2026-04-26T08:51:11.999Z</time></trkpt><trkpt lat="43.65883503789213" lon="11.18910190760236"><ele>303.0</ele><time>2026-04-26T08:51:12.999Z</time></trkpt><trkpt lat="43.65876682031546" lon="11.18903052424563"><ele>303.0</ele><time>2026-04-26T08:51:13.999Z</time></trkpt><trkpt lat="43.65871521178355" lon="11.188967099302072"><ele>303.0</ele><time>2026-04-26T08:51:14.999Z</time></trkpt><trkpt lat="43.6586587506614" lon="11.188908685524398"><ele>303.0</ele><time>2026-04-26T08:51:15.999Z</time></trkpt><trkpt lat="43.65857924956965" lon="11.188808290063417"><ele>303.0</ele><time>2026-04-26T08:51:17.999Z</time></trkpt><trkpt lat="43.65852358254192" lon="11.188729542069582"><ele>303.0</ele><time>2026-04-26T08:51:19.999Z</time></trkpt><trkpt lat="43.65847803907306" lon="11.188663599522409"><ele>303.4</ele><time>2026-04-26T08:51:21.999Z</time></trkpt><trkpt lat="43.65842621751126" lon="11.188571235559527"><ele>303.8</ele><time>2026-04-26T08:51:23.999Z</time></trkpt><trkpt lat="43.65837400668883" lon="11.188449663655657"><ele>304.2</ele><time>2026-04-26T08:51:25.999Z</time></trkpt><trkpt lat="43.65822512201992" lon="11.188417520953616"><ele>304.6</ele><time>2026-04-26T08:51:27.999Z</time></trkpt><trkpt lat="43.65815472329501" lon="11.188393531575048"><ele>305.0</ele><time>2026-04-26T08:51:28.999Z</time></trkpt><trkpt lat="43.65809428385589" lon="11.188339124766392"><ele>305.0</ele><time>2026-04-26T08:51:29.999Z</time></trkpt><trkpt lat="43.6580285558782" lon="11.18830276007014"><ele>305.0</ele><time>2026-04-26T08:51:30.999Z</time></trkpt><trkpt lat="43.657956145429615" lon="11.188288291591821"><ele>305.0</ele><time>2026-04-26T08:51:31.999Z</time></trkpt><trkpt lat="43.65789056969781" lon="11.188252523067446"><ele>305.0</ele><time>2026-04-26T08:51:32.999Z</time></trkpt><trkpt lat="43.65782520836134" lon="11.188217763055446"><ele>305.0</ele><time>2026-04-26T08:51:33.999Z</time></trkpt><trkpt lat="43.65775918072211" lon="11.188184175593673"><ele>305.0</ele><time>2026-04-26T08:51:34.999Z</time></trkpt><trkpt lat="43.657690541041234" lon="11.188149854981205"><ele>305.0</ele><time>2026-04-26T08:51:35.999Z</time></trkpt><trkpt lat="43.65762209249342" lon="11.188115210614907"><ele>305.6666666666667</ele><time>2026-04-26T08:51:36.999Z</time></trkpt><trkpt lat="43.657550120548926" lon="11.18808355027469"><ele>306.33333333333337</ele><time>2026-04-26T08:51:37.999Z</time></trkpt><trkpt lat="43.65748011801223" lon="11.188049600752747"><ele>307.0</ele><time>2026-04-26T08:51:38.999Z</time></trkpt><trkpt lat="43.65740975290709" lon="11.188013739497388"><ele>307.6666666666667</ele><time>2026-04-26T08:51:39.999Z</time></trkpt><trkpt lat="43.65733632355615" lon="11.187976319469112"><ele>308.3333333333333</ele><time>2026-04-26T08:51:40.999Z</time></trkpt><trkpt lat="43.65725909732381" lon="11.187937194353578"><ele>309.0</ele><time>2026-04-26T08:51:41.999Z</time></trkpt><trkpt lat="43.657173720073494" lon="11.187893624162074"><ele>309.0</ele><time>2026-04-26T08:51:42.999Z</time></trkpt><trkpt lat="43.65708278664965" lon="11.187846045301791"><ele>309.0</ele><time>2026-04-26T08:51:43.999Z</time></trkpt><trkpt lat="43.65699197062677" lon="11.187801514781123"><ele>309.0</ele><time>2026-04-26T08:51:44.999Z</time></trkpt><trkpt lat="43.65689737736173" lon="11.187754831785666"><ele>309.0</ele><time>2026-04-26T08:51:45.999Z</time></trkpt><trkpt lat="43.6568141124085" lon="11.187711093697276"><ele>309.0</ele><time>2026-04-26T08:51:46.999Z</time></trkpt><trkpt lat="43.656735065578474" lon="11.187672259520708"><ele>308.5</ele><time>2026-04-26T08:51:47.999Z</time></trkpt><trkpt lat="43.65665154739552" lon="11.187631196126919"><ele>308.0</ele><time>2026-04-26T08:51:48.999Z</time></trkpt><trkpt lat="43.65656533911897" lon="11.187592941052344"><ele>307.5</ele><time>2026-04-26T08:51:49.999Z</time></trkpt><trkpt lat="43.65647873201121" lon="11.187560770311327"><ele>307.0</ele><time>2026-04-26T08:51:50.999Z</time></trkpt><trkpt lat="43.656392004763156" lon="11.18752881173115"><ele>306.5</ele><time>2026-04-26T08:51:51.999Z</time></trkpt><trkpt lat="43.65631632104178" lon="11.187506000775983"><ele>306.0</ele><time>2026-04-26T08:51:52.999Z</time></trkpt><trkpt lat="43.656241985492194" lon="11.187486203421878"><ele>306.0</ele><time>2026-04-26T08:51:53.999Z</time></trkpt><trkpt lat="43.65616654207284" lon="11.187466941764644"><ele>306.0</ele><time>2026-04-26T08:51:54.999Z</time></trkpt><trkpt lat="43.65609355106301" lon="11.18745744386173"><ele>306.0</ele><time>2026-04-26T08:51:55.999Z</time></trkpt><trkpt lat="43.656018956761955" lon="11.187446663327686"><ele>306.0</ele><time>2026-04-26T08:51:56.999Z</time></trkpt><trkpt lat="43.65590418375856" lon="11.187446500552657"><ele>306.0</ele><time>2026-04-26T08:51:58.999Z</time></trkpt><trkpt lat="43.65579139532549" lon="11.187470012500315"><ele>305.40000000000003</ele><time>2026-04-26T08:52:00.999Z</time></trkpt><trkpt lat="43.65569124188656" lon="11.18747999512559"><ele>304.8</ele><time>2026-04-26T08:52:03Z</time></trkpt><trkpt lat="43.65558217848389" lon="11.18744128939442"><ele>304.20000000000005</ele><time>2026-04-26T08:52:05Z</time></trkpt><trkpt lat="43.655462819240945" lon="11.18740227757976"><ele>303.6</ele><time>2026-04-26T08:52:07Z</time></trkpt><trkpt lat="43.655396220011674" lon="11.187371911948746"><ele>303.0</ele><time>2026-04-26T08:52:08Z</time></trkpt><trkpt lat="43.655330471929474" lon="11.18733689251211"><ele>302.3333333333333</ele><time>2026-04-26T08:52:09Z</time></trkpt><trkpt lat="43.65526886888509" lon="11.18728742031711"><ele>301.6666666666667</ele><time>2026-04-26T08:52:10Z</time></trkpt><trkpt lat="43.65521695829877" lon="11.187230910156087"><ele>301.0</ele><time>2026-04-26T08:52:11Z</time></trkpt><trkpt lat="43.655161642212256" lon="11.187092861975929"><ele>300.33333333333337</ele><time>2026-04-26T08:52:13Z</time></trkpt><trkpt lat="43.655176276121196" lon="11.18697585910625"><ele>299.6666666666667</ele><time>2026-04-26T08:52:15Z</time></trkpt><trkpt lat="43.65519426082664" lon="11.186867410408697"><ele>299.0</ele><time>2026-04-26T08:52:17Z</time></trkpt><trkpt lat="43.655066652635945" lon="11.186710857253882"><ele>299.0</ele><time>2026-04-26T08:52:19Z</time></trkpt><trkpt lat="43.65502665365538" lon="11.186618056750298"><ele>299.0</ele><time>2026-04-26T08:52:20Z</time></trkpt><trkpt lat="43.655016356363724" lon="11.186514646349723"><ele>299.0</ele><time>2026-04-26T08:52:21Z</time></trkpt><trkpt lat="43.65504549321512" lon="11.186399859958925"><ele>299.0</ele><time>2026-04-26T08:52:22Z</time></trkpt><trkpt lat="43.65512321915857" lon="11.186299655588805"><ele>299.0</ele><time>2026-04-26T08:52:23Z</time></trkpt><trkpt lat="43.65517920418582" lon="11.18615319192919"><ele>298.5</ele><time>2026-04-26T08:52:24Z</time></trkpt><trkpt lat="43.65525579884686" lon="11.18601174584536"><ele>298.0</ele><time>2026-04-26T08:52:25Z</time></trkpt><trkpt lat="43.65533121642488" lon="11.185866457778497"><ele>297.5</ele><time>2026-04-26T08:52:26Z</time></trkpt><trkpt lat="43.65540633347659" lon="11.185720795205393"><ele>297.0</ele><time>2026-04-26T08:52:27Z</time></trkpt><trkpt lat="43.65547459762761" lon="11.185568409132152"><ele>297.0</ele><time>2026-04-26T08:52:28Z</time></trkpt><trkpt lat="43.655468363202345" lon="11.185442222545184"><ele>297.0</ele><time>2026-04-26T08:52:29Z</time></trkpt><trkpt lat="43.65545675004644" lon="11.18529784830761"><ele>297.0</ele><time>2026-04-26T08:52:30Z</time></trkpt><trkpt lat="43.655414396670615" lon="11.185158072480684"><ele>297.0</ele><time>2026-04-26T08:52:31Z</time></trkpt><trkpt lat="43.65534868392504" lon="11.18504696333785"><ele>297.0</ele><time>2026-04-26T08:52:32Z</time></trkpt><trkpt lat="43.65525914399717" lon="11.184949164326179"><ele>298.5</ele><time>2026-04-26T08:52:33Z</time></trkpt><trkpt lat="43.655153878516465" lon="11.184878102389188"><ele>300.0</ele><time>2026-04-26T08:52:34Z</time></trkpt><trkpt lat="43.65503683914757" lon="11.184850126251188"><ele>301.5</ele><time>2026-04-26T08:52:35Z</time></trkpt><trkpt lat="43.65491723637162" lon="11.18484548638078"><ele>303.0</ele><time>2026-04-26T08:52:36Z</time></trkpt><trkpt lat="43.65478806031839" lon="11.184863494999124"><ele>298.5</ele><time>2026-04-26T08:52:37Z</time></trkpt><trkpt lat="43.65465575765916" lon="11.184872235042262"><ele>294.0</ele><time>2026-04-26T08:52:38Z</time></trkpt><trkpt lat="43.65451547998026" lon="11.184866669050237"><ele>289.5</ele><time>2026-04-26T08:52:39Z</time></trkpt><trkpt lat="43.654370861880594" lon="11.184864475040436"><ele>285.0</ele><time>2026-04-26T08:52:40Z</time></trkpt><trkpt lat="43.65422494165288" lon="11.1848626698851"><ele>282.6666666666667</ele><time>2026-04-26T08:52:41Z</time></trkpt><trkpt lat="43.65407494419199" lon="11.184865150139592"><ele>280.33333333333337</ele><time>2026-04-26T08:52:42Z</time></trkpt><trkpt lat="43.653923929091704" lon="11.184858571241016"><ele>278.0</ele><time>2026-04-26T08:52:43Z</time></trkpt><trkpt lat="43.65377197544487" lon="11.184835485178642"><ele>281.5</ele><time>2026-04-26T08:52:44Z</time></trkpt><trkpt lat="43.653627095480516" lon="11.184787768930137"><ele>285.0</ele><time>2026-04-26T08:52:44.999Z</time></trkpt><trkpt lat="43.653482932293066" lon="11.184727169736366"><ele>288.5</ele><time>2026-04-26T08:52:45.999Z</time></trkpt><trkpt lat="43.65334290745272" lon="11.18465413941079"><ele>292.0</ele><time>2026-04-26T08:52:46.999Z</time></trkpt><trkpt lat="43.65321978624958" lon="11.1845510031034"><ele>292.0</ele><time>2026-04-26T08:52:47.999Z</time></trkpt><trkpt lat="43.65308185295573" lon="11.18446631934696"><ele>292.0</ele><time>2026-04-26T08:52:48.999Z</time></trkpt><trkpt lat="43.65297098656076" lon="11.18433211955853"><ele>292.0</ele><time>2026-04-26T08:52:49.999Z</time></trkpt><trkpt lat="43.65283870225113" lon="11.184215042667349"><ele>291.0</ele><time>2026-04-26T08:52:50.999Z</time></trkpt><trkpt lat="43.652739387226134" lon="11.184060823643701"><ele>290.0</ele><time>2026-04-26T08:52:51.999Z</time></trkpt><trkpt lat="43.65263417787192" lon="11.183907505170525"><ele>289.0</ele><time>2026-04-26T08:52:52.999Z</time></trkpt><trkpt lat="43.6525400000049" lon="11.183747903934007"><ele>289.0</ele><time>2026-04-26T08:52:53.999Z</time></trkpt><trkpt lat="43.65245397363507" lon="11.183572732949823"><ele>289.0</ele><time>2026-04-26T08:52:54.999Z</time></trkpt><trkpt lat="43.652356899578024" lon="11.183407284198433"><ele>289.0</ele><time>2026-04-26T08:52:55.999Z</time></trkpt><trkpt lat="43.652273925492786" lon="11.183233165938175"><ele>288.5</ele><time>2026-04-26T08:52:56.999Z</time></trkpt><trkpt lat="43.652196030540225" lon="11.18307263170734"><ele>288.0</ele><time>2026-04-26T08:52:57.999Z</time></trkpt><trkpt lat="43.65213187754643" lon="11.182909820453327"><ele>287.5</ele><time>2026-04-26T08:52:58.999Z</time></trkpt><trkpt lat="43.652053472623564" lon="11.182757660366912"><ele>287.0</ele><time>2026-04-26T08:52:59.999Z</time></trkpt><trkpt lat="43.651974212042944" lon="11.182610975519346"><ele>285.75</ele><time>2026-04-26T08:53:00.999Z</time></trkpt><trkpt lat="43.651894967293764" lon="11.182470772328836"><ele>284.5</ele><time>2026-04-26T08:53:01.999Z</time></trkpt><trkpt lat="43.651813652514534" lon="11.182334513129206"><ele>283.25</ele><time>2026-04-26T08:53:02.999Z</time></trkpt><trkpt lat="43.65171658978383" lon="11.182216333664226"><ele>282.0</ele><time>2026-04-26T08:53:03.999Z</time></trkpt><trkpt lat="43.65163111081851" lon="11.182090012443552"><ele>280.5</ele><time>2026-04-26T08:53:04.999Z</time></trkpt><trkpt lat="43.651541627466884" lon="11.181966831616018"><ele>279.0</ele><time>2026-04-26T08:53:05.999Z</time></trkpt><trkpt lat="43.651452214377905" lon="11.181847552086362"><ele>277.5</ele><time>2026-04-26T08:53:06.999Z</time></trkpt><trkpt lat="43.65136132581276" lon="11.181738247526239"><ele>276.0</ele><time>2026-04-26T08:53:07.999Z</time></trkpt><trkpt lat="43.65127425678836" lon="11.181612180909905"><ele>273.5</ele><time>2026-04-26T08:53:08.999Z</time></trkpt><trkpt lat="43.65118509910476" lon="11.181513146373664"><ele>271.0</ele><time>2026-04-26T08:53:09.999Z</time></trkpt><trkpt lat="43.65109424660062" lon="11.181412473512436"><ele>268.5</ele><time>2026-04-26T08:53:10.999Z</time></trkpt><trkpt lat="43.65099441758524" lon="11.181329976514744"><ele>266.0</ele><time>2026-04-26T08:53:11.999Z</time></trkpt><trkpt lat="43.6509051815802" lon="11.181229437342404"><ele>266.0</ele><time>2026-04-26T08:53:12.999Z</time></trkpt><trkpt lat="43.65081475154631" lon="11.181135980366173"><ele>266.0</ele><time>2026-04-26T08:53:13.999Z</time></trkpt><trkpt lat="43.650720322810024" lon="11.181043130554214"><ele>266.0</ele><time>2026-04-26T08:53:14.999Z</time></trkpt><trkpt lat="43.65062574814682" lon="11.18095570087082"><ele>266.0</ele><time>2026-04-26T08:53:15.999Z</time></trkpt><trkpt lat="43.6505204606978" lon="11.180867285518607"><ele>266.0</ele><time>2026-04-26T08:53:16.999Z</time></trkpt><trkpt lat="43.65040955151772" lon="11.180777620767907"><ele>266.0</ele><time>2026-04-26T08:53:17.999Z</time></trkpt><trkpt lat="43.65029526892812" lon="11.18068595389395"><ele>266.0</ele><time>2026-04-26T08:53:18.999Z</time></trkpt><trkpt lat="43.65018336710086" lon="11.180588067226154"><ele>266.0</ele><time>2026-04-26T08:53:19.999Z</time></trkpt><trkpt lat="43.6500717619574" lon="11.18048781824961"><ele>263.0</ele><time>2026-04-26T08:53:20.999Z</time></trkpt><trkpt lat="43.64995993598096" lon="11.180399009086251"><ele>260.0</ele><time>2026-04-26T08:53:21.999Z</time></trkpt><trkpt lat="43.64984891709006" lon="11.180312966895583"><ele>257.0</ele><time>2026-04-26T08:53:22.999Z</time></trkpt><trkpt lat="43.6497388302044" lon="11.180218316705002"><ele>254.0</ele><time>2026-04-26T08:53:23.999Z</time></trkpt><trkpt lat="43.64963014737137" lon="11.180125533983617"><ele>254.0</ele><time>2026-04-26T08:53:24.999Z</time></trkpt><trkpt lat="43.649517574521965" lon="11.180030310429837"><ele>254.0</ele><time>2026-04-26T08:53:25.999Z</time></trkpt><trkpt lat="43.64941187884287" lon="11.179944461546414"><ele>254.0</ele><time>2026-04-26T08:53:26.999Z</time></trkpt><trkpt lat="43.649307716933066" lon="11.179853158266349"><ele>254.0</ele><time>2026-04-26T08:53:27.999Z</time></trkpt><trkpt lat="43.64919971764657" lon="11.179761597320907"><ele>250.75</ele><time>2026-04-26T08:53:28.999Z</time></trkpt><trkpt lat="43.64909378364832" lon="11.179675014440315"><ele>247.5</ele><time>2026-04-26T08:53:29.999Z</time></trkpt><trkpt lat="43.6489843442881" lon="11.179592754856621"><ele>244.25</ele><time>2026-04-26T08:53:30.999Z</time></trkpt><trkpt lat="43.648865985954885" lon="11.179542509988911"><ele>241.0</ele><time>2026-04-26T08:53:31.999Z</time></trkpt><trkpt lat="43.64874974403934" lon="11.179487728222538"><ele>241.0</ele><time>2026-04-26T08:53:32.999Z</time></trkpt><trkpt lat="43.648634032969866" lon="11.179431970906647"><ele>241.0</ele><time>2026-04-26T08:53:33.999Z</time></trkpt><trkpt lat="43.64850816834658" lon="11.179374092616257"><ele>241.0</ele><time>2026-04-26T08:53:34.999Z</time></trkpt><trkpt lat="43.64837646930308" lon="11.179303735788547"><ele>241.0</ele><time>2026-04-26T08:53:35.999Z</time></trkpt><trkpt lat="43.648240691738884" lon="11.179228738645863"><ele>238.25</ele><time>2026-04-26T08:53:36.999Z</time></trkpt><trkpt lat="43.64810474772023" lon="11.179150175594796"><ele>235.5</ele><time>2026-04-26T08:53:37.999Z</time></trkpt><trkpt lat="43.64797072752172" lon="11.17906008380869"><ele>232.75</ele><time>2026-04-26T08:53:38.999Z</time></trkpt><trkpt lat="43.64784293867154" lon="11.178966778457283"><ele>230.0</ele><time>2026-04-26T08:53:39.999Z</time></trkpt><trkpt lat="43.64771896300765" lon="11.178849942911087"><ele>228.5</ele><time>2026-04-26T08:53:40.999Z</time></trkpt><trkpt lat="43.64760741573647" lon="11.178724831599137"><ele>227.0</ele><time>2026-04-26T08:53:41.999Z</time></trkpt><trkpt lat="43.64749695144299" lon="11.178601843429849"><ele>225.5</ele><time>2026-04-26T08:53:42.999Z</time></trkpt><trkpt lat="43.64738879517019" lon="11.178490708151482"><ele>224.0</ele><time>2026-04-26T08:53:43.999Z</time></trkpt><trkpt lat="43.64727846748608" lon="11.178385606784799"><ele>224.0</ele><time>2026-04-26T08:53:44.999Z</time></trkpt><trkpt lat="43.64717198717342" lon="11.178283502338317"><ele>224.0</ele><time>2026-04-26T08:53:45.999Z</time></trkpt><trkpt lat="43.647064918180405" lon="11.178188014208114"><ele>224.0</ele><time>2026-04-26T08:53:46.999Z</time></trkpt><trkpt lat="43.646956004399456" lon="11.178100653101884"><ele>224.0</ele><time>2026-04-26T08:53:47.999Z</time></trkpt><trkpt lat="43.64683959874446" lon="11.178020803004111"><ele>221.5</ele><time>2026-04-26T08:53:48.999Z</time></trkpt><trkpt lat="43.64671903175748" lon="11.177955564894319"><ele>219.0</ele><time>2026-04-26T08:53:49.999Z</time></trkpt><trkpt lat="43.646597466362934" lon="11.177900112232328"><ele>216.5</ele><time>2026-04-26T08:53:50.999Z</time></trkpt><trkpt lat="43.646472849786925" lon="11.177836625480236"><ele>214.0</ele><time>2026-04-26T08:53:51.999Z</time></trkpt><trkpt lat="43.64635713835612" lon="11.17775844952649"><ele>214.0</ele><time>2026-04-26T08:53:52.999Z</time></trkpt><trkpt lat="43.6462452012063" lon="11.177657686402931"><ele>214.0</ele><time>2026-04-26T08:53:53.999Z</time></trkpt><trkpt lat="43.64614330958875" lon="11.177537086692471"><ele>214.0</ele><time>2026-04-26T08:53:54.999Z</time></trkpt><trkpt lat="43.646047124566756" lon="11.17740310934586"><ele>214.0</ele><time>2026-04-26T08:53:55.999Z</time></trkpt><trkpt lat="43.645959152421845" lon="11.17724559420919"><ele>212.0</ele><time>2026-04-26T08:53:56.999Z</time></trkpt><trkpt lat="43.64587847985643" lon="11.17708896700652"><ele>210.0</ele><time>2026-04-26T08:53:57.999Z</time></trkpt><trkpt lat="43.64579347783889" lon="11.176930976256207"><ele>208.0</ele><time>2026-04-26T08:53:58.999Z</time></trkpt><trkpt lat="43.64570865562537" lon="11.17677393811276"><ele>206.0</ele><time>2026-04-26T08:53:59.999Z</time></trkpt><trkpt lat="43.64563547136111" lon="11.176601754485338"><ele>204.25</ele><time>2026-04-26T08:54:00.999Z</time></trkpt><trkpt lat="43.645528756260994" lon="11.176467784499785"><ele>202.5</ele><time>2026-04-26T08:54:01.999Z</time></trkpt><trkpt lat="43.64542546967335" lon="11.17633694061542"><ele>200.75</ele><time>2026-04-26T08:54:02.999Z</time></trkpt><trkpt lat="43.645302797140225" lon="11.176236827664006"><ele>199.0</ele><time>2026-04-26T08:54:03.999Z</time></trkpt><trkpt lat="43.645170231719845" lon="11.176163768459046"><ele>197.75</ele><time>2026-04-26T08:54:04.998Z</time></trkpt><trkpt lat="43.64503260310647" lon="11.176108939108188"><ele>196.5</ele><time>2026-04-26T08:54:05.998Z</time></trkpt><trkpt lat="43.644892566237544" lon="11.176067763907689"><ele>195.25</ele><time>2026-04-26T08:54:06.998Z</time></trkpt><trkpt lat="43.64476059937155" lon="11.176020903271764"><ele>194.0</ele><time>2026-04-26T08:54:08Z</time></trkpt><trkpt lat="43.64463405647115" lon="11.17595047778975"><ele>194.0</ele><time>2026-04-26T08:54:09Z</time></trkpt><trkpt lat="43.64452505626178" lon="11.17583799289111"><ele>194.0</ele><time>2026-04-26T08:54:10Z</time></trkpt><trkpt lat="43.64442112185216" lon="11.175717916837435"><ele>194.0</ele><time>2026-04-26T08:54:11Z</time></trkpt><trkpt lat="43.64432111828607" lon="11.175587280511357"><ele>194.0</ele><time>2026-04-26T08:54:12Z</time></trkpt><trkpt lat="43.644233211186176" lon="11.175442313281955"><ele>191.25</ele><time>2026-04-26T08:54:13Z</time></trkpt><trkpt lat="43.64415670554597" lon="11.175290727675625"><ele>188.5</ele><time>2026-04-26T08:54:14Z</time></trkpt><trkpt lat="43.644089791408376" lon="11.175139307313332"><ele>185.75</ele><time>2026-04-26T08:54:15Z</time></trkpt><trkpt lat="43.64403616487335" lon="11.174996362662403"><ele>183.0</ele><time>2026-04-26T08:54:16Z</time></trkpt><trkpt lat="43.643998952259295" lon="11.174878555720008"><ele>183.16666666666666</ele><time>2026-04-26T08:54:17Z</time></trkpt><trkpt lat="43.64397062638062" lon="11.174779093914216"><ele>183.33333333333334</ele><time>2026-04-26T08:54:18Z</time></trkpt><trkpt lat="43.64391568472405" lon="11.17468486617192"><ele>183.5</ele><time>2026-04-26T08:54:19Z</time></trkpt><trkpt lat="43.64388959230036" lon="11.174575019321654"><ele>183.66666666666669</ele><time>2026-04-26T08:54:20Z</time></trkpt><trkpt lat="43.643861428477734" lon="11.174465371378618"><ele>183.83333333333334</ele><time>2026-04-26T08:54:21Z</time></trkpt><trkpt lat="43.64382594955286" lon="11.174339119893595"><ele>184.0</ele><time>2026-04-26T08:54:22Z</time></trkpt><trkpt lat="43.64378311339448" lon="11.174189570696898"><ele>184.0</ele><time>2026-04-26T08:54:23Z</time></trkpt><trkpt lat="43.64374075283689" lon="11.174034015914428"><ele>184.0</ele><time>2026-04-26T08:54:24Z</time></trkpt><trkpt lat="43.643694599137866" lon="11.173862270629106"><ele>184.0</ele><time>2026-04-26T08:54:25Z</time></trkpt><trkpt lat="43.643653762921836" lon="11.173690894646215"><ele>184.0</ele><time>2026-04-26T08:54:26Z</time></trkpt><trkpt lat="43.64362013253468" lon="11.173511973616602"><ele>179.25</ele><time>2026-04-26T08:54:27Z</time></trkpt><trkpt lat="43.64362129663979" lon="11.17331765580519"><ele>174.5</ele><time>2026-04-26T08:54:28Z</time></trkpt><trkpt lat="43.643590684949274" lon="11.173136004486826"><ele>169.75</ele><time>2026-04-26T08:54:29Z</time></trkpt><trkpt lat="43.64356108856767" lon="11.172956763647246"><ele>165.0</ele><time>2026-04-26T08:54:30Z</time></trkpt><trkpt lat="43.64353216698052" lon="11.17277815955404"><ele>164.75</ele><time>2026-04-26T08:54:31Z</time></trkpt><trkpt lat="43.64350670862132" lon="11.172598638747102"><ele>164.5</ele><time>2026-04-26T08:54:32Z</time></trkpt><trkpt lat="43.64348475460906" lon="11.172420275930742"><ele>164.25</ele><time>2026-04-26T08:54:33Z</time></trkpt><trkpt lat="43.643475041551" lon="11.172241607432545"><ele>164.0</ele><time>2026-04-26T08:54:34Z</time></trkpt><trkpt lat="43.64346894733718" lon="11.172058781114487"><ele>163.0</ele><time>2026-04-26T08:54:35Z</time></trkpt><trkpt lat="43.643465281195084" lon="11.171878752336868"><ele>162.0</ele><time>2026-04-26T08:54:36Z</time></trkpt><trkpt lat="43.64346459854037" lon="11.171701728758924"><ele>161.0</ele><time>2026-04-26T08:54:37Z</time></trkpt><trkpt lat="43.64347854478513" lon="11.171527906404494"><ele>160.0</ele><time>2026-04-26T08:54:38Z</time></trkpt><trkpt lat="43.64351630448184" lon="11.171357834479894"><ele>158.75</ele><time>2026-04-26T08:54:39Z</time></trkpt><trkpt lat="43.643578366845034" lon="11.171200657908255"><ele>157.5</ele><time>2026-04-26T08:54:40Z</time></trkpt><trkpt lat="43.64366151061774" lon="11.171057342129112"><ele>156.25</ele><time>2026-04-26T08:54:41Z</time></trkpt><trkpt lat="43.643751872856754" lon="11.170914762551645"><ele>155.0</ele><time>2026-04-26T08:54:42Z</time></trkpt><trkpt lat="43.643832789516566" lon="11.170768271845112"><ele>152.25</ele><time>2026-04-26T08:54:43Z</time></trkpt><trkpt lat="43.643921597772646" lon="11.170634159594979"><ele>149.5</ele><time>2026-04-26T08:54:44Z</time></trkpt><trkpt lat="43.64400616263779" lon="11.170511017543022"><ele>146.75</ele><time>2026-04-26T08:54:45Z</time></trkpt><trkpt lat="43.64408537562778" lon="11.170393649287053"><ele>144.0</ele><time>2026-04-26T08:54:46Z</time></trkpt><trkpt lat="43.64415568878188" lon="11.170299163720774"><ele>144.0</ele><time>2026-04-26T08:54:47Z</time></trkpt><trkpt lat="43.64421452401248" lon="11.170226967780543"><ele>144.0</ele><time>2026-04-26T08:54:48Z</time></trkpt><trkpt lat="43.64426940880981" lon="11.17016773164124"><ele>144.0</ele><time>2026-04-26T08:54:49Z</time></trkpt><trkpt lat="43.64432929793319" lon="11.170089013365061"><ele>144.0</ele><time>2026-04-26T08:54:50.999Z</time></trkpt><trkpt lat="43.64423502082856" lon="11.170156033792981"><ele>144.0</ele><time>2026-04-26T08:55:07.999Z</time></trkpt><trkpt lat="43.64402411493385" lon="11.170263083738327"><ele>144.0</ele><time>2026-04-26T08:55:09.999Z</time></trkpt><trkpt lat="43.64395470487351" lon="11.170337405077001"><ele>144.0</ele><time>2026-04-26T08:55:10.999Z</time></trkpt><trkpt lat="43.643880723851744" lon="11.170411131036667"><ele>144.0</ele><time>2026-04-26T08:55:11.999Z</time></trkpt><trkpt lat="43.643801614173086" lon="11.17048724183512"><ele>144.0</ele><time>2026-04-26T08:55:12.999Z</time></trkpt><trkpt lat="43.64371853032549" lon="11.170565774122068"><ele>144.0</ele><time>2026-04-26T08:55:13.999Z</time></trkpt><trkpt lat="43.6436315956917" lon="11.170649656200672"><ele>145.75</ele><time>2026-04-26T08:55:14.999Z</time></trkpt><trkpt lat="43.6435384469131" lon="11.170743903366988"><ele>147.5</ele><time>2026-04-26T08:55:15.999Z</time></trkpt><trkpt lat="43.64344012295822" lon="11.170838141746124"><ele>149.25</ele><time>2026-04-26T08:55:16.999Z</time></trkpt><trkpt lat="43.64333788579507" lon="11.170934280574519"><ele>151.0</ele><time>2026-04-26T08:55:17.999Z</time></trkpt><trkpt lat="43.64323203462504" lon="11.171034547204739"><ele>151.0</ele><time>2026-04-26T08:55:18.999Z</time></trkpt><trkpt lat="43.643123602369194" lon="11.171140815944993"><ele>151.0</ele><time>2026-04-26T08:55:19.999Z</time></trkpt><trkpt lat="43.64301622449617" lon="11.171248157382964"><ele>151.0</ele><time>2026-04-26T08:55:20.999Z</time></trkpt><trkpt lat="43.64291260792705" lon="11.171350204527542"><ele>151.0</ele><time>2026-04-26T08:55:21.999Z</time></trkpt><trkpt lat="43.642810519829425" lon="11.17144937799236"><ele>149.75</ele><time>2026-04-26T08:55:22.999Z</time></trkpt><trkpt lat="43.642710708869316" lon="11.171544542738939"><ele>148.5</ele><time>2026-04-26T08:55:23.999Z</time></trkpt><trkpt lat="43.64260999814311" lon="11.171634542486796"><ele>147.25</ele><time>2026-04-26T08:55:24.999Z</time></trkpt><trkpt lat="43.6425090176841" lon="11.171710417188356"><ele>146.0</ele><time>2026-04-26T08:55:25.999Z</time></trkpt><trkpt lat="43.6424041987458" lon="11.171775726765055"><ele>146.0</ele><time>2026-04-26T08:55:26.999Z</time></trkpt><trkpt lat="43.642293694417056" lon="11.171822190364571"><ele>146.0</ele><time>2026-04-26T08:55:27.999Z</time></trkpt><trkpt lat="43.642181026663074" lon="11.171892179303818"><ele>146.0</ele><time>2026-04-26T08:55:28.999Z</time></trkpt><trkpt lat="43.64204192389983" lon="11.171883113058042"><ele>146.0</ele><time>2026-04-26T08:55:29.999Z</time></trkpt><trkpt lat="43.641900310366786" lon="11.171856279399291"><ele>143.0</ele><time>2026-04-26T08:55:30.999Z</time></trkpt><trkpt lat="43.64175226576223" lon="11.171845649002085"><ele>140.0</ele><time>2026-04-26T08:55:31.999Z</time></trkpt><trkpt lat="43.64142120487558" lon="11.171776239528386"><ele>140.0</ele><time>2026-04-26T08:55:33.999Z</time></trkpt><trkpt lat="43.641249740562394" lon="11.171731731537916"><ele>140.0</ele><time>2026-04-26T08:55:34.999Z</time></trkpt><trkpt lat="43.64107016694499" lon="11.171681749888876"><ele>140.0</ele><time>2026-04-26T08:55:35.999Z</time></trkpt><trkpt lat="43.64088839816027" lon="11.171630128504919"><ele>138.0</ele><time>2026-04-26T08:55:36.999Z</time></trkpt><trkpt lat="43.64070397427969" lon="11.171581358297175"><ele>136.0</ele><time>2026-04-26T08:55:37.999Z</time></trkpt><trkpt lat="43.64052634533322" lon="11.171542553075946"><ele>134.0</ele><time>2026-04-26T08:55:38.999Z</time></trkpt><trkpt lat="43.64035201780952" lon="11.171550364861735"><ele>133.0</ele><time>2026-04-26T08:55:39.999Z</time></trkpt><trkpt lat="43.64018771680735" lon="11.1716031275242"><ele>132.0</ele><time>2026-04-26T08:55:40.999Z</time></trkpt><trkpt lat="43.64003307760817" lon="11.171694711114792"><ele>131.0</ele><time>2026-04-26T08:55:41.999Z</time></trkpt><trkpt lat="43.63989936794887" lon="11.171838996480451"><ele>131.0</ele><time>2026-04-26T08:55:42.999Z</time></trkpt><trkpt lat="43.63977085307128" lon="11.17200725899459"><ele>131.0</ele><time>2026-04-26T08:55:43.999Z</time></trkpt><trkpt lat="43.639643178197375" lon="11.172172973992305"><ele>131.0</ele><time>2026-04-26T08:55:44.999Z</time></trkpt><trkpt lat="43.63950957895544" lon="11.1723303190197"><ele>130.66666666666666</ele><time>2026-04-26T08:55:45.999Z</time></trkpt><trkpt lat="43.63937716630155" lon="11.172480042336522"><ele>130.33333333333334</ele><time>2026-04-26T08:55:46.999Z</time></trkpt><trkpt lat="43.63924475187264" lon="11.172623810494793"><ele>130.0</ele><time>2026-04-26T08:55:47.999Z</time></trkpt><trkpt lat="43.63912033678637" lon="11.172767156611677"><ele>130.0</ele><time>2026-04-26T08:55:48.999Z</time></trkpt><trkpt lat="43.63900441382362" lon="11.172900223544726"><ele>130.0</ele><time>2026-04-26T08:55:49.999Z</time></trkpt><trkpt lat="43.63888372593985" lon="11.173030301582394"><ele>130.0</ele><time>2026-04-26T08:55:50.999Z</time></trkpt><trkpt lat="43.63877502979148" lon="11.17315123444325"><ele>130.0</ele><time>2026-04-26T08:55:51.999Z</time></trkpt><trkpt lat="43.63867006744692" lon="11.173262646975166"><ele>130.0</ele><time>2026-04-26T08:55:52.999Z</time></trkpt><trkpt lat="43.638567013153505" lon="11.173370857438748"><ele>130.0</ele><time>2026-04-26T08:55:53.999Z</time></trkpt><trkpt lat="43.638465015745695" lon="11.173485836073903"><ele>130.0</ele><time>2026-04-26T08:55:54.999Z</time></trkpt><trkpt lat="43.63836463769704" lon="11.173611662863772"><ele>130.0</ele><time>2026-04-26T08:55:55.999Z</time></trkpt><trkpt lat="43.63826612776202" lon="11.173749606414164"><ele>130.0</ele><time>2026-04-26T08:55:56.999Z</time></trkpt><trkpt lat="43.63816899159648" lon="11.173890451287019"><ele>130.0</ele><time>2026-04-26T08:55:57.999Z</time></trkpt><trkpt lat="43.63806668104466" lon="11.174040531738765"><ele>130.0</ele><time>2026-04-26T08:55:58.999Z</time></trkpt><trkpt lat="43.637963652873594" lon="11.174188594762466"><ele>130.0</ele><time>2026-04-26T08:55:59.999Z</time></trkpt><trkpt lat="43.637853992992135" lon="11.17433101172835"><ele>129.0</ele><time>2026-04-26T08:56:00.999Z</time></trkpt><trkpt lat="43.63773477282648" lon="11.1744627379245"><ele>128.0</ele><time>2026-04-26T08:56:01.999Z</time></trkpt><trkpt lat="43.63761658850211" lon="11.174593169281723"><ele>127.0</ele><time>2026-04-26T08:56:02.999Z</time></trkpt><trkpt lat="43.63750340407776" lon="11.174733948196609"><ele>127.0</ele><time>2026-04-26T08:56:03.999Z</time></trkpt><trkpt lat="43.637401799462864" lon="11.174892225316125"><ele>127.0</ele><time>2026-04-26T08:56:04.999Z</time></trkpt><trkpt lat="43.637301484050695" lon="11.175049433443991"><ele>127.0</ele><time>2026-04-26T08:56:05.999Z</time></trkpt><trkpt lat="43.63720166046329" lon="11.175205579256385"><ele>127.0</ele><time>2026-04-26T08:56:06.999Z</time></trkpt><trkpt lat="43.63709989821726" lon="11.17536000636303"><ele>127.0</ele><time>2026-04-26T08:56:07.999Z</time></trkpt><trkpt lat="43.636994021903476" lon="11.175514824711387"><ele>127.0</ele><time>2026-04-26T08:56:08.999Z</time></trkpt><trkpt lat="43.63688765115296" lon="11.175661505438098"><ele>126.33333333333334</ele><time>2026-04-26T08:56:09.999Z</time></trkpt><trkpt lat="43.63677561769824" lon="11.175801462820933"><ele>125.66666666666666</ele><time>2026-04-26T08:56:10.999Z</time></trkpt><trkpt lat="43.63665667551186" lon="11.175929674932753"><ele>125.0</ele><time>2026-04-26T08:56:11.998Z</time></trkpt><trkpt lat="43.636538517381325" lon="11.176054743089365"><ele>125.0</ele><time>2026-04-26T08:56:12.998Z</time></trkpt><trkpt lat="43.636424313786556" lon="11.176181634046042"><ele>125.0</ele><time>2026-04-26T08:56:14Z</time></trkpt><trkpt lat="43.63631219581598" lon="11.176304868088165"><ele>125.0</ele><time>2026-04-26T08:56:15Z</time></trkpt><trkpt lat="43.63620229962507" lon="11.176424718136857"><ele>125.0</ele><time>2026-04-26T08:56:16Z</time></trkpt><trkpt lat="43.63609094968356" lon="11.176548239579244"><ele>125.0</ele><time>2026-04-26T08:56:17Z</time></trkpt><trkpt lat="43.63598194604435" lon="11.176664403635456"><ele>125.0</ele><time>2026-04-26T08:56:18Z</time></trkpt><trkpt lat="43.635870025269796" lon="11.176787079527234"><ele>125.0</ele><time>2026-04-26T08:56:19Z</time></trkpt><trkpt lat="43.63575855884911" lon="11.17691368871412"><ele>125.0</ele><time>2026-04-26T08:56:20Z</time></trkpt><trkpt lat="43.635645871740614" lon="11.177040844763594"><ele>125.0</ele><time>2026-04-26T08:56:21Z</time></trkpt><trkpt lat="43.6355311566532" lon="11.17717114380233"><ele>125.0</ele><time>2026-04-26T08:56:22Z</time></trkpt><trkpt lat="43.6354168693608" lon="11.177301926186756"><ele>125.0</ele><time>2026-04-26T08:56:23Z</time></trkpt><trkpt lat="43.6353032504606" lon="11.177426784796763"><ele>125.0</ele><time>2026-04-26T08:56:24Z</time></trkpt><trkpt lat="43.63519099469073" lon="11.177552632728258"><ele>125.25</ele><time>2026-04-26T08:56:25Z</time></trkpt><trkpt lat="43.63508746363889" lon="11.177689788053993"><ele>125.5</ele><time>2026-04-26T08:56:26Z</time></trkpt><trkpt lat="43.63501307855936" lon="11.177845688197985"><ele>125.75</ele><time>2026-04-26T08:56:27Z</time></trkpt><trkpt lat="43.634959245692144" lon="11.178015261725621"><ele>126.0</ele><time>2026-04-26T08:56:28Z</time></trkpt><trkpt lat="43.63492962240933" lon="11.178178101577117"><ele>126.33333333333333</ele><time>2026-04-26T08:56:29Z</time></trkpt><trkpt lat="43.63490861968178" lon="11.178319286626156"><ele>126.66666666666666</ele><time>2026-04-26T08:56:30Z</time></trkpt><trkpt lat="43.63490664894361" lon="11.178436152347617"><ele>127.0</ele><time>2026-04-26T08:56:31Z</time></trkpt><trkpt lat="43.63483837504456" lon="11.17852294082722"><ele>127.33333333333333</ele><time>2026-04-26T08:56:32Z</time></trkpt><trkpt lat="43.634785225714225" lon="11.178589567842568"><ele>127.66666666666666</ele><time>2026-04-26T08:56:33Z</time></trkpt><trkpt lat="43.634722346324" lon="11.178638470489325"><ele>128.0</ele><time>2026-04-26T08:56:34Z</time></trkpt><trkpt lat="43.63464730658933" lon="11.178669691737513"><ele>128.0</ele><time>2026-04-26T08:56:35Z</time></trkpt><trkpt lat="43.63455774531097" lon="11.178709390209526"><ele>128.0</ele><time>2026-04-26T08:56:36Z</time></trkpt><trkpt lat="43.6344463476698" lon="11.178770066684436"><ele>128.0</ele><time>2026-04-26T08:56:37Z</time></trkpt><trkpt lat="43.63432834163496" lon="11.178843335555394"><ele>128.0</ele><time>2026-04-26T08:56:38Z</time></trkpt><trkpt lat="43.63420385530945" lon="11.178925319879447"><ele>128.33333333333331</ele><time>2026-04-26T08:56:39Z</time></trkpt><trkpt lat="43.634070261659794" lon="11.179010311404062"><ele>128.66666666666666</ele><time>2026-04-26T08:56:40Z</time></trkpt><trkpt lat="43.63393571618022" lon="11.179097930562008"><ele>129.0</ele><time>2026-04-26T08:56:41Z</time></trkpt><trkpt lat="43.633795559708815" lon="11.179191232264053"><ele>129.0</ele><time>2026-04-26T08:56:42Z</time></trkpt><trkpt lat="43.633658318978135" lon="11.179299185989944"><ele>129.0</ele><time>2026-04-26T08:56:43Z</time></trkpt><trkpt lat="43.633528498735245" lon="11.179434632148505"><ele>129.0</ele><time>2026-04-26T08:56:44Z</time></trkpt><trkpt lat="43.63341009856213" lon="11.17958249699302"><ele>129.0</ele><time>2026-04-26T08:56:45Z</time></trkpt><trkpt lat="43.63328095621118" lon="11.17973860570316"><ele>129.0</ele><time>2026-04-26T08:56:46Z</time></trkpt><trkpt lat="43.633143997122595" lon="11.179889878036544"><ele>129.0</ele><time>2026-04-26T08:56:47Z</time></trkpt><trkpt lat="43.63299617916535" lon="11.180024315510815"><ele>129.0</ele><time>2026-04-26T08:56:48Z</time></trkpt><trkpt lat="43.632836916839295" lon="11.180131977775668"><ele>129.0</ele><time>2026-04-26T08:56:49Z</time></trkpt><trkpt lat="43.63266478553619" lon="11.180219478312738"><ele>129.0</ele><time>2026-04-26T08:56:50Z</time></trkpt><trkpt lat="43.63249085264534" lon="11.180305265376196"><ele>129.0</ele><time>2026-04-26T08:56:51Z</time></trkpt><trkpt lat="43.63231781384217" lon="11.180397634581219"><ele>129.0</ele><time>2026-04-26T08:56:52Z</time></trkpt><trkpt lat="43.63214544059018" lon="11.180492124218492"><ele>129.0</ele><time>2026-04-26T08:56:53Z</time></trkpt><trkpt lat="43.63196907792899" lon="11.180594879034556"><ele>128.66666666666666</ele><time>2026-04-26T08:56:54Z</time></trkpt><trkpt lat="43.63179967765636" lon="11.180694847722748"><ele>128.33333333333331</ele><time>2026-04-26T08:56:55Z</time></trkpt><trkpt lat="43.63162341392907" lon="11.180804081575003"><ele>128.0</ele><time>2026-04-26T08:56:56Z</time></trkpt><trkpt lat="43.63145116488864" lon="11.180914372414573"><ele>128.0</ele><time>2026-04-26T08:56:57Z</time></trkpt><trkpt lat="43.63126482635429" lon="11.181012283715857"><ele>128.0</ele><time>2026-04-26T08:56:58Z</time></trkpt><trkpt lat="43.63107384055001" lon="11.18109739832184"><ele>128.0</ele><time>2026-04-26T08:56:59Z</time></trkpt><trkpt lat="43.63087704949451" lon="11.181162952072158"><ele>128.0</ele><time>2026-04-26T08:57:00Z</time></trkpt><trkpt lat="43.63067474904292" lon="11.181225085132809"><ele>128.0</ele><time>2026-04-26T08:57:01Z</time></trkpt><trkpt lat="43.630479412910525" lon="11.181299533771897"><ele>128.0</ele><time>2026-04-26T08:57:02Z</time></trkpt><trkpt lat="43.63028883983607" lon="11.181390887999777"><ele>128.33333333333331</ele><time>2026-04-26T08:57:03Z</time></trkpt><trkpt lat="43.63010206564761" lon="11.181487646114205"><ele>128.66666666666666</ele><time>2026-04-26T08:57:04Z</time></trkpt><trkpt lat="43.62992161384051" lon="11.181597290659637"><ele>129.0</ele><time>2026-04-26T08:57:04.999Z</time></trkpt><trkpt lat="43.629754629946376" lon="11.18172505775166"><ele>129.33333333333334</ele><time>2026-04-26T08:57:05.999Z</time></trkpt><trkpt lat="43.62959006194018" lon="11.181855013929763"><ele>129.66666666666669</ele><time>2026-04-26T08:57:06.999Z</time></trkpt><trkpt lat="43.62942007520604" lon="11.181947749111517"><ele>130.0</ele><time>2026-04-26T08:57:07.999Z</time></trkpt><trkpt lat="43.62924117856353" lon="11.181985218336312"><ele>130.0</ele><time>2026-04-26T08:57:08.999Z</time></trkpt><trkpt lat="43.629074919123084" lon="11.181996907499855"><ele>130.0</ele><time>2026-04-26T08:57:09.999Z</time></trkpt><trkpt lat="43.62892043468067" lon="11.18202515777266"><ele>130.0</ele><time>2026-04-26T08:57:10.999Z</time></trkpt><trkpt lat="43.628779759335174" lon="11.182074975805735"><ele>130.25</ele><time>2026-04-26T08:57:11.999Z</time></trkpt><trkpt lat="43.62864154122513" lon="11.182141219581515"><ele>130.5</ele><time>2026-04-26T08:57:12.999Z</time></trkpt><trkpt lat="43.62850670246315" lon="11.182171554983672"><ele>130.75</ele><time>2026-04-26T08:57:13.999Z</time></trkpt><trkpt lat="43.628406006406756" lon="11.182347674537239"><ele>131.0</ele><time>2026-04-26T08:57:14.999Z</time></trkpt><trkpt lat="43.628310456885494" lon="11.182492650312655"><ele>131.66666666666666</ele><time>2026-04-26T08:57:15.999Z</time></trkpt><trkpt lat="43.62821238704556" lon="11.182653089169193"><ele>132.33333333333334</ele><time>2026-04-26T08:57:16.999Z</time></trkpt><trkpt lat="43.62810929717231" lon="11.182815183671652"><ele>133.0</ele><time>2026-04-26T08:57:17.999Z</time></trkpt><trkpt lat="43.62799039519535" lon="11.182984864286142"><ele>133.0</ele><time>2026-04-26T08:57:18.999Z</time></trkpt><trkpt lat="43.62787248258637" lon="11.183151765975547"><ele>133.0</ele><time>2026-04-26T08:57:19.999Z</time></trkpt><trkpt lat="43.627747789696826" lon="11.183323443450602"><ele>133.0</ele><time>2026-04-26T08:57:20.999Z</time></trkpt><trkpt lat="43.62761936516257" lon="11.183470102449144"><ele>134.66666666666669</ele><time>2026-04-26T08:57:21.999Z</time></trkpt><trkpt lat="43.62747225778525" lon="11.183606839779713"><ele>136.33333333333334</ele><time>2026-04-26T08:57:22.999Z</time></trkpt><trkpt lat="43.627317694154556" lon="11.183721403604363"><ele>138.0</ele><time>2026-04-26T08:57:23.999Z</time></trkpt><trkpt lat="43.62715849853356" lon="11.183818070355679"><ele>138.0</ele><time>2026-04-26T08:57:24.999Z</time></trkpt><trkpt lat="43.626993065654716" lon="11.18388366523712"><ele>138.0</ele><time>2026-04-26T08:57:25.999Z</time></trkpt><trkpt lat="43.626817722061176" lon="11.183928114503702"><ele>138.0</ele><time>2026-04-26T08:57:26.999Z</time></trkpt><trkpt lat="43.626646771096716" lon="11.183981273583838"><ele>139.0</ele><time>2026-04-26T08:57:27.999Z</time></trkpt><trkpt lat="43.62647251291828" lon="11.184024599833911"><ele>140.0</ele><time>2026-04-26T08:57:28.999Z</time></trkpt><trkpt lat="43.62629558283259" lon="11.184070169790242"><ele>141.0</ele><time>2026-04-26T08:57:29.999Z</time></trkpt><trkpt lat="43.626117682491696" lon="11.184119961014185"><ele>141.0</ele><time>2026-04-26T08:57:30.999Z</time></trkpt><trkpt lat="43.62594813703444" lon="11.18418033323454"><ele>141.0</ele><time>2026-04-26T08:57:31.999Z</time></trkpt><trkpt lat="43.62577228766517" lon="11.184257389189085"><ele>141.0</ele><time>2026-04-26T08:57:32.999Z</time></trkpt><trkpt lat="43.62560796590962" lon="11.18435479236412"><ele>141.0</ele><time>2026-04-26T08:57:33.999Z</time></trkpt><trkpt lat="43.6254499020922" lon="11.184478132808522"><ele>141.0</ele><time>2026-04-26T08:57:34.999Z</time></trkpt><trkpt lat="43.62530092595312" lon="11.18461594959302"><ele>141.0</ele><time>2026-04-26T08:57:35.999Z</time></trkpt><trkpt lat="43.6251604919211" lon="11.184758108423535"><ele>143.66666666666666</ele><time>2026-04-26T08:57:36.999Z</time></trkpt><trkpt lat="43.625021301036504" lon="11.184897783492026"><ele>146.33333333333331</ele><time>2026-04-26T08:57:37.999Z</time></trkpt><trkpt lat="43.62487999095066" lon="11.18503166447838"><ele>149.0</ele><time>2026-04-26T08:57:38.999Z</time></trkpt><trkpt lat="43.62474123897982" lon="11.185154602401282"><ele>149.0</ele><time>2026-04-26T08:57:39.999Z</time></trkpt><trkpt lat="43.62460205104905" lon="11.185278717134258"><ele>149.0</ele><time>2026-04-26T08:57:40.999Z</time></trkpt><trkpt lat="43.62443939632629" lon="11.185353717755733"><ele>149.0</ele><time>2026-04-26T08:57:41.999Z</time></trkpt><trkpt lat="43.624265978262734" lon="11.18541226238034"><ele>147.66666666666666</ele><time>2026-04-26T08:57:42.999Z</time></trkpt><trkpt lat="43.62409299997573" lon="11.185465770934629"><ele>146.33333333333334</ele><time>2026-04-26T08:57:43.999Z</time></trkpt><trkpt lat="43.62392053410902" lon="11.185550418581998"><ele>145.0</ele><time>2026-04-26T08:57:44.999Z</time></trkpt><trkpt lat="43.6237610849142" lon="11.185677945685942"><ele>144.33333333333334</ele><time>2026-04-26T08:57:45.999Z</time></trkpt><trkpt lat="43.6236092398811" lon="11.185820445365245"><ele>143.66666666666666</ele><time>2026-04-26T08:57:46.999Z</time></trkpt><trkpt lat="43.62346170137285" lon="11.185975050288489"><ele>143.0</ele><time>2026-04-26T08:57:47.999Z</time></trkpt><trkpt lat="43.623308525212906" lon="11.186116202772173"><ele>143.0</ele><time>2026-04-26T08:57:48.999Z</time></trkpt><trkpt lat="43.623153220947394" lon="11.18623623920519"><ele>143.0</ele><time>2026-04-26T08:57:49.999Z</time></trkpt><trkpt lat="43.6229864825909" lon="11.1863391406748"><ele>143.0</ele><time>2026-04-26T08:57:50.999Z</time></trkpt><trkpt lat="43.622816309166936" lon="11.18643716782199"><ele>144.0</ele><time>2026-04-26T08:57:51.999Z</time></trkpt><trkpt lat="43.62264222932781" lon="11.186528055683834"><ele>145.0</ele><time>2026-04-26T08:57:52.999Z</time></trkpt><trkpt lat="43.622472008156585" lon="11.18661849800913"><ele>146.0</ele><time>2026-04-26T08:57:53.999Z</time></trkpt><trkpt lat="43.62229892260735" lon="11.18670706755314"><ele>146.0</ele><time>2026-04-26T08:57:54.999Z</time></trkpt><trkpt lat="43.62212216311576" lon="11.18679346570302"><ele>146.0</ele><time>2026-04-26T08:57:55.999Z</time></trkpt><trkpt lat="43.6219457157999" lon="11.186875152535409"><ele>146.0</ele><time>2026-04-26T08:57:56.999Z</time></trkpt><trkpt lat="43.621770015706886" lon="11.186943070482664"><ele>143.33333333333331</ele><time>2026-04-26T08:57:57.999Z</time></trkpt><trkpt lat="43.6215807213757" lon="11.187008688446149"><ele>140.66666666666666</ele><time>2026-04-26T08:57:58.999Z</time></trkpt><trkpt lat="43.62139222213455" lon="11.18706405568379"><ele>138.0</ele><time>2026-04-26T08:57:59.999Z</time></trkpt><trkpt lat="43.62120256746477" lon="11.18711711230077"><ele>138.0</ele><time>2026-04-26T08:58:00.999Z</time></trkpt><trkpt lat="43.62101005058999" lon="11.187163339556378"><ele>138.0</ele><time>2026-04-26T08:58:01.999Z</time></trkpt><trkpt lat="43.62082017741871" lon="11.187214051648152"><ele>138.0</ele><time>2026-04-26T08:58:02.999Z</time></trkpt><trkpt lat="43.620630273781885" lon="11.187263565814444"><ele>138.0</ele><time>2026-04-26T08:58:03.999Z</time></trkpt><trkpt lat="43.620442445509624" lon="11.187309300583813"><ele>138.0</ele><time>2026-04-26T08:58:04.999Z</time></trkpt><trkpt lat="43.620258715662686" lon="11.187360999765204"><ele>138.0</ele><time>2026-04-26T08:58:05.999Z</time></trkpt><trkpt lat="43.62008020784504" lon="11.187422631251131"><ele>139.33333333333334</ele><time>2026-04-26T08:58:06.999Z</time></trkpt><trkpt lat="43.61990472098687" lon="11.18750913028738"><ele>140.66666666666669</ele><time>2026-04-26T08:58:07.999Z</time></trkpt><trkpt lat="43.61974213182735" lon="11.187627718903912"><ele>142.0</ele><time>2026-04-26T08:58:08.999Z</time></trkpt><trkpt lat="43.619593065226525" lon="11.18778971270844"><ele>142.0</ele><time>2026-04-26T08:58:09.999Z</time></trkpt><trkpt lat="43.61946048085446" lon="11.187969242363664"><ele>142.0</ele><time>2026-04-26T08:58:10.999Z</time></trkpt><trkpt lat="43.61933244023231" lon="11.188156979529033"><ele>142.0</ele><time>2026-04-26T08:58:11.999Z</time></trkpt><trkpt lat="43.61919786655804" lon="11.188325599280947"><ele>142.0</ele><time>2026-04-26T08:58:12.999Z</time></trkpt><trkpt lat="43.6190420503882" lon="11.1884626031989"><ele>142.0</ele><time>2026-04-26T08:58:13.999Z</time></trkpt><trkpt lat="43.618869721128426" lon="11.188564423142996"><ele>142.0</ele><time>2026-04-26T08:58:14.999Z</time></trkpt><trkpt lat="43.61869382929803" lon="11.188640372148585"><ele>141.66666666666669</ele><time>2026-04-26T08:58:15.999Z</time></trkpt><trkpt lat="43.618515575318035" lon="11.188712610670994"><ele>141.33333333333334</ele><time>2026-04-26T08:58:16.999Z</time></trkpt><trkpt lat="43.618340072910314" lon="11.188784279780272"><ele>141.0</ele><time>2026-04-26T08:58:17.999Z</time></trkpt><trkpt lat="43.6181665503694" lon="11.188857637417346"><ele>141.0</ele><time>2026-04-26T08:58:19Z</time></trkpt><trkpt lat="43.61799731745063" lon="11.188925716246494"><ele>141.0</ele><time>2026-04-26T08:58:20Z</time></trkpt><trkpt lat="43.617828745935945" lon="11.188994453682257"><ele>141.0</ele><time>2026-04-26T08:58:21Z</time></trkpt><trkpt lat="43.6176665113172" lon="11.189061783195925"><ele>142.75</ele><time>2026-04-26T08:58:22Z</time></trkpt><trkpt lat="43.61751889474642" lon="11.189126164570645"><ele>144.5</ele><time>2026-04-26T08:58:23Z</time></trkpt><trkpt lat="43.61738673996583" lon="11.189186988437996"><ele>146.25</ele><time>2026-04-26T08:58:24Z</time></trkpt><trkpt lat="43.61726600683867" lon="11.189249477709648"><ele>148.0</ele><time>2026-04-26T08:58:25Z</time></trkpt><trkpt lat="43.617154949820765" lon="11.18931952382653"><ele>148.0</ele><time>2026-04-26T08:58:26Z</time></trkpt><trkpt lat="43.61707147798555" lon="11.189387819831861"><ele>148.0</ele><time>2026-04-26T08:58:27Z</time></trkpt><trkpt lat="43.61700810425339" lon="11.18944774762142"><ele>148.0</ele><time>2026-04-26T08:58:28Z</time></trkpt><trkpt lat="43.61695609736541" lon="11.18949973067685"><ele>148.0</ele><time>2026-04-26T08:58:29Z</time></trkpt><trkpt lat="43.61689727331918" lon="11.189554914946573"><ele>148.0</ele><time>2026-04-26T08:58:30Z</time></trkpt><trkpt lat="43.61683421921868" lon="11.189615989973156"><ele>148.0</ele><time>2026-04-26T08:58:31Z</time></trkpt><trkpt lat="43.616763157634864" lon="11.189673830603853"><ele>148.4</ele><time>2026-04-26T08:58:32Z</time></trkpt><trkpt lat="43.61668230782815" lon="11.189746145069716"><ele>148.8</ele><time>2026-04-26T08:58:33Z</time></trkpt><trkpt lat="43.616590449295416" lon="11.18982051456102"><ele>149.2</ele><time>2026-04-26T08:58:34Z</time></trkpt><trkpt lat="43.61648782429977" lon="11.18989996374046"><ele>149.6</ele><time>2026-04-26T08:58:35Z</time></trkpt><trkpt lat="43.616380188172535" lon="11.18998304587593"><ele>150.0</ele><time>2026-04-26T08:58:36Z</time></trkpt><trkpt lat="43.61626907408973" lon="11.190066246355537"><ele>150.0</ele><time>2026-04-26T08:58:37Z</time></trkpt><trkpt lat="43.61615494586608" lon="11.190133692143974"><ele>150.0</ele><time>2026-04-26T08:58:38Z</time></trkpt><trkpt lat="43.61602779395553" lon="11.190197045156442"><ele>150.0</ele><time>2026-04-26T08:58:39Z</time></trkpt><trkpt lat="43.615893763501134" lon="11.190257333267553"><ele>150.0</ele><time>2026-04-26T08:58:40Z</time></trkpt><trkpt lat="43.615755714566724" lon="11.190313614958928"><ele>150.0</ele><time>2026-04-26T08:58:41Z</time></trkpt><trkpt lat="43.615606943924" lon="11.19035917181472"><ele>150.0</ele><time>2026-04-26T08:58:42Z</time></trkpt><trkpt lat="43.615456431496966" lon="11.190397878452897"><ele>150.0</ele><time>2026-04-26T08:58:43Z</time></trkpt><trkpt lat="43.61530232939366" lon="11.190433675207624"><ele>148.33333333333334</ele><time>2026-04-26T08:58:44Z</time></trkpt><trkpt lat="43.615145846683696" lon="11.190473075316765"><ele>146.66666666666669</ele><time>2026-04-26T08:58:45Z</time></trkpt><trkpt lat="43.61498418069026" lon="11.190515764004342"><ele>145.0</ele><time>2026-04-26T08:58:46Z</time></trkpt><trkpt lat="43.614825065723714" lon="11.190564210222751"><ele>145.0</ele><time>2026-04-26T08:58:47Z</time></trkpt><trkpt lat="43.614664921511135" lon="11.190619379370442"><ele>145.0</ele><time>2026-04-26T08:58:48Z</time></trkpt><trkpt lat="43.61451319994082" lon="11.190689766703002"><ele>145.0</ele><time>2026-04-26T08:58:49Z</time></trkpt><trkpt lat="43.614357463559486" lon="11.1907631797996"><ele>146.66666666666669</ele><time>2026-04-26T08:58:50Z</time></trkpt><trkpt lat="43.61420348052457" lon="11.190835590733546"><ele>148.33333333333334</ele><time>2026-04-26T08:58:51Z</time></trkpt><trkpt lat="43.61405157124809" lon="11.19090159831367"><ele>150.0</ele><time>2026-04-26T08:58:52Z</time></trkpt><trkpt lat="43.61389473467573" lon="11.190965162970999"><ele>150.0</ele><time>2026-04-26T08:58:53Z</time></trkpt><trkpt lat="43.6137414448008" lon="11.191026193234196"><ele>150.0</ele><time>2026-04-26T08:58:54Z</time></trkpt><trkpt lat="43.613590942598236" lon="11.191080955408056"><ele>150.0</ele><time>2026-04-26T08:58:55Z</time></trkpt><trkpt lat="43.61343669890777" lon="11.191126353792354"><ele>149.0</ele><time>2026-04-26T08:58:56Z</time></trkpt><trkpt lat="43.61328679303061" lon="11.19115911282815"><ele>148.0</ele><time>2026-04-26T08:58:57Z</time></trkpt><trkpt lat="43.613138905202256" lon="11.191182730825181"><ele>147.0</ele><time>2026-04-26T08:58:58Z</time></trkpt><trkpt lat="43.6129964680765" lon="11.191201969593111"><ele>146.0</ele><time>2026-04-26T08:58:59Z</time></trkpt><trkpt lat="43.61286864176011" lon="11.19121835949904"><ele>145.8</ele><time>2026-04-26T08:59:00Z</time></trkpt><trkpt lat="43.612752723331496" lon="11.191240637484556"><ele>145.6</ele><time>2026-04-26T08:59:01Z</time></trkpt><trkpt lat="43.61263954068266" lon="11.191266897361693"><ele>145.4</ele><time>2026-04-26T08:59:02Z</time></trkpt><trkpt lat="43.61253544521076" lon="11.19129052779266"><ele>145.2</ele><time>2026-04-26T08:59:03Z</time></trkpt><trkpt lat="43.61243991565562" lon="11.191315588961096"><ele>145.0</ele><time>2026-04-26T08:59:04Z</time></trkpt><trkpt lat="43.61235021578694" lon="11.191358646830395"><ele>145.0</ele><time>2026-04-26T08:59:05Z</time></trkpt><trkpt lat="43.61225665094018" lon="11.191418933833857"><ele>145.0</ele><time>2026-04-26T08:59:06Z</time></trkpt><trkpt lat="43.612162190795736" lon="11.191487637956149"><ele>145.0</ele><time>2026-04-26T08:59:07Z</time></trkpt><trkpt lat="43.61206552464382" lon="11.191565974878447"><ele>145.0</ele><time>2026-04-26T08:59:08Z</time></trkpt><trkpt lat="43.61196523092274" lon="11.191644524551439"><ele>145.0</ele><time>2026-04-26T08:59:09Z</time></trkpt><trkpt lat="43.611859369877656" lon="11.191723278973388"><ele>145.0</ele><time>2026-04-26T08:59:10Z</time></trkpt><trkpt lat="43.61175224488073" lon="11.191804292850177"><ele>145.0</ele><time>2026-04-26T08:59:11Z</time></trkpt><trkpt lat="43.61164561815331" lon="11.191890298271197"><ele>145.0</ele><time>2026-04-26T08:59:12Z</time></trkpt><trkpt lat="43.61153996064488" lon="11.19197849205344"><ele>145.0</ele><time>2026-04-26T08:59:13Z</time></trkpt><trkpt lat="43.611433091057144" lon="11.192065900056337"><ele>145.0</ele><time>2026-04-26T08:59:14Z</time></trkpt><trkpt lat="43.61132867598415" lon="11.192156298543892"><ele>145.0</ele><time>2026-04-26T08:59:15Z</time></trkpt><trkpt lat="43.61122955497539" lon="11.192250323024032"><ele>145.0</ele><time>2026-04-26T08:59:16Z</time></trkpt><trkpt lat="43.61112705427388" lon="11.192341269372514"><ele>145.0</ele><time>2026-04-26T08:59:16.999Z</time></trkpt><trkpt lat="43.61100895008295" lon="11.192432133458533"><ele>146.0</ele><time>2026-04-26T08:59:17.999Z</time></trkpt><trkpt lat="43.61087991653394" lon="11.19252232025043"><ele>147.0</ele><time>2026-04-26T08:59:18.999Z</time></trkpt><trkpt lat="43.61073997389541" lon="11.192613169202382"><ele>148.0</ele><time>2026-04-26T08:59:19.999Z</time></trkpt><trkpt lat="43.61058740370903" lon="11.192683398375879"><ele>148.0</ele><time>2026-04-26T08:59:20.999Z</time></trkpt><trkpt lat="43.610425218626254" lon="11.192718721960645"><ele>148.0</ele><time>2026-04-26T08:59:21.999Z</time></trkpt><trkpt lat="43.610247208310064" lon="11.192746100845431"><ele>148.0</ele><time>2026-04-26T08:59:22.999Z</time></trkpt><trkpt lat="43.61007457320848" lon="11.192814295858266"><ele>147.33333333333334</ele><time>2026-04-26T08:59:23.999Z</time></trkpt><trkpt lat="43.609909422522165" lon="11.192935838390953"><ele>146.66666666666666</ele><time>2026-04-26T08:59:24.999Z</time></trkpt><trkpt lat="43.60975259355403" lon="11.193106238414558"><ele>146.0</ele><time>2026-04-26T08:59:25.999Z</time></trkpt><trkpt lat="43.609592063084186" lon="11.193258780384681"><ele>147.33333333333331</ele><time>2026-04-26T08:59:26.999Z</time></trkpt><trkpt lat="43.60942626893445" lon="11.19341268540187"><ele>148.66666666666666</ele><time>2026-04-26T08:59:27.999Z</time></trkpt><trkpt lat="43.609258953225144" lon="11.193575829960817"><ele>150.0</ele><time>2026-04-26T08:59:28.999Z</time></trkpt><trkpt lat="43.609096555356935" lon="11.193736283901115"><ele>150.0</ele><time>2026-04-26T08:59:29.999Z</time></trkpt><trkpt lat="43.6089265419998" lon="11.193874695227818"><ele>150.0</ele><time>2026-04-26T08:59:30.999Z</time></trkpt><trkpt lat="43.60874466536695" lon="11.193981200839632"><ele>150.0</ele><time>2026-04-26T08:59:31.999Z</time></trkpt><trkpt lat="43.608561088625876" lon="11.194065602367823"><ele>152.33333333333334</ele><time>2026-04-26T08:59:32.999Z</time></trkpt><trkpt lat="43.608381988349876" lon="11.194149440569078"><ele>154.66666666666669</ele><time>2026-04-26T08:59:33.999Z</time></trkpt><trkpt lat="43.608198671914884" lon="11.194217106760139"><ele>157.0</ele><time>2026-04-26T08:59:34.999Z</time></trkpt><trkpt lat="43.6080163807418" lon="11.194261486261816"><ele>157.0</ele><time>2026-04-26T08:59:35.999Z</time></trkpt><trkpt lat="43.60783557316722" lon="11.19427781913297"><ele>157.0</ele><time>2026-04-26T08:59:36.999Z</time></trkpt><trkpt lat="43.60765848970629" lon="11.194271075734315"><ele>157.0</ele><time>2026-04-26T08:59:37.999Z</time></trkpt><trkpt lat="43.60748779392611" lon="11.194255179027968"><ele>156.33333333333334</ele><time>2026-04-26T08:59:38.999Z</time></trkpt><trkpt lat="43.607320352176046" lon="11.194239899650563"><ele>155.66666666666666</ele><time>2026-04-26T08:59:39.999Z</time></trkpt><trkpt lat="43.60715721269859" lon="11.194226124615914"><ele>155.0</ele><time>2026-04-26T08:59:40.999Z</time></trkpt><trkpt lat="43.606988941201266" lon="11.19421105243795"><ele>154.66666666666666</ele><time>2026-04-26T08:59:41.999Z</time></trkpt><trkpt lat="43.60682707820088" lon="11.194176501913697"><ele>154.33333333333334</ele><time>2026-04-26T08:59:42.999Z</time></trkpt><trkpt lat="43.606653776806176" lon="11.194130495148828"><ele>154.0</ele><time>2026-04-26T08:59:43.999Z</time></trkpt><trkpt lat="43.60648516571546" lon="11.194103500782072"><ele>154.0</ele><time>2026-04-26T08:59:44.999Z</time></trkpt><trkpt lat="43.606312671707286" lon="11.194122159923944"><ele>154.0</ele><time>2026-04-26T08:59:45.999Z</time></trkpt><trkpt lat="43.606138109028706" lon="11.194195220636013"><ele>154.0</ele><time>2026-04-26T08:59:46.999Z</time></trkpt><trkpt lat="43.60596323162525" lon="11.194309277951069"><ele>152.33333333333334</ele><time>2026-04-26T08:59:47.999Z</time></trkpt><trkpt lat="43.60578748977116" lon="11.194421231530583"><ele>150.66666666666666</ele><time>2026-04-26T08:59:48.999Z</time></trkpt><trkpt lat="43.60560648436092" lon="11.19451834361867"><ele>149.0</ele><time>2026-04-26T08:59:49.999Z</time></trkpt><trkpt lat="43.60542548366542" lon="11.19461006581376"><ele>148.33333333333331</ele><time>2026-04-26T08:59:50.999Z</time></trkpt><trkpt lat="43.605247182792404" lon="11.194701797760882"><ele>147.66666666666666</ele><time>2026-04-26T08:59:51.999Z</time></trkpt><trkpt lat="43.60507012898771" lon="11.194792685110162"><ele>147.0</ele><time>2026-04-26T08:59:52.999Z</time></trkpt><trkpt lat="43.60489396646205" lon="11.194874938795413"><ele>148.0</ele><time>2026-04-26T08:59:53.999Z</time></trkpt><trkpt lat="43.604714845021704" lon="11.194944487930968"><ele>149.0</ele><time>2026-04-26T08:59:54.999Z</time></trkpt><trkpt lat="43.604531512753624" lon="11.19500503593614"><ele>150.0</ele><time>2026-04-26T08:59:55.999Z</time></trkpt><trkpt lat="43.60434893299345" lon="11.195063353594028"><ele>150.0</ele><time>2026-04-26T08:59:56.999Z</time></trkpt><trkpt lat="43.60416599223267" lon="11.195121908367245"><ele>150.0</ele><time>2026-04-26T08:59:57.999Z</time></trkpt><trkpt lat="43.60398994800343" lon="11.195177355010133"><ele>150.0</ele><time>2026-04-26T08:59:58.999Z</time></trkpt><trkpt lat="43.603812112114355" lon="11.19523786847635"><ele>149.66666666666666</ele><time>2026-04-26T08:59:59.999Z</time></trkpt><trkpt lat="43.60363350183275" lon="11.195306924981606"><ele>149.33333333333331</ele><time>2026-04-26T09:00:00.999Z</time></trkpt><trkpt lat="43.60345957443012" lon="11.195387206754818"><ele>149.0</ele><time>2026-04-26T09:00:01.999Z</time></trkpt><trkpt lat="43.60328522491136" lon="11.195484561580527"><ele>149.0</ele><time>2026-04-26T09:00:02.999Z</time></trkpt><trkpt lat="43.603114007441434" lon="11.195594561450529"><ele>149.0</ele><time>2026-04-26T09:00:03.999Z</time></trkpt><trkpt lat="43.602947368266534" lon="11.195708075202246"><ele>149.0</ele><time>2026-04-26T09:00:04.999Z</time></trkpt><trkpt lat="43.60278222703977" lon="11.195822857382836"><ele>150.66666666666666</ele><time>2026-04-26T09:00:05.999Z</time></trkpt><trkpt lat="43.60261882796888" lon="11.195941179612271"><ele>152.33333333333334</ele><time>2026-04-26T09:00:06.999Z</time></trkpt><trkpt lat="43.60246412363358" lon="11.196059152113682"><ele>154.0</ele><time>2026-04-26T09:00:07.999Z</time></trkpt><trkpt lat="43.602302555209064" lon="11.196170134259855"><ele>154.0</ele><time>2026-04-26T09:00:08.999Z</time></trkpt><trkpt lat="43.602142394059186" lon="11.196267888071338"><ele>154.0</ele><time>2026-04-26T09:00:09.999Z</time></trkpt><trkpt lat="43.60197806410515" lon="11.19636641864245"><ele>154.0</ele><time>2026-04-26T09:00:10.999Z</time></trkpt><trkpt lat="43.60181524359355" lon="11.196487995976613"><ele>155.33333333333334</ele><time>2026-04-26T09:00:11.999Z</time></trkpt><trkpt lat="43.60167385525059" lon="11.196645217020938"><ele>156.66666666666666</ele><time>2026-04-26T09:00:12.999Z</time></trkpt><trkpt lat="43.60153886525284" lon="11.196819684530332"><ele>158.0</ele><time>2026-04-26T09:00:13.999Z</time></trkpt><trkpt lat="43.60139969949173" lon="11.196985388215856"><ele>158.0</ele><time>2026-04-26T09:00:14.999Z</time></trkpt><trkpt lat="43.60124863824983" lon="11.197133695565272"><ele>158.0</ele><time>2026-04-26T09:00:15.999Z</time></trkpt><trkpt lat="43.60108621500533" lon="11.19725021583897"><ele>158.0</ele><time>2026-04-26T09:00:16.999Z</time></trkpt><trkpt lat="43.60091153738513" lon="11.197343993751389"><ele>158.33333333333331</ele><time>2026-04-26T09:00:17.999Z</time></trkpt><trkpt lat="43.600731752974" lon="11.197421896650626"><ele>158.66666666666666</ele><time>2026-04-26T09:00:18.999Z</time></trkpt><trkpt lat="43.60054681017954" lon="11.197501732468519"><ele>159.0</ele><time>2026-04-26T09:00:19.999Z</time></trkpt><trkpt lat="43.60036865035522" lon="11.197583282957519"><ele>159.0</ele><time>2026-04-26T09:00:20.999Z</time></trkpt><trkpt lat="43.60020868175528" lon="11.1976719327165"><ele>159.0</ele><time>2026-04-26T09:00:21.999Z</time></trkpt><trkpt lat="43.600073375561166" lon="11.197783234440523"><ele>159.0</ele><time>2026-04-26T09:00:22.999Z</time></trkpt><trkpt lat="43.599956929026945" lon="11.19792648501898"><ele>159.0</ele><time>2026-04-26T09:00:24Z</time></trkpt><trkpt lat="43.599840764970324" lon="11.19808161552227"><ele>159.0</ele><time>2026-04-26T09:00:25Z</time></trkpt><trkpt lat="43.599713158636256" lon="11.198222498934534"><ele>159.0</ele><time>2026-04-26T09:00:26Z</time></trkpt><trkpt lat="43.599571383912895" lon="11.198345862590914"><ele>159.0</ele><time>2026-04-26T09:00:27Z</time></trkpt><trkpt lat="43.59941700342919" lon="11.198464945497928"><ele>159.0</ele><time>2026-04-26T09:00:28Z</time></trkpt><trkpt lat="43.59925726600717" lon="11.19859311959991"><ele>159.0</ele><time>2026-04-26T09:00:29Z</time></trkpt><trkpt lat="43.599102534110536" lon="11.198729249563954"><ele>159.0</ele><time>2026-04-26T09:00:30Z</time></trkpt><trkpt lat="43.59894225965475" lon="11.198857079013285"><ele>159.0</ele><time>2026-04-26T09:00:31Z</time></trkpt><trkpt lat="43.59877682342912" lon="11.19896035865527"><ele>159.0</ele><time>2026-04-26T09:00:32Z</time></trkpt><trkpt lat="43.59861813002467" lon="11.199042774731426"><ele>159.5</ele><time>2026-04-26T09:00:33Z</time></trkpt><trkpt lat="43.598474411392786" lon="11.199120715971414"><ele>160.0</ele><time>2026-04-26T09:00:34Z</time></trkpt><trkpt lat="43.59835453094758" lon="11.199228315463127"><ele>160.5</ele><time>2026-04-26T09:00:35Z</time></trkpt><trkpt lat="43.59825136114125" lon="11.199370898716495"><ele>161.0</ele><time>2026-04-26T09:00:36Z</time></trkpt><trkpt lat="43.59815120277769" lon="11.199530119384491"><ele>161.0</ele><time>2026-04-26T09:00:37Z</time></trkpt><trkpt lat="43.59804477460025" lon="11.199702569352748"><ele>161.0</ele><time>2026-04-26T09:00:38Z</time></trkpt><trkpt lat="43.59793500322065" lon="11.19987296717142"><ele>161.0</ele><time>2026-04-26T09:00:39Z</time></trkpt><trkpt lat="43.59782379337927" lon="11.200044470333532"><ele>160.66666666666666</ele><time>2026-04-26T09:00:40Z</time></trkpt><trkpt lat="43.59771263712772" lon="11.200221863913885"><ele>160.33333333333334</ele><time>2026-04-26T09:00:41Z</time></trkpt><trkpt lat="43.59760367714831" lon="11.200405891031957"><ele>160.0</ele><time>2026-04-26T09:00:42Z</time></trkpt><trkpt lat="43.59750019523685" lon="11.200595031587804"><ele>161.66666666666669</ele><time>2026-04-26T09:00:43Z</time></trkpt><trkpt lat="43.59740195346986" lon="11.200789723867082"><ele>163.33333333333334</ele><time>2026-04-26T09:00:44Z</time></trkpt><trkpt lat="43.59730206906956" lon="11.200985006052255"><ele>165.0</ele><time>2026-04-26T09:00:45Z</time></trkpt><trkpt lat="43.59719929924925" lon="11.201164250401714"><ele>165.0</ele><time>2026-04-26T09:00:46Z</time></trkpt><trkpt lat="43.59708932372388" lon="11.201337536396064"><ele>165.0</ele><time>2026-04-26T09:00:47Z</time></trkpt><trkpt lat="43.59698291463718" lon="11.201498967780472"><ele>165.0</ele><time>2026-04-26T09:00:48Z</time></trkpt><trkpt lat="43.59688138576235" lon="11.201656514619563"><ele>164.25</ele><time>2026-04-26T09:00:49Z</time></trkpt><trkpt lat="43.59678690323502" lon="11.201800499210767"><ele>163.5</ele><time>2026-04-26T09:00:50Z</time></trkpt><trkpt lat="43.596692380154245" lon="11.201938014842431"><ele>162.75</ele><time>2026-04-26T09:00:51Z</time></trkpt><trkpt lat="43.59660298692716" lon="11.202063979972822"><ele>162.0</ele><time>2026-04-26T09:00:52Z</time></trkpt><trkpt lat="43.59650925008289" lon="11.202184869235252"><ele>162.0</ele><time>2026-04-26T09:00:53Z</time></trkpt><trkpt lat="43.596405971655116" lon="11.202291774546602"><ele>162.0</ele><time>2026-04-26T09:00:54Z</time></trkpt><trkpt lat="43.59628022653479" lon="11.202370127030388"><ele>162.0</ele><time>2026-04-26T09:00:55Z</time></trkpt><trkpt lat="43.59613867067775" lon="11.20239581683903"><ele>162.0</ele><time>2026-04-26T09:00:56Z</time></trkpt><trkpt lat="43.59600375610571" lon="11.202408409138744"><ele>163.0</ele><time>2026-04-26T09:00:57Z</time></trkpt><trkpt lat="43.595878872555886" lon="11.20241940164334"><ele>164.0</ele><time>2026-04-26T09:00:58Z</time></trkpt><trkpt lat="43.59575853375865" lon="11.202434454868943"><ele>165.0</ele><time>2026-04-26T09:00:59Z</time></trkpt><trkpt lat="43.59563847997772" lon="11.202439755958979"><ele>166.0</ele><time>2026-04-26T09:01:00Z</time></trkpt><trkpt lat="43.595516939320476" lon="11.2024185218671"><ele>166.0</ele><time>2026-04-26T09:01:01Z</time></trkpt><trkpt lat="43.59540012713166" lon="11.202344654149792"><ele>166.0</ele><time>2026-04-26T09:01:02Z</time></trkpt><trkpt lat="43.595271050023214" lon="11.202303273364041"><ele>166.0</ele><time>2026-04-26T09:01:03Z</time></trkpt><trkpt lat="43.59514608600995" lon="11.202237783455898"><ele>166.0</ele><time>2026-04-26T09:01:04Z</time></trkpt><trkpt lat="43.5950163178935" lon="11.202177651489727"><ele>164.0</ele><time>2026-04-26T09:01:05Z</time></trkpt><trkpt lat="43.59488663027538" lon="11.202119323239938"><ele>162.0</ele><time>2026-04-26T09:01:06Z</time></trkpt><trkpt lat="43.59475921321846" lon="11.202070701349887"><ele>160.0</ele><time>2026-04-26T09:01:07Z</time></trkpt><trkpt lat="43.59464103165521" lon="11.202021281512824"><ele>158.0</ele><time>2026-04-26T09:01:08Z</time></trkpt><trkpt lat="43.59453237874335" lon="11.201967685608835"><ele>158.66666666666666</ele><time>2026-04-26T09:01:09Z</time></trkpt><trkpt lat="43.594433669592576" lon="11.201920304432168"><ele>159.33333333333331</ele><time>2026-04-26T09:01:10Z</time></trkpt><trkpt lat="43.59435626456166" lon="11.201860678849995"><ele>160.0</ele><time>2026-04-26T09:01:11Z</time></trkpt><trkpt lat="43.594288670894734" lon="11.20181679224994"><ele>160.66666666666666</ele><time>2026-04-26T09:01:12Z</time></trkpt><trkpt lat="43.59422713212069" lon="11.20177375231669"><ele>161.33333333333334</ele><time>2026-04-26T09:01:13Z</time></trkpt><trkpt lat="43.59417201379456" lon="11.201729711820747"><ele>162.0</ele><time>2026-04-26T09:01:14Z</time></trkpt><trkpt lat="43.594095224880995" lon="11.201669215445364"><ele>162.0</ele><time>2026-04-26T09:01:16Z</time></trkpt><trkpt lat="43.59401362504037" lon="11.201935105863235"><ele>162.0</ele><time>2026-04-26T09:01:17Z</time></trkpt><trkpt lat="43.593949442459824" lon="11.202026596129976"><ele>162.0</ele><time>2026-04-26T09:01:18Z</time></trkpt><trkpt lat="43.59389391604319" lon="11.202150352890236"><ele>162.0</ele><time>2026-04-26T09:01:19Z</time></trkpt><trkpt lat="43.59380777957388" lon="11.202277948371895"><ele>162.0</ele><time>2026-04-26T09:01:20Z</time></trkpt><trkpt lat="43.59370371573284" lon="11.202401451221867"><ele>162.0</ele><time>2026-04-26T09:01:21Z</time></trkpt><trkpt lat="43.59358747330313" lon="11.202530170814525"><ele>162.0</ele><time>2026-04-26T09:01:21.999Z</time></trkpt><trkpt lat="43.59346666540746" lon="11.20266834306734"><ele>162.0</ele><time>2026-04-26T09:01:22.999Z</time></trkpt><trkpt lat="43.59334004825455" lon="11.202813685458716"><ele>162.0</ele><time>2026-04-26T09:01:23.999Z</time></trkpt><trkpt lat="43.59320152940319" lon="11.202963211553554"><ele>162.0</ele><time>2026-04-26T09:01:24.999Z</time></trkpt><trkpt lat="43.59304859032436" lon="11.2031140051574"><ele>162.0</ele><time>2026-04-26T09:01:25.999Z</time></trkpt><trkpt lat="43.592895928104255" lon="11.203265495794263"><ele>160.66666666666666</ele><time>2026-04-26T09:01:26.999Z</time></trkpt><trkpt lat="43.5927468519538" lon="11.203431532225345"><ele>159.33333333333331</ele><time>2026-04-26T09:01:27.999Z</time></trkpt><trkpt lat="43.59260454419758" lon="11.203603532918542"><ele>158.0</ele><time>2026-04-26T09:01:28.999Z</time></trkpt><trkpt lat="43.59246280494662" lon="11.203781723377167"><ele>158.0</ele><time>2026-04-26T09:01:29.999Z</time></trkpt><trkpt lat="43.59232469781544" lon="11.203956964131654"><ele>158.0</ele><time>2026-04-26T09:01:30.999Z</time></trkpt><trkpt lat="43.59218759402928" lon="11.204127246628158"><ele>158.0</ele><time>2026-04-26T09:01:31.999Z</time></trkpt><trkpt lat="43.59205060300389" lon="11.20429298490872"><ele>159.66666666666666</ele><time>2026-04-26T09:01:32.999Z</time></trkpt><trkpt lat="43.59191658196697" lon="11.204454402373363"><ele>161.33333333333334</ele><time>2026-04-26T09:01:33.999Z</time></trkpt><trkpt lat="43.591782622210495" lon="11.204617957607438"><ele>163.0</ele><time>2026-04-26T09:01:34.999Z</time></trkpt><trkpt lat="43.59165533782248" lon="11.204777015390633"><ele>164.33333333333334</ele><time>2026-04-26T09:01:35.999Z</time></trkpt><trkpt lat="43.59153237442795" lon="11.204933502793473"><ele>165.66666666666666</ele><time>2026-04-26T09:01:36.999Z</time></trkpt><trkpt lat="43.59141758318341" lon="11.205083871323398"><ele>167.0</ele><time>2026-04-26T09:01:37.999Z</time></trkpt><trkpt lat="43.59130471839376" lon="11.20522420337454"><ele>167.0</ele><time>2026-04-26T09:01:38.999Z</time></trkpt><trkpt lat="43.59118436606376" lon="11.205344094185833"><ele>167.0</ele><time>2026-04-26T09:01:39.999Z</time></trkpt><trkpt lat="43.59105407936875" lon="11.205419194070101"><ele>167.0</ele><time>2026-04-26T09:01:40.999Z</time></trkpt><trkpt lat="43.59092451509373" lon="11.205485934357405"><ele>167.0</ele><time>2026-04-26T09:01:41.999Z</time></trkpt><trkpt lat="43.59081107865759" lon="11.205589177282956"><ele>168.5</ele><time>2026-04-26T09:01:42.999Z</time></trkpt><trkpt lat="43.59072659886228" lon="11.205736366911506"><ele>170.0</ele><time>2026-04-26T09:01:43.999Z</time></trkpt><trkpt lat="43.590647597941064" lon="11.205903668917749"><ele>171.5</ele><time>2026-04-26T09:01:44.999Z</time></trkpt><trkpt lat="43.59056026848859" lon="11.20606275034284"><ele>173.0</ele><time>2026-04-26T09:01:45.999Z</time></trkpt><trkpt lat="43.59046519749965" lon="11.206220337171281"><ele>173.0</ele><time>2026-04-26T09:01:46.999Z</time></trkpt><trkpt lat="43.590365552599785" lon="11.206372243467186"><ele>173.0</ele><time>2026-04-26T09:01:47.999Z</time></trkpt><trkpt lat="43.590266850425216" lon="11.206527231257827"><ele>173.0</ele><time>2026-04-26T09:01:48.999Z</time></trkpt><trkpt lat="43.59016621345517" lon="11.206689740238131"><ele>173.66666666666666</ele><time>2026-04-26T09:01:49.999Z</time></trkpt><trkpt lat="43.590067687039024" lon="11.20685492768122"><ele>174.33333333333334</ele><time>2026-04-26T09:01:50.999Z</time></trkpt><trkpt lat="43.58996228741997" lon="11.20702363299462"><ele>175.0</ele><time>2026-04-26T09:01:51.999Z</time></trkpt><trkpt lat="43.589855563823356" lon="11.20718478224974"><ele>177.0</ele><time>2026-04-26T09:01:52.999Z</time></trkpt><trkpt lat="43.58973923861313" lon="11.207342636682462"><ele>179.0</ele><time>2026-04-26T09:01:53.999Z</time></trkpt><trkpt lat="43.589615543444815" lon="11.207483891421829"><ele>181.0</ele><time>2026-04-26T09:01:54.999Z</time></trkpt><trkpt lat="43.58947237457453" lon="11.207596506339687"><ele>181.0</ele><time>2026-04-26T09:01:55.999Z</time></trkpt><trkpt lat="43.5893161682317" lon="11.207659082428457"><ele>181.0</ele><time>2026-04-26T09:01:56.999Z</time></trkpt><trkpt lat="43.58916006812225" lon="11.207716791228703"><ele>181.0</ele><time>2026-04-26T09:01:57.999Z</time></trkpt><trkpt lat="43.58901067084363" lon="11.207774037671378"><ele>181.0</ele><time>2026-04-26T09:01:58.999Z</time></trkpt><trkpt lat="43.588869106168914" lon="11.207831812601935"><ele>181.0</ele><time>2026-04-26T09:01:59.999Z</time></trkpt><trkpt lat="43.588737877838334" lon="11.207891754317888"><ele>181.0</ele><time>2026-04-26T09:02:00.999Z</time></trkpt><trkpt lat="43.588606090104776" lon="11.207945734596873"><ele>181.0</ele><time>2026-04-26T09:02:01.999Z</time></trkpt><trkpt lat="43.58847639686055" lon="11.207998391278888"><ele>182.0</ele><time>2026-04-26T09:02:02.999Z</time></trkpt><trkpt lat="43.58834615240053" lon="11.208049571628663"><ele>183.0</ele><time>2026-04-26T09:02:03.999Z</time></trkpt><trkpt lat="43.58821771590034" lon="11.208107067323052"><ele>184.0</ele><time>2026-04-26T09:02:04.999Z</time></trkpt><trkpt lat="43.58808514991774" lon="11.20817113893667"><ele>185.0</ele><time>2026-04-26T09:02:05.999Z</time></trkpt><trkpt lat="43.587940922398644" lon="11.20824055126081"><ele>182.66666666666666</ele><time>2026-04-26T09:02:06.999Z</time></trkpt><trkpt lat="43.587800167040314" lon="11.208322029612768"><ele>180.33333333333334</ele><time>2026-04-26T09:02:07.999Z</time></trkpt><trkpt lat="43.58765543865657" lon="11.208430467029336"><ele>178.0</ele><time>2026-04-26T09:02:08.999Z</time></trkpt><trkpt lat="43.58750792173684" lon="11.208541025580411"><ele>178.0</ele><time>2026-04-26T09:02:09.999Z</time></trkpt><trkpt lat="43.587351888578446" lon="11.208652671049306"><ele>178.0</ele><time>2026-04-26T09:02:10.999Z</time></trkpt><trkpt lat="43.58718678459073" lon="11.208760327743851"><ele>178.0</ele><time>2026-04-26T09:02:11.999Z</time></trkpt><trkpt lat="43.587023191200714" lon="11.208859915903979"><ele>179.0</ele><time>2026-04-26T09:02:12.999Z</time></trkpt><trkpt lat="43.586856193947106" lon="11.208958545318868"><ele>180.0</ele><time>2026-04-26T09:02:13.999Z</time></trkpt><trkpt lat="43.586691484224644" lon="11.209059039957953"><ele>181.0</ele><time>2026-04-26T09:02:14.999Z</time></trkpt><trkpt lat="43.58652938196344" lon="11.209161076453059"><ele>181.0</ele><time>2026-04-26T09:02:15.999Z</time></trkpt><trkpt lat="43.58637082518208" lon="11.209260907586057"><ele>181.0</ele><time>2026-04-26T09:02:16.999Z</time></trkpt><trkpt lat="43.58621153778936" lon="11.209356473827595"><ele>181.0</ele><time>2026-04-26T09:02:17.999Z</time></trkpt><trkpt lat="43.58605006209469" lon="11.209457801085609"><ele>179.0</ele><time>2026-04-26T09:02:18.999Z</time></trkpt><trkpt lat="43.58588886701722" lon="11.209555715667209"><ele>177.0</ele><time>2026-04-26T09:02:19.999Z</time></trkpt><trkpt lat="43.585725870484104" lon="11.209661408366616"><ele>175.0</ele><time>2026-04-26T09:02:20.999Z</time></trkpt><trkpt lat="43.58556770710024" lon="11.209765393413694"><ele>174.33333333333334</ele><time>2026-04-26T09:02:21.999Z</time></trkpt><trkpt lat="43.585404678417014" lon="11.209867736562996"><ele>173.66666666666666</ele><time>2026-04-26T09:02:22.999Z</time></trkpt><trkpt lat="43.5852457483955" lon="11.20997190584776"><ele>173.0</ele><time>2026-04-26T09:02:23.999Z</time></trkpt><trkpt lat="43.585085211136395" lon="11.210078083605762"><ele>173.0</ele><time>2026-04-26T09:02:24.999Z</time></trkpt><trkpt lat="43.58491410473994" lon="11.210190621013105"><ele>173.0</ele><time>2026-04-26T09:02:25.999Z</time></trkpt><trkpt lat="43.584748905092205" lon="11.21029582352205"><ele>173.0</ele><time>2026-04-26T09:02:26.999Z</time></trkpt><trkpt lat="43.584579482251236" lon="11.210400595403684"><ele>173.0</ele><time>2026-04-26T09:02:27.999Z</time></trkpt><trkpt lat="43.58440841264488" lon="11.210504158270297"><ele>173.0</ele><time>2026-04-26T09:02:28.999Z</time></trkpt><trkpt lat="43.58423852864137" lon="11.210615902892032"><ele>173.0</ele><time>2026-04-26T09:02:30Z</time></trkpt><trkpt lat="43.58407029413017" lon="11.210728740027841"><ele>173.33333333333331</ele><time>2026-04-26T09:02:31Z</time></trkpt><trkpt lat="43.58390287798874" lon="11.210848764985853"><ele>173.66666666666666</ele><time>2026-04-26T09:02:32Z</time></trkpt><trkpt lat="43.58374091332733" lon="11.210981203665444"><ele>174.0</ele><time>2026-04-26T09:02:33Z</time></trkpt><trkpt lat="43.583590949690866" lon="11.211119161302031"><ele>174.0</ele><time>2026-04-26T09:02:34Z</time></trkpt><trkpt lat="43.58343759207837" lon="11.211239510102526"><ele>174.0</ele><time>2026-04-26T09:02:35Z</time></trkpt><trkpt lat="43.583267418603995" lon="11.211330594944036"><ele>174.0</ele><time>2026-04-26T09:02:36Z</time></trkpt><trkpt lat="43.5830910629937" lon="11.211396711344715"><ele>174.0</ele><time>2026-04-26T09:02:37Z</time></trkpt><trkpt lat="43.58291237787188" lon="11.211461765940875"><ele>174.0</ele><time>2026-04-26T09:02:38Z</time></trkpt><trkpt lat="43.58273615728858" lon="11.211532726532287"><ele>174.0</ele><time>2026-04-26T09:02:39Z</time></trkpt><trkpt lat="43.58255613726816" lon="11.21161508479975"><ele>175.33333333333334</ele><time>2026-04-26T09:02:40Z</time></trkpt><trkpt lat="43.58237627290709" lon="11.211698667871044"><ele>176.66666666666669</ele><time>2026-04-26T09:02:41Z</time></trkpt><trkpt lat="43.58219636379369" lon="11.211784272275949"><ele>178.0</ele><time>2026-04-26T09:02:42Z</time></trkpt><trkpt lat="43.58201532567126" lon="11.211872244267958"><ele>177.33333333333334</ele><time>2026-04-26T09:02:43Z</time></trkpt><trkpt lat="43.58183364730913" lon="11.211957563937169"><ele>176.66666666666666</ele><time>2026-04-26T09:02:44Z</time></trkpt><trkpt lat="43.58165643268307" lon="11.212032039970063"><ele>176.0</ele><time>2026-04-26T09:02:45Z</time></trkpt><trkpt lat="43.5814831111637" lon="11.212054482874125"><ele>176.0</ele><time>2026-04-26T09:02:46Z</time></trkpt><trkpt lat="43.58132366177059" lon="11.212068460740193"><ele>176.0</ele><time>2026-04-26T09:02:47Z</time></trkpt><trkpt lat="43.58117878401317" lon="11.21200949495824"><ele>176.0</ele><time>2026-04-26T09:02:48Z</time></trkpt><trkpt lat="43.581040012375254" lon="11.211959537350427"><ele>175.33333333333331</ele><time>2026-04-26T09:02:49Z</time></trkpt><trkpt lat="43.58089672018058" lon="11.21195021193312"><ele>174.66666666666666</ele><time>2026-04-26T09:02:50Z</time></trkpt><trkpt lat="43.58074438284758" lon="11.211978489305546"><ele>174.0</ele><time>2026-04-26T09:02:51Z</time></trkpt><trkpt lat="43.58058983317532" lon="11.212015927613484"><ele>174.0</ele><time>2026-04-26T09:02:52Z</time></trkpt><trkpt lat="43.58043211842953" lon="11.212051037439153"><ele>174.0</ele><time>2026-04-26T09:02:53Z</time></trkpt><trkpt lat="43.58027356384247" lon="11.212079211397096"><ele>174.0</ele><time>2026-04-26T09:02:54Z</time></trkpt><trkpt lat="43.58011697685263" lon="11.212103787431792"><ele>174.0</ele><time>2026-04-26T09:02:55Z</time></trkpt><trkpt lat="43.57996443852874" lon="11.212129073434967"><ele>174.0</ele><time>2026-04-26T09:02:56Z</time></trkpt><trkpt lat="43.579815421333265" lon="11.212167966471958"><ele>174.0</ele><time>2026-04-26T09:02:57Z</time></trkpt><trkpt lat="43.57967205978342" lon="11.212236399963276"><ele>174.0</ele><time>2026-04-26T09:02:58Z</time></trkpt><trkpt lat="43.57952582938402" lon="11.212318789492652"><ele>174.0</ele><time>2026-04-26T09:02:59Z</time></trkpt><trkpt lat="43.57937942999089" lon="11.212395955216076"><ele>174.0</ele><time>2026-04-26T09:03:00Z</time></trkpt><trkpt lat="43.579222119176464" lon="11.212463956709101"><ele>174.33333333333334</ele><time>2026-04-26T09:03:01Z</time></trkpt><trkpt lat="43.57907063229511" lon="11.212534120580042"><ele>174.66666666666669</ele><time>2026-04-26T09:03:02Z</time></trkpt><trkpt lat="43.57891591759485" lon="11.212613824713431"><ele>175.0</ele><time>2026-04-26T09:03:03Z</time></trkpt><trkpt lat="43.57876442900624" lon="11.21269747489624"><ele>173.66666666666669</ele><time>2026-04-26T09:03:04Z</time></trkpt><trkpt lat="43.578621633294" lon="11.212792032800428"><ele>172.33333333333334</ele><time>2026-04-26T09:03:05Z</time></trkpt><trkpt lat="43.57848916099279" lon="11.21290953495993"><ele>171.0</ele><time>2026-04-26T09:03:06Z</time></trkpt><trkpt lat="43.578367886963484" lon="11.213048691318688"><ele>172.66666666666666</ele><time>2026-04-26T09:03:07Z</time></trkpt><trkpt lat="43.57825637949021" lon="11.21319722959148"><ele>174.33333333333331</ele><time>2026-04-26T09:03:08Z</time></trkpt><trkpt lat="43.578151465886684" lon="11.213351231602608"><ele>176.0</ele><time>2026-04-26T09:03:09Z</time></trkpt><trkpt lat="43.578043306356804" lon="11.213509518600453"><ele>176.0</ele><time>2026-04-26T09:03:10Z</time></trkpt><trkpt lat="43.57793632892627" lon="11.213663420821248"><ele>176.0</ele><time>2026-04-26T09:03:11Z</time></trkpt><trkpt lat="43.57782391270641" lon="11.213814244351857"><ele>176.0</ele><time>2026-04-26T09:03:12Z</time></trkpt><trkpt lat="43.57770989213145" lon="11.213963741979736"><ele>175.66666666666666</ele><time>2026-04-26T09:03:13Z</time></trkpt><trkpt lat="43.57760092921416" lon="11.214110927691642"><ele>175.33333333333334</ele><time>2026-04-26T09:03:14Z</time></trkpt><trkpt lat="43.577487300277696" lon="11.214255932441006"><ele>175.0</ele><time>2026-04-26T09:03:15Z</time></trkpt><trkpt lat="43.57736290873575" lon="11.214380557200473"><ele>175.0</ele><time>2026-04-26T09:03:16Z</time></trkpt><trkpt lat="43.57722242487611" lon="11.21447217233538"><ele>175.0</ele><time>2026-04-26T09:03:17Z</time></trkpt><trkpt lat="43.57707504053734" lon="11.214549404476566"><ele>175.0</ele><time>2026-04-26T09:03:18Z</time></trkpt><trkpt lat="43.57691279783537" lon="11.214586739163273"><ele>174.33333333333334</ele><time>2026-04-26T09:03:19Z</time></trkpt><trkpt lat="43.57675733934455" lon="11.21464982412598"><ele>173.66666666666666</ele><time>2026-04-26T09:03:20Z</time></trkpt><trkpt lat="43.576610569110194" lon="11.214744813818795"><ele>173.0</ele><time>2026-04-26T09:03:21Z</time></trkpt><trkpt lat="43.57645868255132" lon="11.21481149355815"><ele>174.33333333333331</ele><time>2026-04-26T09:03:22Z</time></trkpt><trkpt lat="43.576310551787714" lon="11.214878691507987"><ele>175.66666666666666</ele><time>2026-04-26T09:03:23Z</time></trkpt><trkpt lat="43.57616176487196" lon="11.214943336776987"><ele>177.0</ele><time>2026-04-26T09:03:24Z</time></trkpt><trkpt lat="43.57601594277712" lon="11.215008333590264"><ele>177.0</ele><time>2026-04-26T09:03:25Z</time></trkpt><trkpt lat="43.57587336851033" lon="11.215067694543663"><ele>177.0</ele><time>2026-04-26T09:03:26Z</time></trkpt><trkpt lat="43.57573091917221" lon="11.215128018272942"><ele>177.0</ele><time>2026-04-26T09:03:27Z</time></trkpt><trkpt lat="43.5755843920997" lon="11.21519043672224"><ele>177.0</ele><time>2026-04-26T09:03:28Z</time></trkpt><trkpt lat="43.575434631377966" lon="11.215257222581053"><ele>177.0</ele><time>2026-04-26T09:03:29Z</time></trkpt><trkpt lat="43.57528042806113" lon="11.21532746234644"><ele>177.0</ele><time>2026-04-26T09:03:30Z</time></trkpt><trkpt lat="43.57512985136693" lon="11.215390695440897"><ele>176.66666666666666</ele><time>2026-04-26T09:03:30.999Z</time></trkpt><trkpt lat="43.574971422854716" lon="11.215454225412676"><ele>176.33333333333331</ele><time>2026-04-26T09:03:31.999Z</time></trkpt><trkpt lat="43.574808312032054" lon="11.215515718271668"><ele>176.0</ele><time>2026-04-26T09:03:32.999Z</time></trkpt><trkpt lat="43.57464652085204" lon="11.215579406275515"><ele>175.66666666666666</ele><time>2026-04-26T09:03:33.999Z</time></trkpt><trkpt lat="43.57448031256279" lon="11.215648113844066"><ele>175.33333333333334</ele><time>2026-04-26T09:03:34.999Z</time></trkpt><trkpt lat="43.57431560778128" lon="11.215717490243268"><ele>175.0</ele><time>2026-04-26T09:03:35.999Z</time></trkpt><trkpt lat="43.57415114760334" lon="11.21578999823387"><ele>175.66666666666669</ele><time>2026-04-26T09:03:36.999Z</time></trkpt><trkpt lat="43.573987602724685" lon="11.215862543805539"><ele>176.33333333333334</ele><time>2026-04-26T09:03:37.999Z</time></trkpt><trkpt lat="43.57382567534942" lon="11.215936134296024"><ele>177.0</ele><time>2026-04-26T09:03:38.999Z</time></trkpt><trkpt lat="43.57366397745298" lon="11.216017359954987"><ele>177.66666666666666</ele><time>2026-04-26T09:03:39.999Z</time></trkpt><trkpt lat="43.573507467926646" lon="11.21611787904225"><ele>178.33333333333331</ele><time>2026-04-26T09:03:40.999Z</time></trkpt><trkpt lat="43.57335407807597" lon="11.216238776367799"><ele>179.0</ele><time>2026-04-26T09:03:41.999Z</time></trkpt><trkpt lat="43.57320197289583" lon="11.216355573626878"><ele>179.0</ele><time>2026-04-26T09:03:42.999Z</time></trkpt><trkpt lat="43.57304612969862" lon="11.216452447760478"><ele>179.0</ele><time>2026-04-26T09:03:43.999Z</time></trkpt><trkpt lat="43.5728858447454" lon="11.216518374895196"><ele>179.0</ele><time>2026-04-26T09:03:44.999Z</time></trkpt><trkpt lat="43.572727122225594" lon="11.216560133627413"><ele>181.0</ele><time>2026-04-26T09:03:45.999Z</time></trkpt><trkpt lat="43.572568879613335" lon="11.216573070014334"><ele>183.0</ele><time>2026-04-26T09:03:46.999Z</time></trkpt><trkpt lat="43.57241294443571" lon="11.21655459377948"><ele>185.0</ele><time>2026-04-26T09:03:47.999Z</time></trkpt><trkpt lat="43.57226303676371" lon="11.216511802204748"><ele>183.75</ele><time>2026-04-26T09:03:48.999Z</time></trkpt><trkpt lat="43.57212575139409" lon="11.216442444120343"><ele>182.5</ele><time>2026-04-26T09:03:49.999Z</time></trkpt><trkpt lat="43.57199207878095" lon="11.216360252661104"><ele>181.25</ele><time>2026-04-26T09:03:50.999Z</time></trkpt><trkpt lat="43.57186857215494" lon="11.216254731651096"><ele>180.0</ele><time>2026-04-26T09:03:51.999Z</time></trkpt><trkpt lat="43.571775566421586" lon="11.216115007180514"><ele>180.0</ele><time>2026-04-26T09:03:52.999Z</time></trkpt><trkpt lat="43.57167836323763" lon="11.216016882792626"><ele>180.0</ele><time>2026-04-26T09:03:53.999Z</time></trkpt><trkpt lat="43.57159984905523" lon="11.215904895818294"><ele>180.0</ele><time>2026-04-26T09:03:54.999Z</time></trkpt><trkpt lat="43.57152830650536" lon="11.215803888283581"><ele>180.0</ele><time>2026-04-26T09:03:55.999Z</time></trkpt><trkpt lat="43.57147007349936" lon="11.215689346248157"><ele>180.0</ele><time>2026-04-26T09:03:56.999Z</time></trkpt><trkpt lat="43.57140514782218" lon="11.215596329632554"><ele>179.83333333333334</ele><time>2026-04-26T09:03:57.999Z</time></trkpt><trkpt lat="43.57134125460953" lon="11.215506966315075"><ele>179.66666666666666</ele><time>2026-04-26T09:03:58.999Z</time></trkpt><trkpt lat="43.571285411863435" lon="11.215429344492426"><ele>179.5</ele><time>2026-04-26T09:03:59.999Z</time></trkpt><trkpt lat="43.571231166970094" lon="11.215355096196674"><ele>179.33333333333331</ele><time>2026-04-26T09:04:00.999Z</time></trkpt><trkpt lat="43.57117999867895" lon="11.215286174261772"><ele>179.16666666666666</ele><time>2026-04-26T09:04:01.999Z</time></trkpt><trkpt lat="43.57111774734201" lon="11.215211694267376"><ele>179.0</ele><time>2026-04-26T09:04:02.999Z</time></trkpt><trkpt lat="43.57103654645042" lon="11.215156643232012"><ele>179.6</ele><time>2026-04-26T09:04:03.999Z</time></trkpt><trkpt lat="43.57095108662082" lon="11.215078370337183"><ele>180.2</ele><time>2026-04-26T09:04:04.999Z</time></trkpt><trkpt lat="43.57085644004736" lon="11.215013719898774"><ele>180.79999999999998</ele><time>2026-04-26T09:04:05.999Z</time></trkpt><trkpt lat="43.57074905017343" lon="11.214968122164679"><ele>181.39999999999998</ele><time>2026-04-26T09:04:06.999Z</time></trkpt><trkpt lat="43.570631245080484" lon="11.214946072789319"><ele>182.0</ele><time>2026-04-26T09:04:07.999Z</time></trkpt><trkpt lat="43.57051422465126" lon="11.214942740391237"><ele>182.0</ele><time>2026-04-26T09:04:08.999Z</time></trkpt><trkpt lat="43.57040144478112" lon="11.214950738284095"><ele>182.0</ele><time>2026-04-26T09:04:09.999Z</time></trkpt><trkpt lat="43.57028567983066" lon="11.214991684148819"><ele>182.0</ele><time>2026-04-26T09:04:10.999Z</time></trkpt><trkpt lat="43.57016095742745" lon="11.21505079840439"><ele>182.0</ele><time>2026-04-26T09:04:11.999Z</time></trkpt><trkpt lat="43.570026314243805" lon="11.21511047367472"><ele>183.33333333333331</ele><time>2026-04-26T09:04:12.999Z</time></trkpt><trkpt lat="43.56987583567338" lon="11.21516840602178"><ele>184.66666666666666</ele><time>2026-04-26T09:04:13.999Z</time></trkpt><trkpt lat="43.56971774924658" lon="11.21523058619022"><ele>186.0</ele><time>2026-04-26T09:04:14.999Z</time></trkpt><trkpt lat="43.569556720929526" lon="11.215288863133738"><ele>189.66666666666669</ele><time>2026-04-26T09:04:15.999Z</time></trkpt><trkpt lat="43.56938712606147" lon="11.215350198362547"><ele>193.33333333333334</ele><time>2026-04-26T09:04:16.999Z</time></trkpt><trkpt lat="43.56921123211091" lon="11.215416933754405"><ele>197.0</ele><time>2026-04-26T09:04:17.999Z</time></trkpt><trkpt lat="43.56902628499652" lon="11.215483715290492"><ele>197.0</ele><time>2026-04-26T09:04:18.999Z</time></trkpt><trkpt lat="43.568846158879154" lon="11.215555538461087"><ele>197.0</ele><time>2026-04-26T09:04:19.999Z</time></trkpt><trkpt lat="43.568660338713606" lon="11.215628576875934"><ele>197.0</ele><time>2026-04-26T09:04:20.999Z</time></trkpt><trkpt lat="43.56847917506909" lon="11.215700456720773"><ele>194.33333333333334</ele><time>2026-04-26T09:04:21.999Z</time></trkpt><trkpt lat="43.56830173752848" lon="11.215771990908886"><ele>191.66666666666669</ele><time>2026-04-26T09:04:22.999Z</time></trkpt><trkpt lat="43.56813577626981" lon="11.215837594629964"><ele>189.0</ele><time>2026-04-26T09:04:23.999Z</time></trkpt><trkpt lat="43.567973677590345" lon="11.21589699667713"><ele>192.0</ele><time>2026-04-26T09:04:24.999Z</time></trkpt><trkpt lat="43.56780554935025" lon="11.21595209529262"><ele>195.0</ele><time>2026-04-26T09:04:25.999Z</time></trkpt><trkpt lat="43.56763550853427" lon="11.215999345043379"><ele>198.0</ele><time>2026-04-26T09:04:26.999Z</time></trkpt><trkpt lat="43.567461819404706" lon="11.216044160004785"><ele>198.0</ele><time>2026-04-26T09:04:27.999Z</time></trkpt><trkpt lat="43.567280664905844" lon="11.216085540727402"><ele>198.0</ele><time>2026-04-26T09:04:28.999Z</time></trkpt><trkpt lat="43.56709836867671" lon="11.216124072904556"><ele>198.0</ele><time>2026-04-26T09:04:29.999Z</time></trkpt><trkpt lat="43.5669094872281" lon="11.216162969900283"><ele>201.0</ele><time>2026-04-26T09:04:30.999Z</time></trkpt><trkpt lat="43.56672107083354" lon="11.216203723686364"><ele>204.0</ele><time>2026-04-26T09:04:31.999Z</time></trkpt><trkpt lat="43.56653043260096" lon="11.216245331739742"><ele>207.0</ele><time>2026-04-26T09:04:32.999Z</time></trkpt><trkpt lat="43.56633988713002" lon="11.216294838747569"><ele>206.0</ele><time>2026-04-26T09:04:33.999Z</time></trkpt><trkpt lat="43.56614732946137" lon="11.216363301959804"><ele>205.0</ele><time>2026-04-26T09:04:34.999Z</time></trkpt><trkpt lat="43.56595948570251" lon="11.216441037756029"><ele>204.0</ele><time>2026-04-26T09:04:36Z</time></trkpt><trkpt lat="43.56577008381748" lon="11.216521053912789"><ele>204.0</ele><time>2026-04-26T09:04:37Z</time></trkpt><trkpt lat="43.56558500164091" lon="11.216601236699075"><ele>204.0</ele><time>2026-04-26T09:04:38Z</time></trkpt><trkpt lat="43.56539754865883" lon="11.21668261635824"><ele>204.0</ele><time>2026-04-26T09:04:39Z</time></trkpt><trkpt lat="43.56521369808204" lon="11.216760233721919"><ele>204.0</ele><time>2026-04-26T09:04:40Z</time></trkpt><trkpt lat="43.565035556599234" lon="11.216840682848368"><ele>204.0</ele><time>2026-04-26T09:04:41Z</time></trkpt><trkpt lat="43.56486693318626" lon="11.216930667384341"><ele>204.0</ele><time>2026-04-26T09:04:42Z</time></trkpt><trkpt lat="43.56471513422939" lon="11.217048351482909"><ele>204.0</ele><time>2026-04-26T09:04:43Z</time></trkpt><trkpt lat="43.564586975965895" lon="11.217219700569148"><ele>204.0</ele><time>2026-04-26T09:04:44Z</time></trkpt><trkpt lat="43.564487763749405" lon="11.217434643903886"><ele>204.0</ele><time>2026-04-26T09:04:45Z</time></trkpt><trkpt lat="43.56441863145629" lon="11.217675451234182"><ele>208.66666666666669</ele><time>2026-04-26T09:04:46Z</time></trkpt><trkpt lat="43.56436914516323" lon="11.217931258660942"><ele>213.33333333333334</ele><time>2026-04-26T09:04:47Z</time></trkpt><trkpt lat="43.56430940790532" lon="11.218192557247615"><ele>218.0</ele><time>2026-04-26T09:04:48Z</time></trkpt><trkpt lat="43.56424616049921" lon="11.218445340160805"><ele>218.0</ele><time>2026-04-26T09:04:49Z</time></trkpt><trkpt lat="43.56418032251919" lon="11.218709278328982"><ele>218.0</ele><time>2026-04-26T09:04:50Z</time></trkpt><trkpt lat="43.56411563397662" lon="11.218974595687852"><ele>218.0</ele><time>2026-04-26T09:04:51Z</time></trkpt><trkpt lat="43.564051919153485" lon="11.21924275601951"><ele>217.0</ele><time>2026-04-26T09:04:52Z</time></trkpt><trkpt lat="43.56398624683512" lon="11.21951526169412"><ele>216.0</ele><time>2026-04-26T09:04:53Z</time></trkpt><trkpt lat="43.56391729160532" lon="11.219786029207143"><ele>215.0</ele><time>2026-04-26T09:04:54Z</time></trkpt><trkpt lat="43.56384755114658" lon="11.220054062058814"><ele>214.33333333333334</ele><time>2026-04-26T09:04:55Z</time></trkpt><trkpt lat="43.56378471969163" lon="11.22032130624817"><ele>213.66666666666669</ele><time>2026-04-26T09:04:56Z</time></trkpt><trkpt lat="43.5637166698048" lon="11.220568370117205"><ele>213.0</ele><time>2026-04-26T09:04:57Z</time></trkpt><trkpt lat="43.56364813244482" lon="11.220780033601596"><ele>219.33333333333331</ele><time>2026-04-26T09:04:58Z</time></trkpt><trkpt lat="43.56354994209871" lon="11.220935769176442"><ele>225.66666666666666</ele><time>2026-04-26T09:04:59Z</time></trkpt><trkpt lat="43.56342685169503" lon="11.221058251456917"><ele>232.0</ele><time>2026-04-26T09:05:00Z</time></trkpt><trkpt lat="43.563280613372186" lon="11.221113324956338"><ele>232.0</ele><time>2026-04-26T09:05:01Z</time></trkpt><trkpt lat="43.563135127880514" lon="11.22117872329244"><ele>232.0</ele><time>2026-04-26T09:05:02Z</time></trkpt><trkpt lat="43.56298339222882" lon="11.22121903670861"><ele>232.0</ele><time>2026-04-26T09:05:03Z</time></trkpt><trkpt lat="43.56283448758737" lon="11.221270772777743"><ele>236.66666666666666</ele><time>2026-04-26T09:05:04Z</time></trkpt><trkpt lat="43.56268565580226" lon="11.221330523432975"><ele>241.33333333333331</ele><time>2026-04-26T09:05:05Z</time></trkpt><trkpt lat="43.562539022331414" lon="11.221399311788563"><ele>246.0</ele><time>2026-04-26T09:05:06Z</time></trkpt><trkpt lat="43.56239269334449" lon="11.221474357990184"><ele>244.33333333333331</ele><time>2026-04-26T09:05:07Z</time></trkpt><trkpt lat="43.562243506071326" lon="11.221549645542858"><ele>242.66666666666666</ele><time>2026-04-26T09:05:08Z</time></trkpt><trkpt lat="43.5620919767477" lon="11.221621841567801"><ele>241.0</ele><time>2026-04-26T09:05:09Z</time></trkpt><trkpt lat="43.56193702634175" lon="11.221693802722955"><ele>241.0</ele><time>2026-04-26T09:05:10Z</time></trkpt><trkpt lat="43.561787999476294" lon="11.221759085148031"><ele>241.0</ele><time>2026-04-26T09:05:11Z</time></trkpt><trkpt lat="43.56164505575024" lon="11.221820896969133"><ele>241.0</ele><time>2026-04-26T09:05:12Z</time></trkpt><trkpt lat="43.561515827601845" lon="11.221874904534399"><ele>241.0</ele><time>2026-04-26T09:05:13Z</time></trkpt><trkpt lat="43.56138858721894" lon="11.221932361926642"><ele>241.0</ele><time>2026-04-26T09:05:14Z</time></trkpt><trkpt lat="43.56128337951522" lon="11.22201199689082"><ele>241.0</ele><time>2026-04-26T09:05:15Z</time></trkpt><trkpt lat="43.56122157532073" lon="11.222143287327807"><ele>241.0</ele><time>2026-04-26T09:05:16Z</time></trkpt><trkpt lat="43.5612069789708" lon="11.222306764016162"><ele>241.0</ele><time>2026-04-26T09:05:17Z</time></trkpt><trkpt lat="43.56124680678539" lon="11.222469431090385"><ele>240.75</ele><time>2026-04-26T09:05:18Z</time></trkpt><trkpt lat="43.56129566329478" lon="11.222597033727506"><ele>240.5</ele><time>2026-04-26T09:05:19Z</time></trkpt><trkpt lat="43.56141319648317" lon="11.222683952345685"><ele>240.25</ele><time>2026-04-26T09:05:20Z</time></trkpt><trkpt lat="43.5615594767468" lon="11.222668496168895"><ele>240.0</ele><time>2026-04-26T09:05:21Z</time></trkpt><trkpt lat="43.56169717765031" lon="11.22271537199233"><ele>240.0</ele><time>2026-04-26T09:05:22Z</time></trkpt><trkpt lat="43.561822759014476" lon="11.22276181284585"><ele>240.0</ele><time>2026-04-26T09:05:23Z</time></trkpt><trkpt lat="43.56194379021624" lon="11.222833291523454"><ele>240.0</ele><time>2026-04-26T09:05:24Z</time></trkpt><trkpt lat="43.562053632575164" lon="11.222920108271918"><ele>240.0</ele><time>2026-04-26T09:05:25Z</time></trkpt><trkpt lat="43.56213966618647" lon="11.22301802106729"><ele>240.4</ele><time>2026-04-26T09:05:26Z</time></trkpt><trkpt lat="43.56219616341727" lon="11.223109028212265"><ele>240.8</ele><time>2026-04-26T09:05:27Z</time></trkpt><trkpt lat="43.56218277511626" lon="11.223222094261539"><ele>241.2</ele><time>2026-04-26T09:05:28Z</time></trkpt><trkpt lat="43.56212869385011" lon="11.223311623166753"><ele>241.6</ele><time>2026-04-26T09:05:29Z</time></trkpt><trkpt lat="43.562043055299306" lon="11.223364048708135"><ele>242.0</ele><time>2026-04-26T09:05:30Z</time></trkpt><trkpt lat="43.56193107515273" lon="11.223401511660644"><ele>245.0</ele><time>2026-04-26T09:05:31Z</time></trkpt><trkpt lat="43.561823598288" lon="11.223459856781057"><ele>248.0</ele><time>2026-04-26T09:05:32Z</time></trkpt><trkpt lat="43.56172214498007" lon="11.223537742369045"><ele>251.0</ele><time>2026-04-26T09:05:33Z</time></trkpt><trkpt lat="43.56162065791998" lon="11.22362386839902"><ele>254.0</ele><time>2026-04-26T09:05:34Z</time></trkpt><trkpt lat="43.56152534167066" lon="11.223719137652392"><ele>254.0</ele><time>2026-04-26T09:05:35Z</time></trkpt><trkpt lat="43.56143877056451" lon="11.223818726557555"><ele>253.99999999999997</ele><time>2026-04-26T09:05:35.999Z</time></trkpt><trkpt lat="43.56136101586638" lon="11.223923687105609"><ele>253.99999999999997</ele><time>2026-04-26T09:05:36.999Z</time></trkpt><trkpt lat="43.561285132951305" lon="11.22403058471154"><ele>254.0</ele><time>2026-04-26T09:05:37.999Z</time></trkpt><trkpt lat="43.56120741131412" lon="11.224132559321406"><ele>254.0</ele><time>2026-04-26T09:05:38.999Z</time></trkpt><trkpt lat="43.56112771762288" lon="11.224229975399115"><ele>257.0</ele><time>2026-04-26T09:05:39.999Z</time></trkpt><trkpt lat="43.561030032863634" lon="11.22431523272991"><ele>260.0</ele><time>2026-04-26T09:05:40.999Z</time></trkpt><trkpt lat="43.56093165398612" lon="11.224382574247874"><ele>263.0</ele><time>2026-04-26T09:05:41.999Z</time></trkpt><trkpt lat="43.560823168914375" lon="11.224432369557984"><ele>266.0</ele><time>2026-04-26T09:05:42.999Z</time></trkpt><trkpt lat="43.56071432339251" lon="11.22447893969081"><ele>266.0</ele><time>2026-04-26T09:05:43.999Z</time></trkpt><trkpt lat="43.56060209598194" lon="11.224536360749891"><ele>266.0</ele><time>2026-04-26T09:05:44.999Z</time></trkpt><trkpt lat="43.56048644783154" lon="11.22458936102339"><ele>266.0</ele><time>2026-04-26T09:05:45.999Z</time></trkpt><trkpt lat="43.560364453378305" lon="11.224650080564029"><ele>266.0</ele><time>2026-04-26T09:05:46.999Z</time></trkpt><trkpt lat="43.56024289304247" lon="11.224710938947977"><ele>267.5</ele><time>2026-04-26T09:05:47.999Z</time></trkpt><trkpt lat="43.560111820287624" lon="11.224775661338516"><ele>269.0</ele><time>2026-04-26T09:05:48.999Z</time></trkpt><trkpt lat="43.55997820655467" lon="11.224841689299371"><ele>270.5</ele><time>2026-04-26T09:05:49.999Z</time></trkpt><trkpt lat="43.55983736052565" lon="11.224917688715324"><ele>272.0</ele><time>2026-04-26T09:05:50.999Z</time></trkpt><trkpt lat="43.55970340070711" lon="11.22498045578746"><ele>272.0</ele><time>2026-04-26T09:05:51.999Z</time></trkpt><trkpt lat="43.55957288731998" lon="11.225049715939425"><ele>272.0</ele><time>2026-04-26T09:05:52.999Z</time></trkpt><trkpt lat="43.55944968254502" lon="11.22511750510749"><ele>272.0</ele><time>2026-04-26T09:05:53.999Z</time></trkpt><trkpt lat="43.55933417066739" lon="11.225161204194924"><ele>272.0</ele><time>2026-04-26T09:05:54.999Z</time></trkpt><trkpt lat="43.55921681676096" lon="11.225168371808806"><ele>274.25</ele><time>2026-04-26T09:05:55.999Z</time></trkpt><trkpt lat="43.559126251046436" lon="11.225064666575324"><ele>276.5</ele><time>2026-04-26T09:05:56.999Z</time></trkpt><trkpt lat="43.55903044702436" lon="11.224969837374529"><ele>278.75</ele><time>2026-04-26T09:05:57.999Z</time></trkpt><trkpt lat="43.55892310903506" lon="11.224874175228877"><ele>281.0</ele><time>2026-04-26T09:05:58.999Z</time></trkpt><trkpt lat="43.558827320780395" lon="11.224751946008096"><ele>282.75</ele><time>2026-04-26T09:05:59.999Z</time></trkpt><trkpt lat="43.55872523113542" lon="11.22464704417572"><ele>284.5</ele><time>2026-04-26T09:06:00.999Z</time></trkpt><trkpt lat="43.55861475591122" lon="11.22456413127006"><ele>286.25</ele><time>2026-04-26T09:06:01.999Z</time></trkpt><trkpt lat="43.55848768931662" lon="11.224533972106181"><ele>288.0</ele><time>2026-04-26T09:06:02.999Z</time></trkpt><trkpt lat="43.55836153332633" lon="11.224573770567114"><ele>289.2</ele><time>2026-04-26T09:06:03.999Z</time></trkpt><trkpt lat="43.55824955868001" lon="11.224628438246794"><ele>290.4</ele><time>2026-04-26T09:06:04.999Z</time></trkpt><trkpt lat="43.55815925287585" lon="11.224626838108504"><ele>291.59999999999997</ele><time>2026-04-26T09:06:05.999Z</time></trkpt><trkpt lat="43.55807890424248" lon="11.224620114715218"><ele>292.8</ele><time>2026-04-26T09:06:06.999Z</time></trkpt><trkpt lat="43.5579904124426" lon="11.224603501164054"><ele>294.0</ele><time>2026-04-26T09:06:07.999Z</time></trkpt><trkpt lat="43.557925734763806" lon="11.224477410202738"><ele>292.75</ele><time>2026-04-26T09:06:08.999Z</time></trkpt><trkpt lat="43.5578540922662" lon="11.224348691591505"><ele>291.5</ele><time>2026-04-26T09:06:09.999Z</time></trkpt><trkpt lat="43.55777991585538" lon="11.224206154624987"><ele>290.25</ele><time>2026-04-26T09:06:10.999Z</time></trkpt><trkpt lat="43.55768703750655" lon="11.224081075741594"><ele>289.0</ele><time>2026-04-26T09:06:11.999Z</time></trkpt><trkpt lat="43.557594448541515" lon="11.223943798878556"><ele>291.75</ele><time>2026-04-26T09:06:12.999Z</time></trkpt><trkpt lat="43.55749702335912" lon="11.223801432438355"><ele>294.5</ele><time>2026-04-26T09:06:13.999Z</time></trkpt><trkpt lat="43.55737925663179" lon="11.223712212613524"><ele>297.25</ele><time>2026-04-26T09:06:14.999Z</time></trkpt><trkpt lat="43.55726575291312" lon="11.223596825466712"><ele>300.0</ele><time>2026-04-26T09:06:15.999Z</time></trkpt><trkpt lat="43.557193211807345" lon="11.223446751297523"><ele>300.0</ele><time>2026-04-26T09:06:16.999Z</time></trkpt><trkpt lat="43.55715357154122" lon="11.223279682984629"><ele>300.0</ele><time>2026-04-26T09:06:17.999Z</time></trkpt><trkpt lat="43.55710460148785" lon="11.223102624637345"><ele>300.0</ele><time>2026-04-26T09:06:18.999Z</time></trkpt><trkpt lat="43.55704122212229" lon="11.222948150908548"><ele>300.0</ele><time>2026-04-26T09:06:19.999Z</time></trkpt><trkpt lat="43.55695877951653" lon="11.222819720469158"><ele>302.25</ele><time>2026-04-26T09:06:20.999Z</time></trkpt><trkpt lat="43.55683453407056" lon="11.222728232335179"><ele>304.5</ele><time>2026-04-26T09:06:21.999Z</time></trkpt><trkpt lat="43.55668824001241" lon="11.222689769657997"><ele>306.75</ele><time>2026-04-26T09:06:22.999Z</time></trkpt><trkpt lat="43.55655521447471" lon="11.222700449406286"><ele>309.0</ele><time>2026-04-26T09:06:23.999Z</time></trkpt><trkpt lat="43.55642995010721" lon="11.2227750734089"><ele>309.0</ele><time>2026-04-26T09:06:24.999Z</time></trkpt><trkpt lat="43.5563189678929" lon="11.22280570393622"><ele>309.0</ele><time>2026-04-26T09:06:25.999Z</time></trkpt><trkpt lat="43.55617922939127" lon="11.222776334557865"><ele>309.0</ele><time>2026-04-26T09:06:26.999Z</time></trkpt><trkpt lat="43.55605108421391" lon="11.222703011873328"><ele>309.0</ele><time>2026-04-26T09:06:27.999Z</time></trkpt><trkpt lat="43.55591087022101" lon="11.222628276337963"><ele>310.25</ele><time>2026-04-26T09:06:28.999Z</time></trkpt><trkpt lat="43.55576308446126" lon="11.222618851635996"><ele>311.5</ele><time>2026-04-26T09:06:29.999Z</time></trkpt><trkpt lat="43.555606199432695" lon="11.222650081914106"><ele>312.75</ele><time>2026-04-26T09:06:30.999Z</time></trkpt><trkpt lat="43.55548400060372" lon="11.222752735121807"><ele>314.0</ele><time>2026-04-26T09:06:31.999Z</time></trkpt><trkpt lat="43.55537360106246" lon="11.222801473138768"><ele>314.25</ele><time>2026-04-26T09:06:32.999Z</time></trkpt><trkpt lat="43.55526856958455" lon="11.222803704953835"><ele>314.5</ele><time>2026-04-26T09:06:33.999Z</time></trkpt><trkpt lat="43.555164412091514" lon="11.222772989657402"><ele>314.75</ele><time>2026-04-26T09:06:34.999Z</time></trkpt><trkpt lat="43.55504420539132" lon="11.22271978668978"><ele>315.0</ele><time>2026-04-26T09:06:35.999Z</time></trkpt><trkpt lat="43.5549180135699" lon="11.222679518126288"><ele>315.0</ele><time>2026-04-26T09:06:36.999Z</time></trkpt><trkpt lat="43.5547996379143" lon="11.222585593016422"><ele>315.0</ele><time>2026-04-26T09:06:37.999Z</time></trkpt><trkpt lat="43.554672641437485" lon="11.22252569734544"><ele>315.0</ele><time>2026-04-26T09:06:38.999Z</time></trkpt><trkpt lat="43.55453518578508" lon="11.22244771255119"><ele>315.0</ele><time>2026-04-26T09:06:39.999Z</time></trkpt><trkpt lat="43.55440429378564" lon="11.222371976328711"><ele>317.0</ele><time>2026-04-26T09:06:40.999Z</time></trkpt><trkpt lat="43.554273427652795" lon="11.22226920979992"><ele>319.0</ele><time>2026-04-26T09:06:42Z</time></trkpt><trkpt lat="43.554149474413904" lon="11.222169572046896"><ele>321.0</ele><time>2026-04-26T09:06:43Z</time></trkpt><trkpt lat="43.55402236702504" lon="11.22205686316781"><ele>323.0</ele><time>2026-04-26T09:06:44Z</time></trkpt><trkpt lat="43.55389456954945" lon="11.221960508135105"><ele>323.0</ele><time>2026-04-26T09:06:45Z</time></trkpt><trkpt lat="43.55376862614098" lon="11.22186051699069"><ele>323.0</ele><time>2026-04-26T09:06:46Z</time></trkpt><trkpt lat="43.55363631022464" lon="11.221770897875775"><ele>323.0</ele><time>2026-04-26T09:06:47Z</time></trkpt><trkpt lat="43.553494372189824" lon="11.221714393096134"><ele>323.0</ele><time>2026-04-26T09:06:48Z</time></trkpt><trkpt lat="43.5533434083195" lon="11.221663506623383"><ele>320.0</ele><time>2026-04-26T09:06:49Z</time></trkpt><trkpt lat="43.55319657830528" lon="11.221637525502802"><ele>317.0</ele><time>2026-04-26T09:06:50Z</time></trkpt><trkpt lat="43.55304658927146" lon="11.221577045796712"><ele>314.0</ele><time>2026-04-26T09:06:51Z</time></trkpt><trkpt lat="43.55289157090093" lon="11.221539104509652"><ele>315.0</ele><time>2026-04-26T09:06:52Z</time></trkpt><trkpt lat="43.552734997352005" lon="11.221540832859388"><ele>316.0</ele><time>2026-04-26T09:06:53Z</time></trkpt><trkpt lat="43.552578586503145" lon="11.221576421301176"><ele>317.0</ele><time>2026-04-26T09:06:54Z</time></trkpt><trkpt lat="43.55242112293641" lon="11.221637362036942"><ele>317.0</ele><time>2026-04-26T09:06:55Z</time></trkpt><trkpt lat="43.55227070112352" lon="11.221695036918584"><ele>317.0</ele><time>2026-04-26T09:06:56Z</time></trkpt><trkpt lat="43.55212416610554" lon="11.221740458101413"><ele>317.0</ele><time>2026-04-26T09:06:57Z</time></trkpt><trkpt lat="43.55197512969445" lon="11.221810439871081"><ele>320.33333333333337</ele><time>2026-04-26T09:06:58Z</time></trkpt><trkpt lat="43.551847752559084" lon="11.22190858868449"><ele>323.6666666666667</ele><time>2026-04-26T09:06:59Z</time></trkpt><trkpt lat="43.551724033148034" lon="11.222066924896527"><ele>327.0</ele><time>2026-04-26T09:07:00Z</time></trkpt><trkpt lat="43.55161028877602" lon="11.222227777620708"><ele>326.0</ele><time>2026-04-26T09:07:01Z</time></trkpt><trkpt lat="43.55150485700296" lon="11.222366175410356"><ele>325.0</ele><time>2026-04-26T09:07:02Z</time></trkpt><trkpt lat="43.551375307695324" lon="11.222494663516903"><ele>324.0</ele><time>2026-04-26T09:07:03Z</time></trkpt><trkpt lat="43.551255713746045" lon="11.222637256737308"><ele>327.25</ele><time>2026-04-26T09:07:04Z</time></trkpt><trkpt lat="43.55113737862478" lon="11.222780794995398"><ele>330.5</ele><time>2026-04-26T09:07:05Z</time></trkpt><trkpt lat="43.55101306497275" lon="11.222876839583304"><ele>333.75</ele><time>2026-04-26T09:07:06Z</time></trkpt><trkpt lat="43.55087840471097" lon="11.22293196740171"><ele>337.0</ele><time>2026-04-26T09:07:07Z</time></trkpt><trkpt lat="43.55073800948745" lon="11.222951419148336"><ele>337.0</ele><time>2026-04-26T09:07:08Z</time></trkpt><trkpt lat="43.55059575972543" lon="11.222968905914337"><ele>337.0</ele><time>2026-04-26T09:07:09Z</time></trkpt><trkpt lat="43.55044732124214" lon="11.222998861358164"><ele>337.0</ele><time>2026-04-26T09:07:10Z</time></trkpt><trkpt lat="43.5502799576536" lon="11.223072002786074"><ele>335.3333333333333</ele><time>2026-04-26T09:07:11Z</time></trkpt><trkpt lat="43.55013237473174" lon="11.22313950088723"><ele>333.6666666666667</ele><time>2026-04-26T09:07:12Z</time></trkpt><trkpt lat="43.549991477710265" lon="11.223259036221814"><ele>332.0</ele><time>2026-04-26T09:07:13Z</time></trkpt><trkpt lat="43.549849082715355" lon="11.223398779817266"><ele>332.0</ele><time>2026-04-26T09:07:14Z</time></trkpt><trkpt lat="43.54968973244413" lon="11.223493071730768"><ele>332.0</ele><time>2026-04-26T09:07:15Z</time></trkpt><trkpt lat="43.54953613550322" lon="11.223609990249232"><ele>332.0</ele><time>2026-04-26T09:07:16Z</time></trkpt><trkpt lat="43.54938151381567" lon="11.223703347059871"><ele>333.6666666666667</ele><time>2026-04-26T09:07:17Z</time></trkpt><trkpt lat="43.549234022708546" lon="11.223827620301925"><ele>335.3333333333333</ele><time>2026-04-26T09:07:18Z</time></trkpt><trkpt lat="43.54908757091729" lon="11.223965636595885"><ele>337.0</ele><time>2026-04-26T09:07:19Z</time></trkpt><trkpt lat="43.54894061671993" lon="11.224091146399747"><ele>337.0</ele><time>2026-04-26T09:07:20Z</time></trkpt><trkpt lat="43.54878236526907" lon="11.22419899139632"><ele>337.0</ele><time>2026-04-26T09:07:21Z</time></trkpt><trkpt lat="43.54861550239628" lon="11.224288942984375"><ele>337.0</ele><time>2026-04-26T09:07:22Z</time></trkpt><trkpt lat="43.54845323310242" lon="11.224383738024143"><ele>336.66666666666663</ele><time>2026-04-26T09:07:23Z</time></trkpt><trkpt lat="43.54830451166632" lon="11.224493000580097"><ele>336.3333333333333</ele><time>2026-04-26T09:07:24Z</time></trkpt><trkpt lat="43.548181331426484" lon="11.224635603794997"><ele>336.0</ele><time>2026-04-26T09:07:25Z</time></trkpt><trkpt lat="43.54809607827986" lon="11.224833249111144"><ele>336.0</ele><time>2026-04-26T09:07:26Z</time></trkpt><trkpt lat="43.54803587071438" lon="11.225048688626577"><ele>336.0</ele><time>2026-04-26T09:07:27Z</time></trkpt><trkpt lat="43.547989871460196" lon="11.225273260185695"><ele>336.0</ele><time>2026-04-26T09:07:28Z</time></trkpt><trkpt lat="43.54792702612355" lon="11.22548111540111"><ele>340.6666666666667</ele><time>2026-04-26T09:07:29Z</time></trkpt><trkpt lat="43.54783593329707" lon="11.225677064525687"><ele>345.33333333333337</ele><time>2026-04-26T09:07:30Z</time></trkpt><trkpt lat="43.547739421493624" lon="11.225868048235855"><ele>350.0</ele><time>2026-04-26T09:07:31Z</time></trkpt><trkpt lat="43.54763529159392" lon="11.226044187715868"><ele>350.0</ele><time>2026-04-26T09:07:32Z</time></trkpt><trkpt lat="43.547523999841125" lon="11.22620182331165"><ele>350.0</ele><time>2026-04-26T09:07:33Z</time></trkpt><trkpt lat="43.54740646337894" lon="11.226336725839468"><ele>350.0</ele><time>2026-04-26T09:07:34Z</time></trkpt><trkpt lat="43.547288028915965" lon="11.226456176084355"><ele>350.0</ele><time>2026-04-26T09:07:35Z</time></trkpt><trkpt lat="43.54717822453264" lon="11.226559110202464"><ele>350.0</ele><time>2026-04-26T09:07:36Z</time></trkpt><trkpt lat="43.54709544782197" lon="11.226622651123852"><ele>350.0</ele><time>2026-04-26T09:07:37Z</time></trkpt><trkpt lat="43.54701434687018" lon="11.226659295034178"><ele>350.0</ele><time>2026-04-26T09:07:38.999Z</time></trkpt><trkpt lat="43.54694162640169" lon="11.226706981530542"><ele>350.0</ele><time>2026-04-26T09:07:40.999Z</time></trkpt><trkpt lat="43.54688954657942" lon="11.226761517278238"><ele>350.0</ele><time>2026-04-26T09:07:41.999Z</time></trkpt><trkpt lat="43.54682901474887" lon="11.226841856261014"><ele>350.0</ele><time>2026-04-26T09:07:42.999Z</time></trkpt><trkpt lat="43.54675513361491" lon="11.226941643467331"><ele>350.0</ele><time>2026-04-26T09:07:43.999Z</time></trkpt><trkpt lat="43.54665827216924" lon="11.227033276931024"><ele>350.0</ele><time>2026-04-26T09:07:44.999Z</time></trkpt><trkpt lat="43.54654656942169" lon="11.227118378108573"><ele>350.0</ele><time>2026-04-26T09:07:45.999Z</time></trkpt><trkpt lat="43.54642678367078" lon="11.227200458995597"><ele>350.0</ele><time>2026-04-26T09:07:46.999Z</time></trkpt><trkpt lat="43.546300506192274" lon="11.227297512096102"><ele>350.0</ele><time>2026-04-26T09:07:47.999Z</time></trkpt><trkpt lat="43.54616905557993" lon="11.227405774900395"><ele>350.0</ele><time>2026-04-26T09:07:48.999Z</time></trkpt><trkpt lat="43.54603288220216" lon="11.227516407144586"><ele>350.6666666666667</ele><time>2026-04-26T09:07:49.999Z</time></trkpt><trkpt lat="43.545893067058095" lon="11.227624384472758"><ele>351.3333333333333</ele><time>2026-04-26T09:07:50.999Z</time></trkpt><trkpt lat="43.54574726898829" lon="11.227733117980407"><ele>352.0</ele><time>2026-04-26T09:07:51.999Z</time></trkpt><trkpt lat="43.54559940512252" lon="11.227842764932516"><ele>352.0</ele><time>2026-04-26T09:07:52.999Z</time></trkpt><trkpt lat="43.54544514944298" lon="11.227957279715257"><ele>352.0</ele><time>2026-04-26T09:07:53.999Z</time></trkpt><trkpt lat="43.545295459598194" lon="11.228068130452757"><ele>352.0</ele><time>2026-04-26T09:07:54.999Z</time></trkpt><trkpt lat="43.545136475392155" lon="11.228187329463838"><ele>353.66666666666663</ele><time>2026-04-26T09:07:55.999Z</time></trkpt><trkpt lat="43.54497861511895" lon="11.228305892632337"><ele>355.3333333333333</ele><time>2026-04-26T09:07:56.999Z</time></trkpt><trkpt lat="43.54482246330055" lon="11.228427246480067"><ele>357.0</ele><time>2026-04-26T09:07:57.999Z</time></trkpt><trkpt lat="43.54466820178416" lon="11.22854984739491"><ele>357.3333333333333</ele><time>2026-04-26T09:07:58.999Z</time></trkpt><trkpt lat="43.54451329077815" lon="11.228672212824284"><ele>357.66666666666663</ele><time>2026-04-26T09:07:59.999Z</time></trkpt><trkpt lat="43.54436118681033" lon="11.228791536486794"><ele>358.0</ele><time>2026-04-26T09:08:00.999Z</time></trkpt><trkpt lat="43.544209756376304" lon="11.22891134338293"><ele>359.66666666666663</ele><time>2026-04-26T09:08:01.999Z</time></trkpt><trkpt lat="43.54405613432076" lon="11.229034476475931"><ele>361.3333333333333</ele><time>2026-04-26T09:08:02.999Z</time></trkpt><trkpt lat="43.54390614179801" lon="11.229155225149281"><ele>363.0</ele><time>2026-04-26T09:08:03.999Z</time></trkpt><trkpt lat="43.54375781040826" lon="11.229279018398113"><ele>363.6666666666667</ele><time>2026-04-26T09:08:04.999Z</time></trkpt><trkpt lat="43.54361010281494" lon="11.229403446164287"><ele>364.33333333333337</ele><time>2026-04-26T09:08:05.999Z</time></trkpt><trkpt lat="43.5434610930115" lon="11.229522268911632"><ele>365.0</ele><time>2026-04-26T09:08:06.999Z</time></trkpt><trkpt lat="43.54330637081238" lon="11.229630426467857"><ele>365.0</ele><time>2026-04-26T09:08:07.999Z</time></trkpt><trkpt lat="43.54314492452485" lon="11.229723159679807"><ele>365.0</ele><time>2026-04-26T09:08:08.999Z</time></trkpt><trkpt lat="43.54297616743825" lon="11.229798588380222"><ele>365.0</ele><time>2026-04-26T09:08:09.999Z</time></trkpt><trkpt lat="43.54280715868777" lon="11.229866766723426"><ele>365.0</ele><time>2026-04-26T09:08:10.999Z</time></trkpt><trkpt lat="43.5426327712223" lon="11.229931530336701"><ele>365.0</ele><time>2026-04-26T09:08:11.999Z</time></trkpt><trkpt lat="43.54245518824936" lon="11.229996700619392"><ele>365.0</ele><time>2026-04-26T09:08:12.999Z</time></trkpt><trkpt lat="43.54227879187286" lon="11.230064462740637"><ele>365.0</ele><time>2026-04-26T09:08:13.999Z</time></trkpt><trkpt lat="43.542099002138656" lon="11.23013310847768"><ele>365.0</ele><time>2026-04-26T09:08:14.999Z</time></trkpt><trkpt lat="43.54191601635116" lon="11.230203103548062"><ele>365.0</ele><time>2026-04-26T09:08:15.999Z</time></trkpt><trkpt lat="43.54173096328749" lon="11.23027272993883"><ele>365.33333333333337</ele><time>2026-04-26T09:08:16.999Z</time></trkpt><trkpt lat="43.541546569772166" lon="11.230341690987817"><ele>365.6666666666667</ele><time>2026-04-26T09:08:17.999Z</time></trkpt><trkpt lat="43.54135830737048" lon="11.230410691630421"><ele>366.0</ele><time>2026-04-26T09:08:18.999Z</time></trkpt><trkpt lat="43.54116895064398" lon="11.230481492052531"><ele>366.6666666666667</ele><time>2026-04-26T09:08:19.999Z</time></trkpt><trkpt lat="43.54098011639837" lon="11.230554076818875"><ele>367.33333333333337</ele><time>2026-04-26T09:08:20.999Z</time></trkpt><trkpt lat="43.54079494454542" lon="11.2306265745539"><ele>368.0</ele><time>2026-04-26T09:08:21.999Z</time></trkpt><trkpt lat="43.54061123824961" lon="11.230705618832134"><ele>368.6666666666667</ele><time>2026-04-26T09:08:22.999Z</time></trkpt><trkpt lat="43.5404274131103" lon="11.230796826820326"><ele>369.3333333333333</ele><time>2026-04-26T09:08:23.999Z</time></trkpt><trkpt lat="43.540246032773354" lon="11.230890319632246"><ele>370.0</ele><time>2026-04-26T09:08:24.999Z</time></trkpt><trkpt lat="43.54006531337839" lon="11.23098560438466"><ele>371.0</ele><time>2026-04-26T09:08:25.999Z</time></trkpt><trkpt lat="43.53988274316826" lon="11.231081263608887"><ele>372.0</ele><time>2026-04-26T09:08:26.999Z</time></trkpt><trkpt lat="43.53969678046966" lon="11.231181286596096"><ele>373.0</ele><time>2026-04-26T09:08:27.999Z</time></trkpt><trkpt lat="43.53951154738252" lon="11.23128423417775"><ele>373.0</ele><time>2026-04-26T09:08:28.999Z</time></trkpt><trkpt lat="43.539331377405894" lon="11.231386314137358"><ele>373.0</ele><time>2026-04-26T09:08:29.999Z</time></trkpt><trkpt lat="43.539146608327165" lon="11.23148881322191"><ele>373.0</ele><time>2026-04-26T09:08:30.999Z</time></trkpt><trkpt lat="43.538971867189176" lon="11.231590219285977"><ele>373.0</ele><time>2026-04-26T09:08:31.999Z</time></trkpt><trkpt lat="43.53881355182266" lon="11.231708523495936"><ele>373.0</ele><time>2026-04-26T09:08:32.999Z</time></trkpt><trkpt lat="43.53867921185049" lon="11.231835535632662"><ele>373.0</ele><time>2026-04-26T09:08:33.999Z</time></trkpt><trkpt lat="43.5385716870495" lon="11.231993927560898"><ele>374.0</ele><time>2026-04-26T09:08:34.999Z</time></trkpt><trkpt lat="43.53850278629136" lon="11.2321577343288"><ele>375.0</ele><time>2026-04-26T09:08:35.999Z</time></trkpt><trkpt lat="43.53844399124002" lon="11.232340874929033"><ele>376.0</ele><time>2026-04-26T09:08:36.999Z</time></trkpt><trkpt lat="43.53840010398141" lon="11.232533061832479"><ele>377.0</ele><time>2026-04-26T09:08:37.999Z</time></trkpt><trkpt lat="43.538373492770994" lon="11.23274114242463"><ele>377.0</ele><time>2026-04-26T09:08:38.999Z</time></trkpt><trkpt lat="43.53836056034542" lon="11.23296542401986"><ele>377.0</ele><time>2026-04-26T09:08:39.999Z</time></trkpt><trkpt lat="43.5383598766835" lon="11.23319307599432"><ele>377.0</ele><time>2026-04-26T09:08:40.999Z</time></trkpt><trkpt lat="43.53835793574209" lon="11.233430086823628"><ele>377.33333333333337</ele><time>2026-04-26T09:08:41.999Z</time></trkpt><trkpt lat="43.53834837851951" lon="11.23367133678789"><ele>377.6666666666667</ele><time>2026-04-26T09:08:42.999Z</time></trkpt><trkpt lat="43.53833630622259" lon="11.233916083094373"><ele>378.0</ele><time>2026-04-26T09:08:43.999Z</time></trkpt><trkpt lat="43.53832612436717" lon="11.234166820955805"><ele>380.33333333333337</ele><time>2026-04-26T09:08:44.999Z</time></trkpt><trkpt lat="43.53831756996054" lon="11.234422785060692"><ele>382.6666666666667</ele><time>2026-04-26T09:08:45.999Z</time></trkpt><trkpt lat="43.538309697379134" lon="11.234670507023978"><ele>385.0</ele><time>2026-04-26T09:08:46.999Z</time></trkpt><trkpt lat="43.5382984553579" lon="11.23492348307139"><ele>387.33333333333337</ele><time>2026-04-26T09:08:48Z</time></trkpt><trkpt lat="43.53828854431574" lon="11.235174676972825"><ele>389.66666666666663</ele><time>2026-04-26T09:08:49Z</time></trkpt><trkpt lat="43.53827531920933" lon="11.235416603969618"><ele>392.0</ele><time>2026-04-26T09:08:50Z</time></trkpt><trkpt lat="43.53824825199706" lon="11.23564089107366"><ele>393.0</ele><time>2026-04-26T09:08:51Z</time></trkpt><trkpt lat="43.53820071519704" lon="11.235849327574678"><ele>394.0</ele><time>2026-04-26T09:08:52Z</time></trkpt><trkpt lat="43.53812917607798" lon="11.2360360277465"><ele>395.0</ele><time>2026-04-26T09:08:53Z</time></trkpt><trkpt lat="43.53803869075537" lon="11.236213143003484"><ele>395.0</ele><time>2026-04-26T09:08:54Z</time></trkpt><trkpt lat="43.5379236181737" lon="11.23636731142705"><ele>395.0</ele><time>2026-04-26T09:08:55Z</time></trkpt><trkpt lat="43.53777952880508" lon="11.23646824157225"><ele>395.0</ele><time>2026-04-26T09:08:56Z</time></trkpt><trkpt lat="43.53765012826284" lon="11.23659568543137"><ele>395.0</ele><time>2026-04-26T09:08:57Z</time></trkpt><trkpt lat="43.537506135466444" lon="11.236703456310972"><ele>395.0</ele><time>2026-04-26T09:08:58Z</time></trkpt><trkpt lat="43.53736856737107" lon="11.236819569950415"><ele>395.0</ele><time>2026-04-26T09:08:59Z</time></trkpt><trkpt lat="43.537235578250076" lon="11.236943297249004"><ele>395.0</ele><time>2026-04-26T09:09:00Z</time></trkpt><trkpt lat="43.537102801267054" lon="11.237069714433146"><ele>395.0</ele><time>2026-04-26T09:09:01Z</time></trkpt><trkpt lat="43.53697146188861" lon="11.23720250545221"><ele>395.0</ele><time>2026-04-26T09:09:02Z</time></trkpt><trkpt lat="43.53684826392041" lon="11.237349283791893"><ele>396.66666666666663</ele><time>2026-04-26T09:09:03Z</time></trkpt><trkpt lat="43.536735571214265" lon="11.237511441564715"><ele>398.33333333333337</ele><time>2026-04-26T09:09:04Z</time></trkpt><trkpt lat="43.5366394855004" lon="11.237696465965627"><ele>400.0</ele><time>2026-04-26T09:09:05Z</time></trkpt><trkpt lat="43.53656427268149" lon="11.23790307258337"><ele>400.0</ele><time>2026-04-26T09:09:06Z</time></trkpt><trkpt lat="43.53650057979284" lon="11.238118567878042"><ele>400.0</ele><time>2026-04-26T09:09:07Z</time></trkpt><trkpt lat="43.53644181328472" lon="11.238339436357544"><ele>400.0</ele><time>2026-04-26T09:09:08Z</time></trkpt><trkpt lat="43.53638131554412" lon="11.238553394671479"><ele>400.33333333333337</ele><time>2026-04-26T09:09:09Z</time></trkpt><trkpt lat="43.53630868272537" lon="11.23877178765823"><ele>400.66666666666663</ele><time>2026-04-26T09:09:10Z</time></trkpt><trkpt lat="43.53623056663678" lon="11.238996748488397"><ele>401.0</ele><time>2026-04-26T09:09:11Z</time></trkpt><trkpt lat="43.53616228568414" lon="11.239214977009327"><ele>401.0</ele><time>2026-04-26T09:09:12Z</time></trkpt><trkpt lat="43.5360872816108" lon="11.239435366676558"><ele>401.0</ele><time>2026-04-26T09:09:13Z</time></trkpt><trkpt lat="43.5359987518422" lon="11.239638443632602"><ele>401.0</ele><time>2026-04-26T09:09:14Z</time></trkpt><trkpt lat="43.53589130580624" lon="11.239834936041031"><ele>399.3333333333333</ele><time>2026-04-26T09:09:15Z</time></trkpt><trkpt lat="43.53578444786659" lon="11.240021063175845"><ele>397.66666666666663</ele><time>2026-04-26T09:09:16Z</time></trkpt><trkpt lat="43.535673253398" lon="11.240206038194616"><ele>396.0</ele><time>2026-04-26T09:09:17Z</time></trkpt><trkpt lat="43.5355553610618" lon="11.240388704542257"><ele>396.0</ele><time>2026-04-26T09:09:18Z</time></trkpt><trkpt lat="43.53542937682681" lon="11.240559426719983"><ele>396.0</ele><time>2026-04-26T09:09:19Z</time></trkpt><trkpt lat="43.53529426885309" lon="11.240715644619103"><ele>396.0</ele><time>2026-04-26T09:09:20Z</time></trkpt><trkpt lat="43.53515815807073" lon="11.240853121905058"><ele>394.0</ele><time>2026-04-26T09:09:21Z</time></trkpt><trkpt lat="43.53502486151226" lon="11.240978389619698"><ele>392.0</ele><time>2026-04-26T09:09:22Z</time></trkpt><trkpt lat="43.53489427253421" lon="11.24109097388432"><ele>390.0</ele><time>2026-04-26T09:09:23Z</time></trkpt><trkpt lat="43.5347617753326" lon="11.241198683840931"><ele>390.0</ele><time>2026-04-26T09:09:24Z</time></trkpt><trkpt lat="43.53463560305301" lon="11.241291717446607"><ele>390.0</ele><time>2026-04-26T09:09:25Z</time></trkpt><trkpt lat="43.53450337259932" lon="11.241383007660692"><ele>390.0</ele><time>2026-04-26T09:09:26Z</time></trkpt><trkpt lat="43.534372700618704" lon="11.241464688786284"><ele>390.0</ele><time>2026-04-26T09:09:27Z</time></trkpt><trkpt lat="43.53423599749832" lon="11.241544543214516"><ele>389.5</ele><time>2026-04-26T09:09:28Z</time></trkpt><trkpt lat="43.534098675771794" lon="11.241615630010552"><ele>389.0</ele><time>2026-04-26T09:09:29Z</time></trkpt><trkpt lat="43.533966102208474" lon="11.241676239021313"><ele>388.5</ele><time>2026-04-26T09:09:30Z</time></trkpt><trkpt lat="43.53384273809229" lon="11.241727457594214"><ele>388.0</ele><time>2026-04-26T09:09:31Z</time></trkpt><trkpt lat="43.53374184943252" lon="11.241764613760568"><ele>387.59999999999997</ele><time>2026-04-26T09:09:32Z</time></trkpt><trkpt lat="43.533655144205426" lon="11.24179832664272"><ele>387.2</ele><time>2026-04-26T09:09:33Z</time></trkpt><trkpt lat="43.53356170329259" lon="11.241832165785945"><ele>386.8</ele><time>2026-04-26T09:09:35Z</time></trkpt><trkpt lat="43.53349272666459" lon="11.241857351408731"><ele>386.4</ele><time>2026-04-26T09:10:07.999Z</time></trkpt><trkpt lat="43.53340967131028" lon="11.241867624396027"><ele>386.0</ele><time>2026-04-26T09:10:09.999Z</time></trkpt><trkpt lat="43.53329243175034" lon="11.241933281610866"><ele>385.99999999999994</ele><time>2026-04-26T09:10:11.999Z</time></trkpt><trkpt lat="43.53322652591561" lon="11.241956843842573"><ele>386.0</ele><time>2026-04-26T09:10:12.999Z</time></trkpt><trkpt lat="43.533153557992286" lon="11.241956320879657"><ele>386.0</ele><time>2026-04-26T09:10:13.999Z</time></trkpt><trkpt lat="43.533080420519994" lon="11.241969171161706"><ele>386.0</ele><time>2026-04-26T09:10:14.999Z</time></trkpt><trkpt lat="43.532998927236385" lon="11.241979038334977"><ele>385.99999999999994</ele><time>2026-04-26T09:10:15.999Z</time></trkpt><trkpt lat="43.53290564332417" lon="11.24198550097878"><ele>386.0</ele><time>2026-04-26T09:10:16.999Z</time></trkpt><trkpt lat="43.532814645792655" lon="11.241988404860876"><ele>386.4</ele><time>2026-04-26T09:10:17.999Z</time></trkpt><trkpt lat="43.53272112689881" lon="11.24198940014694"><ele>386.8</ele><time>2026-04-26T09:10:18.999Z</time></trkpt><trkpt lat="43.53262773449011" lon="11.242010431107293"><ele>387.2</ele><time>2026-04-26T09:10:19.999Z</time></trkpt><trkpt lat="43.53254733784301" lon="11.242003970601836"><ele>387.59999999999997</ele><time>2026-04-26T09:10:20.999Z</time></trkpt><trkpt lat="43.53247575570181" lon="11.241998769492396"><ele>388.0</ele><time>2026-04-26T09:10:21.999Z</time></trkpt><trkpt lat="43.53235497233682" lon="11.241989119546721"><ele>388.00000000000006</ele><time>2026-04-26T09:10:23.999Z</time></trkpt><trkpt lat="43.53228974753465" lon="11.241992225322392"><ele>388.0</ele><time>2026-04-26T09:10:24.999Z</time></trkpt><trkpt lat="43.53222082810917" lon="11.241995723915899"><ele>388.0</ele><time>2026-04-26T09:10:25.999Z</time></trkpt><trkpt lat="43.532146645695434" lon="11.242004619856308"><ele>388.0</ele><time>2026-04-26T09:10:27.999Z</time></trkpt><trkpt lat="43.5320707295237" lon="11.241982455512783"><ele>388.00000000000006</ele><time>2026-04-26T09:10:29.999Z</time></trkpt><trkpt lat="43.532005868516414" lon="11.241999602580798"><ele>388.0</ele><time>2026-04-26T09:10:31.999Z</time></trkpt><trkpt lat="43.53190317054905" lon="11.241960684530582"><ele>389.0</ele><time>2026-04-26T09:10:33.999Z</time></trkpt><trkpt lat="43.531830812827366" lon="11.241914662077352"><ele>390.0</ele><time>2026-04-26T09:10:34.999Z</time></trkpt><trkpt lat="43.53174847515363" lon="11.241861884190534"><ele>391.0</ele><time>2026-04-26T09:10:35.999Z</time></trkpt><trkpt lat="43.531658065804464" lon="11.241801731172744"><ele>392.0</ele><time>2026-04-26T09:10:36.999Z</time></trkpt><trkpt lat="43.531562941654244" lon="11.241736656778327"><ele>393.0</ele><time>2026-04-26T09:10:37.999Z</time></trkpt><trkpt lat="43.53146804172125" lon="11.241667651930738"><ele>393.0</ele><time>2026-04-26T09:10:38.999Z</time></trkpt><trkpt lat="43.5313717781347" lon="11.241594825676442"><ele>393.0</ele><time>2026-04-26T09:10:39.999Z</time></trkpt><trkpt lat="43.5312753751902" lon="11.241518455938552"><ele>393.0</ele><time>2026-04-26T09:10:40.999Z</time></trkpt><trkpt lat="43.53117841860966" lon="11.241435034491237"><ele>393.0</ele><time>2026-04-26T09:10:41.999Z</time></trkpt><trkpt lat="43.531076726921874" lon="11.241343426967077"><ele>394.25</ele><time>2026-04-26T09:10:42.999Z</time></trkpt><trkpt lat="43.53096954931148" lon="11.241252125655656"><ele>395.5</ele><time>2026-04-26T09:10:43.999Z</time></trkpt><trkpt lat="43.53085878474385" lon="11.241165197593677"><ele>396.75</ele><time>2026-04-26T09:10:44.999Z</time></trkpt><trkpt lat="43.53073838052967" lon="11.24108016441021"><ele>398.0</ele><time>2026-04-26T09:10:45.999Z</time></trkpt><trkpt lat="43.530609551881206" lon="11.24099959683281"><ele>398.0</ele><time>2026-04-26T09:10:46.999Z</time></trkpt><trkpt lat="43.53046744874383" lon="11.240923488133316"><ele>398.0</ele><time>2026-04-26T09:10:47.999Z</time></trkpt><trkpt lat="43.53031964270039" lon="11.240852964388559"><ele>398.0</ele><time>2026-04-26T09:10:48.999Z</time></trkpt><trkpt lat="43.53016174515304" lon="11.2407913034491"><ele>398.66666666666663</ele><time>2026-04-26T09:10:49.999Z</time></trkpt><trkpt lat="43.52999086646452" lon="11.240732630843135"><ele>399.33333333333337</ele><time>2026-04-26T09:10:50.999Z</time></trkpt><trkpt lat="43.52981438610396" lon="11.240681604699741"><ele>400.0</ele><time>2026-04-26T09:10:51.999Z</time></trkpt><trkpt lat="43.52963109835705" lon="11.240633762951123"><ele>397.33333333333337</ele><time>2026-04-26T09:10:53Z</time></trkpt><trkpt lat="43.52944006857502" lon="11.240574409369156"><ele>394.66666666666663</ele><time>2026-04-26T09:10:54Z</time></trkpt><trkpt lat="43.52925233915628" lon="11.24049526848675"><ele>392.0</ele><time>2026-04-26T09:10:55Z</time></trkpt><trkpt lat="43.529070997551244" lon="11.240385045485606"><ele>392.0</ele><time>2026-04-26T09:10:56Z</time></trkpt><trkpt lat="43.52889163705025" lon="11.240261055978625"><ele>392.0</ele><time>2026-04-26T09:10:57Z</time></trkpt><trkpt lat="43.5287134416198" lon="11.2401335714014"><ele>392.0</ele><time>2026-04-26T09:10:58Z</time></trkpt><trkpt lat="43.528540871916114" lon="11.240011179887414"><ele>394.0</ele><time>2026-04-26T09:10:59Z</time></trkpt><trkpt lat="43.528363712272935" lon="11.239887585572948"><ele>396.0</ele><time>2026-04-26T09:11:00Z</time></trkpt><trkpt lat="43.52819042615891" lon="11.23977058460377"><ele>398.0</ele><time>2026-04-26T09:11:01Z</time></trkpt><trkpt lat="43.528012677426645" lon="11.239647219891793"><ele>399.0</ele><time>2026-04-26T09:11:02Z</time></trkpt><trkpt lat="43.527837910729424" lon="11.239526079878129"><ele>400.0</ele><time>2026-04-26T09:11:03Z</time></trkpt><trkpt lat="43.52766237323682" lon="11.239406376130683"><ele>401.0</ele><time>2026-04-26T09:11:04Z</time></trkpt><trkpt lat="43.52748120953747" lon="11.239294280900607"><ele>401.0</ele><time>2026-04-26T09:11:05Z</time></trkpt><trkpt lat="43.527291629899324" lon="11.23920260676859"><ele>401.0</ele><time>2026-04-26T09:11:06Z</time></trkpt><trkpt lat="43.52709649963998" lon="11.239125937787202"><ele>401.0</ele><time>2026-04-26T09:11:07Z</time></trkpt><trkpt lat="43.52689677231693" lon="11.239059528905221"><ele>401.3333333333333</ele><time>2026-04-26T09:11:08Z</time></trkpt><trkpt lat="43.52669492881372" lon="11.238995610628141"><ele>401.66666666666663</ele><time>2026-04-26T09:11:09Z</time></trkpt><trkpt lat="43.526493947823084" lon="11.238927077426808"><ele>402.0</ele><time>2026-04-26T09:11:10Z</time></trkpt><trkpt lat="43.52629680470302" lon="11.238857349133669"><ele>403.33333333333337</ele><time>2026-04-26T09:11:11Z</time></trkpt><trkpt lat="43.52609757240049" lon="11.23878224189536"><ele>404.6666666666667</ele><time>2026-04-26T09:11:12Z</time></trkpt><trkpt lat="43.52590198503231" lon="11.238702738795315"><ele>406.0</ele><time>2026-04-26T09:11:13Z</time></trkpt><trkpt lat="43.52571166532475" lon="11.238620555375737"><ele>406.0</ele><time>2026-04-26T09:11:14Z</time></trkpt><trkpt lat="43.5255297111857" lon="11.238540427155392"><ele>406.0</ele><time>2026-04-26T09:11:15Z</time></trkpt><trkpt lat="43.525359652610796" lon="11.238469708329497"><ele>406.0</ele><time>2026-04-26T09:11:16Z</time></trkpt><trkpt lat="43.52520258608561" lon="11.238424395068112"><ele>406.0</ele><time>2026-04-26T09:11:17Z</time></trkpt><trkpt lat="43.52505474308586" lon="11.238426296789862"><ele>406.0</ele><time>2026-04-26T09:11:18Z</time></trkpt><trkpt lat="43.52491326475136" lon="11.238476447207988"><ele>406.0</ele><time>2026-04-26T09:11:19Z</time></trkpt><trkpt lat="43.52478041799632" lon="11.238578884969128"><ele>406.0</ele><time>2026-04-26T09:11:20Z</time></trkpt><trkpt lat="43.524664320066435" lon="11.238740948675144"><ele>407.33333333333337</ele><time>2026-04-26T09:11:21Z</time></trkpt><trkpt lat="43.524546502299074" lon="11.238906126426178"><ele>408.66666666666663</ele><time>2026-04-26T09:11:22Z</time></trkpt><trkpt lat="43.524434123859834" lon="11.239069799535928"><ele>410.0</ele><time>2026-04-26T09:11:23Z</time></trkpt><trkpt lat="43.52434366445052" lon="11.23927364472338"><ele>410.0</ele><time>2026-04-26T09:11:24Z</time></trkpt><trkpt lat="43.52428557621956" lon="11.239507823493067"><ele>410.0</ele><time>2026-04-26T09:11:25Z</time></trkpt><trkpt lat="43.524230036497116" lon="11.239741345369035"><ele>410.0</ele><time>2026-04-26T09:11:26Z</time></trkpt><trkpt lat="43.5241257992512" lon="11.23994678705089"><ele>411.3333333333333</ele><time>2026-04-26T09:11:27Z</time></trkpt><trkpt lat="43.52401494369546" lon="11.240152971119096"><ele>412.66666666666663</ele><time>2026-04-26T09:11:28Z</time></trkpt><trkpt lat="43.52390563565721" lon="11.240352215518138"><ele>414.0</ele><time>2026-04-26T09:11:29Z</time></trkpt><trkpt lat="43.52377649932878" lon="11.240525057656969"><ele>415.33333333333337</ele><time>2026-04-26T09:11:30Z</time></trkpt><trkpt lat="43.52364133441383" lon="11.240656380816935"><ele>416.6666666666667</ele><time>2026-04-26T09:11:31Z</time></trkpt><trkpt lat="43.52348612531292" lon="11.240736788516186"><ele>418.0</ele><time>2026-04-26T09:11:32Z</time></trkpt><trkpt lat="43.52332913884618" lon="11.240810551032496"><ele>418.0</ele><time>2026-04-26T09:11:33Z</time></trkpt><trkpt lat="43.523169802891815" lon="11.240904843755672"><ele>418.0</ele><time>2026-04-26T09:11:34Z</time></trkpt><trkpt lat="43.5230102434798" lon="11.24097961168995"><ele>418.0</ele><time>2026-04-26T09:11:35Z</time></trkpt><trkpt lat="43.52285252348155" lon="11.241089080819831"><ele>417.6666666666667</ele><time>2026-04-26T09:11:36Z</time></trkpt><trkpt lat="43.52269978621215" lon="11.241229888971338"><ele>417.33333333333337</ele><time>2026-04-26T09:11:37Z</time></trkpt><trkpt lat="43.52256583685697" lon="11.24140422403891"><ele>417.0</ele><time>2026-04-26T09:11:38Z</time></trkpt><trkpt lat="43.522444900586606" lon="11.241596481631358"><ele>417.66666666666663</ele><time>2026-04-26T09:11:39Z</time></trkpt><trkpt lat="43.52233492229764" lon="11.2417937530314"><ele>418.3333333333333</ele><time>2026-04-26T09:11:40Z</time></trkpt><trkpt lat="43.522233125175354" lon="11.241997509035587"><ele>419.0</ele><time>2026-04-26T09:11:41Z</time></trkpt><trkpt lat="43.52214767423396" lon="11.24221753519192"><ele>420.66666666666663</ele><time>2026-04-26T09:11:42Z</time></trkpt><trkpt lat="43.52208449282485" lon="11.242434678544134"><ele>422.33333333333337</ele><time>2026-04-26T09:11:43Z</time></trkpt><trkpt lat="43.52203165740069" lon="11.24266341995222"><ele>424.0</ele><time>2026-04-26T09:11:44Z</time></trkpt><trkpt lat="43.52198272853618" lon="11.242886847873194"><ele>424.6666666666667</ele><time>2026-04-26T09:11:45Z</time></trkpt><trkpt lat="43.521929351763156" lon="11.243114089867802"><ele>425.33333333333337</ele><time>2026-04-26T09:11:46Z</time></trkpt><trkpt lat="43.52187145971026" lon="11.243342466771043"><ele>426.0</ele><time>2026-04-26T09:11:47Z</time></trkpt><trkpt lat="43.52181423795897" lon="11.243574524582277"><ele>427.0</ele><time>2026-04-26T09:11:48Z</time></trkpt><trkpt lat="43.521759101287635" lon="11.243817700457301"><ele>428.0</ele><time>2026-04-26T09:11:49Z</time></trkpt><trkpt lat="43.521707679985575" lon="11.244065717150884"><ele>429.0</ele><time>2026-04-26T09:11:50Z</time></trkpt><trkpt lat="43.52165637768343" lon="11.244324534893714"><ele>429.0</ele><time>2026-04-26T09:11:51Z</time></trkpt><trkpt lat="43.52160402281525" lon="11.244581385362887"><ele>429.0</ele><time>2026-04-26T09:11:52Z</time></trkpt><trkpt lat="43.52154336973415" lon="11.244838383913196"><ele>429.0</ele><time>2026-04-26T09:11:53Z</time></trkpt><trkpt lat="43.52146310682058" lon="11.24508604202212"><ele>429.33333333333337</ele><time>2026-04-26T09:11:54Z</time></trkpt><trkpt lat="43.521354270614545" lon="11.245316362107127"><ele>429.6666666666667</ele><time>2026-04-26T09:11:55Z</time></trkpt><trkpt lat="43.52120627940427" lon="11.24549065317417"><ele>430.0</ele><time>2026-04-26T09:11:56Z</time></trkpt><trkpt lat="43.521047464363015" lon="11.245639742836042"><ele>429.0</ele><time>2026-04-26T09:11:57Z</time></trkpt><trkpt lat="43.5208690061203" lon="11.245771665390007"><ele>428.0</ele><time>2026-04-26T09:11:58Z</time></trkpt><trkpt lat="43.520693588690136" lon="11.245894504261859"><ele>427.0</ele><time>2026-04-26T09:11:59Z</time></trkpt><trkpt lat="43.520510375208666" lon="11.245994500129227"><ele>426.33333333333337</ele><time>2026-04-26T09:12:00Z</time></trkpt><trkpt lat="43.52034096157993" lon="11.246097494128534"><ele>425.66666666666663</ele><time>2026-04-26T09:12:00.999Z</time></trkpt><trkpt lat="43.520182346242606" lon="11.246196683976493"><ele>425.0</ele><time>2026-04-26T09:12:01.999Z</time></trkpt><trkpt lat="43.520042139300784" lon="11.246286858881275"><ele>425.0</ele><time>2026-04-26T09:12:02.999Z</time></trkpt><trkpt lat="43.51991058021311" lon="11.246400355422155"><ele>425.0</ele><time>2026-04-26T09:12:03.999Z</time></trkpt><trkpt lat="43.51979540024438" lon="11.246541845527894"><ele>425.0</ele><time>2026-04-26T09:12:04.999Z</time></trkpt><trkpt lat="43.51968316197574" lon="11.246696661351491"><ele>423.3333333333333</ele><time>2026-04-26T09:12:05.999Z</time></trkpt><trkpt lat="43.51956199648791" lon="11.246847942883198"><ele>421.66666666666663</ele><time>2026-04-26T09:12:06.999Z</time></trkpt><trkpt lat="43.51942718573537" lon="11.247001174091949"><ele>420.0</ele><time>2026-04-26T09:12:07.999Z</time></trkpt><trkpt lat="43.51928357193175" lon="11.247152378428208"><ele>419.0</ele><time>2026-04-26T09:12:08.999Z</time></trkpt><trkpt lat="43.51913273244811" lon="11.247308846207824"><ele>418.0</ele><time>2026-04-26T09:12:09.999Z</time></trkpt><trkpt lat="43.518974183183204" lon="11.247460904317746"><ele>417.0</ele><time>2026-04-26T09:12:10.999Z</time></trkpt><trkpt lat="43.51880904114425" lon="11.247604784826747"><ele>415.66666666666663</ele><time>2026-04-26T09:12:11.999Z</time></trkpt><trkpt lat="43.51863751612323" lon="11.247741223635062"><ele>414.3333333333333</ele><time>2026-04-26T09:12:12.999Z</time></trkpt><trkpt lat="43.51845805083387" lon="11.247862256338019"><ele>413.0</ele><time>2026-04-26T09:12:13.999Z</time></trkpt><trkpt lat="43.51827990529553" lon="11.247964372445185"><ele>413.0</ele><time>2026-04-26T09:12:14.999Z</time></trkpt><trkpt lat="43.518088974466" lon="11.248018071277958"><ele>413.0</ele><time>2026-04-26T09:12:15.999Z</time></trkpt><trkpt lat="43.51790327485105" lon="11.248068209278165"><ele>413.0</ele><time>2026-04-26T09:12:16.999Z</time></trkpt><trkpt lat="43.51771834200442" lon="11.248120465481081"><ele>412.0</ele><time>2026-04-26T09:12:17.999Z</time></trkpt><trkpt lat="43.51753105990099" lon="11.248134521568481"><ele>411.0</ele><time>2026-04-26T09:12:18.999Z</time></trkpt><trkpt lat="43.51733837988798" lon="11.24812880935117"><ele>410.0</ele><time>2026-04-26T09:12:19.999Z</time></trkpt><trkpt lat="43.51715599113678" lon="11.248068254059019"><ele>412.66666666666663</ele><time>2026-04-26T09:12:20.999Z</time></trkpt><trkpt lat="43.516971676946376" lon="11.248019462863189"><ele>415.33333333333337</ele><time>2026-04-26T09:12:21.999Z</time></trkpt><trkpt lat="43.5167942196774" lon="11.24798883447069"><ele>418.0</ele><time>2026-04-26T09:12:22.999Z</time></trkpt><trkpt lat="43.51663169708156" lon="11.247905307469818"><ele>418.0</ele><time>2026-04-26T09:12:23.999Z</time></trkpt><trkpt lat="43.5164736836861" lon="11.247808897015727"><ele>418.0</ele><time>2026-04-26T09:12:24.999Z</time></trkpt><trkpt lat="43.51633029165247" lon="11.247675458557767"><ele>418.0</ele><time>2026-04-26T09:12:25.999Z</time></trkpt><trkpt lat="43.516190206541424" lon="11.247513324298742"><ele>420.0</ele><time>2026-04-26T09:12:26.999Z</time></trkpt><trkpt lat="43.516039811516016" lon="11.247362747015629"><ele>422.0</ele><time>2026-04-26T09:12:27.999Z</time></trkpt><trkpt lat="43.515881098307005" lon="11.247227786524137"><ele>424.0</ele><time>2026-04-26T09:12:28.999Z</time></trkpt><trkpt lat="43.51570636547653" lon="11.247136199264363"><ele>424.6666666666667</ele><time>2026-04-26T09:12:29.999Z</time></trkpt><trkpt lat="43.51553015083401" lon="11.247055697956386"><ele>425.33333333333337</ele><time>2026-04-26T09:12:30.999Z</time></trkpt><trkpt lat="43.51535688744153" lon="11.24696830192175"><ele>426.0</ele><time>2026-04-26T09:12:31.999Z</time></trkpt><trkpt lat="43.51518715496263" lon="11.24689249106821"><ele>428.66666666666663</ele><time>2026-04-26T09:12:32.999Z</time></trkpt><trkpt lat="43.515012770432634" lon="11.246849336771348"><ele>431.3333333333333</ele><time>2026-04-26T09:12:33.999Z</time></trkpt><trkpt lat="43.514831998569264" lon="11.246862612867766"><ele>434.0</ele><time>2026-04-26T09:12:34.999Z</time></trkpt><trkpt lat="43.5146522148476" lon="11.246890064329152"><ele>439.0</ele><time>2026-04-26T09:12:35.999Z</time></trkpt><trkpt lat="43.51449276749525" lon="11.246829204408167"><ele>444.0</ele><time>2026-04-26T09:12:36.999Z</time></trkpt><trkpt lat="43.5143522027058" lon="11.24673390187869"><ele>449.0</ele><time>2026-04-26T09:12:37.999Z</time></trkpt><trkpt lat="43.51421043181726" lon="11.246609496089896"><ele>449.0</ele><time>2026-04-26T09:12:38.999Z</time></trkpt><trkpt lat="43.51407389601532" lon="11.246476596098974"><ele>449.0</ele><time>2026-04-26T09:12:39.999Z</time></trkpt><trkpt lat="43.51394164307334" lon="11.246332397029784"><ele>449.0</ele><time>2026-04-26T09:12:40.999Z</time></trkpt><trkpt lat="43.513830891659396" lon="11.246175107319413"><ele>448.5</ele><time>2026-04-26T09:12:41.999Z</time></trkpt><trkpt lat="43.51377408217157" lon="11.246013023936861"><ele>448.0</ele><time>2026-04-26T09:12:42.999Z</time></trkpt><trkpt lat="43.51376782129684" lon="11.245837893039416"><ele>447.5</ele><time>2026-04-26T09:12:43.999Z</time></trkpt><trkpt lat="43.513792516454636" lon="11.245656597652369"><ele>447.0</ele><time>2026-04-26T09:12:44.999Z</time></trkpt><trkpt lat="43.5138362298842" lon="11.245474039058475"><ele>446.75</ele><time>2026-04-26T09:12:45.999Z</time></trkpt><trkpt lat="43.51389616359361" lon="11.245301160060462"><ele>446.5</ele><time>2026-04-26T09:12:46.999Z</time></trkpt><trkpt lat="43.513913709071616" lon="11.24512910287054"><ele>446.25</ele><time>2026-04-26T09:12:47.999Z</time></trkpt><trkpt lat="43.51388240736054" lon="11.244948236577574"><ele>446.0</ele><time>2026-04-26T09:12:48.999Z</time></trkpt><trkpt lat="43.51379020598723" lon="11.244793640673425"><ele>451.66666666666663</ele><time>2026-04-26T09:12:49.999Z</time></trkpt><trkpt lat="43.51365297185755" lon="11.244689009318849"><ele>457.33333333333337</ele><time>2026-04-26T09:12:50.999Z</time></trkpt><trkpt lat="43.5135089764724" lon="11.2446078438526"><ele>463.0</ele><time>2026-04-26T09:12:51.999Z</time></trkpt><trkpt lat="43.5133688156616" lon="11.24451132245099"><ele>463.0</ele><time>2026-04-26T09:12:52.999Z</time></trkpt><trkpt lat="43.51324431845815" lon="11.244371921448403"><ele>463.0</ele><time>2026-04-26T09:12:53.999Z</time></trkpt><trkpt lat="43.513110936268305" lon="11.24423709920183"><ele>463.0</ele><time>2026-04-26T09:12:54.999Z</time></trkpt><trkpt lat="43.51297689122759" lon="11.24410163305863"><ele>465.33333333333337</ele><time>2026-04-26T09:12:55.999Z</time></trkpt><trkpt lat="43.51283800834986" lon="11.243980359022158"><ele>467.66666666666663</ele><time>2026-04-26T09:12:56.999Z</time></trkpt><trkpt lat="43.51271159455593" lon="11.243843732174843"><ele>470.0</ele><time>2026-04-26T09:12:57.999Z</time></trkpt><trkpt lat="43.512579063092716" lon="11.243746056947298"><ele>470.0</ele><time>2026-04-26T09:12:59Z</time></trkpt><trkpt lat="43.51243233089147" lon="11.243720655769955"><ele>470.0</ele><time>2026-04-26T09:13:00Z</time></trkpt><trkpt lat="43.5122851369359" lon="11.24377088683287"><ele>470.0</ele><time>2026-04-26T09:13:01Z</time></trkpt><trkpt lat="43.51213784207606" lon="11.243857605234217"><ele>469.75</ele><time>2026-04-26T09:13:02Z</time></trkpt><trkpt lat="43.51199391594258" lon="11.243922609255412"><ele>469.5</ele><time>2026-04-26T09:13:03Z</time></trkpt><trkpt lat="43.511852605799305" lon="11.243974246542608"><ele>469.25</ele><time>2026-04-26T09:13:04Z</time></trkpt><trkpt lat="43.51171525124738" lon="11.244020355276435"><ele>469.0</ele><time>2026-04-26T09:13:05Z</time></trkpt><trkpt lat="43.51157892515943" lon="11.244070663802434"><ele>472.75</ele><time>2026-04-26T09:13:06Z</time></trkpt><trkpt lat="43.51144801778088" lon="11.244116944289976"><ele>476.5</ele><time>2026-04-26T09:13:07Z</time></trkpt><trkpt lat="43.51132009613384" lon="11.244164362765048"><ele>480.25</ele><time>2026-04-26T09:13:08Z</time></trkpt><trkpt lat="43.51119315441495" lon="11.244216693677956"><ele>484.0</ele><time>2026-04-26T09:13:09Z</time></trkpt><trkpt lat="43.51106937467251" lon="11.244261805610329"><ele>484.5</ele><time>2026-04-26T09:13:10Z</time></trkpt><trkpt lat="43.510948095455674" lon="11.244265070463843"><ele>485.0</ele><time>2026-04-26T09:13:11Z</time></trkpt><trkpt lat="43.51082555855248" lon="11.244267330028519"><ele>485.5</ele><time>2026-04-26T09:13:12Z</time></trkpt><trkpt lat="43.51070744042318" lon="11.244255569495426"><ele>486.0</ele><time>2026-04-26T09:13:13Z</time></trkpt><trkpt lat="43.510590881488994" lon="11.244223981339093"><ele>486.0</ele><time>2026-04-26T09:13:14Z</time></trkpt><trkpt lat="43.51047358731727" lon="11.2441812924081"><ele>486.0</ele><time>2026-04-26T09:13:15Z</time></trkpt><trkpt lat="43.51036101329202" lon="11.24412705820549"><ele>486.0</ele><time>2026-04-26T09:13:16Z</time></trkpt><trkpt lat="43.51025088151301" lon="11.244053927108213"><ele>486.0</ele><time>2026-04-26T09:13:17Z</time></trkpt><trkpt lat="43.51015141395887" lon="11.243958733271867"><ele>487.5</ele><time>2026-04-26T09:13:18Z</time></trkpt><trkpt lat="43.5100731192094" lon="11.243829449035537"><ele>489.0</ele><time>2026-04-26T09:13:19Z</time></trkpt><trkpt lat="43.50999956913986" lon="11.24368378447728"><ele>490.5</ele><time>2026-04-26T09:13:20Z</time></trkpt><trkpt lat="43.50992550430791" lon="11.243535920828286"><ele>492.0</ele><time>2026-04-26T09:13:21Z</time></trkpt><trkpt lat="43.50984252778025" lon="11.243398439637142"><ele>492.0</ele><time>2026-04-26T09:13:22Z</time></trkpt><trkpt lat="43.50977870452663" lon="11.243249404491053"><ele>492.0</ele><time>2026-04-26T09:13:23Z</time></trkpt><trkpt lat="43.509691019398915" lon="11.24313630641015"><ele>492.0</ele><time>2026-04-26T09:13:24Z</time></trkpt><trkpt lat="43.509590477202245" lon="11.243044492169659"><ele>492.0</ele><time>2026-04-26T09:13:25Z</time></trkpt><trkpt lat="43.50948168399176" lon="11.242977297271263"><ele>493.6</ele><time>2026-04-26T09:13:26Z</time></trkpt><trkpt lat="43.50937109537468" lon="11.24292939700651"><ele>495.20000000000005</ele><time>2026-04-26T09:13:27Z</time></trkpt><trkpt lat="43.50927567395951" lon="11.242885738406539"><ele>496.8</ele><time>2026-04-26T09:13:28Z</time></trkpt><trkpt lat="43.50919520328549" lon="11.242846815051937"><ele>498.4</ele><time>2026-04-26T09:13:29Z</time></trkpt><trkpt lat="43.509120317104546" lon="11.242809668753948"><ele>500.0</ele><time>2026-04-26T09:13:30Z</time></trkpt><trkpt lat="43.50902282830568" lon="11.242792513056207"><ele>500.0</ele><time>2026-04-26T09:13:32Z</time></trkpt><trkpt lat="43.508946176517014" lon="11.24282019515458"><ele>500.0</ele><time>2026-04-26T09:13:35Z</time></trkpt><trkpt lat="43.50883729036409" lon="11.242901010262951"><ele>500.0</ele><time>2026-04-26T09:13:38Z</time></trkpt><trkpt lat="43.508771275819754" lon="11.24295824469066"><ele>500.0</ele><time>2026-04-26T09:13:39Z</time></trkpt><trkpt lat="43.5086788731376" lon="11.24302609396155"><ele>500.0</ele><time>2026-04-26T09:13:40Z</time></trkpt><trkpt lat="43.50857901756586" lon="11.243098855625593"><ele>500.0</ele><time>2026-04-26T09:13:41Z</time></trkpt><trkpt lat="43.50846685441368" lon="11.24315980368685"><ele>500.0</ele><time>2026-04-26T09:13:42Z</time></trkpt><trkpt lat="43.50834350043347" lon="11.2432031944934"><ele>500.0</ele><time>2026-04-26T09:13:43Z</time></trkpt><trkpt lat="43.50821342368574" lon="11.243229068840055"><ele>500.0</ele><time>2026-04-26T09:13:44Z</time></trkpt><trkpt lat="43.50807914012918" lon="11.243224578622002"><ele>500.0</ele><time>2026-04-26T09:13:45Z</time></trkpt><trkpt lat="43.507953444601384" lon="11.243213896018673"><ele>500.0</ele><time>2026-04-26T09:13:46Z</time></trkpt><trkpt lat="43.50783640283445" lon="11.243207461796079"><ele>500.0</ele><time>2026-04-26T09:13:47Z</time></trkpt><trkpt lat="43.50772901145593" lon="11.243201528504214"><ele>500.0</ele><time>2026-04-26T09:13:48Z</time></trkpt><trkpt lat="43.50763485972031" lon="11.243196747261255"><ele>500.0</ele><time>2026-04-26T09:13:49Z</time></trkpt><trkpt lat="43.50756799826772" lon="11.243196179156008"><ele>499.99999999999994</ele><time>2026-04-26T09:13:50Z</time></trkpt><trkpt lat="43.507502050809805" lon="11.243229080397438"><ele>500.0</ele><time>2026-04-26T09:14:52.999Z</time></trkpt><trkpt lat="43.5074100645465" lon="11.243244655608756"><ele>500.0</ele><time>2026-04-26T09:14:54.999Z</time></trkpt><trkpt lat="43.50728024787196" lon="11.243265253932138"><ele>500.0</ele><time>2026-04-26T09:14:56.999Z</time></trkpt><trkpt lat="43.50721445282516" lon="11.243282180765904"><ele>499.99999999999994</ele><time>2026-04-26T09:14:57.999Z</time></trkpt><trkpt lat="43.50713646904839" lon="11.243312934585214"><ele>500.0</ele><time>2026-04-26T09:14:58.999Z</time></trkpt><trkpt lat="43.50704561457418" lon="11.243358683891154"><ele>501.6</ele><time>2026-04-26T09:14:59.999Z</time></trkpt><trkpt lat="43.506950237106935" lon="11.24342026768484"><ele>503.2</ele><time>2026-04-26T09:15:00.999Z</time></trkpt><trkpt lat="43.506854845797584" lon="11.243486051927153"><ele>504.79999999999995</ele><time>2026-04-26T09:15:01.999Z</time></trkpt><trkpt lat="43.50675629175066" lon="11.243553980393035"><ele>506.4</ele><time>2026-04-26T09:15:02.999Z</time></trkpt><trkpt lat="43.5066495941695" lon="11.243613023719883"><ele>508.0</ele><time>2026-04-26T09:15:03.999Z</time></trkpt><trkpt lat="43.506533856060486" lon="11.24364337043462"><ele>508.0</ele><time>2026-04-26T09:15:05Z</time></trkpt><trkpt lat="43.50639676464225" lon="11.243623465511531"><ele>508.0</ele><time>2026-04-26T09:15:06Z</time></trkpt><trkpt lat="43.506264401627064" lon="11.243547595421957"><ele>508.0</ele><time>2026-04-26T09:15:07Z</time></trkpt><trkpt lat="43.506129646089505" lon="11.24348035590019"><ele>508.0</ele><time>2026-04-26T09:15:08Z</time></trkpt><trkpt lat="43.50598773979607" lon="11.243429863885293"><ele>511.33333333333337</ele><time>2026-04-26T09:15:09Z</time></trkpt><trkpt lat="43.505845116571116" lon="11.243352676564148"><ele>514.6666666666666</ele><time>2026-04-26T09:15:10Z</time></trkpt><trkpt lat="43.505697362600415" lon="11.243306015748914"><ele>518.0</ele><time>2026-04-26T09:15:11Z</time></trkpt><trkpt lat="43.50555043839702" lon="11.243294764152491"><ele>519.25</ele><time>2026-04-26T09:15:12Z</time></trkpt><trkpt lat="43.50540327896527" lon="11.2433206111572"><ele>520.5</ele><time>2026-04-26T09:15:13Z</time></trkpt><trkpt lat="43.505263376824544" lon="11.2433813617981"><ele>521.75</ele><time>2026-04-26T09:15:14Z</time></trkpt><trkpt lat="43.505132865580215" lon="11.243443022958484"><ele>523.0</ele><time>2026-04-26T09:15:15Z</time></trkpt><trkpt lat="43.50500280844499" lon="11.243507737495651"><ele>523.0</ele><time>2026-04-26T09:15:16Z</time></trkpt><trkpt lat="43.504874398876986" lon="11.24359280015556"><ele>523.0</ele><time>2026-04-26T09:15:17Z</time></trkpt><trkpt lat="43.50474838213893" lon="11.243704891052865"><ele>523.0</ele><time>2026-04-26T09:15:18Z</time></trkpt><trkpt lat="43.504624270401195" lon="11.243838758764563"><ele>523.6666666666667</ele><time>2026-04-26T09:15:19Z</time></trkpt><trkpt lat="43.5044915968698" lon="11.243984129585053"><ele>524.3333333333334</ele><time>2026-04-26T09:15:20Z</time></trkpt><trkpt lat="43.5043561595954" lon="11.24413228325625"><ele>525.0</ele><time>2026-04-26T09:15:21Z</time></trkpt><trkpt lat="43.504215525940126" lon="11.24428675354519"><ele>525.0</ele><time>2026-04-26T09:15:22Z</time></trkpt><trkpt lat="43.50406761528922" lon="11.244436117445444"><ele>525.0</ele><time>2026-04-26T09:15:23Z</time></trkpt><trkpt lat="43.50392211152689" lon="11.244596451736621"><ele>525.0</ele><time>2026-04-26T09:15:24Z</time></trkpt><trkpt lat="43.50379107361362" lon="11.244774077044118"><ele>527.0</ele><time>2026-04-26T09:15:25Z</time></trkpt><trkpt lat="43.503678121400156" lon="11.244982426872905"><ele>529.0</ele><time>2026-04-26T09:15:26Z</time></trkpt><trkpt lat="43.50357533859334" lon="11.245190185743983"><ele>531.0</ele><time>2026-04-26T09:15:27Z</time></trkpt><trkpt lat="43.5034703546686" lon="11.245398734755039"><ele>531.0</ele><time>2026-04-26T09:15:28Z</time></trkpt><trkpt lat="43.50335372215214" lon="11.245589932726386"><ele>531.0</ele><time>2026-04-26T09:15:29Z</time></trkpt><trkpt lat="43.503214893579894" lon="11.245753609953496"><ele>531.0</ele><time>2026-04-26T09:15:30Z</time></trkpt><trkpt lat="43.50306085337601" lon="11.24590165377274"><ele>528.0</ele><time>2026-04-26T09:15:31Z</time></trkpt><trkpt lat="43.50290551430336" lon="11.246058797959325"><ele>525.0</ele><time>2026-04-26T09:15:32Z</time></trkpt><trkpt lat="43.50276512388289" lon="11.246241180687456"><ele>522.0</ele><time>2026-04-26T09:15:33Z</time></trkpt><trkpt lat="43.50264964929265" lon="11.246449183911762"><ele>522.6666666666666</ele><time>2026-04-26T09:15:34Z</time></trkpt><trkpt lat="43.50255981916888" lon="11.246678135594824"><ele>523.3333333333333</ele><time>2026-04-26T09:15:35Z</time></trkpt><trkpt lat="43.5024859298652" lon="11.246916896704265"><ele>524.0</ele><time>2026-04-26T09:15:36Z</time></trkpt><trkpt lat="43.50243286603623" lon="11.24717173008621"><ele>525.3333333333333</ele><time>2026-04-26T09:15:37Z</time></trkpt><trkpt lat="43.50238384403127" lon="11.247429754334405"><ele>526.6666666666666</ele><time>2026-04-26T09:15:38Z</time></trkpt><trkpt lat="43.50232814340216" lon="11.247687081174282"><ele>528.0</ele><time>2026-04-26T09:15:39Z</time></trkpt><trkpt lat="43.50226987130065" lon="11.247938106953184"><ele>528.3333333333334</ele><time>2026-04-26T09:15:40Z</time></trkpt><trkpt lat="43.5022157715422" lon="11.248191808593852"><ele>528.6666666666667</ele><time>2026-04-26T09:15:41Z</time></trkpt><trkpt lat="43.50218404515934" lon="11.24844307152275"><ele>529.0</ele><time>2026-04-26T09:15:42Z</time></trkpt><trkpt lat="43.50218216837191" lon="11.248691494739434"><ele>529.0</ele><time>2026-04-26T09:15:43Z</time></trkpt><trkpt lat="43.50219693922768" lon="11.248913115998"><ele>529.0</ele><time>2026-04-26T09:15:44Z</time></trkpt><trkpt lat="43.5021930325087" lon="11.24912633757073"><ele>529.0</ele><time>2026-04-26T09:15:45Z</time></trkpt><trkpt lat="43.50214628445851" lon="11.24932648057006"><ele>534.5</ele><time>2026-04-26T09:15:46Z</time></trkpt><trkpt lat="43.50205979173706" lon="11.249494296288745"><ele>540.0</ele><time>2026-04-26T09:15:47Z</time></trkpt><trkpt lat="43.501942842314854" lon="11.249621775521021"><ele>545.5</ele><time>2026-04-26T09:15:48Z</time></trkpt><trkpt lat="43.50180469193201" lon="11.24969117960278"><ele>551.0</ele><time>2026-04-26T09:15:49Z</time></trkpt><trkpt lat="43.50165018050123" lon="11.249709544553285"><ele>551.0</ele><time>2026-04-26T09:15:50Z</time></trkpt><trkpt lat="43.50149262800579" lon="11.249715374984056"><ele>551.0</ele><time>2026-04-26T09:15:51Z</time></trkpt><trkpt lat="43.5013285432881" lon="11.249722736342022"><ele>551.0</ele><time>2026-04-26T09:15:52Z</time></trkpt><trkpt lat="43.50116066298865" lon="11.249733520400046"><ele>553.6666666666666</ele><time>2026-04-26T09:15:53Z</time></trkpt><trkpt lat="43.50099128783973" lon="11.249743592321702"><ele>556.3333333333334</ele><time>2026-04-26T09:15:54Z</time></trkpt><trkpt lat="43.50081531152563" lon="11.249754904533905"><ele>559.0</ele><time>2026-04-26T09:15:55Z</time></trkpt><trkpt lat="43.500637390747734" lon="11.249769056678765"><ele>556.3333333333334</ele><time>2026-04-26T09:15:56Z</time></trkpt><trkpt lat="43.500456730409056" lon="11.24979243904024"><ele>553.6666666666666</ele><time>2026-04-26T09:15:57Z</time></trkpt><trkpt lat="43.50027248381413" lon="11.249819266972361"><ele>551.0</ele><time>2026-04-26T09:15:58Z</time></trkpt><trkpt lat="43.50008670136508" lon="11.249843033141879"><ele>551.0</ele><time>2026-04-26T09:15:59Z</time></trkpt><trkpt lat="43.49989904951127" lon="11.249864274720457"><ele>551.0</ele><time>2026-04-26T09:16:00Z</time></trkpt><trkpt lat="43.4997111205183" lon="11.249884728775"><ele>551.0</ele><time>2026-04-26T09:16:01Z</time></trkpt><trkpt lat="43.49952035219621" lon="11.249906914766104"><ele>551.3333333333333</ele><time>2026-04-26T09:16:02Z</time></trkpt><trkpt lat="43.4993268533935" lon="11.249931188506563"><ele>551.6666666666666</ele><time>2026-04-26T09:16:03Z</time></trkpt><trkpt lat="43.499131928609394" lon="11.249953743507811"><ele>552.0</ele><time>2026-04-26T09:16:04Z</time></trkpt><trkpt lat="43.49893532671207" lon="11.249975665382314"><ele>553.0</ele><time>2026-04-26T09:16:05Z</time></trkpt><trkpt lat="43.498736495666634" lon="11.2500113980236"><ele>554.0</ele><time>2026-04-26T09:16:06Z</time></trkpt><trkpt lat="43.49854026405643" lon="11.250079017898459"><ele>555.0</ele><time>2026-04-26T09:16:07Z</time></trkpt><trkpt lat="43.498356580764856" lon="11.250198660940388"><ele>555.0</ele><time>2026-04-26T09:16:08Z</time></trkpt><trkpt lat="43.49819105181574" lon="11.250351169143379"><ele>555.0</ele><time>2026-04-26T09:16:09Z</time></trkpt><trkpt lat="43.49804750876271" lon="11.25052414492402"><ele>555.0</ele><time>2026-04-26T09:16:10Z</time></trkpt><trkpt lat="43.49791824116693" lon="11.250706728774"><ele>558.6666666666666</ele><time>2026-04-26T09:16:10.999Z</time></trkpt><trkpt lat="43.4977847775832" lon="11.250866756757286"><ele>562.3333333333333</ele><time>2026-04-26T09:16:11.999Z</time></trkpt><trkpt lat="43.497629864176176" lon="11.250946865604416"><ele>566.0</ele><time>2026-04-26T09:16:12.999Z</time></trkpt><trkpt lat="43.497476000623465" lon="11.251003680333755"><ele>566.0</ele><time>2026-04-26T09:16:13.999Z</time></trkpt><trkpt lat="43.49731642610255" lon="11.251007446239825"><ele>566.0</ele><time>2026-04-26T09:16:14.999Z</time></trkpt><trkpt lat="43.49715619863369" lon="11.250967828645257"><ele>566.0</ele><time>2026-04-26T09:16:15.999Z</time></trkpt><trkpt lat="43.49699303257358" lon="11.250902869515915"><ele>565.0</ele><time>2026-04-26T09:16:16.999Z</time></trkpt><trkpt lat="43.49682778829577" lon="11.250833790002066"><ele>564.0</ele><time>2026-04-26T09:16:17.999Z</time></trkpt><trkpt lat="43.49666841263583" lon="11.25072933187804"><ele>563.0</ele><time>2026-04-26T09:16:18.999Z</time></trkpt><trkpt lat="43.49651687406624" lon="11.250617103553967"><ele>563.3333333333333</ele><time>2026-04-26T09:16:19.999Z</time></trkpt><trkpt lat="43.49637902781674" lon="11.250524396221092"><ele>563.6666666666666</ele><time>2026-04-26T09:16:20.999Z</time></trkpt><trkpt lat="43.496232061039514" lon="11.250454318407666"><ele>564.0</ele><time>2026-04-26T09:16:21.999Z</time></trkpt><trkpt lat="43.496086961212164" lon="11.250447910094067"><ele>564.0</ele><time>2026-04-26T09:16:22.999Z</time></trkpt><trkpt lat="43.49593986664273" lon="11.25052020627908"><ele>564.0</ele><time>2026-04-26T09:16:23.999Z</time></trkpt><trkpt lat="43.495808885091314" lon="11.250674382435584"><ele>564.0</ele><time>2026-04-26T09:16:24.999Z</time></trkpt><trkpt lat="43.495706686590545" lon="11.250865146894883"><ele>564.0</ele><time>2026-04-26T09:16:25.999Z</time></trkpt><trkpt lat="43.495611681120685" lon="11.251060781726574"><ele>564.0</ele><time>2026-04-26T09:16:26.999Z</time></trkpt><trkpt lat="43.49552273673425" lon="11.25125005497178"><ele>564.0</ele><time>2026-04-26T09:16:27.999Z</time></trkpt><trkpt lat="43.495450144928796" lon="11.251445268702064"><ele>563.6666666666666</ele><time>2026-04-26T09:16:28.999Z</time></trkpt><trkpt lat="43.49541023226443" lon="11.251648965498614"><ele>563.3333333333333</ele><time>2026-04-26T09:16:29.999Z</time></trkpt><trkpt lat="43.4953890784271" lon="11.251868391607843"><ele>563.0</ele><time>2026-04-26T09:16:30.999Z</time></trkpt><trkpt lat="43.49536041505609" lon="11.25208359483251"><ele>564.0</ele><time>2026-04-26T09:16:31.999Z</time></trkpt><trkpt lat="43.495312632398395" lon="11.25230204879605"><ele>565.0</ele><time>2026-04-26T09:16:32.999Z</time></trkpt><trkpt lat="43.495240499895274" lon="11.252508915629141"><ele>566.0</ele><time>2026-04-26T09:16:33.999Z</time></trkpt><trkpt lat="43.49513288383137" lon="11.252688065828968"><ele>566.0</ele><time>2026-04-26T09:16:34.999Z</time></trkpt><trkpt lat="43.495024737530066" lon="11.252856667053315"><ele>566.0</ele><time>2026-04-26T09:16:35.999Z</time></trkpt><trkpt lat="43.49490747793932" lon="11.253007444640728"><ele>566.0</ele><time>2026-04-26T09:16:36.999Z</time></trkpt><trkpt lat="43.494784029567526" lon="11.253157610488946"><ele>568.3333333333333</ele><time>2026-04-26T09:16:37.999Z</time></trkpt><trkpt lat="43.49471026935218" lon="11.253354384722101"><ele>570.6666666666666</ele><time>2026-04-26T09:16:38.999Z</time></trkpt><trkpt lat="43.49467660500474" lon="11.253577224989039"><ele>573.0</ele><time>2026-04-26T09:16:39.999Z</time></trkpt><trkpt lat="43.49466865734517" lon="11.253805186635558"><ele>574.6666666666666</ele><time>2026-04-26T09:16:40.999Z</time></trkpt><trkpt lat="43.49466086360949" lon="11.25402540936576"><ele>576.3333333333333</ele><time>2026-04-26T09:16:41.999Z</time></trkpt><trkpt lat="43.49465754853408" lon="11.25424663235344"><ele>578.0</ele><time>2026-04-26T09:16:42.999Z</time></trkpt><trkpt lat="43.4946547239357" lon="11.254459666525669"><ele>578.0</ele><time>2026-04-26T09:16:43.999Z</time></trkpt><trkpt lat="43.49465118575576" lon="11.254680064490051"><ele>578.0</ele><time>2026-04-26T09:16:44.999Z</time></trkpt><trkpt lat="43.49462720776717" lon="11.254897536297026"><ele>578.0</ele><time>2026-04-26T09:16:45.999Z</time></trkpt><trkpt lat="43.49455287745648" lon="11.255106560315424"><ele>576.0</ele><time>2026-04-26T09:16:46.999Z</time></trkpt><trkpt lat="43.49447526232335" lon="11.255311834335883"><ele>574.0</ele><time>2026-04-26T09:16:47.999Z</time></trkpt><trkpt lat="43.494394854207506" lon="11.255506755810641"><ele>572.0</ele><time>2026-04-26T09:16:48.999Z</time></trkpt><trkpt lat="43.4943075732728" lon="11.255665957424128"><ele>575.0</ele><time>2026-04-26T09:16:49.999Z</time></trkpt><trkpt lat="43.49419392253608" lon="11.255775804022102"><ele>578.0</ele><time>2026-04-26T09:16:50.999Z</time></trkpt><trkpt lat="43.49405429980849" lon="11.255830108741458"><ele>581.0</ele><time>2026-04-26T09:16:51.999Z</time></trkpt><trkpt lat="43.49391451155261" lon="11.255782191138824"><ele>584.0</ele><time>2026-04-26T09:16:52.999Z</time></trkpt><trkpt lat="43.4937620517263" lon="11.255730216858678"><ele>584.0</ele><time>2026-04-26T09:16:53.999Z</time></trkpt><trkpt lat="43.493615567212494" lon="11.255679855303951"><ele>584.0</ele><time>2026-04-26T09:16:54.999Z</time></trkpt><trkpt lat="43.49348219228451" lon="11.25566094627544"><ele>584.0</ele><time>2026-04-26T09:16:55.999Z</time></trkpt><trkpt lat="43.493366448253674" lon="11.25570443089004"><ele>584.0</ele><time>2026-04-26T09:16:56.999Z</time></trkpt><trkpt lat="43.493278326200624" lon="11.255806165685637"><ele>584.0</ele><time>2026-04-26T09:16:57.999Z</time></trkpt><trkpt lat="43.49321214640915" lon="11.255939031887097"><ele>584.0</ele><time>2026-04-26T09:16:58.999Z</time></trkpt><trkpt lat="43.49317087981211" lon="11.256098578899568"><ele>584.0</ele><time>2026-04-26T09:16:59.999Z</time></trkpt><trkpt lat="43.493139775810775" lon="11.256262687340579"><ele>584.0</ele><time>2026-04-26T09:17:00.999Z</time></trkpt><trkpt lat="43.49311694409425" lon="11.256434117646501"><ele>585.0</ele><time>2026-04-26T09:17:01.999Z</time></trkpt><trkpt lat="43.493098695777284" lon="11.25660915451134"><ele>586.0</ele><time>2026-04-26T09:17:02.999Z</time></trkpt><trkpt lat="43.493079395349895" lon="11.256786026506985"><ele>587.0</ele><time>2026-04-26T09:17:03.999Z</time></trkpt><trkpt lat="43.493056478297575" lon="11.256962552736534"><ele>588.0</ele><time>2026-04-26T09:17:04.999Z</time></trkpt><trkpt lat="43.4930234900882" lon="11.2571356857619"><ele>588.0</ele><time>2026-04-26T09:17:05.999Z</time></trkpt><trkpt lat="43.492952012685734" lon="11.257282172423558"><ele>588.0</ele><time>2026-04-26T09:17:06.999Z</time></trkpt><trkpt lat="43.492871851465566" lon="11.257409517427094"><ele>588.0</ele><time>2026-04-26T09:17:07.999Z</time></trkpt><trkpt lat="43.49277776078239" lon="11.257513023339436"><ele>588.0</ele><time>2026-04-26T09:17:08.999Z</time></trkpt><trkpt lat="43.49268036336725" lon="11.257602296460147"><ele>588.1999999999999</ele><time>2026-04-26T09:17:09.999Z</time></trkpt><trkpt lat="43.49258294890551" lon="11.25764737597731"><ele>588.4</ele><time>2026-04-26T09:17:11Z</time></trkpt><trkpt lat="43.49249829316932" lon="11.257695075933526"><ele>588.5999999999999</ele><time>2026-04-26T09:17:12Z</time></trkpt><trkpt lat="43.492415099687605" lon="11.257763581443234"><ele>588.8</ele><time>2026-04-26T09:17:13Z</time></trkpt><trkpt lat="43.49232592295584" lon="11.257864450796538"><ele>589.0</ele><time>2026-04-26T09:17:14Z</time></trkpt><trkpt lat="43.49222766792243" lon="11.257996855014246"><ele>589.6666666666667</ele><time>2026-04-26T09:17:15Z</time></trkpt><trkpt lat="43.4921280768431" lon="11.25815493217078"><ele>590.3333333333334</ele><time>2026-04-26T09:17:16Z</time></trkpt><trkpt lat="43.49202519015117" lon="11.25833300728691"><ele>591.0</ele><time>2026-04-26T09:17:17Z</time></trkpt><trkpt lat="43.49190799484351" lon="11.258519135588198"><ele>591.0</ele><time>2026-04-26T09:17:18Z</time></trkpt><trkpt lat="43.491777117042076" lon="11.258695474364263"><ele>591.0</ele><time>2026-04-26T09:17:19Z</time></trkpt><trkpt lat="43.491619226385616" lon="11.258834124008592"><ele>591.0</ele><time>2026-04-26T09:17:20Z</time></trkpt><trkpt lat="43.49146050906711" lon="11.258961590840457"><ele>591.0</ele><time>2026-04-26T09:17:21Z</time></trkpt><trkpt lat="43.491299486076265" lon="11.259094667949277"><ele>591.0</ele><time>2026-04-26T09:17:22Z</time></trkpt><trkpt lat="43.49112600040219" lon="11.259185149540084"><ele>591.0</ele><time>2026-04-26T09:17:23Z</time></trkpt><trkpt lat="43.49096010553231" lon="11.259271355018551"><ele>593.3333333333334</ele><time>2026-04-26T09:17:24Z</time></trkpt><trkpt lat="43.49079780106614" lon="11.25937095493777"><ele>595.6666666666667</ele><time>2026-04-26T09:17:25Z</time></trkpt><trkpt lat="43.490647152852404" lon="11.259466326966706"><ele>598.0</ele><time>2026-04-26T09:17:26Z</time></trkpt><trkpt lat="43.49050699945964" lon="11.259570594858413"><ele>595.3333333333334</ele><time>2026-04-26T09:17:27Z</time></trkpt><trkpt lat="43.49038466341243" lon="11.259709706252329"><ele>592.6666666666666</ele><time>2026-04-26T09:17:28Z</time></trkpt><trkpt lat="43.49030278790957" lon="11.259894770967573"><ele>590.0</ele><time>2026-04-26T09:17:29Z</time></trkpt><trkpt lat="43.49024520648364" lon="11.260097987245931"><ele>590.0</ele><time>2026-04-26T09:17:30Z</time></trkpt><trkpt lat="43.49018495545716" lon="11.260314430123774"><ele>590.0</ele><time>2026-04-26T09:17:31Z</time></trkpt><trkpt lat="43.49006805540132" lon="11.260496131104343"><ele>590.0</ele><time>2026-04-26T09:17:32Z</time></trkpt><trkpt lat="43.48992471297429" lon="11.26062065220684"><ele>591.6666666666666</ele><time>2026-04-26T09:17:33Z</time></trkpt><trkpt lat="43.48975005340798" lon="11.260691648751326"><ele>593.3333333333334</ele><time>2026-04-26T09:17:34Z</time></trkpt><trkpt lat="43.48956376461009" lon="11.26072710752787"><ele>595.0</ele><time>2026-04-26T09:17:35Z</time></trkpt><trkpt lat="43.48937730548889" lon="11.26075060038274"><ele>595.0</ele><time>2026-04-26T09:17:36Z</time></trkpt><trkpt lat="43.489201028645816" lon="11.26079655687263"><ele>595.0</ele><time>2026-04-26T09:17:37Z</time></trkpt><trkpt lat="43.489034436774745" lon="11.260904111088747"><ele>595.0</ele><time>2026-04-26T09:17:38Z</time></trkpt><trkpt lat="43.48887515728752" lon="11.26105939607273"><ele>595.6666666666667</ele><time>2026-04-26T09:17:39Z</time></trkpt><trkpt lat="43.488715273215064" lon="11.261205352187837"><ele>596.3333333333334</ele><time>2026-04-26T09:17:40Z</time></trkpt><trkpt lat="43.4885533044651" lon="11.261337308665189"><ele>597.0</ele><time>2026-04-26T09:17:41Z</time></trkpt><trkpt lat="43.48838840830732" lon="11.261457603798442"><ele>597.0</ele><time>2026-04-26T09:17:42Z</time></trkpt><trkpt lat="43.488217322822706" lon="11.26157074734541"><ele>597.0</ele><time>2026-04-26T09:17:43Z</time></trkpt><trkpt lat="43.488036370968445" lon="11.261666620612768"><ele>597.0</ele><time>2026-04-26T09:17:44Z</time></trkpt><trkpt lat="43.48785256057902" lon="11.261768284586855"><ele>596.3333333333334</ele><time>2026-04-26T09:17:45Z</time></trkpt><trkpt lat="43.487688852910516" lon="11.261910926503955"><ele>595.6666666666667</ele><time>2026-04-26T09:17:46Z</time></trkpt><trkpt lat="43.4875577135103" lon="11.262100642047933"><ele>595.0</ele><time>2026-04-26T09:17:47Z</time></trkpt><trkpt lat="43.487452503560995" lon="11.262332468016526"><ele>594.6666666666667</ele><time>2026-04-26T09:17:48Z</time></trkpt><trkpt lat="43.48734979823342" lon="11.262562071134377"><ele>594.3333333333334</ele><time>2026-04-26T09:17:49Z</time></trkpt><trkpt lat="43.487212357069836" lon="11.262733430802733"><ele>594.0</ele><time>2026-04-26T09:17:50Z</time></trkpt><trkpt lat="43.48707670037629" lon="11.262909828979101"><ele>592.3333333333334</ele><time>2026-04-26T09:17:51Z</time></trkpt><trkpt lat="43.486911753040566" lon="11.263040478432565"><ele>590.6666666666667</ele><time>2026-04-26T09:17:52Z</time></trkpt><trkpt lat="43.48674338542165" lon="11.26315399128072"><ele>589.0</ele><time>2026-04-26T09:17:53Z</time></trkpt><trkpt lat="43.48656984083467" lon="11.26324713996604"><ele>592.0</ele><time>2026-04-26T09:17:54Z</time></trkpt><trkpt lat="43.48639585510088" lon="11.263331728506257"><ele>595.0</ele><time>2026-04-26T09:17:55Z</time></trkpt><trkpt lat="43.48622652521957" lon="11.263419770557046"><ele>598.0</ele><time>2026-04-26T09:17:56Z</time></trkpt><trkpt lat="43.48605550037813" lon="11.263512252417113"><ele>598.0</ele><time>2026-04-26T09:17:57Z</time></trkpt><trkpt lat="43.48587952391226" lon="11.263570053837114"><ele>598.0</ele><time>2026-04-26T09:17:58Z</time></trkpt><trkpt lat="43.485703505615014" lon="11.26365027172972"><ele>598.0</ele><time>2026-04-26T09:17:59Z</time></trkpt><trkpt lat="43.4855187592043" lon="11.263698391730843"><ele>599.0</ele><time>2026-04-26T09:18:00Z</time></trkpt><trkpt lat="43.48533181758694" lon="11.263762717857366"><ele>600.0</ele><time>2026-04-26T09:18:01Z</time></trkpt><trkpt lat="43.48515104203399" lon="11.263851811817894"><ele>601.0</ele><time>2026-04-26T09:18:02Z</time></trkpt><trkpt lat="43.4849832763741" lon="11.26397923505515"><ele>599.0</ele><time>2026-04-26T09:18:03Z</time></trkpt><trkpt lat="43.48483305571956" lon="11.264126842085677"><ele>597.0</ele><time>2026-04-26T09:18:04Z</time></trkpt><trkpt lat="43.48468984302401" lon="11.264296011881706"><ele>595.0</ele><time>2026-04-26T09:18:05Z</time></trkpt><trkpt lat="43.48455539155605" lon="11.264488044563493"><ele>593.6666666666667</ele><time>2026-04-26T09:18:06Z</time></trkpt><trkpt lat="43.48441458129361" lon="11.264687283500326"><ele>592.3333333333334</ele><time>2026-04-26T09:18:07Z</time></trkpt><trkpt lat="43.48426585417466" lon="11.264886315945924"><ele>591.0</ele><time>2026-04-26T09:18:08Z</time></trkpt><trkpt lat="43.48409943338942" lon="11.265070446285861"><ele>591.0</ele><time>2026-04-26T09:18:09Z</time></trkpt><trkpt lat="43.48391938560585" lon="11.26523383010395"><ele>591.0</ele><time>2026-04-26T09:18:10Z</time></trkpt><trkpt lat="43.483730509327984" lon="11.265375741186665"><ele>591.0</ele><time>2026-04-26T09:18:11Z</time></trkpt><trkpt lat="43.483550140879935" lon="11.265519970975568"><ele>591.6666666666666</ele><time>2026-04-26T09:18:12Z</time></trkpt><trkpt lat="43.483391407597566" lon="11.265672880601933"><ele>592.3333333333333</ele><time>2026-04-26T09:18:12.999Z</time></trkpt><trkpt lat="43.48327546531352" lon="11.265847809576485"><ele>593.0</ele><time>2026-04-26T09:18:13.999Z</time></trkpt><trkpt lat="43.48319926994541" lon="11.266051911959801"><ele>593.0</ele><time>2026-04-26T09:18:14.999Z</time></trkpt><trkpt lat="43.48314683747042" lon="11.266274418957115"><ele>593.0</ele><time>2026-04-26T09:18:15.999Z</time></trkpt><trkpt lat="43.483118093943034" lon="11.266489454104024"><ele>593.0</ele><time>2026-04-26T09:18:16.999Z</time></trkpt><trkpt lat="43.48308661659313" lon="11.266704717617007"><ele>594.3333333333333</ele><time>2026-04-26T09:18:17.999Z</time></trkpt><trkpt lat="43.48303014046885" lon="11.266919912376505"><ele>595.6666666666666</ele><time>2026-04-26T09:18:18.999Z</time></trkpt><trkpt lat="43.482921602030466" lon="11.267104972835288"><ele>597.0</ele><time>2026-04-26T09:18:19.999Z</time></trkpt><trkpt lat="43.48276217809521" lon="11.267237180507205"><ele>598.0</ele><time>2026-04-26T09:18:20.999Z</time></trkpt><trkpt lat="43.482610239564444" lon="11.267389151910871"><ele>599.0</ele><time>2026-04-26T09:18:21.999Z</time></trkpt><trkpt lat="43.4824505428951" lon="11.267516182534806"><ele>600.0</ele><time>2026-04-26T09:18:22.999Z</time></trkpt><trkpt lat="43.48229469311411" lon="11.267641629710091"><ele>600.0</ele><time>2026-04-26T09:18:23.999Z</time></trkpt><trkpt lat="43.48213993948997" lon="11.267762760566052"><ele>600.0</ele><time>2026-04-26T09:18:24.999Z</time></trkpt><trkpt lat="43.481988393686" lon="11.267888500227517"><ele>600.0</ele><time>2026-04-26T09:18:25.999Z</time></trkpt><trkpt lat="43.48183258186641" lon="11.268020557794713"><ele>604.0</ele><time>2026-04-26T09:18:26.999Z</time></trkpt><trkpt lat="43.481661292964695" lon="11.268111165180967"><ele>608.0</ele><time>2026-04-26T09:18:27.999Z</time></trkpt><trkpt lat="43.481486732368964" lon="11.268184031437874"><ele>612.0</ele><time>2026-04-26T09:18:28.999Z</time></trkpt><trkpt lat="43.481317850635335" lon="11.26827189367647"><ele>613.0</ele><time>2026-04-26T09:18:29.999Z</time></trkpt><trkpt lat="43.48114975180692" lon="11.268334856451952"><ele>614.0</ele><time>2026-04-26T09:18:30.999Z</time></trkpt><trkpt lat="43.480987302606124" lon="11.268356551748562"><ele>615.0</ele><time>2026-04-26T09:18:31.999Z</time></trkpt><trkpt lat="43.48081913007695" lon="11.26835620246482"><ele>615.0</ele><time>2026-04-26T09:18:32.999Z</time></trkpt><trkpt lat="43.480664119679375" lon="11.268335136438342"><ele>615.0</ele><time>2026-04-26T09:18:33.999Z</time></trkpt><trkpt lat="43.48049437373429" lon="11.268305339771024"><ele>615.0</ele><time>2026-04-26T09:18:34.999Z</time></trkpt><trkpt lat="43.48032724870647" lon="11.268262877328333"><ele>615.0</ele><time>2026-04-26T09:18:35.999Z</time></trkpt><trkpt lat="43.48016082105204" lon="11.268211207147573"><ele>615.0</ele><time>2026-04-26T09:18:36.999Z</time></trkpt><trkpt lat="43.47998945760436" lon="11.268160110880551"><ele>615.0</ele><time>2026-04-26T09:18:37.999Z</time></trkpt><trkpt lat="43.47981288914881" lon="11.268136022155035"><ele>616.6666666666666</ele><time>2026-04-26T09:18:38.999Z</time></trkpt><trkpt lat="43.47963862395586" lon="11.268106882871125"><ele>618.3333333333333</ele><time>2026-04-26T09:18:39.999Z</time></trkpt><trkpt lat="43.47945951986605" lon="11.268094066134967"><ele>620.0</ele><time>2026-04-26T09:18:40.999Z</time></trkpt><trkpt lat="43.47927881468599" lon="11.26809442231679"><ele>620.0</ele><time>2026-04-26T09:18:41.999Z</time></trkpt><trkpt lat="43.47910662946362" lon="11.268086452711275"><ele>620.0</ele><time>2026-04-26T09:18:42.999Z</time></trkpt><trkpt lat="43.47894651884474" lon="11.268068422967215"><ele>620.0</ele><time>2026-04-26T09:18:43.999Z</time></trkpt><trkpt lat="43.47879490442798" lon="11.268069280306738"><ele>621.6666666666666</ele><time>2026-04-26T09:18:44.999Z</time></trkpt><trkpt lat="43.478641015699075" lon="11.268124455718159"><ele>623.3333333333334</ele><time>2026-04-26T09:18:45.999Z</time></trkpt><trkpt lat="43.478497400149124" lon="11.26824041506594"><ele>625.0</ele><time>2026-04-26T09:18:46.999Z</time></trkpt><trkpt lat="43.47837341236727" lon="11.268385549908883"><ele>625.0</ele><time>2026-04-26T09:18:47.999Z</time></trkpt><trkpt lat="43.47826200957302" lon="11.268551175080912"><ele>625.0</ele><time>2026-04-26T09:18:48.999Z</time></trkpt><trkpt lat="43.478155688678896" lon="11.268724717840772"><ele>625.0</ele><time>2026-04-26T09:18:49.999Z</time></trkpt><trkpt lat="43.478026146989954" lon="11.268881200898383"><ele>625.0</ele><time>2026-04-26T09:18:50.999Z</time></trkpt><trkpt lat="43.47790440797144" lon="11.269047733482367"><ele>625.0</ele><time>2026-04-26T09:18:51.999Z</time></trkpt><trkpt lat="43.477786157569824" lon="11.269219015861736"><ele>625.0</ele><time>2026-04-26T09:18:52.999Z</time></trkpt><trkpt lat="43.47767169286005" lon="11.269377209041515"><ele>625.0</ele><time>2026-04-26T09:18:53.999Z</time></trkpt><trkpt lat="43.4775573623832" lon="11.269524465234413"><ele>625.0</ele><time>2026-04-26T09:18:54.999Z</time></trkpt><trkpt lat="43.477443810849934" lon="11.26966132050526"><ele>625.0</ele><time>2026-04-26T09:18:55.999Z</time></trkpt><trkpt lat="43.477331365254244" lon="11.269792602980067"><ele>624.75</ele><time>2026-04-26T09:18:56.999Z</time></trkpt><trkpt lat="43.477229543197154" lon="11.2699212720272"><ele>624.5</ele><time>2026-04-26T09:18:57.999Z</time></trkpt><trkpt lat="43.47713692536228" lon="11.270046969043017"><ele>624.25</ele><time>2026-04-26T09:18:58.999Z</time></trkpt><trkpt lat="43.47705699826933" lon="11.270178444907112"><ele>624.0</ele><time>2026-04-26T09:18:59.999Z</time></trkpt><trkpt lat="43.4769879973957" lon="11.270313231206455"><ele>624.0</ele><time>2026-04-26T09:19:00.999Z</time></trkpt><trkpt lat="43.476929839105274" lon="11.270443270240822"><ele>624.0</ele><time>2026-04-26T09:19:01.999Z</time></trkpt><trkpt lat="43.476875171729155" lon="11.27057549246611"><ele>624.0</ele><time>2026-04-26T09:19:02.999Z</time></trkpt><trkpt lat="43.476819493907264" lon="11.270709715029335"><ele>624.0</ele><time>2026-04-26T09:19:03.999Z</time></trkpt><trkpt lat="43.47676338578456" lon="11.27084511215645"><ele>624.0</ele><time>2026-04-26T09:19:04.999Z</time></trkpt><trkpt lat="43.47670871277952" lon="11.27097924297205"><ele>624.4</ele><time>2026-04-26T09:19:05.999Z</time></trkpt><trkpt lat="43.47665284600271" lon="11.271112726476574"><ele>624.8</ele><time>2026-04-26T09:19:06.999Z</time></trkpt><trkpt lat="43.47659967770763" lon="11.27124285319381"><ele>625.2</ele><time>2026-04-26T09:19:07.999Z</time></trkpt><trkpt lat="43.47654716921173" lon="11.27137380695525"><ele>625.6</ele><time>2026-04-26T09:19:08.999Z</time></trkpt><trkpt lat="43.47648762846237" lon="11.27149849616662"><ele>626.0</ele><time>2026-04-26T09:19:09.999Z</time></trkpt><trkpt lat="43.47641920282219" lon="11.271617600224385"><ele>626.75</ele><time>2026-04-26T09:19:10.999Z</time></trkpt><trkpt lat="43.476334309598045" lon="11.271740557642518"><ele>627.5</ele><time>2026-04-26T09:19:11.999Z</time></trkpt><trkpt lat="43.476238465708214" lon="11.271859960415908"><ele>628.25</ele><time>2026-04-26T09:19:12.999Z</time></trkpt><trkpt lat="43.47614583078597" lon="11.271966451957352"><ele>629.0</ele><time>2026-04-26T09:19:13.999Z</time></trkpt><trkpt lat="43.476058302473795" lon="11.272066807169075"><ele>626.6</ele><time>2026-04-26T09:19:14.999Z</time></trkpt><trkpt lat="43.47597148112544" lon="11.272160623321168"><ele>624.2</ele><time>2026-04-26T09:19:15.999Z</time></trkpt><trkpt lat="43.4758880700425" lon="11.272248559935885"><ele>621.8000000000001</ele><time>2026-04-26T09:19:17Z</time></trkpt><trkpt lat="43.475801390208446" lon="11.272341225220933"><ele>619.4</ele><time>2026-04-26T09:19:18Z</time></trkpt><trkpt lat="43.47571102847743" lon="11.272443507580608"><ele>617.0</ele><time>2026-04-26T09:19:19Z</time></trkpt><trkpt lat="43.47561462690651" lon="11.27256299118864"><ele>617.0</ele><time>2026-04-26T09:19:20Z</time></trkpt><trkpt lat="43.475518992303286" lon="11.272692554502694"><ele>617.0</ele><time>2026-04-26T09:19:21Z</time></trkpt><trkpt lat="43.47543328519721" lon="11.272827375927623"><ele>617.0</ele><time>2026-04-26T09:19:22Z</time></trkpt><trkpt lat="43.475358246117686" lon="11.27296650526493"><ele>617.0</ele><time>2026-04-26T09:19:23Z</time></trkpt><trkpt lat="43.47527438142558" lon="11.273125892245899"><ele>614.6666666666666</ele><time>2026-04-26T09:19:24Z</time></trkpt><trkpt lat="43.47517489502901" lon="11.273296748147484"><ele>612.3333333333334</ele><time>2026-04-26T09:19:25Z</time></trkpt><trkpt lat="43.475067956718654" lon="11.27348674404854"><ele>610.0</ele><time>2026-04-26T09:19:26Z</time></trkpt><trkpt lat="43.47497331913327" lon="11.273691968015887"><ele>610.0</ele><time>2026-04-26T09:19:27Z</time></trkpt><trkpt lat="43.47490001526534" lon="11.273913217961896"><ele>610.0</ele><time>2026-04-26T09:19:28Z</time></trkpt><trkpt lat="43.474848595550306" lon="11.274156315916619"><ele>610.0</ele><time>2026-04-26T09:19:29Z</time></trkpt><trkpt lat="43.47481517334722" lon="11.274392086495178"><ele>610.3333333333334</ele><time>2026-04-26T09:19:30Z</time></trkpt><trkpt lat="43.4747796891733" lon="11.274638069285025"><ele>610.6666666666666</ele><time>2026-04-26T09:19:31Z</time></trkpt><trkpt lat="43.474747445100576" lon="11.274876086641074"><ele>611.0</ele><time>2026-04-26T09:19:32Z</time></trkpt><trkpt lat="43.474732985680745" lon="11.27511440320902"><ele>611.6666666666666</ele><time>2026-04-26T09:19:33Z</time></trkpt><trkpt lat="43.47474754184791" lon="11.27535262752936"><ele>612.3333333333334</ele><time>2026-04-26T09:19:34Z</time></trkpt><trkpt lat="43.474776099185725" lon="11.27558184139255"><ele>613.0</ele><time>2026-04-26T09:19:35Z</time></trkpt><trkpt lat="43.47479509929562" lon="11.275802830969646"><ele>613.0</ele><time>2026-04-26T09:19:36Z</time></trkpt><trkpt lat="43.47480360163737" lon="11.276011110382475"><ele>613.0</ele><time>2026-04-26T09:19:37Z</time></trkpt><trkpt lat="43.47480420479543" lon="11.276215964138752"><ele>613.0</ele><time>2026-04-26T09:19:38Z</time></trkpt><trkpt lat="43.47479527532441" lon="11.276416535381243"><ele>613.0</ele><time>2026-04-26T09:19:39Z</time></trkpt><trkpt lat="43.47477433503519" lon="11.276606415642629"><ele>613.0</ele><time>2026-04-26T09:19:40Z</time></trkpt><trkpt lat="43.474728317392135" lon="11.276790961620188"><ele>613.0</ele><time>2026-04-26T09:19:41Z</time></trkpt><trkpt lat="43.47465240384819" lon="11.276956498580413"><ele>613.0</ele><time>2026-04-26T09:19:42Z</time></trkpt><trkpt lat="43.47456422618388" lon="11.27710372603711"><ele>613.0</ele><time>2026-04-26T09:19:43Z</time></trkpt><trkpt lat="43.474481113374246" lon="11.277258734174506"><ele>611.5</ele><time>2026-04-26T09:19:44Z</time></trkpt><trkpt lat="43.474403729081175" lon="11.277415797440396"><ele>610.0</ele><time>2026-04-26T09:19:45Z</time></trkpt><trkpt lat="43.474330588224596" lon="11.27757361398445"><ele>608.5</ele><time>2026-04-26T09:19:46Z</time></trkpt><trkpt lat="43.47425649696385" lon="11.27773160904663"><ele>607.0</ele><time>2026-04-26T09:19:47Z</time></trkpt><trkpt lat="43.47418217364868" lon="11.277884946421409"><ele>607.0</ele><time>2026-04-26T09:19:48Z</time></trkpt><trkpt lat="43.474109103644075" lon="11.278037935681201"><ele>607.0</ele><time>2026-04-26T09:19:49Z</time></trkpt><trkpt lat="43.47403522440705" lon="11.27819031083131"><ele>607.0</ele><time>2026-04-26T09:19:50Z</time></trkpt><trkpt lat="43.473961095634984" lon="11.278341507076226"><ele>607.0</ele><time>2026-04-26T09:19:51Z</time></trkpt><trkpt lat="43.47388706122896" lon="11.278491084592257"><ele>605.75</ele><time>2026-04-26T09:19:52Z</time></trkpt><trkpt lat="43.47380816036269" lon="11.278638707667632"><ele>604.5</ele><time>2026-04-26T09:19:53Z</time></trkpt><trkpt lat="43.473719959007816" lon="11.27877669630062"><ele>603.25</ele><time>2026-04-26T09:19:54Z</time></trkpt><trkpt lat="43.473622595408266" lon="11.278903755255078"><ele>602.0</ele><time>2026-04-26T09:19:55Z</time></trkpt><trkpt lat="43.473521863628086" lon="11.279029305806395"><ele>600.0</ele><time>2026-04-26T09:19:56Z</time></trkpt><trkpt lat="43.473431332353506" lon="11.279153961812273"><ele>598.0</ele><time>2026-04-26T09:19:57Z</time></trkpt><trkpt lat="43.47334743491066" lon="11.279287539040583"><ele>596.0</ele><time>2026-04-26T09:19:58Z</time></trkpt><trkpt lat="43.47327548247285" lon="11.279423396233822"><ele>594.0</ele><time>2026-04-26T09:19:59Z</time></trkpt><trkpt lat="43.47320911426978" lon="11.279565954622987"><ele>594.0</ele><time>2026-04-26T09:20:00Z</time></trkpt><trkpt lat="43.47317578029822" lon="11.279725485015828"><ele>594.0</ele><time>2026-04-26T09:20:01Z</time></trkpt><trkpt lat="43.47312430391996" lon="11.27987174199969"><ele>594.0</ele><time>2026-04-26T09:20:02Z</time></trkpt><trkpt lat="43.473095736769395" lon="11.280034551607088"><ele>594.0</ele><time>2026-04-26T09:20:03Z</time></trkpt><trkpt lat="43.47306486012216" lon="11.280206591768861"><ele>592.25</ele><time>2026-04-26T09:20:04Z</time></trkpt><trkpt lat="43.47302169503549" lon="11.280377638984875"><ele>590.5</ele><time>2026-04-26T09:20:05Z</time></trkpt><trkpt lat="43.47296105853683" lon="11.280538960128524"><ele>588.75</ele><time>2026-04-26T09:20:06Z</time></trkpt><trkpt lat="43.47289121013808" lon="11.28069103983283"><ele>587.0</ele><time>2026-04-26T09:20:07Z</time></trkpt><trkpt lat="43.472820485551864" lon="11.280829902564466"><ele>586.75</ele><time>2026-04-26T09:20:08Z</time></trkpt><trkpt lat="43.472755374182796" lon="11.280969270975"><ele>586.5</ele><time>2026-04-26T09:20:09Z</time></trkpt><trkpt lat="43.47269376637652" lon="11.281094957357068"><ele>586.25</ele><time>2026-04-26T09:20:10Z</time></trkpt><trkpt lat="43.47261619656608" lon="11.281224975147282"><ele>586.0</ele><time>2026-04-26T09:20:11Z</time></trkpt><trkpt lat="43.472533633587275" lon="11.281332170154963"><ele>587.4</ele><time>2026-04-26T09:20:12Z</time></trkpt><trkpt lat="43.47244556704067" lon="11.281433757922317"><ele>588.8</ele><time>2026-04-26T09:20:13Z</time></trkpt><trkpt lat="43.47236321978041" lon="11.281518269946359"><ele>590.1999999999999</ele><time>2026-04-26T09:20:14Z</time></trkpt><trkpt lat="43.47228538536612" lon="11.281616440672988"><ele>591.6</ele><time>2026-04-26T09:20:15Z</time></trkpt><trkpt lat="43.47221557731175" lon="11.281716843918193"><ele>593.0</ele><time>2026-04-26T09:20:15.999Z</time></trkpt><trkpt lat="43.47215525149858" lon="11.281832110396058"><ele>592.0</ele><time>2026-04-26T09:20:16.999Z</time></trkpt><trkpt lat="43.47210298311168" lon="11.281958405698257"><ele>591.0</ele><time>2026-04-26T09:20:17.999Z</time></trkpt><trkpt lat="43.4720847602189" lon="11.282103357261478"><ele>590.0</ele><time>2026-04-26T09:20:18.999Z</time></trkpt><trkpt lat="43.47204332578315" lon="11.282236832829451"><ele>589.0</ele><time>2026-04-26T09:20:19.999Z</time></trkpt><trkpt lat="43.472017485398524" lon="11.28237945614156"><ele>588.0</ele><time>2026-04-26T09:20:20.999Z</time></trkpt><trkpt lat="43.471992213842" lon="11.28253223151298"><ele>587.0</ele><time>2026-04-26T09:20:21.999Z</time></trkpt><trkpt lat="43.471962134546914" lon="11.282686517618925"><ele>586.0</ele><time>2026-04-26T09:20:22.999Z</time></trkpt><trkpt lat="43.471931978079745" lon="11.282838066148004"><ele>585.0</ele><time>2026-04-26T09:20:23.999Z</time></trkpt><trkpt lat="43.47190211538331" lon="11.282989220894747"><ele>584.0</ele><time>2026-04-26T09:20:24.999Z</time></trkpt><trkpt lat="43.471866638942906" lon="11.283144651033963"><ele>583.0</ele><time>2026-04-26T09:20:25.999Z</time></trkpt><trkpt lat="43.47183313466115" lon="11.283299936833965"><ele>582.0</ele><time>2026-04-26T09:20:26.999Z</time></trkpt><trkpt lat="43.47179796188519" lon="11.283458533757297"><ele>581.0</ele><time>2026-04-26T09:20:27.999Z</time></trkpt><trkpt lat="43.471764780411334" lon="11.283618620939398"><ele>580.0</ele><time>2026-04-26T09:20:28.999Z</time></trkpt><trkpt lat="43.47173282909351" lon="11.283780352533894"><ele>579.75</ele><time>2026-04-26T09:20:29.999Z</time></trkpt><trkpt lat="43.47169896566703" lon="11.28393701937613"><ele>579.5</ele><time>2026-04-26T09:20:30.999Z</time></trkpt><trkpt lat="43.47166580596148" lon="11.284089827778425"><ele>579.25</ele><time>2026-04-26T09:20:31.999Z</time></trkpt><trkpt lat="43.47163325729712" lon="11.284241750568228"><ele>579.0</ele><time>2026-04-26T09:20:32.999Z</time></trkpt><trkpt lat="43.47160727723573" lon="11.284385325386896"><ele>579.0</ele><time>2026-04-26T09:20:33.999Z</time></trkpt><trkpt lat="43.47159594980202" lon="11.284539386518794"><ele>579.0</ele><time>2026-04-26T09:20:34.999Z</time></trkpt><trkpt lat="43.471593307660044" lon="11.284685396482484"><ele>579.0</ele><time>2026-04-26T09:20:35.999Z</time></trkpt><trkpt lat="43.47158365033812" lon="11.284829365213698"><ele>579.0</ele><time>2026-04-26T09:20:36.999Z</time></trkpt><trkpt lat="43.471568956266" lon="11.284968193256523"><ele>579.0</ele><time>2026-04-26T09:20:37.999Z</time></trkpt><trkpt lat="43.47154754123739" lon="11.285102762583824"><ele>578.4</ele><time>2026-04-26T09:20:38.999Z</time></trkpt><trkpt lat="43.471525211682156" lon="11.285223909838464"><ele>577.8</ele><time>2026-04-26T09:20:39.999Z</time></trkpt><trkpt lat="43.47150460839" lon="11.285316850495583"><ele>577.2</ele><time>2026-04-26T09:20:40.999Z</time></trkpt><trkpt lat="43.47147901862579" lon="11.285420863767628"><ele>576.6</ele><time>2026-04-26T09:20:42.999Z</time></trkpt><trkpt lat="43.47161792120311" lon="11.285523160586456"><ele>576.0</ele><time>2026-04-26T09:21:03.999Z</time></trkpt><trkpt lat="43.471704123937165" lon="11.285550701316751"><ele>576.0</ele><time>2026-04-26T09:21:04.999Z</time></trkpt><trkpt lat="43.47180015113815" lon="11.28558260127838"><ele>576.0</ele><time>2026-04-26T09:21:05.999Z</time></trkpt><trkpt lat="43.47189295420815" lon="11.285615117450886"><ele>576.0</ele><time>2026-04-26T09:21:06.999Z</time></trkpt><trkpt lat="43.471991519496015" lon="11.285648333390037"><ele>576.0</ele><time>2026-04-26T09:21:07.999Z</time></trkpt><trkpt lat="43.472090428288446" lon="11.28567308106269"><ele>576.0</ele><time>2026-04-26T09:21:08.999Z</time></trkpt><trkpt lat="43.472191140521524" lon="11.285701976708504"><ele>576.4</ele><time>2026-04-26T09:21:09.999Z</time></trkpt><trkpt lat="43.47228792678895" lon="11.28573600324696"><ele>576.8</ele><time>2026-04-26T09:21:10.999Z</time></trkpt><trkpt lat="43.47238894668586" lon="11.285766743301151"><ele>577.1999999999999</ele><time>2026-04-26T09:21:11.999Z</time></trkpt><trkpt lat="43.472491363765094" lon="11.285818532274254"><ele>577.6</ele><time>2026-04-26T09:21:12.999Z</time></trkpt><trkpt lat="43.47259026672796" lon="11.285851927009523"><ele>578.0</ele><time>2026-04-26T09:21:13.999Z</time></trkpt><trkpt lat="43.472695107626805" lon="11.285878076683375"><ele>578.0</ele><time>2026-04-26T09:21:14.999Z</time></trkpt><trkpt lat="43.4727893801156" lon="11.285959637047819"><ele>578.0</ele><time>2026-04-26T09:21:15.999Z</time></trkpt><trkpt lat="43.472871062361016" lon="11.286074393621618"><ele>578.0</ele><time>2026-04-26T09:21:16.999Z</time></trkpt><trkpt lat="43.47294459325974" lon="11.286215085388054"><ele>578.0</ele><time>2026-04-26T09:21:17.999Z</time></trkpt><trkpt lat="43.4730109934208" lon="11.28636871795623"><ele>576.25</ele><time>2026-04-26T09:21:18.999Z</time></trkpt><trkpt lat="43.47306063908299" lon="11.286540164412527"><ele>574.5</ele><time>2026-04-26T09:21:19.999Z</time></trkpt><trkpt lat="43.47308697011677" lon="11.286716328366746"><ele>572.75</ele><time>2026-04-26T09:21:20.999Z</time></trkpt><trkpt lat="43.473113342343936" lon="11.286913525255468"><ele>571.0</ele><time>2026-04-26T09:21:21.999Z</time></trkpt><trkpt lat="43.47310513729162" lon="11.28710641749696"><ele>570.75</ele><time>2026-04-26T09:21:23Z</time></trkpt><trkpt lat="43.473080968978024" lon="11.287302655572653"><ele>570.5</ele><time>2026-04-26T09:21:24Z</time></trkpt><trkpt lat="43.473050475866394" lon="11.287493290380478"><ele>570.25</ele><time>2026-04-26T09:21:25Z</time></trkpt><trkpt lat="43.4730183456795" lon="11.287690557690082"><ele>570.0</ele><time>2026-04-26T09:21:26Z</time></trkpt><trkpt lat="43.47298761231548" lon="11.287883152133036"><ele>570.0</ele><time>2026-04-26T09:21:27Z</time></trkpt><trkpt lat="43.47296062911671" lon="11.288069543129954"><ele>570.0</ele><time>2026-04-26T09:21:28Z</time></trkpt><trkpt lat="43.47294582999452" lon="11.288250954294154"><ele>570.0</ele><time>2026-04-26T09:21:29Z</time></trkpt><trkpt lat="43.47294314349574" lon="11.288429028488872"><ele>570.0</ele><time>2026-04-26T09:21:30Z</time></trkpt><trkpt lat="43.47294465271537" lon="11.288598261650964"><ele>569.25</ele><time>2026-04-26T09:21:31Z</time></trkpt><trkpt lat="43.47300174914877" lon="11.288743372664147"><ele>568.5</ele><time>2026-04-26T09:21:32Z</time></trkpt><trkpt lat="43.47309958796566" lon="11.288841047897506"><ele>567.75</ele><time>2026-04-26T09:21:33Z</time></trkpt><trkpt lat="43.47321495109376" lon="11.288880349300127"><ele>567.0</ele><time>2026-04-26T09:21:34Z</time></trkpt><trkpt lat="43.47334266024121" lon="11.28884737858556"><ele>567.0</ele><time>2026-04-26T09:21:35Z</time></trkpt><trkpt lat="43.473461240259944" lon="11.288751600916699"><ele>567.0</ele><time>2026-04-26T09:21:36Z</time></trkpt><trkpt lat="43.47354800286517" lon="11.288595735465966"><ele>567.0</ele><time>2026-04-26T09:21:37Z</time></trkpt><trkpt lat="43.47361145680396" lon="11.288407018206225"><ele>567.0</ele><time>2026-04-26T09:21:38Z</time></trkpt><trkpt lat="43.473669296283724" lon="11.288207875668718"><ele>568.0</ele><time>2026-04-26T09:21:39Z</time></trkpt><trkpt lat="43.473737327117455" lon="11.288020298102717"><ele>569.0</ele><time>2026-04-26T09:21:40Z</time></trkpt><trkpt lat="43.473792808896874" lon="11.287830110267953"><ele>570.0</ele><time>2026-04-26T09:21:41Z</time></trkpt><trkpt lat="43.47383444164016" lon="11.287629628106385"><ele>564.6666666666666</ele><time>2026-04-26T09:21:42Z</time></trkpt><trkpt lat="43.47386980665079" lon="11.287422896517997"><ele>559.3333333333333</ele><time>2026-04-26T09:21:43Z</time></trkpt><trkpt lat="43.47389760268015" lon="11.287208332856615"><ele>554.0</ele><time>2026-04-26T09:21:44Z</time></trkpt><trkpt lat="43.47392373031827" lon="11.286991752944969"><ele>554.0</ele><time>2026-04-26T09:21:45Z</time></trkpt><trkpt lat="43.47394828912285" lon="11.28677679203878"><ele>554.0</ele><time>2026-04-26T09:21:46Z</time></trkpt><trkpt lat="43.47397160440461" lon="11.286560130512699"><ele>554.0</ele><time>2026-04-26T09:21:47Z</time></trkpt><trkpt lat="43.47402321551207" lon="11.286359632143318"><ele>554.25</ele><time>2026-04-26T09:21:48Z</time></trkpt><trkpt lat="43.47407778167709" lon="11.286175315815743"><ele>554.5</ele><time>2026-04-26T09:21:49Z</time></trkpt><trkpt lat="43.47415726465743" lon="11.286025810772975"><ele>554.75</ele><time>2026-04-26T09:21:50Z</time></trkpt><trkpt lat="43.47425327566603" lon="11.285928893499579"><ele>555.0</ele><time>2026-04-26T09:21:51Z</time></trkpt><trkpt lat="43.47435828479798" lon="11.28590324037938"><ele>555.0</ele><time>2026-04-26T09:21:52Z</time></trkpt><trkpt lat="43.47446536507266" lon="11.285926844569065"><ele>555.0</ele><time>2026-04-26T09:21:53Z</time></trkpt><trkpt lat="43.474539265717176" lon="11.286038618131938"><ele>555.0</ele><time>2026-04-26T09:21:54Z</time></trkpt><trkpt lat="43.47460609888048" lon="11.286182652954357"><ele>555.0</ele><time>2026-04-26T09:21:55Z</time></trkpt><trkpt lat="43.474612776554075" lon="11.286410342071774"><ele>558.3333333333334</ele><time>2026-04-26T09:21:56Z</time></trkpt><trkpt lat="43.47465082654563" lon="11.286643535347642"><ele>561.6666666666667</ele><time>2026-04-26T09:21:57Z</time></trkpt><trkpt lat="43.47465610166306" lon="11.28688404119528"><ele>565.0</ele><time>2026-04-26T09:21:58Z</time></trkpt><trkpt lat="43.4746903202252" lon="11.287128166994195"><ele>562.3333333333334</ele><time>2026-04-26T09:21:59Z</time></trkpt><trkpt lat="43.474736537895254" lon="11.28737059454079"><ele>559.6666666666666</ele><time>2026-04-26T09:22:00Z</time></trkpt><trkpt lat="43.47478711861866" lon="11.287604331095608"><ele>557.0</ele><time>2026-04-26T09:22:01Z</time></trkpt><trkpt lat="43.47483439035643" lon="11.287820839814438"><ele>557.0</ele><time>2026-04-26T09:22:02Z</time></trkpt><trkpt lat="43.474885473905026" lon="11.288017938661097"><ele>557.0</ele><time>2026-04-26T09:22:03Z</time></trkpt><trkpt lat="43.474952082167285" lon="11.288209786497465"><ele>557.0</ele><time>2026-04-26T09:22:04Z</time></trkpt><trkpt lat="43.475041018693005" lon="11.28838164391193"><ele>555.0</ele><time>2026-04-26T09:22:05Z</time></trkpt><trkpt lat="43.475161163133265" lon="11.288509916738978"><ele>553.0</ele><time>2026-04-26T09:22:06Z</time></trkpt><trkpt lat="43.475312794899075" lon="11.288589962300495"><ele>551.0</ele><time>2026-04-26T09:22:07Z</time></trkpt><trkpt lat="43.47548271933623" lon="11.288628168159738"><ele>551.0</ele><time>2026-04-26T09:22:08Z</time></trkpt><trkpt lat="43.475647749918295" lon="11.288662956048128"><ele>551.0</ele><time>2026-04-26T09:22:09Z</time></trkpt><trkpt lat="43.47581289103804" lon="11.28871432818174"><ele>551.0</ele><time>2026-04-26T09:22:10Z</time></trkpt><trkpt lat="43.47596422784581" lon="11.28881668315087"><ele>545.6666666666666</ele><time>2026-04-26T09:22:11Z</time></trkpt><trkpt lat="43.47606556177385" lon="11.288977464639215"><ele>540.3333333333334</ele><time>2026-04-26T09:22:12Z</time></trkpt><trkpt lat="43.4761434211047" lon="11.289150180086025"><ele>535.0</ele><time>2026-04-26T09:22:13Z</time></trkpt><trkpt lat="43.476204209584985" lon="11.289357576992758"><ele>535.0</ele><time>2026-04-26T09:22:14Z</time></trkpt><trkpt lat="43.47625012024576" lon="11.289588977498841"><ele>535.0</ele><time>2026-04-26T09:22:15Z</time></trkpt><trkpt lat="43.476301429096985" lon="11.289808646994112"><ele>535.0</ele><time>2026-04-26T09:22:16Z</time></trkpt><trkpt lat="43.476333542171616" lon="11.290038892011761"><ele>538.6666666666667</ele><time>2026-04-26T09:22:17Z</time></trkpt><trkpt lat="43.47637633688608" lon="11.29026586705755"><ele>542.3333333333334</ele><time>2026-04-26T09:22:18Z</time></trkpt><trkpt lat="43.47642070762554" lon="11.290488042845572"><ele>546.0</ele><time>2026-04-26T09:22:19Z</time></trkpt><trkpt lat="43.476469514588246" lon="11.290700718661206"><ele>546.0</ele><time>2026-04-26T09:22:20Z</time></trkpt><trkpt lat="43.47649156996633" lon="11.290896308503836"><ele>546.0</ele><time>2026-04-26T09:22:21Z</time></trkpt><trkpt lat="43.47650350558668" lon="11.291072866414147"><ele>546.0</ele><time>2026-04-26T09:22:22Z</time></trkpt><trkpt lat="43.47644069015978" lon="11.291211561777502"><ele>546.0</ele><time>2026-04-26T09:22:23Z</time></trkpt><trkpt lat="43.476333133489156" lon="11.291246353451385"><ele>545.75</ele><time>2026-04-26T09:22:24Z</time></trkpt><trkpt lat="43.47621367968386" lon="11.291295173155293"><ele>545.5</ele><time>2026-04-26T09:22:25Z</time></trkpt><trkpt lat="43.47608960187762" lon="11.291365806506588"><ele>545.25</ele><time>2026-04-26T09:22:25.999Z</time></trkpt><trkpt lat="43.475973498715916" lon="11.291462146000022"><ele>545.0</ele><time>2026-04-26T09:22:26.999Z</time></trkpt><trkpt lat="43.47585494440813" lon="11.291586703995192"><ele>545.0</ele><time>2026-04-26T09:22:27.999Z</time></trkpt><trkpt lat="43.475759657234214" lon="11.29173418787015"><ele>545.0</ele><time>2026-04-26T09:22:28.999Z</time></trkpt><trkpt lat="43.47567192303968" lon="11.291905388525526"><ele>545.0</ele><time>2026-04-26T09:22:29.999Z</time></trkpt><trkpt lat="43.47558102605599" lon="11.29207056317711"><ele>545.0</ele><time>2026-04-26T09:22:30.999Z</time></trkpt><trkpt lat="43.475495335773196" lon="11.29224552282053"><ele>542.75</ele><time>2026-04-26T09:22:31.999Z</time></trkpt><trkpt lat="43.47541429544116" lon="11.292413918558262"><ele>540.5</ele><time>2026-04-26T09:22:32.999Z</time></trkpt><trkpt lat="43.47534984366724" lon="11.29259751986809"><ele>538.25</ele><time>2026-04-26T09:22:33.999Z</time></trkpt><trkpt lat="43.475318684292326" lon="11.292805801874781"><ele>536.0</ele><time>2026-04-26T09:22:34.999Z</time></trkpt><trkpt lat="43.47531946323558" lon="11.293026983820848"><ele>537.3333333333333</ele><time>2026-04-26T09:22:35.999Z</time></trkpt><trkpt lat="43.475303666463304" lon="11.293253948910829"><ele>538.6666666666666</ele><time>2026-04-26T09:22:36.999Z</time></trkpt><trkpt lat="43.47528630263626" lon="11.293481787068634"><ele>540.0</ele><time>2026-04-26T09:22:37.999Z</time></trkpt><trkpt lat="43.475267179012214" lon="11.293717490975547"><ele>542.6666666666666</ele><time>2026-04-26T09:22:38.999Z</time></trkpt><trkpt lat="43.475248162554635" lon="11.293952187879233"><ele>545.3333333333333</ele><time>2026-04-26T09:22:39.999Z</time></trkpt><trkpt lat="43.47522936579359" lon="11.294190893217323"><ele>548.0</ele><time>2026-04-26T09:22:40.999Z</time></trkpt><trkpt lat="43.47521240667535" lon="11.294426914819372"><ele>548.0</ele><time>2026-04-26T09:22:41.999Z</time></trkpt><trkpt lat="43.47519733240626" lon="11.29466360288475"><ele>548.0</ele><time>2026-04-26T09:22:42.999Z</time></trkpt><trkpt lat="43.47517667716382" lon="11.29490312574351"><ele>548.0</ele><time>2026-04-26T09:22:43.999Z</time></trkpt><trkpt lat="43.47515676947742" lon="11.295142020933032"><ele>548.3333333333333</ele><time>2026-04-26T09:22:44.999Z</time></trkpt><trkpt lat="43.475153938620366" lon="11.2953787666852"><ele>548.6666666666666</ele><time>2026-04-26T09:22:45.999Z</time></trkpt><trkpt lat="43.475182258759304" lon="11.29561001502191"><ele>549.0</ele><time>2026-04-26T09:22:46.999Z</time></trkpt><trkpt lat="43.4752397612941" lon="11.295833128665212"><ele>549.0</ele><time>2026-04-26T09:22:47.999Z</time></trkpt><trkpt lat="43.47531869887141" lon="11.296041162841842"><ele>549.0</ele><time>2026-04-26T09:22:48.999Z</time></trkpt><trkpt lat="43.475413658954395" lon="11.296230571061088"><ele>549.0</ele><time>2026-04-26T09:22:49.999Z</time></trkpt><trkpt lat="43.475528751812845" lon="11.296399428834691"><ele>553.3333333333334</ele><time>2026-04-26T09:22:50.999Z</time></trkpt><trkpt lat="43.47566023646865" lon="11.296532259236603"><ele>557.6666666666667</ele><time>2026-04-26T09:22:51.999Z</time></trkpt><trkpt lat="43.475814498628935" lon="11.296644882850703"><ele>562.0</ele><time>2026-04-26T09:22:52.999Z</time></trkpt><trkpt lat="43.47597333748078" lon="11.296727095213205"><ele>562.0</ele><time>2026-04-26T09:22:53.999Z</time></trkpt><trkpt lat="43.47612428050511" lon="11.296786827419181"><ele>562.0</ele><time>2026-04-26T09:22:54.999Z</time></trkpt><trkpt lat="43.476255787336264" lon="11.296838871903555"><ele>562.0</ele><time>2026-04-26T09:22:55.999Z</time></trkpt><trkpt lat="43.476372444944744" lon="11.296891049700914"><ele>562.0</ele><time>2026-04-26T09:22:56.999Z</time></trkpt><trkpt lat="43.476475022789415" lon="11.29693951829595"><ele>565.25</ele><time>2026-04-26T09:22:57.999Z</time></trkpt><trkpt lat="43.476582150117395" lon="11.296991638285593"><ele>568.5</ele><time>2026-04-26T09:22:58.999Z</time></trkpt><trkpt lat="43.47670785852884" lon="11.297051991598813"><ele>571.75</ele><time>2026-04-26T09:22:59.999Z</time></trkpt><trkpt lat="43.47684535026429" lon="11.297116132131148"><ele>575.0</ele><time>2026-04-26T09:23:00.999Z</time></trkpt><trkpt lat="43.4769929175978" lon="11.297186794054946"><ele>575.0</ele><time>2026-04-26T09:23:01.999Z</time></trkpt><trkpt lat="43.4771470837573" lon="11.297257255681433"><ele>575.0</ele><time>2026-04-26T09:23:02.999Z</time></trkpt><trkpt lat="43.4773044105777" lon="11.29732951399937"><ele>575.0</ele><time>2026-04-26T09:23:03.999Z</time></trkpt><trkpt lat="43.477467724835535" lon="11.297404171998242"><ele>575.0</ele><time>2026-04-26T09:23:04.999Z</time></trkpt><trkpt lat="43.477634196039894" lon="11.297480096332507"><ele>575.0</ele><time>2026-04-26T09:23:05.999Z</time></trkpt><trkpt lat="43.47780201280895" lon="11.29755324318344"><ele>575.0</ele><time>2026-04-26T09:23:06.999Z</time></trkpt><trkpt lat="43.477969848820614" lon="11.297625989900238"><ele>574.6666666666666</ele><time>2026-04-26T09:23:07.999Z</time></trkpt><trkpt lat="43.47813594048228" lon="11.297707195933368"><ele>574.3333333333334</ele><time>2026-04-26T09:23:08.999Z</time></trkpt><trkpt lat="43.478300021993284" lon="11.297788918234142"><ele>574.0</ele><time>2026-04-26T09:23:09.999Z</time></trkpt><trkpt lat="43.47846765051649" lon="11.297860801658434"><ele>574.0</ele><time>2026-04-26T09:23:10.999Z</time></trkpt><trkpt lat="43.47863998978468" lon="11.29790556586304"><ele>574.0</ele><time>2026-04-26T09:23:11.999Z</time></trkpt><trkpt lat="43.47881396452225" lon="11.297927846540993"><ele>574.0</ele><time>2026-04-26T09:23:12.999Z</time></trkpt><trkpt lat="43.478991670054114" lon="11.297931086425494"><ele>570.6666666666667</ele><time>2026-04-26T09:23:13.999Z</time></trkpt><trkpt lat="43.47917089592358" lon="11.29792879462648"><ele>567.3333333333334</ele><time>2026-04-26T09:23:14.999Z</time></trkpt><trkpt lat="43.47935255528034" lon="11.297923373753976"><ele>564.0</ele><time>2026-04-26T09:23:15.999Z</time></trkpt><trkpt lat="43.47954016740058" lon="11.297921278664514"><ele>560.3333333333334</ele><time>2026-04-26T09:23:16.999Z</time></trkpt><trkpt lat="43.47972559841106" lon="11.297919271321847"><ele>556.6666666666667</ele><time>2026-04-26T09:23:17.999Z</time></trkpt><trkpt lat="43.47991950033255" lon="11.297919359486595"><ele>553.0</ele><time>2026-04-26T09:23:18.999Z</time></trkpt><trkpt lat="43.480114222430046" lon="11.297917155298652"><ele>553.0</ele><time>2026-04-26T09:23:19.999Z</time></trkpt><trkpt lat="43.48031042281021" lon="11.297914497851277"><ele>553.0</ele><time>2026-04-26T09:23:20.999Z</time></trkpt><trkpt lat="43.48051344361944" lon="11.297914259913043"><ele>553.0</ele><time>2026-04-26T09:23:21.999Z</time></trkpt><trkpt lat="43.48071381799882" lon="11.297910370811094"><ele>554.0</ele><time>2026-04-26T09:23:22.999Z</time></trkpt><trkpt lat="43.48091585682076" lon="11.297904270682926"><ele>555.0</ele><time>2026-04-26T09:23:23.999Z</time></trkpt><trkpt lat="43.4811201772856" lon="11.297897383373712"><ele>556.0</ele><time>2026-04-26T09:23:24.999Z</time></trkpt><trkpt lat="43.48132630617464" lon="11.297893446121202"><ele>556.3333333333334</ele><time>2026-04-26T09:23:25.999Z</time></trkpt><trkpt lat="43.4815336446028" lon="11.297887469645728"><ele>556.6666666666666</ele><time>2026-04-26T09:23:26.999Z</time></trkpt><trkpt lat="43.48173851504362" lon="11.29788292021507"><ele>557.0</ele><time>2026-04-26T09:23:27.999Z</time></trkpt><trkpt lat="43.48194468289505" lon="11.29787802023534"><ele>554.6666666666666</ele><time>2026-04-26T09:23:29Z</time></trkpt><trkpt lat="43.482147353632726" lon="11.297906485922946"><ele>552.3333333333334</ele><time>2026-04-26T09:23:30Z</time></trkpt><trkpt lat="43.48235085120494" lon="11.297929176204738"><ele>550.0</ele><time>2026-04-26T09:23:31Z</time></trkpt><trkpt lat="43.48255699303907" lon="11.297961862487886"><ele>550.0</ele><time>2026-04-26T09:23:32Z</time></trkpt><trkpt lat="43.482758893065274" lon="11.29798873691519"><ele>550.0</ele><time>2026-04-26T09:23:33Z</time></trkpt><trkpt lat="43.482943028145264" lon="11.298046187117995"><ele>550.0</ele><time>2026-04-26T09:23:34Z</time></trkpt><trkpt lat="43.48311132804364" lon="11.2980922971576"><ele>546.3333333333334</ele><time>2026-04-26T09:23:35Z</time></trkpt><trkpt lat="43.483276729392394" lon="11.298133648953446"><ele>542.6666666666666</ele><time>2026-04-26T09:23:36Z</time></trkpt><trkpt lat="43.48343417385129" lon="11.298174499973596"><ele>539.0</ele><time>2026-04-26T09:23:37Z</time></trkpt><trkpt lat="43.48358742580721" lon="11.298215775538353"><ele>539.0</ele><time>2026-04-26T09:23:38Z</time></trkpt><trkpt lat="43.48373959350874" lon="11.298255769080088"><ele>539.0</ele><time>2026-04-26T09:23:39Z</time></trkpt><trkpt lat="43.483893189405876" lon="11.29829507678486"><ele>539.0</ele><time>2026-04-26T09:23:40Z</time></trkpt><trkpt lat="43.48404438218178" lon="11.298337941047414"><ele>539.0</ele><time>2026-04-26T09:23:41Z</time></trkpt><trkpt lat="43.48419766008981" lon="11.298382976156896"><ele>539.0</ele><time>2026-04-26T09:23:42Z</time></trkpt><trkpt lat="43.48434820729343" lon="11.298429142802323"><ele>539.0</ele><time>2026-04-26T09:23:43Z</time></trkpt><trkpt lat="43.48449516185613" lon="11.29846915203444"><ele>539.3333333333333</ele><time>2026-04-26T09:23:44Z</time></trkpt><trkpt lat="43.48464574587204" lon="11.298509833188202"><ele>539.6666666666666</ele><time>2026-04-26T09:23:45Z</time></trkpt><trkpt lat="43.484795737846554" lon="11.298553883863525"><ele>540.0</ele><time>2026-04-26T09:23:46Z</time></trkpt><trkpt lat="43.4849460157257" lon="11.298594389895245"><ele>540.0</ele><time>2026-04-26T09:23:47Z</time></trkpt><trkpt lat="43.485090833851054" lon="11.298634331700404"><ele>540.0</ele><time>2026-04-26T09:23:48Z</time></trkpt><trkpt lat="43.485243219811444" lon="11.298681244716366"><ele>540.0</ele><time>2026-04-26T09:23:49Z</time></trkpt><trkpt lat="43.48539459760322" lon="11.298723035479188"><ele>541.6666666666666</ele><time>2026-04-26T09:23:50Z</time></trkpt><trkpt lat="43.48554465641089" lon="11.298765943326641"><ele>543.3333333333333</ele><time>2026-04-26T09:23:51Z</time></trkpt><trkpt lat="43.485701895884006" lon="11.298807251185798"><ele>545.0</ele><time>2026-04-26T09:23:52Z</time></trkpt><trkpt lat="43.48586244703977" lon="11.298851025843991"><ele>545.0</ele><time>2026-04-26T09:23:53Z</time></trkpt><trkpt lat="43.486014649895445" lon="11.298894779199783"><ele>545.0</ele><time>2026-04-26T09:23:54Z</time></trkpt><trkpt lat="43.48617558933906" lon="11.298930856076492"><ele>545.0</ele><time>2026-04-26T09:23:55Z</time></trkpt><trkpt lat="43.48632922815656" lon="11.298974001757292"><ele>540.0</ele><time>2026-04-26T09:23:56Z</time></trkpt><trkpt lat="43.48648549866911" lon="11.299017360461354"><ele>535.0</ele><time>2026-04-26T09:23:57Z</time></trkpt><trkpt lat="43.486642554508485" lon="11.299064893853505"><ele>530.0</ele><time>2026-04-26T09:23:58Z</time></trkpt><trkpt lat="43.486793621838075" lon="11.29910574769131"><ele>530.0</ele><time>2026-04-26T09:23:59Z</time></trkpt><trkpt lat="43.486949323681515" lon="11.299148912829308"><ele>530.0</ele><time>2026-04-26T09:24:00Z</time></trkpt><trkpt lat="43.48710313782211" lon="11.299186675103096"><ele>530.0</ele><time>2026-04-26T09:24:01Z</time></trkpt><trkpt lat="43.487257506761345" lon="11.29923048840103"><ele>529.3333333333333</ele><time>2026-04-26T09:24:02Z</time></trkpt><trkpt lat="43.48740671948452" lon="11.299274689889282"><ele>528.6666666666666</ele><time>2026-04-26T09:24:03Z</time></trkpt><trkpt lat="43.48755485968379" lon="11.29931886089854"><ele>528.0</ele><time>2026-04-26T09:24:04Z</time></trkpt><trkpt lat="43.487704925899756" lon="11.299359580449481"><ele>528.0</ele><time>2026-04-26T09:24:05Z</time></trkpt><trkpt lat="43.48784933151838" lon="11.299396122739651"><ele>528.0</ele><time>2026-04-26T09:24:06Z</time></trkpt><trkpt lat="43.487992011203175" lon="11.299438835755353"><ele>528.0</ele><time>2026-04-26T09:24:07Z</time></trkpt><trkpt lat="43.48813487667359" lon="11.299478884359914"><ele>528.0</ele><time>2026-04-26T09:24:08Z</time></trkpt><trkpt lat="43.48827636236705" lon="11.299514369859349"><ele>529.75</ele><time>2026-04-26T09:24:09Z</time></trkpt><trkpt lat="43.4884158684625" lon="11.299550838584759"><ele>531.5</ele><time>2026-04-26T09:24:10Z</time></trkpt><trkpt lat="43.488547640159155" lon="11.299590945178442"><ele>533.25</ele><time>2026-04-26T09:24:11Z</time></trkpt><trkpt lat="43.488684943754706" lon="11.299634205474604"><ele>535.0</ele><time>2026-04-26T09:24:12Z</time></trkpt><trkpt lat="43.48882282056603" lon="11.299671108815676"><ele>535.0</ele><time>2026-04-26T09:24:13Z</time></trkpt><trkpt lat="43.488961157381695" lon="11.29970690285716"><ele>535.0</ele><time>2026-04-26T09:24:14Z</time></trkpt><trkpt lat="43.489106937569375" lon="11.299744731545497"><ele>535.0</ele><time>2026-04-26T09:24:15Z</time></trkpt><trkpt lat="43.48924946123078" lon="11.299781113886919"><ele>535.0</ele><time>2026-04-26T09:24:16Z</time></trkpt><trkpt lat="43.4893973820647" lon="11.299824064896018"><ele>530.0</ele><time>2026-04-26T09:24:17Z</time></trkpt><trkpt lat="43.48954621255257" lon="11.299872312625096"><ele>525.0</ele><time>2026-04-26T09:24:18Z</time></trkpt><trkpt lat="43.48970078083349" lon="11.299918324486715"><ele>520.0</ele><time>2026-04-26T09:24:19Z</time></trkpt><trkpt lat="43.489855370197894" lon="11.299961268378656"><ele>520.0</ele><time>2026-04-26T09:24:20Z</time></trkpt><trkpt lat="43.49000625690303" lon="11.300004483798965"><ele>520.0</ele><time>2026-04-26T09:24:21Z</time></trkpt><trkpt lat="43.49015950758263" lon="11.3000447424691"><ele>520.0</ele><time>2026-04-26T09:24:22Z</time></trkpt><trkpt lat="43.49031166103405" lon="11.30008812660818"><ele>521.6666666666667</ele><time>2026-04-26T09:24:23Z</time></trkpt><trkpt lat="43.490465852495866" lon="11.300128923578878"><ele>523.3333333333334</ele><time>2026-04-26T09:24:24Z</time></trkpt><trkpt lat="43.49062045373517" lon="11.3001718554533"><ele>525.0</ele><time>2026-04-26T09:24:25Z</time></trkpt><trkpt lat="43.490771463289036" lon="11.30020943739573"><ele>525.0</ele><time>2026-04-26T09:24:25.999Z</time></trkpt><trkpt lat="43.49093295522166" lon="11.300246464727694"><ele>525.0</ele><time>2026-04-26T09:24:26.999Z</time></trkpt><trkpt lat="43.49109456159795" lon="11.300273677039883"><ele>525.0</ele><time>2026-04-26T09:24:27.999Z</time></trkpt><trkpt lat="43.49126694963777" lon="11.300286289996635"><ele>523.0</ele><time>2026-04-26T09:24:28.999Z</time></trkpt><trkpt lat="43.4914410674452" lon="11.300279415420619"><ele>521.0</ele><time>2026-04-26T09:24:29.999Z</time></trkpt><trkpt lat="43.491612485503786" lon="11.300257222288815"><ele>519.0</ele><time>2026-04-26T09:24:30.999Z</time></trkpt><trkpt lat="43.49178937082172" lon="11.30022984392862"><ele>519.0</ele><time>2026-04-26T09:24:31.999Z</time></trkpt><trkpt lat="43.49197139091307" lon="11.300200314094193"><ele>519.0</ele><time>2026-04-26T09:24:32.999Z</time></trkpt><trkpt lat="43.49215859580308" lon="11.300170802816849"><ele>519.0</ele><time>2026-04-26T09:24:33.999Z</time></trkpt><trkpt lat="43.492350644958286" lon="11.30014031915974"><ele>518.3333333333334</ele><time>2026-04-26T09:24:34.999Z</time></trkpt><trkpt lat="43.49254462511174" lon="11.300110049904823"><ele>517.6666666666667</ele><time>2026-04-26T09:24:35.999Z</time></trkpt><trkpt lat="43.49274390956065" lon="11.300078628868674"><ele>517.0</ele><time>2026-04-26T09:24:36.999Z</time></trkpt><trkpt lat="43.49294232954085" lon="11.300053642331635"><ele>516.0</ele><time>2026-04-26T09:24:37.999Z</time></trkpt><trkpt lat="43.49314929291459" lon="11.300021933986669"><ele>515.0</ele><time>2026-04-26T09:24:38.999Z</time></trkpt><trkpt lat="43.493357908539046" lon="11.299988122746004"><ele>514.0</ele><time>2026-04-26T09:24:39.999Z</time></trkpt><trkpt lat="43.49356788400085" lon="11.29995155279984"><ele>512.3333333333334</ele><time>2026-04-26T09:24:40.999Z</time></trkpt><trkpt lat="43.49377954883296" lon="11.299915507430024"><ele>510.66666666666663</ele><time>2026-04-26T09:24:41.999Z</time></trkpt><trkpt lat="43.49399319921833" lon="11.299882272597893"><ele>509.0</ele><time>2026-04-26T09:24:42.999Z</time></trkpt><trkpt lat="43.49420561792198" lon="11.299848854264829"><ele>509.0</ele><time>2026-04-26T09:24:43.999Z</time></trkpt><trkpt lat="43.4944145131099" lon="11.299815992579529"><ele>509.0</ele><time>2026-04-26T09:24:44.999Z</time></trkpt><trkpt lat="43.494623891760135" lon="11.299778498305809"><ele>509.0</ele><time>2026-04-26T09:24:45.999Z</time></trkpt><trkpt lat="43.49483137140717" lon="11.299766584142773"><ele>504.0</ele><time>2026-04-26T09:24:46.999Z</time></trkpt><trkpt lat="43.49503764426439" lon="11.299733501909726"><ele>499.0</ele><time>2026-04-26T09:24:47.999Z</time></trkpt><trkpt lat="43.495236105553545" lon="11.299679566852488"><ele>494.0</ele><time>2026-04-26T09:24:48.999Z</time></trkpt><trkpt lat="43.49543936018862" lon="11.29964053882401"><ele>492.66666666666663</ele><time>2026-04-26T09:24:49.999Z</time></trkpt><trkpt lat="43.49563762370907" lon="11.299603138515364"><ele>491.33333333333337</ele><time>2026-04-26T09:24:50.999Z</time></trkpt><trkpt lat="43.49583561191442" lon="11.299565920920152"><ele>490.0</ele><time>2026-04-26T09:24:51.999Z</time></trkpt><trkpt lat="43.496030242291454" lon="11.299530164549967"><ele>490.0</ele><time>2026-04-26T09:24:52.999Z</time></trkpt><trkpt lat="43.49622374131458" lon="11.29949274198041"><ele>490.0</ele><time>2026-04-26T09:24:53.999Z</time></trkpt><trkpt lat="43.49641542574302" lon="11.299445233812323"><ele>490.0</ele><time>2026-04-26T09:24:54.999Z</time></trkpt><trkpt lat="43.4966014314962" lon="11.299385464606276"><ele>488.0</ele><time>2026-04-26T09:24:55.999Z</time></trkpt><trkpt lat="43.49678584421228" lon="11.299308867445335"><ele>486.0</ele><time>2026-04-26T09:24:56.999Z</time></trkpt><trkpt lat="43.49696300847883" lon="11.29921268332472"><ele>484.0</ele><time>2026-04-26T09:24:57.999Z</time></trkpt><trkpt lat="43.49713365438817" lon="11.299095835841156"><ele>482.0</ele><time>2026-04-26T09:24:58.999Z</time></trkpt><trkpt lat="43.49729834233247" lon="11.298960846558776"><ele>480.0</ele><time>2026-04-26T09:24:59.999Z</time></trkpt><trkpt lat="43.497453432541995" lon="11.298813579373451"><ele>478.0</ele><time>2026-04-26T09:25:00.999Z</time></trkpt><trkpt lat="43.497598823599155" lon="11.298652030535603"><ele>475.0</ele><time>2026-04-26T09:25:01.999Z</time></trkpt><trkpt lat="43.49774530042492" lon="11.29848894415632"><ele>472.0</ele><time>2026-04-26T09:25:02.999Z</time></trkpt><trkpt lat="43.49787452908994" lon="11.298325398082747"><ele>469.0</ele><time>2026-04-26T09:25:03.999Z</time></trkpt><trkpt lat="43.4979915564107" lon="11.298161876117813"><ele>468.5</ele><time>2026-04-26T09:25:04.999Z</time></trkpt><trkpt lat="43.498106113329264" lon="11.29803878057051"><ele>468.0</ele><time>2026-04-26T09:25:05.999Z</time></trkpt><trkpt lat="43.498235584205716" lon="11.298012889814455"><ele>467.5</ele><time>2026-04-26T09:25:06.999Z</time></trkpt><trkpt lat="43.498364000154766" lon="11.298011610658085"><ele>467.0</ele><time>2026-04-26T09:25:07.999Z</time></trkpt><trkpt lat="43.498472929857066" lon="11.298094476513166"><ele>467.0</ele><time>2026-04-26T09:25:08.999Z</time></trkpt><trkpt lat="43.49856436442386" lon="11.298230740834326"><ele>467.0</ele><time>2026-04-26T09:25:09.999Z</time></trkpt><trkpt lat="43.49861958946455" lon="11.298404864927127"><ele>467.0</ele><time>2026-04-26T09:25:10.999Z</time></trkpt><trkpt lat="43.49862361446431" lon="11.298601145047483"><ele>467.0</ele><time>2026-04-26T09:25:11.999Z</time></trkpt><trkpt lat="43.498562380861884" lon="11.298789029950584"><ele>466.66666666666663</ele><time>2026-04-26T09:25:12.999Z</time></trkpt><trkpt lat="43.4984735406267" lon="11.298989391243248"><ele>466.33333333333337</ele><time>2026-04-26T09:25:13.999Z</time></trkpt><trkpt lat="43.49837202915302" lon="11.299174356144318"><ele>466.0</ele><time>2026-04-26T09:25:14.999Z</time></trkpt><trkpt lat="43.49828645247434" lon="11.29938256320933"><ele>466.0</ele><time>2026-04-26T09:25:15.999Z</time></trkpt><trkpt lat="43.49820300576912" lon="11.299589012186813"><ele>466.0</ele><time>2026-04-26T09:25:16.999Z</time></trkpt><trkpt lat="43.4981163801319" lon="11.299789664591165"><ele>466.0</ele><time>2026-04-26T09:25:17.999Z</time></trkpt><trkpt lat="43.49803170928531" lon="11.29997701988643"><ele>468.0</ele><time>2026-04-26T09:25:18.999Z</time></trkpt><trkpt lat="43.49793372676376" lon="11.300141122762374"><ele>470.0</ele><time>2026-04-26T09:25:19.999Z</time></trkpt><trkpt lat="43.49782401736737" lon="11.300275177151201"><ele>472.0</ele><time>2026-04-26T09:25:20.999Z</time></trkpt><trkpt lat="43.49770721267488" lon="11.300389025656663"><ele>474.0</ele><time>2026-04-26T09:25:21.999Z</time></trkpt><trkpt lat="43.49760567756218" lon="11.300501417299182"><ele>472.0</ele><time>2026-04-26T09:25:22.999Z</time></trkpt><trkpt lat="43.497543861348774" lon="11.300654473005025"><ele>470.0</ele><time>2026-04-26T09:25:23.999Z</time></trkpt><trkpt lat="43.49754677311004" lon="11.300839587076254"><ele>468.0</ele><time>2026-04-26T09:25:24.999Z</time></trkpt><trkpt lat="43.49760660469328" lon="11.301014680653033"><ele>466.0</ele><time>2026-04-26T09:25:25.999Z</time></trkpt><trkpt lat="43.4977177930223" lon="11.301146540401568"><ele>466.0</ele><time>2026-04-26T09:25:26.999Z</time></trkpt><trkpt lat="43.49786293404464" lon="11.301230163112145"><ele>466.0</ele><time>2026-04-26T09:25:27.999Z</time></trkpt><trkpt lat="43.49802831594846" lon="11.301257636484001"><ele>466.0</ele><time>2026-04-26T09:25:28.999Z</time></trkpt><trkpt lat="43.49820149610427" lon="11.301232238005586"><ele>461.33333333333337</ele><time>2026-04-26T09:25:29.999Z</time></trkpt><trkpt lat="43.49835719961346" lon="11.301124996321827"><ele>456.66666666666663</ele><time>2026-04-26T09:25:30.999Z</time></trkpt><trkpt lat="43.4984996498969" lon="11.300988973708439"><ele>452.0</ele><time>2026-04-26T09:25:31.999Z</time></trkpt><trkpt lat="43.49865260609811" lon="11.300882205821852"><ele>452.66666666666663</ele><time>2026-04-26T09:25:32.999Z</time></trkpt><trkpt lat="43.49880538785526" lon="11.30078196499374"><ele>453.33333333333337</ele><time>2026-04-26T09:25:33.999Z</time></trkpt><trkpt lat="43.498960300845454" lon="11.300685834083103"><ele>454.0</ele><time>2026-04-26T09:25:35Z</time></trkpt><trkpt lat="43.49911526188362" lon="11.300602127610503"><ele>449.6666666666667</ele><time>2026-04-26T09:25:36Z</time></trkpt><trkpt lat="43.49927693424049" lon="11.300529795567057"><ele>445.33333333333337</ele><time>2026-04-26T09:25:37Z</time></trkpt><trkpt lat="43.49943842394685" lon="11.300473036082028"><ele>441.0</ele><time>2026-04-26T09:25:38Z</time></trkpt><trkpt lat="43.49960010998728" lon="11.300443859748198"><ele>438.66666666666663</ele><time>2026-04-26T09:25:39Z</time></trkpt><trkpt lat="43.49976059193925" lon="11.300456841373592"><ele>436.3333333333333</ele><time>2026-04-26T09:25:40Z</time></trkpt><trkpt lat="43.4999241948829" lon="11.300455440387942"><ele>434.0</ele><time>2026-04-26T09:25:41Z</time></trkpt><trkpt lat="43.50007291881061" lon="11.300437142495687"><ele>434.0</ele><time>2026-04-26T09:25:42Z</time></trkpt><trkpt lat="43.50023169007835" lon="11.300368250237842"><ele>434.0</ele><time>2026-04-26T09:25:43Z</time></trkpt><trkpt lat="43.50039109546571" lon="11.300288736424697"><ele>434.0</ele><time>2026-04-26T09:25:44Z</time></trkpt><trkpt lat="43.500561093217904" lon="11.300286003336865"><ele>433.0</ele><time>2026-04-26T09:25:45Z</time></trkpt><trkpt lat="43.50073355716614" lon="11.30025501463805"><ele>432.0</ele><time>2026-04-26T09:25:46Z</time></trkpt><trkpt lat="43.50089558113313" lon="11.300209636067763"><ele>431.0</ele><time>2026-04-26T09:25:47Z</time></trkpt><trkpt lat="43.501048334618524" lon="11.300098247327558"><ele>431.0</ele><time>2026-04-26T09:25:48Z</time></trkpt><trkpt lat="43.50120402728612" lon="11.299999102275002"><ele>431.0</ele><time>2026-04-26T09:25:49Z</time></trkpt><trkpt lat="43.50136599826298" lon="11.299950568744737"><ele>431.0</ele><time>2026-04-26T09:25:50Z</time></trkpt><trkpt lat="43.50153653434542" lon="11.299933429908227"><ele>432.66666666666663</ele><time>2026-04-26T09:25:51Z</time></trkpt><trkpt lat="43.501702810705886" lon="11.299880780586701"><ele>434.33333333333337</ele><time>2026-04-26T09:25:52Z</time></trkpt><trkpt lat="43.501879847667404" lon="11.299875272581255"><ele>436.0</ele><time>2026-04-26T09:25:53Z</time></trkpt><trkpt lat="43.50200854147758" lon="11.29965376964467"><ele>432.0</ele><time>2026-04-26T09:25:54Z</time></trkpt><trkpt lat="43.50216855260527" lon="11.299571188639819"><ele>428.0</ele><time>2026-04-26T09:25:55Z</time></trkpt><trkpt lat="43.50232931683484" lon="11.299510914835654"><ele>424.0</ele><time>2026-04-26T09:25:56Z</time></trkpt><trkpt lat="43.502471067368944" lon="11.299405358013326"><ele>424.0</ele><time>2026-04-26T09:25:57Z</time></trkpt><trkpt lat="43.50258545557576" lon="11.299233666402067"><ele>424.0</ele><time>2026-04-26T09:25:58Z</time></trkpt><trkpt lat="43.50266859880478" lon="11.299025637428791"><ele>424.0</ele><time>2026-04-26T09:25:59Z</time></trkpt><trkpt lat="43.50277170886284" lon="11.298840081376092"><ele>425.0</ele><time>2026-04-26T09:26:00Z</time></trkpt><trkpt lat="43.5028933990241" lon="11.298699289738275"><ele>426.0</ele><time>2026-04-26T09:26:01Z</time></trkpt><trkpt lat="43.503038213507566" lon="11.298589443645774"><ele>427.0</ele><time>2026-04-26T09:26:02Z</time></trkpt><trkpt lat="43.50317769536468" lon="11.298461192734175"><ele>427.0</ele><time>2026-04-26T09:26:03Z</time></trkpt><trkpt lat="43.50327681612496" lon="11.298305282072663"><ele>427.0</ele><time>2026-04-26T09:26:04Z</time></trkpt><trkpt lat="43.50330324408112" lon="11.298103254587973"><ele>427.0</ele><time>2026-04-26T09:26:05Z</time></trkpt><trkpt lat="43.50326882510971" lon="11.297894887444707"><ele>424.33333333333337</ele><time>2026-04-26T09:26:06Z</time></trkpt><trkpt lat="43.50321434190576" lon="11.297697070003052"><ele>421.66666666666663</ele><time>2026-04-26T09:26:07Z</time></trkpt><trkpt lat="43.50320801659508" lon="11.297485691015472"><ele>419.0</ele><time>2026-04-26T09:26:08Z</time></trkpt><trkpt lat="43.50323357585974" lon="11.297276627090934"><ele>416.0</ele><time>2026-04-26T09:26:09Z</time></trkpt><trkpt lat="43.50330276445282" lon="11.297075910002468"><ele>413.0</ele><time>2026-04-26T09:26:10Z</time></trkpt><trkpt lat="43.50339552425888" lon="11.296879489499245"><ele>410.0</ele><time>2026-04-26T09:26:11Z</time></trkpt><trkpt lat="43.50345892012486" lon="11.296675531346178"><ele>410.0</ele><time>2026-04-26T09:26:12Z</time></trkpt><trkpt lat="43.503486437545696" lon="11.296467382495438"><ele>410.0</ele><time>2026-04-26T09:26:13Z</time></trkpt><trkpt lat="43.503466754851985" lon="11.29625633984833"><ele>410.0</ele><time>2026-04-26T09:26:14Z</time></trkpt><trkpt lat="43.503426133043526" lon="11.296048651310072"><ele>408.3333333333333</ele><time>2026-04-26T09:26:15Z</time></trkpt><trkpt lat="43.50339093830584" lon="11.295837177534251"><ele>406.66666666666663</ele><time>2026-04-26T09:26:16Z</time></trkpt><trkpt lat="43.503380635910524" lon="11.295623281716002"><ele>405.0</ele><time>2026-04-26T09:26:17Z</time></trkpt><trkpt lat="43.503415581742026" lon="11.295410339267418"><ele>401.66666666666663</ele><time>2026-04-26T09:26:18Z</time></trkpt><trkpt lat="43.50345979684968" lon="11.295198726729701"><ele>398.3333333333333</ele><time>2026-04-26T09:26:19Z</time></trkpt><trkpt lat="43.503524501548576" lon="11.29500704531495"><ele>395.0</ele><time>2026-04-26T09:26:20Z</time></trkpt><trkpt lat="43.50361201361944" lon="11.294840595398501"><ele>395.66666666666663</ele><time>2026-04-26T09:26:21Z</time></trkpt><trkpt lat="43.50374611555266" lon="11.294720329034007"><ele>396.33333333333337</ele><time>2026-04-26T09:26:22Z</time></trkpt><trkpt lat="43.50389247208955" lon="11.294604471000385"><ele>397.0</ele><time>2026-04-26T09:26:23Z</time></trkpt><trkpt lat="43.50403010450714" lon="11.294479575861926"><ele>397.0</ele><time>2026-04-26T09:26:24Z</time></trkpt><trkpt lat="43.50413747388358" lon="11.29430861811011"><ele>397.0</ele><time>2026-04-26T09:26:25Z</time></trkpt><trkpt lat="43.504204502427804" lon="11.29409761837686"><ele>397.0</ele><time>2026-04-26T09:26:26Z</time></trkpt><trkpt lat="43.504246252549784" lon="11.293871500414047"><ele>397.75</ele><time>2026-04-26T09:26:27Z</time></trkpt><trkpt lat="43.504315954673984" lon="11.293676811312821"><ele>398.5</ele><time>2026-04-26T09:26:28Z</time></trkpt><trkpt lat="43.50440408443478" lon="11.293515248363017"><ele>399.25</ele><time>2026-04-26T09:26:29Z</time></trkpt><trkpt lat="43.504516440730136" lon="11.293393042637826"><ele>400.0</ele><time>2026-04-26T09:26:30Z</time></trkpt><trkpt lat="43.50463954893077" lon="11.293280097850133"><ele>400.0</ele><time>2026-04-26T09:26:31Z</time></trkpt><trkpt lat="43.50477406363344" lon="11.293195226729305"><ele>400.0</ele><time>2026-04-26T09:26:32Z</time></trkpt><trkpt lat="43.50488112517698" lon="11.293079701487109"><ele>400.0</ele><time>2026-04-26T09:26:33Z</time></trkpt><trkpt lat="43.50493766014311" lon="11.292920095420772"><ele>400.0</ele><time>2026-04-26T09:26:34Z</time></trkpt><trkpt lat="43.50492692255567" lon="11.29274777700736"><ele>396.25</ele><time>2026-04-26T09:26:35Z</time></trkpt><trkpt lat="43.50490621336211" lon="11.292593427007478"><ele>392.5</ele><time>2026-04-26T09:26:36Z</time></trkpt><trkpt lat="43.50496350465345" lon="11.292478904367002"><ele>388.75</ele><time>2026-04-26T09:26:37Z</time></trkpt><trkpt lat="43.50505564175282" lon="11.292413207000067"><ele>385.0</ele><time>2026-04-26T09:26:38Z</time></trkpt><trkpt lat="43.50518308912547" lon="11.292461288945344"><ele>385.0</ele><time>2026-04-26T09:26:39Z</time></trkpt><trkpt lat="43.50531805039532" lon="11.292468705604264"><ele>385.0</ele><time>2026-04-26T09:26:40Z</time></trkpt><trkpt lat="43.505458050511905" lon="11.29249599586579"><ele>385.0</ele><time>2026-04-26T09:26:40.999Z</time></trkpt><trkpt lat="43.505607802226514" lon="11.292516044236036"><ele>385.0</ele><time>2026-04-26T09:26:41.999Z</time></trkpt><trkpt lat="43.505761046811664" lon="11.292541570144738"><ele>385.25</ele><time>2026-04-26T09:26:42.999Z</time></trkpt><trkpt lat="43.505907236695826" lon="11.292566095305405"><ele>385.5</ele><time>2026-04-26T09:26:43.999Z</time></trkpt><trkpt lat="43.50604359257729" lon="11.292580827490445"><ele>385.75</ele><time>2026-04-26T09:26:44.999Z</time></trkpt><trkpt lat="43.50617874838948" lon="11.292565568298865"><ele>386.0</ele><time>2026-04-26T09:26:45.999Z</time></trkpt><trkpt lat="43.50630546514674" lon="11.29249197343077"><ele>386.0</ele><time>2026-04-26T09:26:46.999Z</time></trkpt><trkpt lat="43.50641837200924" lon="11.292368238689452"><ele>386.0</ele><time>2026-04-26T09:26:47.999Z</time></trkpt><trkpt lat="43.506521418572085" lon="11.292217964561997"><ele>386.0</ele><time>2026-04-26T09:26:48.999Z</time></trkpt><trkpt lat="43.506638080218664" lon="11.292099242682468"><ele>386.0</ele><time>2026-04-26T09:26:49.999Z</time></trkpt><trkpt lat="43.50678413647217" lon="11.292063420269425"><ele>383.5</ele><time>2026-04-26T09:26:50.999Z</time></trkpt><trkpt lat="43.50693340103069" lon="11.292062778757808"><ele>381.0</ele><time>2026-04-26T09:26:51.999Z</time></trkpt><trkpt lat="43.50706838368076" lon="11.292145005591795"><ele>378.5</ele><time>2026-04-26T09:26:52.999Z</time></trkpt><trkpt lat="43.5071859069849" lon="11.29227706433977"><ele>376.0</ele><time>2026-04-26T09:26:53.999Z</time></trkpt><trkpt lat="43.50730763886943" lon="11.292413101833109"><ele>376.0</ele><time>2026-04-26T09:26:54.999Z</time></trkpt><trkpt lat="43.507414343974986" lon="11.292542255835476"><ele>376.0</ele><time>2026-04-26T09:26:55.999Z</time></trkpt><trkpt lat="43.50752130212815" lon="11.292599268328425"><ele>376.0</ele><time>2026-04-26T09:26:56.999Z</time></trkpt><trkpt lat="43.50765986596961" lon="11.292530657477988"><ele>376.0</ele><time>2026-04-26T09:26:57.999Z</time></trkpt><trkpt lat="43.50775962227718" lon="11.292403596110134"><ele>370.5</ele><time>2026-04-26T09:26:58.999Z</time></trkpt><trkpt lat="43.507837779781205" lon="11.292256191140924"><ele>365.0</ele><time>2026-04-26T09:26:59.999Z</time></trkpt><trkpt lat="43.50793472168042" lon="11.292156744254326"><ele>359.5</ele><time>2026-04-26T09:27:00.999Z</time></trkpt><trkpt lat="43.50804713617033" lon="11.292109274489315"><ele>354.0</ele><time>2026-04-26T09:27:01.999Z</time></trkpt><trkpt lat="43.508177825285905" lon="11.292109459799972"><ele>353.0</ele><time>2026-04-26T09:27:02.999Z</time></trkpt><trkpt lat="43.50832094538274" lon="11.29213269793533"><ele>352.0</ele><time>2026-04-26T09:27:03.999Z</time></trkpt><trkpt lat="43.50845326423137" lon="11.292246423611298"><ele>351.0</ele><time>2026-04-26T09:27:04.999Z</time></trkpt><trkpt lat="43.508571933178324" lon="11.29238203568284"><ele>351.25</ele><time>2026-04-26T09:27:05.999Z</time></trkpt><trkpt lat="43.50868362708095" lon="11.29249677683784"><ele>351.5</ele><time>2026-04-26T09:27:06.999Z</time></trkpt><trkpt lat="43.508798432250025" lon="11.292598556787516"><ele>351.75</ele><time>2026-04-26T09:27:07.999Z</time></trkpt><trkpt lat="43.50891474647191" lon="11.292676095364095"><ele>352.0</ele><time>2026-04-26T09:27:08.999Z</time></trkpt><trkpt lat="43.509028147611744" lon="11.292747448186919"><ele>352.0</ele><time>2026-04-26T09:27:09.999Z</time></trkpt><trkpt lat="43.50914543034517" lon="11.2928095144324"><ele>352.0</ele><time>2026-04-26T09:27:10.999Z</time></trkpt><trkpt lat="43.50926425204703" lon="11.292824728929515"><ele>352.0</ele><time>2026-04-26T09:27:11.999Z</time></trkpt><trkpt lat="43.50938116404273" lon="11.292789641854233"><ele>352.0</ele><time>2026-04-26T09:27:12.999Z</time></trkpt><trkpt lat="43.50948110860721" lon="11.292698587787957"><ele>352.0</ele><time>2026-04-26T09:27:13.999Z</time></trkpt><trkpt lat="43.509563386959826" lon="11.292587935700654"><ele>352.0</ele><time>2026-04-26T09:27:14.999Z</time></trkpt><trkpt lat="43.50964763265427" lon="11.292499444525905"><ele>352.0</ele><time>2026-04-26T09:27:15.999Z</time></trkpt><trkpt lat="43.50974774870915" lon="11.292438871052923"><ele>352.0</ele><time>2026-04-26T09:27:16.999Z</time></trkpt><trkpt lat="43.50983566431677" lon="11.292372892192988"><ele>352.0</ele><time>2026-04-26T09:27:17.999Z</time></trkpt><trkpt lat="43.5099297785912" lon="11.292327736286873"><ele>350.5</ele><time>2026-04-26T09:27:18.999Z</time></trkpt><trkpt lat="43.51003531647462" lon="11.292308814611465"><ele>349.0</ele><time>2026-04-26T09:27:19.999Z</time></trkpt><trkpt lat="43.51014502719433" lon="11.292421139438924"><ele>347.5</ele><time>2026-04-26T09:27:20.999Z</time></trkpt><trkpt lat="43.51025474906652" lon="11.29254211269246"><ele>346.0</ele><time>2026-04-26T09:27:21.999Z</time></trkpt><trkpt lat="43.51037081544978" lon="11.292649707046033"><ele>343.4</ele><time>2026-04-26T09:27:22.999Z</time></trkpt><trkpt lat="43.51045709639741" lon="11.292768956043933"><ele>340.8</ele><time>2026-04-26T09:27:23.999Z</time></trkpt><trkpt lat="43.51053547306746" lon="11.292865160975154"><ele>338.2</ele><time>2026-04-26T09:27:24.999Z</time></trkpt><trkpt lat="43.510616157662206" lon="11.292903987754679"><ele>335.59999999999997</ele><time>2026-04-26T09:27:25.999Z</time></trkpt><trkpt lat="43.510699360178016" lon="11.292895176474467"><ele>333.0</ele><time>2026-04-26T09:27:26.999Z</time></trkpt><trkpt lat="43.51075844084355" lon="11.292757432681645"><ele>333.0</ele><time>2026-04-26T09:27:27.999Z</time></trkpt><trkpt lat="43.51077413742786" lon="11.292603825725124"><ele>333.0</ele><time>2026-04-26T09:27:28.999Z</time></trkpt><trkpt lat="43.51073434776706" lon="11.29242478092406"><ele>333.0</ele><time>2026-04-26T09:27:29.999Z</time></trkpt><trkpt lat="43.510686616466515" lon="11.292246128984942"><ele>333.0</ele><time>2026-04-26T09:27:30.999Z</time></trkpt><trkpt lat="43.51065200756238" lon="11.292054580391325"><ele>331.75</ele><time>2026-04-26T09:27:31.999Z</time></trkpt><trkpt lat="43.51062191935704" lon="11.291854033265784"><ele>330.5</ele><time>2026-04-26T09:27:32.999Z</time></trkpt><trkpt lat="43.510587721871076" lon="11.291652069187297"><ele>329.25</ele><time>2026-04-26T09:27:33.999Z</time></trkpt><trkpt lat="43.51054972150192" lon="11.291456834349477"><ele>328.0</ele><time>2026-04-26T09:27:34.999Z</time></trkpt><trkpt lat="43.51050057781056" lon="11.291268624782209"><ele>327.75</ele><time>2026-04-26T09:27:35.999Z</time></trkpt><trkpt lat="43.51043582144548" lon="11.291090005675702"><ele>327.5</ele><time>2026-04-26T09:27:36.999Z</time></trkpt><trkpt lat="43.510359177676456" lon="11.290925644063794"><ele>327.25</ele><time>2026-04-26T09:27:37.999Z</time></trkpt><trkpt lat="43.51030523102041" lon="11.29075218539328"><ele>327.0</ele><time>2026-04-26T09:27:38.999Z</time></trkpt><trkpt lat="43.51025387501972" lon="11.290606304118489"><ele>325.6</ele><time>2026-04-26T09:27:39.999Z</time></trkpt><trkpt lat="43.51025510406864" lon="11.290483152396831"><ele>324.20000000000005</ele><time>2026-04-26T09:27:41Z</time></trkpt><trkpt lat="43.51031497324573" lon="11.290388666372083"><ele>322.8</ele><time>2026-04-26T09:27:42Z</time></trkpt><trkpt lat="43.51039653036829" lon="11.290326142205242"><ele>321.4</ele><time>2026-04-26T09:27:43Z</time></trkpt><trkpt lat="43.51052414609196" lon="11.290364311811638"><ele>320.0</ele><time>2026-04-26T09:27:44Z</time></trkpt><trkpt lat="43.510618489690636" lon="11.290514972498668"><ele>320.33333333333337</ele><time>2026-04-26T09:27:45Z</time></trkpt><trkpt lat="43.510744599209886" lon="11.2906295167953"><ele>320.6666666666667</ele><time>2026-04-26T09:27:46Z</time></trkpt><trkpt lat="43.51086591532971" lon="11.290763403717532"><ele>321.0</ele><time>2026-04-26T09:27:47Z</time></trkpt><trkpt lat="43.51101041822438" lon="11.290852484997561"><ele>321.0</ele><time>2026-04-26T09:27:48Z</time></trkpt><trkpt lat="43.511176761670534" lon="11.290866815283737"><ele>321.0</ele><time>2026-04-26T09:27:49Z</time></trkpt><trkpt lat="43.51133682981434" lon="11.290853233530951"><ele>321.0</ele><time>2026-04-26T09:27:50Z</time></trkpt><trkpt lat="43.51147677959949" lon="11.290906605635211"><ele>317.0</ele><time>2026-04-26T09:27:51Z</time></trkpt><trkpt lat="43.51160063209595" lon="11.291014595072234"><ele>313.0</ele><time>2026-04-26T09:27:52Z</time></trkpt><trkpt lat="43.51173381446351" lon="11.291141110624787"><ele>309.0</ele><time>2026-04-26T09:27:53Z</time></trkpt><trkpt lat="43.51183429086849" lon="11.291305776776031"><ele>308.75</ele><time>2026-04-26T09:27:54Z</time></trkpt><trkpt lat="43.511932085644425" lon="11.291444216618643"><ele>308.5</ele><time>2026-04-26T09:27:55Z</time></trkpt><trkpt lat="43.51203120965939" lon="11.291571524132937"><ele>308.25</ele><time>2026-04-26T09:27:56Z</time></trkpt><trkpt lat="43.51212332724855" lon="11.291695528201359"><ele>308.0</ele><time>2026-04-26T09:27:57Z</time></trkpt><trkpt lat="43.51221165591789" lon="11.291821962876142"><ele>308.0</ele><time>2026-04-26T09:27:58Z</time></trkpt><trkpt lat="43.512323975146046" lon="11.291925073251647"><ele>308.0</ele><time>2026-04-26T09:27:59Z</time></trkpt><trkpt lat="43.51247423212231" lon="11.291928855518968"><ele>308.0</ele><time>2026-04-26T09:28:00Z</time></trkpt><trkpt lat="43.51260547697783" lon="11.291860004928608"><ele>308.0</ele><time>2026-04-26T09:28:01Z</time></trkpt><trkpt lat="43.51272949933004" lon="11.291752365312766"><ele>308.0</ele><time>2026-04-26T09:28:02Z</time></trkpt><trkpt lat="43.512852183320526" lon="11.291634720702174"><ele>308.0</ele><time>2026-04-26T09:28:03Z</time></trkpt><trkpt lat="43.51297490782396" lon="11.291529558440406"><ele>308.0</ele><time>2026-04-26T09:28:04Z</time></trkpt><trkpt lat="43.51308845635099" lon="11.291422562842287"><ele>308.0</ele><time>2026-04-26T09:28:05Z</time></trkpt><trkpt lat="43.513200774218895" lon="11.291315631718701"><ele>304.25</ele><time>2026-04-26T09:28:06Z</time></trkpt><trkpt lat="43.513312403402814" lon="11.29120890533884"><ele>300.5</ele><time>2026-04-26T09:28:07Z</time></trkpt><trkpt lat="43.513419117605594" lon="11.291097756364035"><ele>296.75</ele><time>2026-04-26T09:28:08Z</time></trkpt><trkpt lat="43.513536962690885" lon="11.2910176385434"><ele>293.0</ele><time>2026-04-26T09:28:09Z</time></trkpt><trkpt lat="43.51364492339156" lon="11.290947727740953"><ele>292.0</ele><time>2026-04-26T09:28:10Z</time></trkpt><trkpt lat="43.51375901238765" lon="11.290996953906339"><ele>291.0</ele><time>2026-04-26T09:28:11Z</time></trkpt><trkpt lat="43.51387549144027" lon="11.291062509183368"><ele>290.0</ele><time>2026-04-26T09:28:12Z</time></trkpt><trkpt lat="43.51399110208666" lon="11.291161255042432"><ele>289.0</ele><time>2026-04-26T09:28:13Z</time></trkpt><trkpt lat="43.5141126954198" lon="11.291230442610164"><ele>289.0</ele><time>2026-04-26T09:28:14Z</time></trkpt><trkpt lat="43.5142442035657" lon="11.291275831037751"><ele>289.0</ele><time>2026-04-26T09:28:15Z</time></trkpt><trkpt lat="43.514378159282266" lon="11.291309041692562"><ele>289.0</ele><time>2026-04-26T09:28:16Z</time></trkpt><trkpt lat="43.514514362828784" lon="11.29132858608508"><ele>289.0</ele><time>2026-04-26T09:28:17Z</time></trkpt><trkpt lat="43.51464514562345" lon="11.29133608004078"><ele>287.75</ele><time>2026-04-26T09:28:18Z</time></trkpt><trkpt lat="43.51476861500193" lon="11.291342277260426"><ele>286.5</ele><time>2026-04-26T09:28:19Z</time></trkpt><trkpt lat="43.51488536635358" lon="11.291354550238488"><ele>285.25</ele><time>2026-04-26T09:28:20Z</time></trkpt><trkpt lat="43.51499902814226" lon="11.291367627750788"><ele>284.0</ele><time>2026-04-26T09:28:21Z</time></trkpt><trkpt lat="43.51511047163141" lon="11.291389353333633"><ele>284.0</ele><time>2026-04-26T09:28:22Z</time></trkpt><trkpt lat="43.51521410921432" lon="11.291387562761708"><ele>284.0</ele><time>2026-04-26T09:28:23Z</time></trkpt><trkpt lat="43.515315873695016" lon="11.29139902402236"><ele>284.0</ele><time>2026-04-26T09:28:24Z</time></trkpt><trkpt lat="43.515418985721574" lon="11.291447228845483"><ele>284.0</ele><time>2026-04-26T09:28:25Z</time></trkpt><trkpt lat="43.51552735003829" lon="11.29149772113709"><ele>284.0</ele><time>2026-04-26T09:28:26Z</time></trkpt><trkpt lat="43.5156456400077" lon="11.291551720557207"><ele>283.75</ele><time>2026-04-26T09:28:27Z</time></trkpt><trkpt lat="43.5157476197314" lon="11.291652905358077"><ele>283.5</ele><time>2026-04-26T09:28:28Z</time></trkpt><trkpt lat="43.515817581833424" lon="11.29180219528745"><ele>283.25</ele><time>2026-04-26T09:28:29Z</time></trkpt><trkpt lat="43.515887166292025" lon="11.291948084364888"><ele>283.0</ele><time>2026-04-26T09:28:30Z</time></trkpt><trkpt lat="43.51593361071915" lon="11.29210542182346"><ele>283.0</ele><time>2026-04-26T09:28:31Z</time></trkpt><trkpt lat="43.516013672344926" lon="11.292233124434047"><ele>283.0</ele><time>2026-04-26T09:28:32Z</time></trkpt><trkpt lat="43.51613228878408" lon="11.29225724584881"><ele>283.0</ele><time>2026-04-26T09:28:33Z</time></trkpt><trkpt lat="43.516244719796575" lon="11.292245315579288"><ele>283.0</ele><time>2026-04-26T09:28:34Z</time></trkpt><trkpt lat="43.51634761931099" lon="11.292227455474825"><ele>281.8</ele><time>2026-04-26T09:28:35Z</time></trkpt><trkpt lat="43.51644536656912" lon="11.292191914572442"><ele>280.6</ele><time>2026-04-26T09:28:36Z</time></trkpt><trkpt lat="43.51654096800975" lon="11.292154169954491"><ele>279.4</ele><time>2026-04-26T09:28:37Z</time></trkpt><trkpt lat="43.51663663238503" lon="11.292123189563947"><ele>278.2</ele><time>2026-04-26T09:28:38Z</time></trkpt><trkpt lat="43.51673416624053" lon="11.29210848795166"><ele>277.0</ele><time>2026-04-26T09:28:39Z</time></trkpt><trkpt lat="43.51682870986294" lon="11.292125917685798"><ele>277.0</ele><time>2026-04-26T09:28:40Z</time></trkpt><trkpt lat="43.51690929976638" lon="11.292221533484671"><ele>277.0</ele><time>2026-04-26T09:28:41Z</time></trkpt><trkpt lat="43.5169756546499" lon="11.292333621264055"><ele>277.0</ele><time>2026-04-26T09:28:42Z</time></trkpt><trkpt lat="43.51704114590511" lon="11.292447367389626"><ele>277.0</ele><time>2026-04-26T09:28:42.999Z</time></trkpt><trkpt lat="43.5171095484467" lon="11.292558000695466"><ele>277.0</ele><time>2026-04-26T09:28:43.999Z</time></trkpt><trkpt lat="43.5171841026499" lon="11.29266947837625"><ele>276.5</ele><time>2026-04-26T09:28:44.999Z</time></trkpt><trkpt lat="43.51726287287195" lon="11.2927845772996"><ele>276.0</ele><time>2026-04-26T09:28:45.999Z</time></trkpt><trkpt lat="43.517341742782506" lon="11.29290702590402"><ele>275.5</ele><time>2026-04-26T09:28:46.999Z</time></trkpt><trkpt lat="43.517419721160984" lon="11.293033719895865"><ele>275.0</ele><time>2026-04-26T09:28:47.999Z</time></trkpt><trkpt lat="43.51749987748665" lon="11.293160995259804"><ele>275.0</ele><time>2026-04-26T09:28:48.999Z</time></trkpt><trkpt lat="43.51757939509089" lon="11.293291523163575"><ele>275.0</ele><time>2026-04-26T09:28:49.999Z</time></trkpt><trkpt lat="43.51765778945076" lon="11.293420597211718"><ele>275.0</ele><time>2026-04-26T09:28:50.999Z</time></trkpt><trkpt lat="43.517736802667436" lon="11.293543103193231"><ele>275.0</ele><time>2026-04-26T09:28:51.999Z</time></trkpt><trkpt lat="43.517820632938616" lon="11.29365548308351"><ele>274.6</ele><time>2026-04-26T09:28:52.999Z</time></trkpt><trkpt lat="43.51791486642407" lon="11.293729239405288"><ele>274.2</ele><time>2026-04-26T09:28:53.999Z</time></trkpt><trkpt lat="43.51801535996519" lon="11.293769635534176"><ele>273.8</ele><time>2026-04-26T09:28:54.999Z</time></trkpt><trkpt lat="43.51811963357636" lon="11.29372942502382"><ele>273.4</ele><time>2026-04-26T09:28:55.999Z</time></trkpt><trkpt lat="43.518210244078674" lon="11.293648294963061"><ele>273.0</ele><time>2026-04-26T09:28:56.999Z</time></trkpt><trkpt lat="43.518289428785096" lon="11.293524312632767"><ele>273.0</ele><time>2026-04-26T09:28:57.999Z</time></trkpt><trkpt lat="43.51834802292108" lon="11.293392031672502"><ele>273.0</ele><time>2026-04-26T09:28:58.999Z</time></trkpt><trkpt lat="43.51840009135849" lon="11.293255428540638"><ele>273.0</ele><time>2026-04-26T09:28:59.999Z</time></trkpt><trkpt lat="43.518451321082274" lon="11.293120781723488"><ele>273.0</ele><time>2026-04-26T09:29:00.999Z</time></trkpt><trkpt lat="43.51850936429262" lon="11.292994678781426"><ele>273.0</ele><time>2026-04-26T09:29:01.999Z</time></trkpt><trkpt lat="43.51858722041125" lon="11.292889413791416"><ele>272.6666666666667</ele><time>2026-04-26T09:29:02.999Z</time></trkpt><trkpt lat="43.51869214206067" lon="11.292787062060999"><ele>272.33333333333337</ele><time>2026-04-26T09:29:03.999Z</time></trkpt><trkpt lat="43.518824350745206" lon="11.292676958389876"><ele>272.0</ele><time>2026-04-26T09:29:04.999Z</time></trkpt><trkpt lat="43.51897555905363" lon="11.292551940596555"><ele>272.0</ele><time>2026-04-26T09:29:05.999Z</time></trkpt><trkpt lat="43.51913765099464" lon="11.292417250461794"><ele>272.0</ele><time>2026-04-26T09:29:06.999Z</time></trkpt><trkpt lat="43.51929401926117" lon="11.292286413202268"><ele>272.0</ele><time>2026-04-26T09:29:07.999Z</time></trkpt><trkpt lat="43.519439838183395" lon="11.292163052496155"><ele>274.0</ele><time>2026-04-26T09:29:08.999Z</time></trkpt><trkpt lat="43.51957205913392" lon="11.292051186588285"><ele>276.0</ele><time>2026-04-26T09:29:09.999Z</time></trkpt><trkpt lat="43.5196928800662" lon="11.291949637545084"><ele>278.0</ele><time>2026-04-26T09:29:10.999Z</time></trkpt><trkpt lat="43.519798840586915" lon="11.291866632622586"><ele>280.0</ele><time>2026-04-26T09:29:11.999Z</time></trkpt><trkpt lat="43.51989486406633" lon="11.29178784807099"><ele>280.0</ele><time>2026-04-26T09:29:12.999Z</time></trkpt><trkpt lat="43.52000132964239" lon="11.291797530809504"><ele>280.0</ele><time>2026-04-26T09:29:13.999Z</time></trkpt><trkpt lat="43.52007649000834" lon="11.291883892825908"><ele>280.0</ele><time>2026-04-26T09:29:14.999Z</time></trkpt><trkpt lat="43.52011237850959" lon="11.291997460044577"><ele>280.0</ele><time>2026-04-26T09:29:15.999Z</time></trkpt><trkpt lat="43.52012020325482" lon="11.292138751438086"><ele>280.0</ele><time>2026-04-26T09:29:16.999Z</time></trkpt><trkpt lat="43.52013173968139" lon="11.292281609401163"><ele>277.25</ele><time>2026-04-26T09:29:17.999Z</time></trkpt><trkpt lat="43.52015242756304" lon="11.29243520031402"><ele>274.5</ele><time>2026-04-26T09:29:18.999Z</time></trkpt><trkpt lat="43.52017572523268" lon="11.292600597360387"><ele>271.75</ele><time>2026-04-26T09:29:19.999Z</time></trkpt><trkpt lat="43.52019593218998" lon="11.292770039482345"><ele>269.0</ele><time>2026-04-26T09:29:20.999Z</time></trkpt><trkpt lat="43.5202041338545" lon="11.292945804571014"><ele>269.75</ele><time>2026-04-26T09:29:21.999Z</time></trkpt><trkpt lat="43.52018205272257" lon="11.293122107368534"><ele>270.5</ele><time>2026-04-26T09:29:22.999Z</time></trkpt><trkpt lat="43.520116074674064" lon="11.293290473191721"><ele>271.25</ele><time>2026-04-26T09:29:23.999Z</time></trkpt><trkpt lat="43.52001008281163" lon="11.293420817789746"><ele>272.0</ele><time>2026-04-26T09:29:24.999Z</time></trkpt><trkpt lat="43.5199257990866" lon="11.293542496366134"><ele>272.0</ele><time>2026-04-26T09:29:25.999Z</time></trkpt><trkpt lat="43.519911535563836" lon="11.293693567991909"><ele>272.0</ele><time>2026-04-26T09:29:26.999Z</time></trkpt><trkpt lat="43.519959906561475" lon="11.29383852832627"><ele>272.0</ele><time>2026-04-26T09:29:27.999Z</time></trkpt><trkpt lat="43.52005332329182" lon="11.293908176802884"><ele>272.0</ele><time>2026-04-26T09:29:28.999Z</time></trkpt><trkpt lat="43.52016240237638" lon="11.293927076625282"><ele>272.0</ele><time>2026-04-26T09:29:29.999Z</time></trkpt><trkpt lat="43.52027703357669" lon="11.293934725832699"><ele>274.75</ele><time>2026-04-26T09:29:30.999Z</time></trkpt><trkpt lat="43.52039369225818" lon="11.293974210521817"><ele>277.5</ele><time>2026-04-26T09:29:31.999Z</time></trkpt><trkpt lat="43.520510985649146" lon="11.294024848911734"><ele>280.25</ele><time>2026-04-26T09:29:32.999Z</time></trkpt><trkpt lat="43.52063631397133" lon="11.29407839963521"><ele>283.0</ele><time>2026-04-26T09:29:33.999Z</time></trkpt><trkpt lat="43.52076644480615" lon="11.294127022300758"><ele>283.25</ele><time>2026-04-26T09:29:34.999Z</time></trkpt><trkpt lat="43.52090072746779" lon="11.294166033228743"><ele>283.5</ele><time>2026-04-26T09:29:35.999Z</time></trkpt><trkpt lat="43.52103402233966" lon="11.294207569179003"><ele>283.75</ele><time>2026-04-26T09:29:36.999Z</time></trkpt><trkpt lat="43.52116658410402" lon="11.294255226465687"><ele>284.0</ele><time>2026-04-26T09:29:37.999Z</time></trkpt><trkpt lat="43.521295249194075" lon="11.294300510993288"><ele>282.75</ele><time>2026-04-26T09:29:38.999Z</time></trkpt><trkpt lat="43.521412814912814" lon="11.294352147222783"><ele>281.5</ele><time>2026-04-26T09:29:39.999Z</time></trkpt><trkpt lat="43.5215131990438" lon="11.294436267533401"><ele>280.25</ele><time>2026-04-26T09:29:40.999Z</time></trkpt><trkpt lat="43.52156784837599" lon="11.294572557931867"><ele>279.0</ele><time>2026-04-26T09:29:41.999Z</time></trkpt><trkpt lat="43.52156137613538" lon="11.294714850882576"><ele>283.0</ele><time>2026-04-26T09:29:42.999Z</time></trkpt><trkpt lat="43.52149928529706" lon="11.29483212985346"><ele>287.0</ele><time>2026-04-26T09:29:43.999Z</time></trkpt><trkpt lat="43.52138144732616" lon="11.294847466034412"><ele>291.0</ele><time>2026-04-26T09:29:44.999Z</time></trkpt><trkpt lat="43.5212818081416" lon="11.294829794942212"><ele>295.0</ele><time>2026-04-26T09:29:45.999Z</time></trkpt><trkpt lat="43.521154442387235" lon="11.294815702965176"><ele>296.75</ele><time>2026-04-26T09:29:47Z</time></trkpt><trkpt lat="43.52102819545778" lon="11.294779371394606"><ele>298.5</ele><time>2026-04-26T09:29:48Z</time></trkpt><trkpt lat="43.52088889704565" lon="11.294750224094456"><ele>300.25</ele><time>2026-04-26T09:29:49Z</time></trkpt><trkpt lat="43.520748692304366" lon="11.294699609707898"><ele>302.0</ele><time>2026-04-26T09:29:50Z</time></trkpt><trkpt lat="43.52061749174073" lon="11.294623787181017"><ele>297.5</ele><time>2026-04-26T09:29:51Z</time></trkpt><trkpt lat="43.52050013235252" lon="11.29454682339241"><ele>293.0</ele><time>2026-04-26T09:29:52Z</time></trkpt><trkpt lat="43.52037719336775" lon="11.294513504095706"><ele>288.5</ele><time>2026-04-26T09:29:53Z</time></trkpt><trkpt lat="43.52024080245711" lon="11.29453653129579"><ele>284.0</ele><time>2026-04-26T09:29:54Z</time></trkpt><trkpt lat="43.5201019760426" lon="11.29463507626246"><ele>283.75</ele><time>2026-04-26T09:29:55Z</time></trkpt><trkpt lat="43.51997859139751" lon="11.294751516765096"><ele>283.5</ele><time>2026-04-26T09:29:56Z</time></trkpt><trkpt lat="43.519858783743416" lon="11.294860663019351"><ele>283.25</ele><time>2026-04-26T09:29:57Z</time></trkpt><trkpt lat="43.51975262490886" lon="11.2949779438915"><ele>283.0</ele><time>2026-04-26T09:29:58Z</time></trkpt><trkpt lat="43.51966959769946" lon="11.295120553028008"><ele>288.0</ele><time>2026-04-26T09:29:59Z</time></trkpt><trkpt lat="43.51961128608248" lon="11.29529011363156"><ele>293.0</ele><time>2026-04-26T09:30:00Z</time></trkpt><trkpt lat="43.51958447324015" lon="11.295473390097339"><ele>298.0</ele><time>2026-04-26T09:30:01Z</time></trkpt><trkpt lat="43.5196014134882" lon="11.295678019414648"><ele>303.0</ele><time>2026-04-26T09:30:02Z</time></trkpt><trkpt lat="43.519647908642916" lon="11.295879602415042"><ele>305.3333333333333</ele><time>2026-04-26T09:30:03Z</time></trkpt><trkpt lat="43.519735124366704" lon="11.296064044709535"><ele>307.66666666666663</ele><time>2026-04-26T09:30:04Z</time></trkpt><trkpt lat="43.519856496295255" lon="11.296224492966912"><ele>310.0</ele><time>2026-04-26T09:30:05Z</time></trkpt><trkpt lat="43.519981044448336" lon="11.296392274879308"><ele>307.3333333333333</ele><time>2026-04-26T09:30:06Z</time></trkpt><trkpt lat="43.52008840253557" lon="11.296587439728734"><ele>304.6666666666667</ele><time>2026-04-26T09:30:07Z</time></trkpt><trkpt lat="43.52022145691206" lon="11.296759201337727"><ele>302.0</ele><time>2026-04-26T09:30:08Z</time></trkpt><trkpt lat="43.520341109958935" lon="11.29695200608178"><ele>307.6666666666667</ele><time>2026-04-26T09:30:09Z</time></trkpt><trkpt lat="43.52046311531955" lon="11.29714505066181"><ele>313.3333333333333</ele><time>2026-04-26T09:30:10Z</time></trkpt><trkpt lat="43.52058614537956" lon="11.297333375963992"><ele>319.0</ele><time>2026-04-26T09:30:11Z</time></trkpt><trkpt lat="43.52070302560316" lon="11.297509455514158"><ele>319.0</ele><time>2026-04-26T09:30:12Z</time></trkpt><trkpt lat="43.520811228359534" lon="11.297676475146925"><ele>319.0</ele><time>2026-04-26T09:30:13Z</time></trkpt><trkpt lat="43.52091885422006" lon="11.297839292158285"><ele>319.0</ele><time>2026-04-26T09:30:14Z</time></trkpt><trkpt lat="43.521026498104014" lon="11.29798179143136"><ele>319.0</ele><time>2026-04-26T09:30:15Z</time></trkpt><trkpt lat="43.52116020029891" lon="11.298062009868831"><ele>319.0</ele><time>2026-04-26T09:30:16Z</time></trkpt><trkpt lat="43.52132293104911" lon="11.298083062093943"><ele>319.0</ele><time>2026-04-26T09:30:17Z</time></trkpt><trkpt lat="43.521491963708854" lon="11.298064799909508"><ele>319.3333333333333</ele><time>2026-04-26T09:30:18Z</time></trkpt><trkpt lat="43.52165737069311" lon="11.298070403272225"><ele>319.6666666666667</ele><time>2026-04-26T09:30:19Z</time></trkpt><trkpt lat="43.52182535072259" lon="11.298106447153884"><ele>320.0</ele><time>2026-04-26T09:30:20Z</time></trkpt><trkpt lat="43.52199413990663" lon="11.29818195005981"><ele>324.33333333333337</ele><time>2026-04-26T09:30:21Z</time></trkpt><trkpt lat="43.52214521730373" lon="11.298321632138245"><ele>328.6666666666667</ele><time>2026-04-26T09:30:22Z</time></trkpt><trkpt lat="43.52230238889665" lon="11.298446625557938"><ele>333.0</ele><time>2026-04-26T09:30:23Z</time></trkpt><trkpt lat="43.52245568720496" lon="11.298582632163413"><ele>333.0</ele><time>2026-04-26T09:30:24Z</time></trkpt><trkpt lat="43.522613809279605" lon="11.29871085027703"><ele>333.0</ele><time>2026-04-26T09:30:25Z</time></trkpt><trkpt lat="43.522784287439215" lon="11.298833211770605"><ele>333.0</ele><time>2026-04-26T09:30:26Z</time></trkpt><trkpt lat="43.52294925687084" lon="11.298980566203047"><ele>335.0</ele><time>2026-04-26T09:30:27Z</time></trkpt><trkpt lat="43.52309217164347" lon="11.299111211595338"><ele>337.0</ele><time>2026-04-26T09:30:28Z</time></trkpt><trkpt lat="43.523249245369065" lon="11.29924655296114"><ele>339.0</ele><time>2026-04-26T09:30:29Z</time></trkpt><trkpt lat="43.523401966036836" lon="11.299377170932708"><ele>339.0</ele><time>2026-04-26T09:30:30Z</time></trkpt><trkpt lat="43.52354810683873" lon="11.299503914717802"><ele>339.0</ele><time>2026-04-26T09:30:31Z</time></trkpt><trkpt lat="43.5236884092146" lon="11.299625898980903"><ele>339.0</ele><time>2026-04-26T09:30:32Z</time></trkpt><trkpt lat="43.523821370045624" lon="11.299741710120914"><ele>341.25</ele><time>2026-04-26T09:30:33Z</time></trkpt><trkpt lat="43.52395194465143" lon="11.299847555536992"><ele>343.5</ele><time>2026-04-26T09:30:34Z</time></trkpt><trkpt lat="43.52407502767363" lon="11.299957282759664"><ele>345.75</ele><time>2026-04-26T09:30:35Z</time></trkpt><trkpt lat="43.524169216656816" lon="11.30010522618955"><ele>348.0</ele><time>2026-04-26T09:30:36Z</time></trkpt><trkpt lat="43.52422725075273" lon="11.300286450731932"><ele>348.0</ele><time>2026-04-26T09:30:37Z</time></trkpt><trkpt lat="43.524237900126614" lon="11.300501876023796"><ele>348.0</ele><time>2026-04-26T09:30:38Z</time></trkpt><trkpt lat="43.524184984498405" lon="11.300703165751306"><ele>348.0</ele><time>2026-04-26T09:30:39Z</time></trkpt><trkpt lat="43.52413570147872" lon="11.300902390628693"><ele>347.75</ele><time>2026-04-26T09:30:40Z</time></trkpt><trkpt lat="43.52409078229369" lon="11.301071212658195"><ele>347.5</ele><time>2026-04-26T09:30:41Z</time></trkpt><trkpt lat="43.52410135520585" lon="11.301226788709561"><ele>347.25</ele><time>2026-04-26T09:30:42Z</time></trkpt><trkpt lat="43.524163130700096" lon="11.301349931360397"><ele>347.0</ele><time>2026-04-26T09:30:43Z</time></trkpt><trkpt lat="43.52424750420523" lon="11.301430878041831"><ele>346.6</ele><time>2026-04-26T09:30:44Z</time></trkpt><trkpt lat="43.524331353071034" lon="11.301499700133936"><ele>346.20000000000005</ele><time>2026-04-26T09:30:45Z</time></trkpt><trkpt lat="43.52440050045408" lon="11.301568145051396"><ele>345.8</ele><time>2026-04-26T09:30:46Z</time></trkpt><trkpt lat="43.52447050023137" lon="11.30164444548676"><ele>345.4</ele><time>2026-04-26T09:30:47Z</time></trkpt><trkpt lat="43.52454062487375" lon="11.301722983344378"><ele>345.0</ele><time>2026-04-26T09:30:47.999Z</time></trkpt><trkpt lat="43.52461416268982" lon="11.301804103746415"><ele>347.6</ele><time>2026-04-26T09:30:48.999Z</time></trkpt><trkpt lat="43.524694565484765" lon="11.301887434879077"><ele>350.2</ele><time>2026-04-26T09:30:49.999Z</time></trkpt><trkpt lat="43.524771734573974" lon="11.301969248803385"><ele>352.79999999999995</ele><time>2026-04-26T09:30:50.999Z</time></trkpt><trkpt lat="43.52485429655167" lon="11.30205530409932"><ele>355.4</ele><time>2026-04-26T09:30:51.999Z</time></trkpt><trkpt lat="43.52493821612407" lon="11.302142334796677"><ele>358.0</ele><time>2026-04-26T09:30:52.999Z</time></trkpt><trkpt lat="43.52502107850712" lon="11.30223061016648"><ele>357.4</ele><time>2026-04-26T09:30:53.999Z</time></trkpt><trkpt lat="43.525101438363414" lon="11.302317941773596"><ele>356.79999999999995</ele><time>2026-04-26T09:30:54.999Z</time></trkpt><trkpt lat="43.525178522100035" lon="11.302402566374628"><ele>356.2</ele><time>2026-04-26T09:30:55.999Z</time></trkpt><trkpt lat="43.525249842059154" lon="11.302481605333798"><ele>355.6</ele><time>2026-04-26T09:30:56.999Z</time></trkpt><trkpt lat="43.525317730578365" lon="11.3025586423937"><ele>355.0</ele><time>2026-04-26T09:30:57.999Z</time></trkpt><trkpt lat="43.52538378951391" lon="11.30261963482827"><ele>356.8333333333333</ele><time>2026-04-26T09:30:58.999Z</time></trkpt><trkpt lat="43.525451326475206" lon="11.302667025201929"><ele>358.66666666666663</ele><time>2026-04-26T09:30:59.999Z</time></trkpt><trkpt lat="43.52552947426363" lon="11.302665511144294"><ele>360.5</ele><time>2026-04-26T09:31:00.999Z</time></trkpt><trkpt lat="43.5255989104941" lon="11.302601980577872"><ele>362.3333333333333</ele><time>2026-04-26T09:31:01.999Z</time></trkpt><trkpt lat="43.525627617718285" lon="11.302481792953818"><ele>364.1666666666667</ele><time>2026-04-26T09:31:02.999Z</time></trkpt><trkpt lat="43.525643025709726" lon="11.30235995182464"><ele>366.0</ele><time>2026-04-26T09:31:03.999Z</time></trkpt><trkpt lat="43.52563572308363" lon="11.302232306567962"><ele>366.6</ele><time>2026-04-26T09:31:04.999Z</time></trkpt><trkpt lat="43.52560799799804" lon="11.302102974683635"><ele>367.20000000000005</ele><time>2026-04-26T09:31:05.999Z</time></trkpt><trkpt lat="43.525561699393705" lon="11.301981727390478"><ele>367.79999999999995</ele><time>2026-04-26T09:31:06.999Z</time></trkpt><trkpt lat="43.52549110235315" lon="11.301874918458473"><ele>368.4</ele><time>2026-04-26T09:31:07.999Z</time></trkpt><trkpt lat="43.52540574235422" lon="11.301784643206778"><ele>369.0</ele><time>2026-04-26T09:31:08.999Z</time></trkpt><trkpt lat="43.52531327595793" lon="11.301695794362129"><ele>367.5</ele><time>2026-04-26T09:31:09.999Z</time></trkpt><trkpt lat="43.52522448305401" lon="11.301599738569957"><ele>366.0</ele><time>2026-04-26T09:31:10.999Z</time></trkpt><trkpt lat="43.52513594081188" lon="11.301500736591484"><ele>364.5</ele><time>2026-04-26T09:31:11.999Z</time></trkpt><trkpt lat="43.525048051338594" lon="11.301403034860721"><ele>363.0</ele><time>2026-04-26T09:31:12.999Z</time></trkpt><trkpt lat="43.52496713898967" lon="11.301300605972456"><ele>363.0</ele><time>2026-04-26T09:31:13.999Z</time></trkpt><trkpt lat="43.52492379315145" lon="11.301169018601158"><ele>363.0</ele><time>2026-04-26T09:31:14.999Z</time></trkpt><trkpt lat="43.52489552219892" lon="11.301043229556592"><ele>363.0</ele><time>2026-04-26T09:31:15.999Z</time></trkpt><trkpt lat="43.52487663879648" lon="11.300916289277168"><ele>363.0</ele><time>2026-04-26T09:31:16.999Z</time></trkpt><trkpt lat="43.52489446198589" lon="11.30078538063244"><ele>363.0</ele><time>2026-04-26T09:31:17.999Z</time></trkpt><trkpt lat="43.5249222066959" lon="11.30065817131056"><ele>363.2</ele><time>2026-04-26T09:31:18.999Z</time></trkpt><trkpt lat="43.52495260964414" lon="11.300530384750408"><ele>363.4</ele><time>2026-04-26T09:31:19.999Z</time></trkpt><trkpt lat="43.5249997300206" lon="11.300411548702728"><ele>363.59999999999997</ele><time>2026-04-26T09:31:20.999Z</time></trkpt><trkpt lat="43.52503311392967" lon="11.300281784089664"><ele>363.79999999999995</ele><time>2026-04-26T09:31:21.999Z</time></trkpt><trkpt lat="43.52506719454884" lon="11.300151455324578"><ele>364.0</ele><time>2026-04-26T09:31:22.999Z</time></trkpt><trkpt lat="43.52509069779518" lon="11.300013080550162"><ele>364.0</ele><time>2026-04-26T09:31:23.999Z</time></trkpt><trkpt lat="43.52515312931747" lon="11.299893058253783"><ele>364.0</ele><time>2026-04-26T09:31:24.999Z</time></trkpt><trkpt lat="43.52522781615184" lon="11.299807636313359"><ele>364.0</ele><time>2026-04-26T09:31:25.999Z</time></trkpt><trkpt lat="43.52531614632644" lon="11.299750635372833"><ele>364.0</ele><time>2026-04-26T09:31:26.999Z</time></trkpt><trkpt lat="43.52542390161329" lon="11.299750967889187"><ele>364.0</ele><time>2026-04-26T09:31:27.999Z</time></trkpt><trkpt lat="43.52552314231491" lon="11.299727614081595"><ele>365.6</ele><time>2026-04-26T09:31:28.999Z</time></trkpt><trkpt lat="43.52562039554546" lon="11.299743808489147"><ele>367.2</ele><time>2026-04-26T09:31:29.999Z</time></trkpt><trkpt lat="43.52571446745595" lon="11.299753730191036"><ele>368.8</ele><time>2026-04-26T09:31:30.999Z</time></trkpt><trkpt lat="43.525807796201164" lon="11.299765596338926"><ele>370.40000000000003</ele><time>2026-04-26T09:31:31.999Z</time></trkpt><trkpt lat="43.52590318617063" lon="11.299783232690174"><ele>372.0</ele><time>2026-04-26T09:31:32.999Z</time></trkpt><trkpt lat="43.52600054621204" lon="11.299811590714164"><ele>372.0</ele><time>2026-04-26T09:31:33.999Z</time></trkpt><trkpt lat="43.52609819903474" lon="11.299864519475664"><ele>372.0</ele><time>2026-04-26T09:31:34.999Z</time></trkpt><trkpt lat="43.52617958212101" lon="11.299946601877055"><ele>372.0</ele><time>2026-04-26T09:31:35.999Z</time></trkpt><trkpt lat="43.526241911137056" lon="11.30005263217384"><ele>372.0</ele><time>2026-04-26T09:31:36.999Z</time></trkpt><trkpt lat="43.52629207119629" lon="11.30017212954464"><ele>372.0</ele><time>2026-04-26T09:31:37.999Z</time></trkpt><trkpt lat="43.52633434289947" lon="11.300289262549054"><ele>372.0</ele><time>2026-04-26T09:31:38.999Z</time></trkpt><trkpt lat="43.52637789815261" lon="11.300404238814089"><ele>372.0</ele><time>2026-04-26T09:31:39.999Z</time></trkpt><trkpt lat="43.526422145323124" lon="11.30051708012363"><ele>372.0</ele><time>2026-04-26T09:31:40.999Z</time></trkpt><trkpt lat="43.52646518895919" lon="11.300630222695727"><ele>372.0</ele><time>2026-04-26T09:31:41.999Z</time></trkpt><trkpt lat="43.52650667309643" lon="11.300742891930906"><ele>372.0</ele><time>2026-04-26T09:31:42.999Z</time></trkpt><trkpt lat="43.52654161978958" lon="11.300867764212953"><ele>372.0</ele><time>2026-04-26T09:31:43.999Z</time></trkpt><trkpt lat="43.52656268011328" lon="11.301012176946383"><ele>372.0</ele><time>2026-04-26T09:31:44.999Z</time></trkpt><trkpt lat="43.526574353907336" lon="11.301175704755115"><ele>372.0</ele><time>2026-04-26T09:31:45.999Z</time></trkpt><trkpt lat="43.52658858983841" lon="11.301349579957426"><ele>372.0</ele><time>2026-04-26T09:31:46.999Z</time></trkpt><trkpt lat="43.526606677726186" lon="11.301525969907185"><ele>372.75</ele><time>2026-04-26T09:31:47.999Z</time></trkpt><trkpt lat="43.5266227637438" lon="11.301707589333315"><ele>373.5</ele><time>2026-04-26T09:31:48.999Z</time></trkpt><trkpt lat="43.52663656180224" lon="11.301883003217622"><ele>374.25</ele><time>2026-04-26T09:31:49.999Z</time></trkpt><trkpt lat="43.52665666473121" lon="11.302036414972873"><ele>375.0</ele><time>2026-04-26T09:31:50.999Z</time></trkpt><trkpt lat="43.52669058420985" lon="11.302167484492701"><ele>375.8</ele><time>2026-04-26T09:31:51.999Z</time></trkpt><trkpt lat="43.52673566458913" lon="11.30227311310086"><ele>376.6</ele><time>2026-04-26T09:31:53Z</time></trkpt><trkpt lat="43.52679311537332" lon="11.302370083081756"><ele>377.4</ele><time>2026-04-26T09:31:54Z</time></trkpt><trkpt lat="43.5268564977372" lon="11.302460337895836"><ele>378.2</ele><time>2026-04-26T09:31:55Z</time></trkpt><trkpt lat="43.526921783134284" lon="11.302554299560407"><ele>379.0</ele><time>2026-04-26T09:31:56Z</time></trkpt><trkpt lat="43.52699002725118" lon="11.30265461144947"><ele>378.0</ele><time>2026-04-26T09:31:57Z</time></trkpt><trkpt lat="43.52706114091805" lon="11.302757958382074"><ele>377.0</ele><time>2026-04-26T09:31:58Z</time></trkpt><trkpt lat="43.52713537209174" lon="11.302865276896904"><ele>376.0</ele><time>2026-04-26T09:31:59Z</time></trkpt><trkpt lat="43.527214569211736" lon="11.302970111612934"><ele>375.0</ele><time>2026-04-26T09:32:00Z</time></trkpt><trkpt lat="43.52729876711068" lon="11.303062127978276"><ele>374.0</ele><time>2026-04-26T09:32:01Z</time></trkpt><trkpt lat="43.52738757395549" lon="11.303131067336716"><ele>377.0</ele><time>2026-04-26T09:32:02Z</time></trkpt><trkpt lat="43.52748380083725" lon="11.303172974638999"><ele>380.0</ele><time>2026-04-26T09:32:03Z</time></trkpt><trkpt lat="43.527576663331345" lon="11.303229340227146"><ele>383.0</ele><time>2026-04-26T09:32:04Z</time></trkpt><trkpt lat="43.527665456348515" lon="11.303265113623931"><ele>386.0</ele><time>2026-04-26T09:32:05Z</time></trkpt><trkpt lat="43.52773943763089" lon="11.303308651537748"><ele>389.0</ele><time>2026-04-26T09:32:06Z</time></trkpt><trkpt lat="43.52780494076635" lon="11.303373017891094"><ele>388.99999999999994</ele><time>2026-04-26T09:32:07Z</time></trkpt><trkpt lat="43.52785691115465" lon="11.303464465741897"><ele>389.0</ele><time>2026-04-26T09:32:08Z</time></trkpt><trkpt lat="43.52791789549544" lon="11.303543088807757"><ele>389.0</ele><time>2026-04-26T09:32:09Z</time></trkpt><trkpt lat="43.527960936643865" lon="11.303631815908977"><ele>389.0</ele><time>2026-04-26T09:32:10Z</time></trkpt><trkpt lat="43.528006917610575" lon="11.303728338819434"><ele>388.99999999999994</ele><time>2026-04-26T09:32:11Z</time></trkpt><trkpt lat="43.52805833381769" lon="11.303827847483157"><ele>389.0</ele><time>2026-04-26T09:32:12Z</time></trkpt><trkpt lat="43.528125590369605" lon="11.30392028314827"><ele>390.6</ele><time>2026-04-26T09:32:13Z</time></trkpt><trkpt lat="43.52820556754731" lon="11.304008601460477"><ele>392.2</ele><time>2026-04-26T09:32:14Z</time></trkpt><trkpt lat="43.52830229780946" lon="11.304057954595654"><ele>393.8</ele><time>2026-04-26T09:32:15Z</time></trkpt><trkpt lat="43.52841586560364" lon="11.30401097083005"><ele>395.40000000000003</ele><time>2026-04-26T09:32:16Z</time></trkpt><trkpt lat="43.52851508248805" lon="11.303964959966828"><ele>397.0</ele><time>2026-04-26T09:32:17Z</time></trkpt><trkpt lat="43.528597972429154" lon="11.30392080291678"><ele>394.6</ele><time>2026-04-26T09:32:18Z</time></trkpt><trkpt lat="43.5286771324712" lon="11.303882896306607"><ele>392.20000000000005</ele><time>2026-04-26T09:32:19Z</time></trkpt><trkpt lat="43.52875768830317" lon="11.30385687840336"><ele>389.8</ele><time>2026-04-26T09:32:20Z</time></trkpt><trkpt lat="43.52885441076081" lon="11.303847983735572"><ele>387.4</ele><time>2026-04-26T09:32:21Z</time></trkpt><trkpt lat="43.528957062214104" lon="11.303859619643625"><ele>385.0</ele><time>2026-04-26T09:32:22Z</time></trkpt><trkpt lat="43.52906479212087" lon="11.303877173176959"><ele>385.0</ele><time>2026-04-26T09:32:23Z</time></trkpt><trkpt lat="43.529173998993485" lon="11.303899007577606"><ele>385.0</ele><time>2026-04-26T09:32:24Z</time></trkpt><trkpt lat="43.529280428457795" lon="11.303920776285024"><ele>385.0</ele><time>2026-04-26T09:32:25Z</time></trkpt><trkpt lat="43.52938979111299" lon="11.303941860023166"><ele>385.0</ele><time>2026-04-26T09:32:26Z</time></trkpt><trkpt lat="43.52950170638446" lon="11.303958167676246"><ele>385.0</ele><time>2026-04-26T09:32:27Z</time></trkpt><trkpt lat="43.52962047948946" lon="11.303968870545084"><ele>386.0</ele><time>2026-04-26T09:32:28Z</time></trkpt><trkpt lat="43.52976062375741" lon="11.30396100309611"><ele>387.0</ele><time>2026-04-26T09:32:29Z</time></trkpt><trkpt lat="43.52992690873568" lon="11.303912324014638"><ele>388.0</ele><time>2026-04-26T09:32:30Z</time></trkpt><trkpt lat="43.53008400876236" lon="11.303829165336381"><ele>388.0</ele><time>2026-04-26T09:32:31Z</time></trkpt><trkpt lat="43.530262467622975" lon="11.303814260459884"><ele>388.0</ele><time>2026-04-26T09:32:32Z</time></trkpt><trkpt lat="43.53044421939676" lon="11.303819555967271"><ele>388.0</ele><time>2026-04-26T09:32:33Z</time></trkpt><trkpt lat="43.53062797034739" lon="11.303846363902482"><ele>395.6666666666667</ele><time>2026-04-26T09:32:34Z</time></trkpt><trkpt lat="43.53079856563317" lon="11.303914438935818"><ele>403.33333333333337</ele><time>2026-04-26T09:32:35Z</time></trkpt><trkpt lat="43.530959155964894" lon="11.30397483560076"><ele>411.0</ele><time>2026-04-26T09:32:36Z</time></trkpt><trkpt lat="43.53111981398923" lon="11.304060060279756"><ele>407.66666666666663</ele><time>2026-04-26T09:32:37Z</time></trkpt><trkpt lat="43.531288294362625" lon="11.304143719828717"><ele>404.3333333333333</ele><time>2026-04-26T09:32:38Z</time></trkpt><trkpt lat="43.53142568342542" lon="11.304286752429748"><ele>401.0</ele><time>2026-04-26T09:32:39Z</time></trkpt><trkpt lat="43.53156562469958" lon="11.304415469177881"><ele>401.0</ele><time>2026-04-26T09:32:40Z</time></trkpt><trkpt lat="43.53169060384852" lon="11.304535271719512"><ele>401.0</ele><time>2026-04-26T09:32:41Z</time></trkpt><trkpt lat="43.53177608226315" lon="11.304683249515309"><ele>401.0</ele><time>2026-04-26T09:32:42Z</time></trkpt><trkpt lat="43.53183140249545" lon="11.304845624759432"><ele>401.0</ele><time>2026-04-26T09:32:43Z</time></trkpt><trkpt lat="43.53184749185374" lon="11.305033055525955"><ele>404.5</ele><time>2026-04-26T09:32:44Z</time></trkpt><trkpt lat="43.53183965180109" lon="11.305231043546113"><ele>408.0</ele><time>2026-04-26T09:32:45Z</time></trkpt><trkpt lat="43.53183257294758" lon="11.305423413085641"><ele>411.5</ele><time>2026-04-26T09:32:46Z</time></trkpt><trkpt lat="43.53182780291339" lon="11.305610404170626"><ele>415.0</ele><time>2026-04-26T09:32:47Z</time></trkpt><trkpt lat="43.5318246082528" lon="11.305790285628728"><ele>416.25</ele><time>2026-04-26T09:32:48Z</time></trkpt><trkpt lat="43.53182248454189" lon="11.305969640441173"><ele>417.5</ele><time>2026-04-26T09:32:49Z</time></trkpt><trkpt lat="43.53182250331234" lon="11.306158120563804"><ele>418.75</ele><time>2026-04-26T09:32:50Z</time></trkpt><trkpt lat="43.53182563127096" lon="11.30634740541385"><ele>420.0</ele><time>2026-04-26T09:32:51Z</time></trkpt><trkpt lat="43.531853498626994" lon="11.306535834041728"><ele>421.25</ele><time>2026-04-26T09:32:52Z</time></trkpt><trkpt lat="43.53191553228016" lon="11.306713919215628"><ele>422.5</ele><time>2026-04-26T09:32:53Z</time></trkpt><trkpt lat="43.53199482201797" lon="11.306875627827683"><ele>423.75</ele><time>2026-04-26T09:32:54Z</time></trkpt><trkpt lat="43.53208156158006" lon="11.307034706844515"><ele>425.0</ele><time>2026-04-26T09:32:55Z</time></trkpt><trkpt lat="43.532159138828426" lon="11.307185580860638"><ele>421.5</ele><time>2026-04-26T09:32:56Z</time></trkpt><trkpt lat="43.53223961559124" lon="11.30734581307996"><ele>418.0</ele><time>2026-04-26T09:32:57Z</time></trkpt><trkpt lat="43.532314862091816" lon="11.307507503302128"><ele>414.5</ele><time>2026-04-26T09:32:58Z</time></trkpt><trkpt lat="43.53237787198762" lon="11.307680269475625"><ele>411.0</ele><time>2026-04-26T09:32:59Z</time></trkpt><trkpt lat="43.53242678812936" lon="11.30787884919147"><ele>413.33333333333337</ele><time>2026-04-26T09:33:00Z</time></trkpt><trkpt lat="43.53246872526629" lon="11.308090224431293"><ele>415.6666666666667</ele><time>2026-04-26T09:33:01Z</time></trkpt><trkpt lat="43.53250693963831" lon="11.308309874755134"><ele>418.0</ele><time>2026-04-26T09:33:01.999Z</time></trkpt><trkpt lat="43.53255132349389" lon="11.308530883063575"><ele>418.0</ele><time>2026-04-26T09:33:02.999Z</time></trkpt><trkpt lat="43.53261623416704" lon="11.308738774130765"><ele>418.0</ele><time>2026-04-26T09:33:03.999Z</time></trkpt><trkpt lat="43.53272198020118" lon="11.308906129282343"><ele>418.0</ele><time>2026-04-26T09:33:04.999Z</time></trkpt><trkpt lat="43.53285780231936" lon="11.309045479437508"><ele>418.0</ele><time>2026-04-26T09:33:05.999Z</time></trkpt><trkpt lat="43.53299706329344" lon="11.309153060444203"><ele>418.0</ele><time>2026-04-26T09:33:06.999Z</time></trkpt><trkpt lat="43.533141960980345" lon="11.309257219904234"><ele>418.0</ele><time>2026-04-26T09:33:07.999Z</time></trkpt><trkpt lat="43.53328193147224" lon="11.309376231530429"><ele>418.0</ele><time>2026-04-26T09:33:08.999Z</time></trkpt><trkpt lat="43.5334170592213" lon="11.309498890491914"><ele>418.0</ele><time>2026-04-26T09:33:09.999Z</time></trkpt><trkpt lat="43.5335515237078" lon="11.309619635602516"><ele>418.0</ele><time>2026-04-26T09:33:10.999Z</time></trkpt><trkpt lat="43.53368462319502" lon="11.309739501477384"><ele>418.0</ele><time>2026-04-26T09:33:11.999Z</time></trkpt><trkpt lat="43.5338147433205" lon="11.309857531418535"><ele>418.0</ele><time>2026-04-26T09:33:12.999Z</time></trkpt><trkpt lat="43.533943142845416" lon="11.309980506834737"><ele>418.0</ele><time>2026-04-26T09:33:13.999Z</time></trkpt><trkpt lat="43.534064945299654" lon="11.31010614680168"><ele>418.0</ele><time>2026-04-26T09:33:14.999Z</time></trkpt><trkpt lat="43.5341788081717" lon="11.310240317308805"><ele>418.0</ele><time>2026-04-26T09:33:15.999Z</time></trkpt><trkpt lat="43.53427580774579" lon="11.310391574176982"><ele>418.0</ele><time>2026-04-26T09:33:16.999Z</time></trkpt><trkpt lat="43.534337382787136" lon="11.310565295364274"><ele>418.0</ele><time>2026-04-26T09:33:17.999Z</time></trkpt><trkpt lat="43.53437167883118" lon="11.310758580442062"><ele>420.5</ele><time>2026-04-26T09:33:18.999Z</time></trkpt><trkpt lat="43.534384691070414" lon="11.310953633632591"><ele>423.0</ele><time>2026-04-26T09:33:19.999Z</time></trkpt><trkpt lat="43.534401716234264" lon="11.31114635943625"><ele>425.5</ele><time>2026-04-26T09:33:20.999Z</time></trkpt><trkpt lat="43.53442601850626" lon="11.311329613876165"><ele>428.0</ele><time>2026-04-26T09:33:21.999Z</time></trkpt><trkpt lat="43.53445782443286" lon="11.311505648613917"><ele>430.0</ele><time>2026-04-26T09:33:22.999Z</time></trkpt><trkpt lat="43.534504880141995" lon="11.311675592386207"><ele>432.0</ele><time>2026-04-26T09:33:23.999Z</time></trkpt><trkpt lat="43.53456347536942" lon="11.311835452936526"><ele>434.0</ele><time>2026-04-26T09:33:24.999Z</time></trkpt><trkpt lat="43.53463377264792" lon="11.311963814167052"><ele>436.0</ele><time>2026-04-26T09:33:25.999Z</time></trkpt><trkpt lat="43.534697421165234" lon="11.312048512043306"><ele>435.50000000000006</ele><time>2026-04-26T09:33:26.999Z</time></trkpt><trkpt lat="43.53475147225291" lon="11.312116566766607"><ele>435.0</ele><time>2026-04-26T09:33:27.999Z</time></trkpt><trkpt lat="43.53480361241032" lon="11.312188728720542"><ele>434.5</ele><time>2026-04-26T09:33:28.999Z</time></trkpt><trkpt lat="43.534852891041616" lon="11.312257461256175"><ele>434.0</ele><time>2026-04-26T09:33:29.999Z</time></trkpt><trkpt lat="43.53490445945235" lon="11.312331569815798"><ele>433.50000000000006</ele><time>2026-04-26T09:33:30.999Z</time></trkpt><trkpt lat="43.534960899769" lon="11.312408752369294"><ele>433.0</ele><time>2026-04-26T09:33:31.999Z</time></trkpt><trkpt lat="43.53502098851602" lon="11.312489385038397"><ele>433.00000000000006</ele><time>2026-04-26T09:33:32.999Z</time></trkpt><trkpt lat="43.53508434034957" lon="11.312571976329313"><ele>433.0</ele><time>2026-04-26T09:33:33.999Z</time></trkpt><trkpt lat="43.53514498504232" lon="11.31265261050947"><ele>433.0</ele><time>2026-04-26T09:33:34.999Z</time></trkpt><trkpt lat="43.53519790752488" lon="11.312720895031024"><ele>433.0</ele><time>2026-04-26T09:33:35.999Z</time></trkpt><trkpt lat="43.535244037483125" lon="11.312781500898193"><ele>433.00000000000006</ele><time>2026-04-26T09:33:36.999Z</time></trkpt><trkpt lat="43.535319723859985" lon="11.312881825533694"><ele>433.0</ele><time>2026-04-26T09:33:38.999Z</time></trkpt><trkpt lat="43.535378671787115" lon="11.312960694832803"><ele>431.79999999999995</ele><time>2026-04-26T09:33:40.999Z</time></trkpt><trkpt lat="43.53544869640441" lon="11.313050357452138"><ele>430.59999999999997</ele><time>2026-04-26T09:33:42.999Z</time></trkpt><trkpt lat="43.53549823517129" lon="11.31314380273933"><ele>429.40000000000003</ele><time>2026-04-26T09:33:43.999Z</time></trkpt><trkpt lat="43.53557752351376" lon="11.313249800614773"><ele>428.20000000000005</ele><time>2026-04-26T09:33:44.999Z</time></trkpt><trkpt lat="43.53566479480021" lon="11.313366470824707"><ele>427.0</ele><time>2026-04-26T09:33:45.999Z</time></trkpt><trkpt lat="43.53576260908253" lon="11.313497099215462"><ele>427.0</ele><time>2026-04-26T09:33:46.999Z</time></trkpt><trkpt lat="43.53587902993497" lon="11.313623176596842"><ele>427.0</ele><time>2026-04-26T09:33:47.999Z</time></trkpt><trkpt lat="43.53598584785797" lon="11.31377104162075"><ele>427.0</ele><time>2026-04-26T09:33:48.999Z</time></trkpt><trkpt lat="43.5360959577703" lon="11.313922178433463"><ele>428.0</ele><time>2026-04-26T09:33:49.999Z</time></trkpt><trkpt lat="43.536202562697575" lon="11.314075904859719"><ele>429.0</ele><time>2026-04-26T09:33:50.999Z</time></trkpt><trkpt lat="43.53629709944512" lon="11.314235105290257"><ele>430.0</ele><time>2026-04-26T09:33:51.999Z</time></trkpt><trkpt lat="43.536361648514614" lon="11.31439324152178"><ele>431.0</ele><time>2026-04-26T09:33:52.999Z</time></trkpt><trkpt lat="43.536409322922076" lon="11.314543388210211"><ele>431.0</ele><time>2026-04-26T09:33:53.999Z</time></trkpt><trkpt lat="43.53645483969467" lon="11.314677098099573"><ele>431.0</ele><time>2026-04-26T09:33:54.999Z</time></trkpt><trkpt lat="43.536505620770164" lon="11.31480459306368"><ele>431.0</ele><time>2026-04-26T09:33:55.999Z</time></trkpt><trkpt lat="43.53656425922602" lon="11.314920775074162"><ele>431.0</ele><time>2026-04-26T09:33:56.999Z</time></trkpt><trkpt lat="43.5366479892208" lon="11.315037745967128"><ele>431.0</ele><time>2026-04-26T09:33:57.999Z</time></trkpt><trkpt lat="43.53674711622714" lon="11.31514545896967"><ele>430.25</ele><time>2026-04-26T09:33:59Z</time></trkpt><trkpt lat="43.5368552485811" lon="11.31525424283904"><ele>429.5</ele><time>2026-04-26T09:34:00Z</time></trkpt><trkpt lat="43.536964364731936" lon="11.315373753315708"><ele>428.75</ele><time>2026-04-26T09:34:01Z</time></trkpt><trkpt lat="43.53706467206915" lon="11.315522105438804"><ele>428.0</ele><time>2026-04-26T09:34:02Z</time></trkpt><trkpt lat="43.53715027629021" lon="11.315689405759322"><ele>431.0</ele><time>2026-04-26T09:34:03Z</time></trkpt><trkpt lat="43.537235926149535" lon="11.315873087043453"><ele>434.0</ele><time>2026-04-26T09:34:04Z</time></trkpt><trkpt lat="43.537318802907116" lon="11.316061499225432"><ele>437.0</ele><time>2026-04-26T09:34:05Z</time></trkpt><trkpt lat="43.53741102512783" lon="11.316231834712402"><ele>437.0</ele><time>2026-04-26T09:34:06Z</time></trkpt><trkpt lat="43.53752273665406" lon="11.316392416871233"><ele>437.0</ele><time>2026-04-26T09:34:07Z</time></trkpt><trkpt lat="43.53765671686129" lon="11.316522945620358"><ele>437.0</ele><time>2026-04-26T09:34:08Z</time></trkpt><trkpt lat="43.537801688963214" lon="11.3166197363105"><ele>439.3333333333333</ele><time>2026-04-26T09:34:09Z</time></trkpt><trkpt lat="43.53795748595913" lon="11.316690195191498"><ele>441.66666666666663</ele><time>2026-04-26T09:34:10Z</time></trkpt><trkpt lat="43.53812302467299" lon="11.316747838879598"><ele>444.0</ele><time>2026-04-26T09:34:11Z</time></trkpt><trkpt lat="43.53828052471662" lon="11.316802938737089"><ele>444.0</ele><time>2026-04-26T09:34:12Z</time></trkpt><trkpt lat="43.53844504115856" lon="11.316863807551565"><ele>444.0</ele><time>2026-04-26T09:34:13Z</time></trkpt><trkpt lat="43.538608803855624" lon="11.31692932552785"><ele>444.0</ele><time>2026-04-26T09:34:14Z</time></trkpt><trkpt lat="43.538770188033055" lon="11.316997222056141"><ele>443.66666666666663</ele><time>2026-04-26T09:34:15Z</time></trkpt><trkpt lat="43.53892948469134" lon="11.317061850379538"><ele>443.3333333333333</ele><time>2026-04-26T09:34:16Z</time></trkpt><trkpt lat="43.539089272523476" lon="11.317129170452217"><ele>443.0</ele><time>2026-04-26T09:34:17Z</time></trkpt><trkpt lat="43.539243935875064" lon="11.317196164165095"><ele>448.0</ele><time>2026-04-26T09:34:18Z</time></trkpt><trkpt lat="43.53939745038053" lon="11.317258655305036"><ele>453.0</ele><time>2026-04-26T09:34:19Z</time></trkpt><trkpt lat="43.5395438406766" lon="11.317312440689806"><ele>458.0</ele><time>2026-04-26T09:34:20Z</time></trkpt><trkpt lat="43.53968739065272" lon="11.317353019037755"><ele>458.5</ele><time>2026-04-26T09:34:21Z</time></trkpt><trkpt lat="43.5398312177902" lon="11.317370238385616"><ele>459.0</ele><time>2026-04-26T09:34:22Z</time></trkpt><trkpt lat="43.539965277127735" lon="11.31734877053806"><ele>459.5</ele><time>2026-04-26T09:34:23Z</time></trkpt><trkpt lat="43.540092905920524" lon="11.317295792306245"><ele>460.0</ele><time>2026-04-26T09:34:24Z</time></trkpt><trkpt lat="43.540217175800834" lon="11.317222191011972"><ele>458.6</ele><time>2026-04-26T09:34:25Z</time></trkpt><trkpt lat="43.540324288885095" lon="11.317148680810579"><ele>457.2</ele><time>2026-04-26T09:34:26Z</time></trkpt><trkpt lat="43.540420278555736" lon="11.317087940310296"><ele>455.79999999999995</ele><time>2026-04-26T09:34:27Z</time></trkpt><trkpt lat="43.5405063106366" lon="11.317055381630679"><ele>454.4</ele><time>2026-04-26T09:34:28Z</time></trkpt><trkpt lat="43.540576939000765" lon="11.317007234732491"><ele>453.0</ele><time>2026-04-26T09:34:29Z</time></trkpt><trkpt lat="43.54064127094283" lon="11.316949679535714"><ele>453.0</ele><time>2026-04-26T09:34:30Z</time></trkpt><trkpt lat="43.54072566169413" lon="11.316937703908408"><ele>453.0</ele><time>2026-04-26T09:34:32Z</time></trkpt><trkpt lat="43.5407960410211" lon="11.316925624954873"><ele>453.0</ele><time>2026-04-26T09:34:56Z</time></trkpt></trkseg></trk></gpx>